<?xml version="1.0" encoding="UTF-8" standalone="no" ?>
<gpx xmlns="http://www.topografix.com/GPX/1/1" xmlns:xsi="http://www.w3.org/2001/XMLSchema-instance" xsi:schemaLocation="http://www.topografix.com/GPX/1/1 http://www.topografix.com/GPX/1/1/gpx.xsd" version="1.1" creator="VisuGPX - https://www.visugpx.com">
  <metadata>
    <name>2018-07-15 Bike ride-Chatillon-Limas 39k</name>
    <desc><![CDATA[2018-07-15 Bike ride-Chatillon-Limas 39k]]></desc>
  </metadata>
  <wpt lat="45.92453" lon="4.73713">
    <ele>174</ele>
    <name><![CDATA[2018-07-15 10:37 (Start)]]></name>
  </wpt>
  <wpt lat="45.92448" lon="4.73691">
    <ele>174</ele>
    <name><![CDATA[2018-07-15 10:37 (End)]]></name>
  </wpt>
  <trk>
    <name><![CDATA[2018-07-15 10:37]]></name>
    <trkseg>
      <trkpt lat="45.92453" lon="4.73713">
        <ele>174</ele>
        <time>2018-07-15T08:37:47.511Z</time>
      </trkpt>
      <trkpt lat="45.92461" lon="4.73713">
        <ele>174</ele>
        <time>2018-07-15T08:38:15Z</time>
      </trkpt>
      <trkpt lat="45.92462" lon="4.73711">
        <ele>174</ele>
        <time>2018-07-15T08:38:16Z</time>
      </trkpt>
      <trkpt lat="45.92465" lon="4.737">
        <ele>174</ele>
        <time>2018-07-15T08:38:19.104Z</time>
      </trkpt>
      <trkpt lat="45.92465" lon="4.73697">
        <ele>174</ele>
        <time>2018-07-15T08:38:20Z</time>
      </trkpt>
      <trkpt lat="45.92467" lon="4.73685">
        <ele>174</ele>
        <time>2018-07-15T08:38:23Z</time>
      </trkpt>
      <trkpt lat="45.92468" lon="4.7368">
        <ele>174</ele>
        <time>2018-07-15T08:38:24Z</time>
      </trkpt>
      <trkpt lat="45.9247" lon="4.73668">
        <ele>174</ele>
        <time>2018-07-15T08:38:25Z</time>
      </trkpt>
      <trkpt lat="45.9247" lon="4.73656">
        <ele>174</ele>
        <time>2018-07-15T08:38:27Z</time>
      </trkpt>
      <trkpt lat="45.9247" lon="4.73651">
        <ele>174</ele>
        <time>2018-07-15T08:38:28Z</time>
      </trkpt>
      <trkpt lat="45.92472" lon="4.73639">
        <ele>174</ele>
        <time>2018-07-15T08:38:30Z</time>
      </trkpt>
      <trkpt lat="45.92476" lon="4.73633">
        <ele>174</ele>
        <time>2018-07-15T08:38:31Z</time>
      </trkpt>
      <trkpt lat="45.92473" lon="4.73626">
        <ele>174</ele>
        <time>2018-07-15T08:38:32Z</time>
      </trkpt>
      <trkpt lat="45.92474" lon="4.73619">
        <ele>174</ele>
        <time>2018-07-15T08:38:33Z</time>
      </trkpt>
      <trkpt lat="45.92473" lon="4.73612">
        <ele>174</ele>
        <time>2018-07-15T08:38:34Z</time>
      </trkpt>
      <trkpt lat="45.92469" lon="4.73604">
        <ele>174</ele>
        <time>2018-07-15T08:38:35Z</time>
      </trkpt>
      <trkpt lat="45.92469" lon="4.73598">
        <ele>174</ele>
        <time>2018-07-15T08:38:36Z</time>
      </trkpt>
      <trkpt lat="45.92469" lon="4.7359">
        <ele>174</ele>
        <time>2018-07-15T08:38:37Z</time>
      </trkpt>
      <trkpt lat="45.92469" lon="4.73578">
        <ele>173</ele>
        <time>2018-07-15T08:38:39Z</time>
      </trkpt>
      <trkpt lat="45.92468" lon="4.73572">
        <ele>173</ele>
        <time>2018-07-15T08:38:40Z</time>
      </trkpt>
      <trkpt lat="45.92468" lon="4.7356">
        <ele>173</ele>
        <time>2018-07-15T08:38:42Z</time>
      </trkpt>
      <trkpt lat="45.92467" lon="4.73558">
        <ele>173</ele>
        <time>2018-07-15T08:38:43Z</time>
      </trkpt>
      <trkpt lat="45.92465" lon="4.73553">
        <ele>173</ele>
        <time>2018-07-15T08:38:45Z</time>
      </trkpt>
      <trkpt lat="45.92459" lon="4.73545">
        <ele>173</ele>
        <time>2018-07-15T08:38:46Z</time>
      </trkpt>
      <trkpt lat="45.92451" lon="4.73548">
        <ele>174</ele>
        <time>2018-07-15T08:38:48Z</time>
      </trkpt>
      <trkpt lat="45.92447" lon="4.7355">
        <ele>174</ele>
        <time>2018-07-15T08:38:49Z</time>
      </trkpt>
      <trkpt lat="45.9244" lon="4.73554">
        <ele>174</ele>
        <time>2018-07-15T08:38:51Z</time>
      </trkpt>
      <trkpt lat="45.92437" lon="4.73556">
        <ele>174</ele>
        <time>2018-07-15T08:38:52Z</time>
      </trkpt>
      <trkpt lat="45.92433" lon="4.7356">
        <ele>174</ele>
        <time>2018-07-15T08:38:53Z</time>
      </trkpt>
      <trkpt lat="45.92428" lon="4.73563">
        <ele>174</ele>
        <time>2018-07-15T08:38:54Z</time>
      </trkpt>
      <trkpt lat="45.92424" lon="4.73565">
        <ele>174</ele>
        <time>2018-07-15T08:38:55Z</time>
      </trkpt>
      <trkpt lat="45.92419" lon="4.73566">
        <ele>174</ele>
        <time>2018-07-15T08:38:56Z</time>
      </trkpt>
      <trkpt lat="45.92414" lon="4.73569">
        <ele>173</ele>
        <time>2018-07-15T08:38:57Z</time>
      </trkpt>
      <trkpt lat="45.9241" lon="4.73572">
        <ele>173</ele>
        <time>2018-07-15T08:38:58Z</time>
      </trkpt>
      <trkpt lat="45.92405" lon="4.73575">
        <ele>173</ele>
        <time>2018-07-15T08:38:59Z</time>
      </trkpt>
      <trkpt lat="45.92401" lon="4.73576">
        <ele>173</ele>
        <time>2018-07-15T08:39:00Z</time>
      </trkpt>
      <trkpt lat="45.92395" lon="4.73579">
        <ele>173</ele>
        <time>2018-07-15T08:39:01Z</time>
      </trkpt>
      <trkpt lat="45.92389" lon="4.73581">
        <ele>173</ele>
        <time>2018-07-15T08:39:02Z</time>
      </trkpt>
      <trkpt lat="45.92385" lon="4.73583">
        <ele>173</ele>
        <time>2018-07-15T08:39:03Z</time>
      </trkpt>
      <trkpt lat="45.92379" lon="4.73584">
        <ele>173</ele>
        <time>2018-07-15T08:39:04Z</time>
      </trkpt>
      <trkpt lat="45.92373" lon="4.73587">
        <ele>173</ele>
        <time>2018-07-15T08:39:05Z</time>
      </trkpt>
      <trkpt lat="45.92368" lon="4.73589">
        <ele>173</ele>
        <time>2018-07-15T08:39:06Z</time>
      </trkpt>
      <trkpt lat="45.92362" lon="4.73592">
        <ele>173</ele>
        <time>2018-07-15T08:39:07Z</time>
      </trkpt>
      <trkpt lat="45.92358" lon="4.73594">
        <ele>173</ele>
        <time>2018-07-15T08:39:08Z</time>
      </trkpt>
      <trkpt lat="45.92349" lon="4.73598">
        <ele>173</ele>
        <time>2018-07-15T08:39:10Z</time>
      </trkpt>
      <trkpt lat="45.92345" lon="4.73601">
        <ele>173</ele>
        <time>2018-07-15T08:39:11Z</time>
      </trkpt>
      <trkpt lat="45.9234" lon="4.73604">
        <ele>173</ele>
        <time>2018-07-15T08:39:12Z</time>
      </trkpt>
      <trkpt lat="45.92335" lon="4.73606">
        <ele>173</ele>
        <time>2018-07-15T08:39:13Z</time>
      </trkpt>
      <trkpt lat="45.9233" lon="4.73608">
        <ele>172</ele>
        <time>2018-07-15T08:39:14Z</time>
      </trkpt>
      <trkpt lat="45.92325" lon="4.73611">
        <ele>172</ele>
        <time>2018-07-15T08:39:15Z</time>
      </trkpt>
      <trkpt lat="45.9232" lon="4.73614">
        <ele>172</ele>
        <time>2018-07-15T08:39:16Z</time>
      </trkpt>
      <trkpt lat="45.92314" lon="4.73619">
        <ele>172</ele>
        <time>2018-07-15T08:39:17Z</time>
      </trkpt>
      <trkpt lat="45.92309" lon="4.73621">
        <ele>172</ele>
        <time>2018-07-15T08:39:18Z</time>
      </trkpt>
      <trkpt lat="45.92303" lon="4.73624">
        <ele>172</ele>
        <time>2018-07-15T08:39:19Z</time>
      </trkpt>
      <trkpt lat="45.92298" lon="4.73627">
        <ele>172</ele>
        <time>2018-07-15T08:39:20Z</time>
      </trkpt>
      <trkpt lat="45.92294" lon="4.73632">
        <ele>172</ele>
        <time>2018-07-15T08:39:21Z</time>
      </trkpt>
      <trkpt lat="45.92289" lon="4.73634">
        <ele>172</ele>
        <time>2018-07-15T08:39:22Z</time>
      </trkpt>
      <trkpt lat="45.92284" lon="4.73637">
        <ele>172</ele>
        <time>2018-07-15T08:39:23Z</time>
      </trkpt>
      <trkpt lat="45.92279" lon="4.7364">
        <ele>172</ele>
        <time>2018-07-15T08:39:24Z</time>
      </trkpt>
      <trkpt lat="45.92274" lon="4.73643">
        <ele>172</ele>
        <time>2018-07-15T08:39:25Z</time>
      </trkpt>
      <trkpt lat="45.92269" lon="4.73646">
        <ele>172</ele>
        <time>2018-07-15T08:39:26Z</time>
      </trkpt>
      <trkpt lat="45.92265" lon="4.73648">
        <ele>171</ele>
        <time>2018-07-15T08:39:27Z</time>
      </trkpt>
      <trkpt lat="45.92261" lon="4.73651">
        <ele>171</ele>
        <time>2018-07-15T08:39:28Z</time>
      </trkpt>
      <trkpt lat="45.92256" lon="4.73654">
        <ele>171</ele>
        <time>2018-07-15T08:39:29Z</time>
      </trkpt>
      <trkpt lat="45.92251" lon="4.73656">
        <ele>171</ele>
        <time>2018-07-15T08:39:30Z</time>
      </trkpt>
      <trkpt lat="45.92247" lon="4.73659">
        <ele>171</ele>
        <time>2018-07-15T08:39:31Z</time>
      </trkpt>
      <trkpt lat="45.92239" lon="4.73663">
        <ele>171</ele>
        <time>2018-07-15T08:39:33Z</time>
      </trkpt>
      <trkpt lat="45.92235" lon="4.73665">
        <ele>171</ele>
        <time>2018-07-15T08:39:34Z</time>
      </trkpt>
      <trkpt lat="45.92232" lon="4.73669">
        <ele>171</ele>
        <time>2018-07-15T08:39:35Z</time>
      </trkpt>
      <trkpt lat="45.92227" lon="4.73672">
        <ele>171</ele>
        <time>2018-07-15T08:39:36Z</time>
      </trkpt>
      <trkpt lat="45.92222" lon="4.73675">
        <ele>171</ele>
        <time>2018-07-15T08:39:37Z</time>
      </trkpt>
      <trkpt lat="45.92218" lon="4.73678">
        <ele>171</ele>
        <time>2018-07-15T08:39:38Z</time>
      </trkpt>
      <trkpt lat="45.92212" lon="4.73682">
        <ele>171</ele>
        <time>2018-07-15T08:39:39Z</time>
      </trkpt>
      <trkpt lat="45.92207" lon="4.73685">
        <ele>171</ele>
        <time>2018-07-15T08:39:40Z</time>
      </trkpt>
      <trkpt lat="45.92202" lon="4.73688">
        <ele>171</ele>
        <time>2018-07-15T08:39:41Z</time>
      </trkpt>
      <trkpt lat="45.92196" lon="4.7369">
        <ele>171</ele>
        <time>2018-07-15T08:39:42Z</time>
      </trkpt>
      <trkpt lat="45.9219" lon="4.73693">
        <ele>171</ele>
        <time>2018-07-15T08:39:43Z</time>
      </trkpt>
      <trkpt lat="45.92184" lon="4.73695">
        <ele>171</ele>
        <time>2018-07-15T08:39:44Z</time>
      </trkpt>
      <trkpt lat="45.92179" lon="4.73698">
        <ele>171</ele>
        <time>2018-07-15T08:39:45Z</time>
      </trkpt>
      <trkpt lat="45.92173" lon="4.73701">
        <ele>171</ele>
        <time>2018-07-15T08:39:46Z</time>
      </trkpt>
      <trkpt lat="45.92167" lon="4.73704">
        <ele>171</ele>
        <time>2018-07-15T08:39:47Z</time>
      </trkpt>
      <trkpt lat="45.92162" lon="4.73707">
        <ele>171</ele>
        <time>2018-07-15T08:39:48Z</time>
      </trkpt>
      <trkpt lat="45.92156" lon="4.73708">
        <ele>171</ele>
        <time>2018-07-15T08:39:49Z</time>
      </trkpt>
      <trkpt lat="45.92151" lon="4.7371">
        <ele>171</ele>
        <time>2018-07-15T08:39:50Z</time>
      </trkpt>
      <trkpt lat="45.92145" lon="4.73712">
        <ele>171</ele>
        <time>2018-07-15T08:39:51Z</time>
      </trkpt>
      <trkpt lat="45.92139" lon="4.73715">
        <ele>171</ele>
        <time>2018-07-15T08:39:52Z</time>
      </trkpt>
      <trkpt lat="45.92133" lon="4.73717">
        <ele>171</ele>
        <time>2018-07-15T08:39:53Z</time>
      </trkpt>
      <trkpt lat="45.92127" lon="4.7372">
        <ele>171</ele>
        <time>2018-07-15T08:39:54Z</time>
      </trkpt>
      <trkpt lat="45.9212" lon="4.73722">
        <ele>171</ele>
        <time>2018-07-15T08:39:55Z</time>
      </trkpt>
      <trkpt lat="45.92115" lon="4.73724">
        <ele>171</ele>
        <time>2018-07-15T08:39:56Z</time>
      </trkpt>
      <trkpt lat="45.92108" lon="4.73726">
        <ele>171</ele>
        <time>2018-07-15T08:39:57Z</time>
      </trkpt>
      <trkpt lat="45.92102" lon="4.73726">
        <ele>171</ele>
        <time>2018-07-15T08:39:58Z</time>
      </trkpt>
      <trkpt lat="45.92095" lon="4.73727">
        <ele>171</ele>
        <time>2018-07-15T08:39:59Z</time>
      </trkpt>
      <trkpt lat="45.92088" lon="4.73728">
        <ele>171</ele>
        <time>2018-07-15T08:40:00Z</time>
      </trkpt>
      <trkpt lat="45.92082" lon="4.73729">
        <ele>171</ele>
        <time>2018-07-15T08:40:01Z</time>
      </trkpt>
      <trkpt lat="45.92075" lon="4.73729">
        <ele>171</ele>
        <time>2018-07-15T08:40:02Z</time>
      </trkpt>
      <trkpt lat="45.92068" lon="4.73729">
        <ele>171</ele>
        <time>2018-07-15T08:40:03Z</time>
      </trkpt>
      <trkpt lat="45.92062" lon="4.7373">
        <ele>171</ele>
        <time>2018-07-15T08:40:04Z</time>
      </trkpt>
      <trkpt lat="45.92056" lon="4.73731">
        <ele>171</ele>
        <time>2018-07-15T08:40:05Z</time>
      </trkpt>
      <trkpt lat="45.9205" lon="4.73731">
        <ele>171</ele>
        <time>2018-07-15T08:40:06Z</time>
      </trkpt>
      <trkpt lat="45.92044" lon="4.73732">
        <ele>171</ele>
        <time>2018-07-15T08:40:07Z</time>
      </trkpt>
      <trkpt lat="45.92037" lon="4.73732">
        <ele>171</ele>
        <time>2018-07-15T08:40:08Z</time>
      </trkpt>
      <trkpt lat="45.92031" lon="4.73732">
        <ele>171</ele>
        <time>2018-07-15T08:40:09Z</time>
      </trkpt>
      <trkpt lat="45.92025" lon="4.73731">
        <ele>171</ele>
        <time>2018-07-15T08:40:10Z</time>
      </trkpt>
      <trkpt lat="45.92017" lon="4.73732">
        <ele>171</ele>
        <time>2018-07-15T08:40:11Z</time>
      </trkpt>
      <trkpt lat="45.9201" lon="4.73733">
        <ele>171</ele>
        <time>2018-07-15T08:40:12Z</time>
      </trkpt>
      <trkpt lat="45.92005" lon="4.73732">
        <ele>171</ele>
        <time>2018-07-15T08:40:13Z</time>
      </trkpt>
      <trkpt lat="45.91998" lon="4.73731">
        <ele>171</ele>
        <time>2018-07-15T08:40:14Z</time>
      </trkpt>
      <trkpt lat="45.91993" lon="4.73731">
        <ele>171</ele>
        <time>2018-07-15T08:40:15Z</time>
      </trkpt>
      <trkpt lat="45.91988" lon="4.73731">
        <ele>171</ele>
        <time>2018-07-15T08:40:16Z</time>
      </trkpt>
      <trkpt lat="45.91982" lon="4.73733">
        <ele>171</ele>
        <time>2018-07-15T08:40:17Z</time>
      </trkpt>
      <trkpt lat="45.91976" lon="4.73733">
        <ele>171</ele>
        <time>2018-07-15T08:40:18Z</time>
      </trkpt>
      <trkpt lat="45.91972" lon="4.73737">
        <ele>171</ele>
        <time>2018-07-15T08:40:19Z</time>
      </trkpt>
      <trkpt lat="45.91966" lon="4.73736">
        <ele>171</ele>
        <time>2018-07-15T08:40:20Z</time>
      </trkpt>
      <trkpt lat="45.91961" lon="4.73737">
        <ele>171</ele>
        <time>2018-07-15T08:40:21Z</time>
      </trkpt>
      <trkpt lat="45.91955" lon="4.73736">
        <ele>170</ele>
        <time>2018-07-15T08:40:22Z</time>
      </trkpt>
      <trkpt lat="45.91949" lon="4.73736">
        <ele>170</ele>
        <time>2018-07-15T08:40:23Z</time>
      </trkpt>
      <trkpt lat="45.91943" lon="4.73735">
        <ele>170</ele>
        <time>2018-07-15T08:40:24Z</time>
      </trkpt>
      <trkpt lat="45.91936" lon="4.73735">
        <ele>170</ele>
        <time>2018-07-15T08:40:25Z</time>
      </trkpt>
      <trkpt lat="45.9193" lon="4.73735">
        <ele>170</ele>
        <time>2018-07-15T08:40:26Z</time>
      </trkpt>
      <trkpt lat="45.91923" lon="4.73735">
        <ele>170</ele>
        <time>2018-07-15T08:40:27Z</time>
      </trkpt>
      <trkpt lat="45.91916" lon="4.73735">
        <ele>171</ele>
        <time>2018-07-15T08:40:28Z</time>
      </trkpt>
      <trkpt lat="45.9191" lon="4.73735">
        <ele>171</ele>
        <time>2018-07-15T08:40:29Z</time>
      </trkpt>
      <trkpt lat="45.91903" lon="4.73735">
        <ele>171</ele>
        <time>2018-07-15T08:40:30Z</time>
      </trkpt>
      <trkpt lat="45.91896" lon="4.73735">
        <ele>171</ele>
        <time>2018-07-15T08:40:31Z</time>
      </trkpt>
      <trkpt lat="45.91888" lon="4.73736">
        <ele>171</ele>
        <time>2018-07-15T08:40:32Z</time>
      </trkpt>
      <trkpt lat="45.91882" lon="4.73735">
        <ele>171</ele>
        <time>2018-07-15T08:40:33Z</time>
      </trkpt>
      <trkpt lat="45.91875" lon="4.73735">
        <ele>171</ele>
        <time>2018-07-15T08:40:34Z</time>
      </trkpt>
      <trkpt lat="45.91868" lon="4.73734">
        <ele>171</ele>
        <time>2018-07-15T08:40:35Z</time>
      </trkpt>
      <trkpt lat="45.91861" lon="4.73734">
        <ele>171</ele>
        <time>2018-07-15T08:40:36Z</time>
      </trkpt>
      <trkpt lat="45.91853" lon="4.73734">
        <ele>171</ele>
        <time>2018-07-15T08:40:37Z</time>
      </trkpt>
      <trkpt lat="45.91846" lon="4.73735">
        <ele>172</ele>
        <time>2018-07-15T08:40:38Z</time>
      </trkpt>
      <trkpt lat="45.91838" lon="4.73736">
        <ele>172</ele>
        <time>2018-07-15T08:40:39Z</time>
      </trkpt>
      <trkpt lat="45.91832" lon="4.73735">
        <ele>172</ele>
        <time>2018-07-15T08:40:40Z</time>
      </trkpt>
      <trkpt lat="45.91826" lon="4.73736">
        <ele>172</ele>
        <time>2018-07-15T08:40:41Z</time>
      </trkpt>
      <trkpt lat="45.91819" lon="4.73736">
        <ele>172</ele>
        <time>2018-07-15T08:40:42Z</time>
      </trkpt>
      <trkpt lat="45.91813" lon="4.73739">
        <ele>172</ele>
        <time>2018-07-15T08:40:43Z</time>
      </trkpt>
      <trkpt lat="45.91806" lon="4.7374">
        <ele>172</ele>
        <time>2018-07-15T08:40:44Z</time>
      </trkpt>
      <trkpt lat="45.918" lon="4.73738">
        <ele>172</ele>
        <time>2018-07-15T08:40:45Z</time>
      </trkpt>
      <trkpt lat="45.91793" lon="4.73738">
        <ele>172</ele>
        <time>2018-07-15T08:40:46Z</time>
      </trkpt>
      <trkpt lat="45.91788" lon="4.73737">
        <ele>173</ele>
        <time>2018-07-15T08:40:47Z</time>
      </trkpt>
      <trkpt lat="45.91782" lon="4.73738">
        <ele>173</ele>
        <time>2018-07-15T08:40:48Z</time>
      </trkpt>
      <trkpt lat="45.91777" lon="4.73738">
        <ele>173</ele>
        <time>2018-07-15T08:40:49Z</time>
      </trkpt>
      <trkpt lat="45.91771" lon="4.73738">
        <ele>173</ele>
        <time>2018-07-15T08:40:50Z</time>
      </trkpt>
      <trkpt lat="45.91764" lon="4.73738">
        <ele>173</ele>
        <time>2018-07-15T08:40:51Z</time>
      </trkpt>
      <trkpt lat="45.91758" lon="4.73738">
        <ele>173</ele>
        <time>2018-07-15T08:40:52Z</time>
      </trkpt>
      <trkpt lat="45.91752" lon="4.73738">
        <ele>173</ele>
        <time>2018-07-15T08:40:53Z</time>
      </trkpt>
      <trkpt lat="45.91746" lon="4.73739">
        <ele>173</ele>
        <time>2018-07-15T08:40:54Z</time>
      </trkpt>
      <trkpt lat="45.91741" lon="4.73739">
        <ele>173</ele>
        <time>2018-07-15T08:40:55Z</time>
      </trkpt>
      <trkpt lat="45.91736" lon="4.7374">
        <ele>173</ele>
        <time>2018-07-15T08:40:56Z</time>
      </trkpt>
      <trkpt lat="45.91731" lon="4.7374">
        <ele>173</ele>
        <time>2018-07-15T08:40:57Z</time>
      </trkpt>
      <trkpt lat="45.91725" lon="4.73741">
        <ele>173</ele>
        <time>2018-07-15T08:40:58Z</time>
      </trkpt>
      <trkpt lat="45.91719" lon="4.73742">
        <ele>173</ele>
        <time>2018-07-15T08:40:59Z</time>
      </trkpt>
      <trkpt lat="45.91714" lon="4.73742">
        <ele>173</ele>
        <time>2018-07-15T08:41:00Z</time>
      </trkpt>
      <trkpt lat="45.91708" lon="4.73742">
        <ele>172</ele>
        <time>2018-07-15T08:41:01Z</time>
      </trkpt>
      <trkpt lat="45.91704" lon="4.73742">
        <ele>172</ele>
        <time>2018-07-15T08:41:02Z</time>
      </trkpt>
      <trkpt lat="45.91698" lon="4.73742">
        <ele>172</ele>
        <time>2018-07-15T08:41:03Z</time>
      </trkpt>
      <trkpt lat="45.91691" lon="4.73742">
        <ele>172</ele>
        <time>2018-07-15T08:41:04Z</time>
      </trkpt>
      <trkpt lat="45.91685" lon="4.73741">
        <ele>172</ele>
        <time>2018-07-15T08:41:05Z</time>
      </trkpt>
      <trkpt lat="45.91679" lon="4.73741">
        <ele>172</ele>
        <time>2018-07-15T08:41:06Z</time>
      </trkpt>
      <trkpt lat="45.91673" lon="4.73741">
        <ele>172</ele>
        <time>2018-07-15T08:41:07Z</time>
      </trkpt>
      <trkpt lat="45.91666" lon="4.73741">
        <ele>172</ele>
        <time>2018-07-15T08:41:08Z</time>
      </trkpt>
      <trkpt lat="45.9166" lon="4.73741">
        <ele>172</ele>
        <time>2018-07-15T08:41:09Z</time>
      </trkpt>
      <trkpt lat="45.91655" lon="4.73739">
        <ele>172</ele>
        <time>2018-07-15T08:41:10Z</time>
      </trkpt>
      <trkpt lat="45.91648" lon="4.73738">
        <ele>172</ele>
        <time>2018-07-15T08:41:11Z</time>
      </trkpt>
      <trkpt lat="45.91642" lon="4.73738">
        <ele>172</ele>
        <time>2018-07-15T08:41:12Z</time>
      </trkpt>
      <trkpt lat="45.91636" lon="4.7374">
        <ele>172</ele>
        <time>2018-07-15T08:41:13Z</time>
      </trkpt>
      <trkpt lat="45.9163" lon="4.7374">
        <ele>172</ele>
        <time>2018-07-15T08:41:14Z</time>
      </trkpt>
      <trkpt lat="45.91625" lon="4.73738">
        <ele>172</ele>
        <time>2018-07-15T08:41:15Z</time>
      </trkpt>
      <trkpt lat="45.9162" lon="4.73739">
        <ele>173</ele>
        <time>2018-07-15T08:41:16Z</time>
      </trkpt>
      <trkpt lat="45.91614" lon="4.73739">
        <ele>173</ele>
        <time>2018-07-15T08:41:17Z</time>
      </trkpt>
      <trkpt lat="45.91608" lon="4.73739">
        <ele>173</ele>
        <time>2018-07-15T08:41:18Z</time>
      </trkpt>
      <trkpt lat="45.91601" lon="4.73738">
        <ele>173</ele>
        <time>2018-07-15T08:41:19Z</time>
      </trkpt>
      <trkpt lat="45.91595" lon="4.73737">
        <ele>173</ele>
        <time>2018-07-15T08:41:20Z</time>
      </trkpt>
      <trkpt lat="45.91588" lon="4.73737">
        <ele>173</ele>
        <time>2018-07-15T08:41:21Z</time>
      </trkpt>
      <trkpt lat="45.91581" lon="4.73738">
        <ele>173</ele>
        <time>2018-07-15T08:41:22Z</time>
      </trkpt>
      <trkpt lat="45.91575" lon="4.73739">
        <ele>173</ele>
        <time>2018-07-15T08:41:23Z</time>
      </trkpt>
      <trkpt lat="45.91569" lon="4.73739">
        <ele>173</ele>
        <time>2018-07-15T08:41:24Z</time>
      </trkpt>
      <trkpt lat="45.91561" lon="4.73739">
        <ele>173</ele>
        <time>2018-07-15T08:41:25Z</time>
      </trkpt>
      <trkpt lat="45.91554" lon="4.73739">
        <ele>174</ele>
        <time>2018-07-15T08:41:26Z</time>
      </trkpt>
      <trkpt lat="45.91547" lon="4.73739">
        <ele>174</ele>
        <time>2018-07-15T08:41:27Z</time>
      </trkpt>
      <trkpt lat="45.9154" lon="4.73739">
        <ele>174</ele>
        <time>2018-07-15T08:41:28Z</time>
      </trkpt>
      <trkpt lat="45.91534" lon="4.7374">
        <ele>174</ele>
        <time>2018-07-15T08:41:29Z</time>
      </trkpt>
      <trkpt lat="45.91527" lon="4.7374">
        <ele>174</ele>
        <time>2018-07-15T08:41:30Z</time>
      </trkpt>
      <trkpt lat="45.91521" lon="4.73741">
        <ele>174</ele>
        <time>2018-07-15T08:41:31Z</time>
      </trkpt>
      <trkpt lat="45.91515" lon="4.73741">
        <ele>174</ele>
        <time>2018-07-15T08:41:32Z</time>
      </trkpt>
      <trkpt lat="45.91509" lon="4.73741">
        <ele>174</ele>
        <time>2018-07-15T08:41:33Z</time>
      </trkpt>
      <trkpt lat="45.91502" lon="4.7374">
        <ele>174</ele>
        <time>2018-07-15T08:41:34Z</time>
      </trkpt>
      <trkpt lat="45.91496" lon="4.7374">
        <ele>174</ele>
        <time>2018-07-15T08:41:35Z</time>
      </trkpt>
      <trkpt lat="45.91488" lon="4.73739">
        <ele>174</ele>
        <time>2018-07-15T08:41:36Z</time>
      </trkpt>
      <trkpt lat="45.91481" lon="4.73738">
        <ele>174</ele>
        <time>2018-07-15T08:41:37Z</time>
      </trkpt>
      <trkpt lat="45.91475" lon="4.73738">
        <ele>174</ele>
        <time>2018-07-15T08:41:38Z</time>
      </trkpt>
      <trkpt lat="45.91469" lon="4.7374">
        <ele>174</ele>
        <time>2018-07-15T08:41:39Z</time>
      </trkpt>
      <trkpt lat="45.91463" lon="4.7374">
        <ele>174</ele>
        <time>2018-07-15T08:41:40Z</time>
      </trkpt>
      <trkpt lat="45.91457" lon="4.73741">
        <ele>173</ele>
        <time>2018-07-15T08:41:41Z</time>
      </trkpt>
      <trkpt lat="45.9145" lon="4.73741">
        <ele>173</ele>
        <time>2018-07-15T08:41:42Z</time>
      </trkpt>
      <trkpt lat="45.91444" lon="4.7374">
        <ele>173</ele>
        <time>2018-07-15T08:41:43Z</time>
      </trkpt>
      <trkpt lat="45.91437" lon="4.7374">
        <ele>173</ele>
        <time>2018-07-15T08:41:44Z</time>
      </trkpt>
      <trkpt lat="45.9143" lon="4.7374">
        <ele>173</ele>
        <time>2018-07-15T08:41:45Z</time>
      </trkpt>
      <trkpt lat="45.91424" lon="4.73741">
        <ele>173</ele>
        <time>2018-07-15T08:41:46Z</time>
      </trkpt>
      <trkpt lat="45.91417" lon="4.73742">
        <ele>173</ele>
        <time>2018-07-15T08:41:47Z</time>
      </trkpt>
      <trkpt lat="45.9141" lon="4.73742">
        <ele>172</ele>
        <time>2018-07-15T08:41:48Z</time>
      </trkpt>
      <trkpt lat="45.91403" lon="4.73742">
        <ele>173</ele>
        <time>2018-07-15T08:41:49Z</time>
      </trkpt>
      <trkpt lat="45.91396" lon="4.73743">
        <ele>173</ele>
        <time>2018-07-15T08:41:50Z</time>
      </trkpt>
      <trkpt lat="45.91389" lon="4.73743">
        <ele>173</ele>
        <time>2018-07-15T08:41:51Z</time>
      </trkpt>
      <trkpt lat="45.91382" lon="4.73743">
        <ele>173</ele>
        <time>2018-07-15T08:41:52Z</time>
      </trkpt>
      <trkpt lat="45.91377" lon="4.73742">
        <ele>173</ele>
        <time>2018-07-15T08:41:53Z</time>
      </trkpt>
      <trkpt lat="45.91369" lon="4.73743">
        <ele>173</ele>
        <time>2018-07-15T08:41:54Z</time>
      </trkpt>
      <trkpt lat="45.91362" lon="4.73743">
        <ele>173</ele>
        <time>2018-07-15T08:41:55Z</time>
      </trkpt>
      <trkpt lat="45.91355" lon="4.73743">
        <ele>173</ele>
        <time>2018-07-15T08:41:56Z</time>
      </trkpt>
      <trkpt lat="45.91348" lon="4.73743">
        <ele>173</ele>
        <time>2018-07-15T08:41:57Z</time>
      </trkpt>
      <trkpt lat="45.9134" lon="4.73743">
        <ele>173</ele>
        <time>2018-07-15T08:41:58Z</time>
      </trkpt>
      <trkpt lat="45.91333" lon="4.73744">
        <ele>173</ele>
        <time>2018-07-15T08:41:59Z</time>
      </trkpt>
      <trkpt lat="45.91326" lon="4.73745">
        <ele>173</ele>
        <time>2018-07-15T08:42:00Z</time>
      </trkpt>
      <trkpt lat="45.9132" lon="4.73744">
        <ele>173</ele>
        <time>2018-07-15T08:42:01Z</time>
      </trkpt>
      <trkpt lat="45.91313" lon="4.73744">
        <ele>174</ele>
        <time>2018-07-15T08:42:02Z</time>
      </trkpt>
      <trkpt lat="45.91307" lon="4.73744">
        <ele>174</ele>
        <time>2018-07-15T08:42:03Z</time>
      </trkpt>
      <trkpt lat="45.91299" lon="4.73745">
        <ele>174</ele>
        <time>2018-07-15T08:42:04Z</time>
      </trkpt>
      <trkpt lat="45.91293" lon="4.73744">
        <ele>174</ele>
        <time>2018-07-15T08:42:05Z</time>
      </trkpt>
      <trkpt lat="45.91287" lon="4.73744">
        <ele>174</ele>
        <time>2018-07-15T08:42:06Z</time>
      </trkpt>
      <trkpt lat="45.9128" lon="4.73744">
        <ele>174</ele>
        <time>2018-07-15T08:42:07Z</time>
      </trkpt>
      <trkpt lat="45.91274" lon="4.73745">
        <ele>174</ele>
        <time>2018-07-15T08:42:08Z</time>
      </trkpt>
      <trkpt lat="45.91267" lon="4.73743">
        <ele>174</ele>
        <time>2018-07-15T08:42:09Z</time>
      </trkpt>
      <trkpt lat="45.9126" lon="4.73744">
        <ele>175</ele>
        <time>2018-07-15T08:42:10Z</time>
      </trkpt>
      <trkpt lat="45.91253" lon="4.73743">
        <ele>175</ele>
        <time>2018-07-15T08:42:11Z</time>
      </trkpt>
      <trkpt lat="45.91246" lon="4.73743">
        <ele>175</ele>
        <time>2018-07-15T08:42:12Z</time>
      </trkpt>
      <trkpt lat="45.9124" lon="4.73742">
        <ele>175</ele>
        <time>2018-07-15T08:42:13Z</time>
      </trkpt>
      <trkpt lat="45.91233" lon="4.73742">
        <ele>175</ele>
        <time>2018-07-15T08:42:14Z</time>
      </trkpt>
      <trkpt lat="45.91226" lon="4.73744">
        <ele>175</ele>
        <time>2018-07-15T08:42:15Z</time>
      </trkpt>
      <trkpt lat="45.91219" lon="4.73743">
        <ele>175</ele>
        <time>2018-07-15T08:42:16Z</time>
      </trkpt>
      <trkpt lat="45.91213" lon="4.73742">
        <ele>175</ele>
        <time>2018-07-15T08:42:17Z</time>
      </trkpt>
      <trkpt lat="45.91206" lon="4.73742">
        <ele>175</ele>
        <time>2018-07-15T08:42:18Z</time>
      </trkpt>
      <trkpt lat="45.912" lon="4.73743">
        <ele>175</ele>
        <time>2018-07-15T08:42:19Z</time>
      </trkpt>
      <trkpt lat="45.91195" lon="4.73743">
        <ele>175</ele>
        <time>2018-07-15T08:42:20Z</time>
      </trkpt>
      <trkpt lat="45.91189" lon="4.73742">
        <ele>175</ele>
        <time>2018-07-15T08:42:21Z</time>
      </trkpt>
      <trkpt lat="45.91183" lon="4.73741">
        <ele>175</ele>
        <time>2018-07-15T08:42:22Z</time>
      </trkpt>
      <trkpt lat="45.91177" lon="4.73739">
        <ele>175</ele>
        <time>2018-07-15T08:42:23Z</time>
      </trkpt>
      <trkpt lat="45.91172" lon="4.73737">
        <ele>175</ele>
        <time>2018-07-15T08:42:24Z</time>
      </trkpt>
      <trkpt lat="45.91167" lon="4.73736">
        <ele>175</ele>
        <time>2018-07-15T08:42:25Z</time>
      </trkpt>
      <trkpt lat="45.91162" lon="4.73735">
        <ele>175</ele>
        <time>2018-07-15T08:42:26Z</time>
      </trkpt>
      <trkpt lat="45.91156" lon="4.73731">
        <ele>175</ele>
        <time>2018-07-15T08:42:27Z</time>
      </trkpt>
      <trkpt lat="45.91152" lon="4.73727">
        <ele>175</ele>
        <time>2018-07-15T08:42:28Z</time>
      </trkpt>
      <trkpt lat="45.91149" lon="4.73721">
        <ele>174</ele>
        <time>2018-07-15T08:42:29Z</time>
      </trkpt>
      <trkpt lat="45.91146" lon="4.73715">
        <ele>174</ele>
        <time>2018-07-15T08:42:30Z</time>
      </trkpt>
      <trkpt lat="45.91144" lon="4.73708">
        <ele>174</ele>
        <time>2018-07-15T08:42:31Z</time>
      </trkpt>
      <trkpt lat="45.91141" lon="4.737">
        <ele>174</ele>
        <time>2018-07-15T08:42:32Z</time>
      </trkpt>
      <trkpt lat="45.91138" lon="4.73693">
        <ele>174</ele>
        <time>2018-07-15T08:42:33Z</time>
      </trkpt>
      <trkpt lat="45.91134" lon="4.73685">
        <ele>174</ele>
        <time>2018-07-15T08:42:34Z</time>
      </trkpt>
      <trkpt lat="45.91131" lon="4.73677">
        <ele>174</ele>
        <time>2018-07-15T08:42:35Z</time>
      </trkpt>
      <trkpt lat="45.91125" lon="4.73668">
        <ele>174</ele>
        <time>2018-07-15T08:42:36Z</time>
      </trkpt>
      <trkpt lat="45.91122" lon="4.73661">
        <ele>174</ele>
        <time>2018-07-15T08:42:37Z</time>
      </trkpt>
      <trkpt lat="45.91118" lon="4.73653">
        <ele>174</ele>
        <time>2018-07-15T08:42:38Z</time>
      </trkpt>
      <trkpt lat="45.91116" lon="4.73647">
        <ele>174</ele>
        <time>2018-07-15T08:42:39Z</time>
      </trkpt>
      <trkpt lat="45.91112" lon="4.7364">
        <ele>174</ele>
        <time>2018-07-15T08:42:40Z</time>
      </trkpt>
      <trkpt lat="45.91111" lon="4.73635">
        <ele>174</ele>
        <time>2018-07-15T08:42:41Z</time>
      </trkpt>
      <trkpt lat="45.91108" lon="4.73628">
        <ele>174</ele>
        <time>2018-07-15T08:42:42Z</time>
      </trkpt>
      <trkpt lat="45.91105" lon="4.73621">
        <ele>174</ele>
        <time>2018-07-15T08:42:43Z</time>
      </trkpt>
      <trkpt lat="45.91102" lon="4.73615">
        <ele>174</ele>
        <time>2018-07-15T08:42:44Z</time>
      </trkpt>
      <trkpt lat="45.91099" lon="4.73608">
        <ele>174</ele>
        <time>2018-07-15T08:42:45Z</time>
      </trkpt>
      <trkpt lat="45.91097" lon="4.736">
        <ele>174</ele>
        <time>2018-07-15T08:42:46Z</time>
      </trkpt>
      <trkpt lat="45.91094" lon="4.73593">
        <ele>174</ele>
        <time>2018-07-15T08:42:47Z</time>
      </trkpt>
      <trkpt lat="45.91091" lon="4.73586">
        <ele>174</ele>
        <time>2018-07-15T08:42:48Z</time>
      </trkpt>
      <trkpt lat="45.91089" lon="4.73579">
        <ele>174</ele>
        <time>2018-07-15T08:42:49Z</time>
      </trkpt>
      <trkpt lat="45.91088" lon="4.73572">
        <ele>174</ele>
        <time>2018-07-15T08:42:50Z</time>
      </trkpt>
      <trkpt lat="45.91085" lon="4.73565">
        <ele>174</ele>
        <time>2018-07-15T08:42:51Z</time>
      </trkpt>
      <trkpt lat="45.91081" lon="4.73558">
        <ele>174</ele>
        <time>2018-07-15T08:42:52Z</time>
      </trkpt>
      <trkpt lat="45.91079" lon="4.73552">
        <ele>174</ele>
        <time>2018-07-15T08:42:53Z</time>
      </trkpt>
      <trkpt lat="45.91077" lon="4.73544">
        <ele>174</ele>
        <time>2018-07-15T08:42:54Z</time>
      </trkpt>
      <trkpt lat="45.91074" lon="4.73537">
        <ele>175</ele>
        <time>2018-07-15T08:42:55Z</time>
      </trkpt>
      <trkpt lat="45.91069" lon="4.73529">
        <ele>175</ele>
        <time>2018-07-15T08:42:56Z</time>
      </trkpt>
      <trkpt lat="45.91069" lon="4.73523">
        <ele>175</ele>
        <time>2018-07-15T08:42:57Z</time>
      </trkpt>
      <trkpt lat="45.91065" lon="4.73515">
        <ele>175</ele>
        <time>2018-07-15T08:42:58Z</time>
      </trkpt>
      <trkpt lat="45.91062" lon="4.73507">
        <ele>175</ele>
        <time>2018-07-15T08:42:59Z</time>
      </trkpt>
      <trkpt lat="45.91058" lon="4.735">
        <ele>175</ele>
        <time>2018-07-15T08:43:00Z</time>
      </trkpt>
      <trkpt lat="45.91055" lon="4.73492">
        <ele>175</ele>
        <time>2018-07-15T08:43:01Z</time>
      </trkpt>
      <trkpt lat="45.91051" lon="4.73485">
        <ele>175</ele>
        <time>2018-07-15T08:43:02Z</time>
      </trkpt>
      <trkpt lat="45.91045" lon="4.73477">
        <ele>175</ele>
        <time>2018-07-15T08:43:03Z</time>
      </trkpt>
      <trkpt lat="45.91042" lon="4.7347">
        <ele>175</ele>
        <time>2018-07-15T08:43:04Z</time>
      </trkpt>
      <trkpt lat="45.91038" lon="4.73459">
        <ele>175</ele>
        <time>2018-07-15T08:43:07Z</time>
      </trkpt>
      <trkpt lat="45.91036" lon="4.73456">
        <ele>175</ele>
        <time>2018-07-15T08:43:08Z</time>
      </trkpt>
      <trkpt lat="45.91036" lon="4.7345">
        <ele>175</ele>
        <time>2018-07-15T08:43:10Z</time>
      </trkpt>
      <trkpt lat="45.91037" lon="4.73438">
        <ele>175</ele>
        <time>2018-07-15T08:43:11Z</time>
      </trkpt>
      <trkpt lat="45.91039" lon="4.73427">
        <ele>175</ele>
        <time>2018-07-15T08:43:13Z</time>
      </trkpt>
      <trkpt lat="45.91035" lon="4.73422">
        <ele>175</ele>
        <time>2018-07-15T08:43:14Z</time>
      </trkpt>
      <trkpt lat="45.91031" lon="4.73418">
        <ele>175</ele>
        <time>2018-07-15T08:43:15Z</time>
      </trkpt>
      <trkpt lat="45.91026" lon="4.73418">
        <ele>175</ele>
        <time>2018-07-15T08:43:16Z</time>
      </trkpt>
      <trkpt lat="45.9102" lon="4.73418">
        <ele>175</ele>
        <time>2018-07-15T08:43:17Z</time>
      </trkpt>
      <trkpt lat="45.91015" lon="4.73422">
        <ele>175</ele>
        <time>2018-07-15T08:43:18Z</time>
      </trkpt>
      <trkpt lat="45.91011" lon="4.73427">
        <ele>175</ele>
        <time>2018-07-15T08:43:19Z</time>
      </trkpt>
      <trkpt lat="45.91006" lon="4.73432">
        <ele>175</ele>
        <time>2018-07-15T08:43:20Z</time>
      </trkpt>
      <trkpt lat="45.91001" lon="4.73437">
        <ele>175</ele>
        <time>2018-07-15T08:43:21Z</time>
      </trkpt>
      <trkpt lat="45.90996" lon="4.73441">
        <ele>175</ele>
        <time>2018-07-15T08:43:22Z</time>
      </trkpt>
      <trkpt lat="45.9099" lon="4.73444">
        <ele>175</ele>
        <time>2018-07-15T08:43:23Z</time>
      </trkpt>
      <trkpt lat="45.90984" lon="4.73446">
        <ele>175</ele>
        <time>2018-07-15T08:43:24Z</time>
      </trkpt>
      <trkpt lat="45.90977" lon="4.73452">
        <ele>175</ele>
        <time>2018-07-15T08:43:25Z</time>
      </trkpt>
      <trkpt lat="45.90972" lon="4.73455">
        <ele>175</ele>
        <time>2018-07-15T08:43:26Z</time>
      </trkpt>
      <trkpt lat="45.90966" lon="4.73458">
        <ele>175</ele>
        <time>2018-07-15T08:43:27Z</time>
      </trkpt>
      <trkpt lat="45.9096" lon="4.73461">
        <ele>175</ele>
        <time>2018-07-15T08:43:28Z</time>
      </trkpt>
      <trkpt lat="45.90953" lon="4.73463">
        <ele>175</ele>
        <time>2018-07-15T08:43:29Z</time>
      </trkpt>
      <trkpt lat="45.90947" lon="4.73465">
        <ele>175</ele>
        <time>2018-07-15T08:43:30Z</time>
      </trkpt>
      <trkpt lat="45.90939" lon="4.73467">
        <ele>175</ele>
        <time>2018-07-15T08:43:31Z</time>
      </trkpt>
      <trkpt lat="45.90933" lon="4.7347">
        <ele>175</ele>
        <time>2018-07-15T08:43:32Z</time>
      </trkpt>
      <trkpt lat="45.90926" lon="4.73473">
        <ele>175</ele>
        <time>2018-07-15T08:43:33Z</time>
      </trkpt>
      <trkpt lat="45.9092" lon="4.73476">
        <ele>175</ele>
        <time>2018-07-15T08:43:34Z</time>
      </trkpt>
      <trkpt lat="45.90913" lon="4.7348">
        <ele>175</ele>
        <time>2018-07-15T08:43:35Z</time>
      </trkpt>
      <trkpt lat="45.90908" lon="4.73483">
        <ele>175</ele>
        <time>2018-07-15T08:43:36Z</time>
      </trkpt>
      <trkpt lat="45.90901" lon="4.73486">
        <ele>175</ele>
        <time>2018-07-15T08:43:37Z</time>
      </trkpt>
      <trkpt lat="45.90895" lon="4.7349">
        <ele>175</ele>
        <time>2018-07-15T08:43:38Z</time>
      </trkpt>
      <trkpt lat="45.90889" lon="4.73492">
        <ele>175</ele>
        <time>2018-07-15T08:43:39Z</time>
      </trkpt>
      <trkpt lat="45.90882" lon="4.73492">
        <ele>175</ele>
        <time>2018-07-15T08:43:40Z</time>
      </trkpt>
      <trkpt lat="45.90875" lon="4.73495">
        <ele>175</ele>
        <time>2018-07-15T08:43:41Z</time>
      </trkpt>
      <trkpt lat="45.90869" lon="4.735">
        <ele>175</ele>
        <time>2018-07-15T08:43:42Z</time>
      </trkpt>
      <trkpt lat="45.90862" lon="4.73503">
        <ele>174</ele>
        <time>2018-07-15T08:43:43Z</time>
      </trkpt>
      <trkpt lat="45.90855" lon="4.73507">
        <ele>174</ele>
        <time>2018-07-15T08:43:44Z</time>
      </trkpt>
      <trkpt lat="45.90848" lon="4.7351">
        <ele>174</ele>
        <time>2018-07-15T08:43:45Z</time>
      </trkpt>
      <trkpt lat="45.90841" lon="4.73513">
        <ele>174</ele>
        <time>2018-07-15T08:43:46Z</time>
      </trkpt>
      <trkpt lat="45.90835" lon="4.73517">
        <ele>174</ele>
        <time>2018-07-15T08:43:47Z</time>
      </trkpt>
      <trkpt lat="45.90829" lon="4.73519">
        <ele>175</ele>
        <time>2018-07-15T08:43:48Z</time>
      </trkpt>
      <trkpt lat="45.90823" lon="4.73521">
        <ele>175</ele>
        <time>2018-07-15T08:43:49Z</time>
      </trkpt>
      <trkpt lat="45.90817" lon="4.73523">
        <ele>175</ele>
        <time>2018-07-15T08:43:50Z</time>
      </trkpt>
      <trkpt lat="45.90812" lon="4.73526">
        <ele>175</ele>
        <time>2018-07-15T08:43:51Z</time>
      </trkpt>
      <trkpt lat="45.90806" lon="4.7353">
        <ele>175</ele>
        <time>2018-07-15T08:43:52Z</time>
      </trkpt>
      <trkpt lat="45.90801" lon="4.73532">
        <ele>175</ele>
        <time>2018-07-15T08:43:53Z</time>
      </trkpt>
      <trkpt lat="45.90795" lon="4.73534">
        <ele>176</ele>
        <time>2018-07-15T08:43:54Z</time>
      </trkpt>
      <trkpt lat="45.90788" lon="4.73537">
        <ele>176</ele>
        <time>2018-07-15T08:43:55Z</time>
      </trkpt>
      <trkpt lat="45.90782" lon="4.73539">
        <ele>176</ele>
        <time>2018-07-15T08:43:56Z</time>
      </trkpt>
      <trkpt lat="45.90776" lon="4.73543">
        <ele>176</ele>
        <time>2018-07-15T08:43:57Z</time>
      </trkpt>
      <trkpt lat="45.9077" lon="4.73545">
        <ele>176</ele>
        <time>2018-07-15T08:43:58Z</time>
      </trkpt>
      <trkpt lat="45.90765" lon="4.73548">
        <ele>176</ele>
        <time>2018-07-15T08:43:59Z</time>
      </trkpt>
      <trkpt lat="45.90759" lon="4.73551">
        <ele>176</ele>
        <time>2018-07-15T08:44:00Z</time>
      </trkpt>
      <trkpt lat="45.90754" lon="4.73553">
        <ele>177</ele>
        <time>2018-07-15T08:44:01Z</time>
      </trkpt>
      <trkpt lat="45.90747" lon="4.73556">
        <ele>178</ele>
        <time>2018-07-15T08:44:02Z</time>
      </trkpt>
      <trkpt lat="45.90741" lon="4.73559">
        <ele>178</ele>
        <time>2018-07-15T08:44:03Z</time>
      </trkpt>
      <trkpt lat="45.90737" lon="4.7356">
        <ele>178</ele>
        <time>2018-07-15T08:44:04Z</time>
      </trkpt>
      <trkpt lat="45.9073" lon="4.73563">
        <ele>178</ele>
        <time>2018-07-15T08:44:05Z</time>
      </trkpt>
      <trkpt lat="45.90725" lon="4.73565">
        <ele>178</ele>
        <time>2018-07-15T08:44:06Z</time>
      </trkpt>
      <trkpt lat="45.9072" lon="4.73567">
        <ele>178</ele>
        <time>2018-07-15T08:44:07Z</time>
      </trkpt>
      <trkpt lat="45.90714" lon="4.7357">
        <ele>178</ele>
        <time>2018-07-15T08:44:08Z</time>
      </trkpt>
      <trkpt lat="45.9071" lon="4.73572">
        <ele>178</ele>
        <time>2018-07-15T08:44:09Z</time>
      </trkpt>
      <trkpt lat="45.90704" lon="4.73577">
        <ele>178</ele>
        <time>2018-07-15T08:44:10Z</time>
      </trkpt>
      <trkpt lat="45.90696" lon="4.73581">
        <ele>178</ele>
        <time>2018-07-15T08:44:12Z</time>
      </trkpt>
      <trkpt lat="45.90692" lon="4.73583">
        <ele>179</ele>
        <time>2018-07-15T08:44:13Z</time>
      </trkpt>
      <trkpt lat="45.90688" lon="4.73585">
        <ele>181</ele>
        <time>2018-07-15T08:44:14Z</time>
      </trkpt>
      <trkpt lat="45.90683" lon="4.73587">
        <ele>181</ele>
        <time>2018-07-15T08:44:15Z</time>
      </trkpt>
      <trkpt lat="45.90679" lon="4.73589">
        <ele>181</ele>
        <time>2018-07-15T08:44:16Z</time>
      </trkpt>
      <trkpt lat="45.90674" lon="4.73591">
        <ele>181</ele>
        <time>2018-07-15T08:44:17Z</time>
      </trkpt>
      <trkpt lat="45.90666" lon="4.73594">
        <ele>181</ele>
        <time>2018-07-15T08:44:19Z</time>
      </trkpt>
      <trkpt lat="45.90662" lon="4.73596">
        <ele>181</ele>
        <time>2018-07-15T08:44:20Z</time>
      </trkpt>
      <trkpt lat="45.90654" lon="4.73599">
        <ele>181</ele>
        <time>2018-07-15T08:44:22Z</time>
      </trkpt>
      <trkpt lat="45.9065" lon="4.73601">
        <ele>181</ele>
        <time>2018-07-15T08:44:23Z</time>
      </trkpt>
      <trkpt lat="45.90645" lon="4.73603">
        <ele>181</ele>
        <time>2018-07-15T08:44:24Z</time>
      </trkpt>
      <trkpt lat="45.90641" lon="4.73606">
        <ele>181</ele>
        <time>2018-07-15T08:44:25Z</time>
      </trkpt>
      <trkpt lat="45.90632" lon="4.7361">
        <ele>181</ele>
        <time>2018-07-15T08:44:27Z</time>
      </trkpt>
      <trkpt lat="45.9063" lon="4.73614">
        <ele>181</ele>
        <time>2018-07-15T08:44:28Z</time>
      </trkpt>
      <trkpt lat="45.90625" lon="4.73616">
        <ele>181</ele>
        <time>2018-07-15T08:44:29Z</time>
      </trkpt>
      <trkpt lat="45.90621" lon="4.73619">
        <ele>181</ele>
        <time>2018-07-15T08:44:30Z</time>
      </trkpt>
      <trkpt lat="45.90615" lon="4.7362">
        <ele>181</ele>
        <time>2018-07-15T08:44:31Z</time>
      </trkpt>
      <trkpt lat="45.9061" lon="4.73622">
        <ele>181</ele>
        <time>2018-07-15T08:44:32Z</time>
      </trkpt>
      <trkpt lat="45.90605" lon="4.73624">
        <ele>181</ele>
        <time>2018-07-15T08:44:33Z</time>
      </trkpt>
      <trkpt lat="45.90601" lon="4.73626">
        <ele>181</ele>
        <time>2018-07-15T08:44:34Z</time>
      </trkpt>
      <trkpt lat="45.90594" lon="4.73631">
        <ele>181</ele>
        <time>2018-07-15T08:44:36Z</time>
      </trkpt>
      <trkpt lat="45.90589" lon="4.73633">
        <ele>181</ele>
        <time>2018-07-15T08:44:37Z</time>
      </trkpt>
      <trkpt lat="45.90585" lon="4.73635">
        <ele>181</ele>
        <time>2018-07-15T08:44:38Z</time>
      </trkpt>
      <trkpt lat="45.9058" lon="4.73636">
        <ele>179</ele>
        <time>2018-07-15T08:44:39Z</time>
      </trkpt>
      <trkpt lat="45.90571" lon="4.7364">
        <ele>179</ele>
        <time>2018-07-15T08:44:41Z</time>
      </trkpt>
      <trkpt lat="45.90567" lon="4.73642">
        <ele>179</ele>
        <time>2018-07-15T08:44:42Z</time>
      </trkpt>
      <trkpt lat="45.90563" lon="4.73644">
        <ele>179</ele>
        <time>2018-07-15T08:44:43Z</time>
      </trkpt>
      <trkpt lat="45.90556" lon="4.73645">
        <ele>179</ele>
        <time>2018-07-15T08:44:44Z</time>
      </trkpt>
      <trkpt lat="45.90552" lon="4.73647">
        <ele>179</ele>
        <time>2018-07-15T08:44:45Z</time>
      </trkpt>
      <trkpt lat="45.90546" lon="4.73649">
        <ele>179</ele>
        <time>2018-07-15T08:44:46Z</time>
      </trkpt>
      <trkpt lat="45.90541" lon="4.73651">
        <ele>178</ele>
        <time>2018-07-15T08:44:47Z</time>
      </trkpt>
      <trkpt lat="45.90535" lon="4.73653">
        <ele>178</ele>
        <time>2018-07-15T08:44:48Z</time>
      </trkpt>
      <trkpt lat="45.9053" lon="4.73655">
        <ele>178</ele>
        <time>2018-07-15T08:44:49Z</time>
      </trkpt>
      <trkpt lat="45.90525" lon="4.73658">
        <ele>178</ele>
        <time>2018-07-15T08:44:50Z</time>
      </trkpt>
      <trkpt lat="45.9052" lon="4.73659">
        <ele>178</ele>
        <time>2018-07-15T08:44:51Z</time>
      </trkpt>
      <trkpt lat="45.90515" lon="4.73661">
        <ele>178</ele>
        <time>2018-07-15T08:44:52Z</time>
      </trkpt>
      <trkpt lat="45.90509" lon="4.73663">
        <ele>177</ele>
        <time>2018-07-15T08:44:53Z</time>
      </trkpt>
      <trkpt lat="45.90504" lon="4.73664">
        <ele>177</ele>
        <time>2018-07-15T08:44:54Z</time>
      </trkpt>
      <trkpt lat="45.90499" lon="4.73667">
        <ele>177</ele>
        <time>2018-07-15T08:44:55Z</time>
      </trkpt>
      <trkpt lat="45.90494" lon="4.73667">
        <ele>177</ele>
        <time>2018-07-15T08:44:56Z</time>
      </trkpt>
      <trkpt lat="45.90489" lon="4.73669">
        <ele>177</ele>
        <time>2018-07-15T08:44:57Z</time>
      </trkpt>
      <trkpt lat="45.90483" lon="4.73672">
        <ele>176</ele>
        <time>2018-07-15T08:44:58Z</time>
      </trkpt>
      <trkpt lat="45.90478" lon="4.73674">
        <ele>176</ele>
        <time>2018-07-15T08:44:59Z</time>
      </trkpt>
      <trkpt lat="45.90473" lon="4.73676">
        <ele>176</ele>
        <time>2018-07-15T08:45:00Z</time>
      </trkpt>
      <trkpt lat="45.90467" lon="4.73677">
        <ele>176</ele>
        <time>2018-07-15T08:45:01Z</time>
      </trkpt>
      <trkpt lat="45.90461" lon="4.7368">
        <ele>176</ele>
        <time>2018-07-15T08:45:02Z</time>
      </trkpt>
      <trkpt lat="45.90454" lon="4.73682">
        <ele>176</ele>
        <time>2018-07-15T08:45:03Z</time>
      </trkpt>
      <trkpt lat="45.90448" lon="4.73684">
        <ele>176</ele>
        <time>2018-07-15T08:45:04Z</time>
      </trkpt>
      <trkpt lat="45.90442" lon="4.73686">
        <ele>176</ele>
        <time>2018-07-15T08:45:05Z</time>
      </trkpt>
      <trkpt lat="45.90435" lon="4.73689">
        <ele>176</ele>
        <time>2018-07-15T08:45:06Z</time>
      </trkpt>
      <trkpt lat="45.90428" lon="4.73692">
        <ele>176</ele>
        <time>2018-07-15T08:45:07Z</time>
      </trkpt>
      <trkpt lat="45.90422" lon="4.73694">
        <ele>176</ele>
        <time>2018-07-15T08:45:08Z</time>
      </trkpt>
      <trkpt lat="45.90415" lon="4.73697">
        <ele>177</ele>
        <time>2018-07-15T08:45:09Z</time>
      </trkpt>
      <trkpt lat="45.90408" lon="4.73699">
        <ele>177</ele>
        <time>2018-07-15T08:45:10Z</time>
      </trkpt>
      <trkpt lat="45.90402" lon="4.73702">
        <ele>177</ele>
        <time>2018-07-15T08:45:11Z</time>
      </trkpt>
      <trkpt lat="45.90394" lon="4.73706">
        <ele>177</ele>
        <time>2018-07-15T08:45:12Z</time>
      </trkpt>
      <trkpt lat="45.90387" lon="4.73708">
        <ele>177</ele>
        <time>2018-07-15T08:45:13Z</time>
      </trkpt>
      <trkpt lat="45.9038" lon="4.73711">
        <ele>177</ele>
        <time>2018-07-15T08:45:14Z</time>
      </trkpt>
      <trkpt lat="45.90373" lon="4.73712">
        <ele>177</ele>
        <time>2018-07-15T08:45:15Z</time>
      </trkpt>
      <trkpt lat="45.90365" lon="4.73715">
        <ele>177</ele>
        <time>2018-07-15T08:45:16Z</time>
      </trkpt>
      <trkpt lat="45.90358" lon="4.73719">
        <ele>177</ele>
        <time>2018-07-15T08:45:17Z</time>
      </trkpt>
      <trkpt lat="45.9035" lon="4.73722">
        <ele>177</ele>
        <time>2018-07-15T08:45:18Z</time>
      </trkpt>
      <trkpt lat="45.90341" lon="4.73727">
        <ele>177</ele>
        <time>2018-07-15T08:45:19Z</time>
      </trkpt>
      <trkpt lat="45.90333" lon="4.73731">
        <ele>177</ele>
        <time>2018-07-15T08:45:20Z</time>
      </trkpt>
      <trkpt lat="45.90325" lon="4.73733">
        <ele>177</ele>
        <time>2018-07-15T08:45:21Z</time>
      </trkpt>
      <trkpt lat="45.90317" lon="4.73736">
        <ele>177</ele>
        <time>2018-07-15T08:45:22Z</time>
      </trkpt>
      <trkpt lat="45.90309" lon="4.73739">
        <ele>177</ele>
        <time>2018-07-15T08:45:23Z</time>
      </trkpt>
      <trkpt lat="45.903" lon="4.73742">
        <ele>177</ele>
        <time>2018-07-15T08:45:24Z</time>
      </trkpt>
      <trkpt lat="45.90293" lon="4.73746">
        <ele>177</ele>
        <time>2018-07-15T08:45:25Z</time>
      </trkpt>
      <trkpt lat="45.90285" lon="4.7375">
        <ele>177</ele>
        <time>2018-07-15T08:45:26Z</time>
      </trkpt>
      <trkpt lat="45.90278" lon="4.73753">
        <ele>177</ele>
        <time>2018-07-15T08:45:27Z</time>
      </trkpt>
      <trkpt lat="45.9027" lon="4.73756">
        <ele>177</ele>
        <time>2018-07-15T08:45:28Z</time>
      </trkpt>
      <trkpt lat="45.90265" lon="4.73762">
        <ele>177</ele>
        <time>2018-07-15T08:45:29Z</time>
      </trkpt>
      <trkpt lat="45.90258" lon="4.73766">
        <ele>177</ele>
        <time>2018-07-15T08:45:30Z</time>
      </trkpt>
      <trkpt lat="45.90251" lon="4.73769">
        <ele>177</ele>
        <time>2018-07-15T08:45:31Z</time>
      </trkpt>
      <trkpt lat="45.90244" lon="4.73771">
        <ele>177</ele>
        <time>2018-07-15T08:45:32Z</time>
      </trkpt>
      <trkpt lat="45.90236" lon="4.73774">
        <ele>177</ele>
        <time>2018-07-15T08:45:33Z</time>
      </trkpt>
      <trkpt lat="45.90229" lon="4.73778">
        <ele>177</ele>
        <time>2018-07-15T08:45:34Z</time>
      </trkpt>
      <trkpt lat="45.90223" lon="4.7378">
        <ele>177</ele>
        <time>2018-07-15T08:45:35Z</time>
      </trkpt>
      <trkpt lat="45.90217" lon="4.73782">
        <ele>177</ele>
        <time>2018-07-15T08:45:36Z</time>
      </trkpt>
      <trkpt lat="45.90211" lon="4.73785">
        <ele>177</ele>
        <time>2018-07-15T08:45:37Z</time>
      </trkpt>
      <trkpt lat="45.90204" lon="4.73788">
        <ele>177</ele>
        <time>2018-07-15T08:45:38Z</time>
      </trkpt>
      <trkpt lat="45.90197" lon="4.7379">
        <ele>177</ele>
        <time>2018-07-15T08:45:39Z</time>
      </trkpt>
      <trkpt lat="45.9019" lon="4.73793">
        <ele>177</ele>
        <time>2018-07-15T08:45:40Z</time>
      </trkpt>
      <trkpt lat="45.90183" lon="4.73795">
        <ele>177</ele>
        <time>2018-07-15T08:45:41Z</time>
      </trkpt>
      <trkpt lat="45.90177" lon="4.73798">
        <ele>177</ele>
        <time>2018-07-15T08:45:42Z</time>
      </trkpt>
      <trkpt lat="45.9017" lon="4.73801">
        <ele>177</ele>
        <time>2018-07-15T08:45:43Z</time>
      </trkpt>
      <trkpt lat="45.90163" lon="4.73803">
        <ele>176</ele>
        <time>2018-07-15T08:45:44Z</time>
      </trkpt>
      <trkpt lat="45.90157" lon="4.73806">
        <ele>176</ele>
        <time>2018-07-15T08:45:45Z</time>
      </trkpt>
      <trkpt lat="45.90151" lon="4.73808">
        <ele>177</ele>
        <time>2018-07-15T08:45:46Z</time>
      </trkpt>
      <trkpt lat="45.90145" lon="4.7381">
        <ele>177</ele>
        <time>2018-07-15T08:45:47Z</time>
      </trkpt>
      <trkpt lat="45.90138" lon="4.73814">
        <ele>177</ele>
        <time>2018-07-15T08:45:48Z</time>
      </trkpt>
      <trkpt lat="45.90132" lon="4.73817">
        <ele>177</ele>
        <time>2018-07-15T08:45:49Z</time>
      </trkpt>
      <trkpt lat="45.90126" lon="4.73819">
        <ele>177</ele>
        <time>2018-07-15T08:45:50Z</time>
      </trkpt>
      <trkpt lat="45.9012" lon="4.73822">
        <ele>177</ele>
        <time>2018-07-15T08:45:51Z</time>
      </trkpt>
      <trkpt lat="45.90112" lon="4.73825">
        <ele>177</ele>
        <time>2018-07-15T08:45:52Z</time>
      </trkpt>
      <trkpt lat="45.90105" lon="4.73829">
        <ele>177</ele>
        <time>2018-07-15T08:45:53Z</time>
      </trkpt>
      <trkpt lat="45.90098" lon="4.73831">
        <ele>177</ele>
        <time>2018-07-15T08:45:54Z</time>
      </trkpt>
      <trkpt lat="45.90091" lon="4.73833">
        <ele>178</ele>
        <time>2018-07-15T08:45:55Z</time>
      </trkpt>
      <trkpt lat="45.90084" lon="4.73836">
        <ele>178</ele>
        <time>2018-07-15T08:45:56Z</time>
      </trkpt>
      <trkpt lat="45.90078" lon="4.73838">
        <ele>178</ele>
        <time>2018-07-15T08:45:57Z</time>
      </trkpt>
      <trkpt lat="45.90072" lon="4.73841">
        <ele>178</ele>
        <time>2018-07-15T08:45:58Z</time>
      </trkpt>
      <trkpt lat="45.90066" lon="4.73844">
        <ele>178</ele>
        <time>2018-07-15T08:45:59Z</time>
      </trkpt>
      <trkpt lat="45.9006" lon="4.73846">
        <ele>178</ele>
        <time>2018-07-15T08:46:00Z</time>
      </trkpt>
      <trkpt lat="45.90053" lon="4.73848">
        <ele>178</ele>
        <time>2018-07-15T08:46:01Z</time>
      </trkpt>
      <trkpt lat="45.90047" lon="4.7385">
        <ele>178</ele>
        <time>2018-07-15T08:46:02Z</time>
      </trkpt>
      <trkpt lat="45.90041" lon="4.73853">
        <ele>178</ele>
        <time>2018-07-15T08:46:03Z</time>
      </trkpt>
      <trkpt lat="45.90034" lon="4.73855">
        <ele>178</ele>
        <time>2018-07-15T08:46:04Z</time>
      </trkpt>
      <trkpt lat="45.90029" lon="4.73858">
        <ele>178</ele>
        <time>2018-07-15T08:46:05Z</time>
      </trkpt>
      <trkpt lat="45.90022" lon="4.73861">
        <ele>178</ele>
        <time>2018-07-15T08:46:06Z</time>
      </trkpt>
      <trkpt lat="45.90014" lon="4.73862">
        <ele>178</ele>
        <time>2018-07-15T08:46:07Z</time>
      </trkpt>
      <trkpt lat="45.90008" lon="4.73865">
        <ele>178</ele>
        <time>2018-07-15T08:46:08Z</time>
      </trkpt>
      <trkpt lat="45.90002" lon="4.73868">
        <ele>178</ele>
        <time>2018-07-15T08:46:09Z</time>
      </trkpt>
      <trkpt lat="45.89994" lon="4.73869">
        <ele>178</ele>
        <time>2018-07-15T08:46:10Z</time>
      </trkpt>
      <trkpt lat="45.89988" lon="4.7387">
        <ele>178</ele>
        <time>2018-07-15T08:46:11Z</time>
      </trkpt>
      <trkpt lat="45.89981" lon="4.73872">
        <ele>178</ele>
        <time>2018-07-15T08:46:12Z</time>
      </trkpt>
      <trkpt lat="45.89977" lon="4.73873">
        <ele>178</ele>
        <time>2018-07-15T08:46:13Z</time>
      </trkpt>
      <trkpt lat="45.89972" lon="4.73876">
        <ele>178</ele>
        <time>2018-07-15T08:46:14Z</time>
      </trkpt>
      <trkpt lat="45.89966" lon="4.73879">
        <ele>178</ele>
        <time>2018-07-15T08:46:15Z</time>
      </trkpt>
      <trkpt lat="45.89961" lon="4.73879">
        <ele>178</ele>
        <time>2018-07-15T08:46:16Z</time>
      </trkpt>
      <trkpt lat="45.89957" lon="4.73883">
        <ele>178</ele>
        <time>2018-07-15T08:46:17Z</time>
      </trkpt>
      <trkpt lat="45.89951" lon="4.73885">
        <ele>178</ele>
        <time>2018-07-15T08:46:18Z</time>
      </trkpt>
      <trkpt lat="45.89944" lon="4.73888">
        <ele>178</ele>
        <time>2018-07-15T08:46:19Z</time>
      </trkpt>
      <trkpt lat="45.89938" lon="4.7389">
        <ele>178</ele>
        <time>2018-07-15T08:46:20Z</time>
      </trkpt>
      <trkpt lat="45.89932" lon="4.73893">
        <ele>178</ele>
        <time>2018-07-15T08:46:21Z</time>
      </trkpt>
      <trkpt lat="45.89925" lon="4.73896">
        <ele>178</ele>
        <time>2018-07-15T08:46:22Z</time>
      </trkpt>
      <trkpt lat="45.89919" lon="4.73898">
        <ele>178</ele>
        <time>2018-07-15T08:46:23Z</time>
      </trkpt>
      <trkpt lat="45.89913" lon="4.73902">
        <ele>178</ele>
        <time>2018-07-15T08:46:24Z</time>
      </trkpt>
      <trkpt lat="45.89906" lon="4.73904">
        <ele>178</ele>
        <time>2018-07-15T08:46:25Z</time>
      </trkpt>
      <trkpt lat="45.899" lon="4.73906">
        <ele>178</ele>
        <time>2018-07-15T08:46:26Z</time>
      </trkpt>
      <trkpt lat="45.89894" lon="4.73907">
        <ele>179</ele>
        <time>2018-07-15T08:46:27Z</time>
      </trkpt>
      <trkpt lat="45.89887" lon="4.73912">
        <ele>179</ele>
        <time>2018-07-15T08:46:28Z</time>
      </trkpt>
      <trkpt lat="45.89881" lon="4.73915">
        <ele>179</ele>
        <time>2018-07-15T08:46:29Z</time>
      </trkpt>
      <trkpt lat="45.89874" lon="4.73918">
        <ele>179</ele>
        <time>2018-07-15T08:46:30Z</time>
      </trkpt>
      <trkpt lat="45.89867" lon="4.73921">
        <ele>179</ele>
        <time>2018-07-15T08:46:31Z</time>
      </trkpt>
      <trkpt lat="45.89859" lon="4.73926">
        <ele>179</ele>
        <time>2018-07-15T08:46:32Z</time>
      </trkpt>
      <trkpt lat="45.89853" lon="4.73928">
        <ele>179</ele>
        <time>2018-07-15T08:46:33Z</time>
      </trkpt>
      <trkpt lat="45.89846" lon="4.7393">
        <ele>179</ele>
        <time>2018-07-15T08:46:34Z</time>
      </trkpt>
      <trkpt lat="45.89841" lon="4.73931">
        <ele>179</ele>
        <time>2018-07-15T08:46:35Z</time>
      </trkpt>
      <trkpt lat="45.89832" lon="4.73934">
        <ele>179</ele>
        <time>2018-07-15T08:46:36Z</time>
      </trkpt>
      <trkpt lat="45.89827" lon="4.73935">
        <ele>179</ele>
        <time>2018-07-15T08:46:37Z</time>
      </trkpt>
      <trkpt lat="45.8982" lon="4.73937">
        <ele>179</ele>
        <time>2018-07-15T08:46:38Z</time>
      </trkpt>
      <trkpt lat="45.89815" lon="4.73944">
        <ele>179</ele>
        <time>2018-07-15T08:46:39Z</time>
      </trkpt>
      <trkpt lat="45.89808" lon="4.73946">
        <ele>179</ele>
        <time>2018-07-15T08:46:40Z</time>
      </trkpt>
      <trkpt lat="45.89801" lon="4.73948">
        <ele>179</ele>
        <time>2018-07-15T08:46:41Z</time>
      </trkpt>
      <trkpt lat="45.89795" lon="4.73952">
        <ele>179</ele>
        <time>2018-07-15T08:46:42Z</time>
      </trkpt>
      <trkpt lat="45.89789" lon="4.73956">
        <ele>179</ele>
        <time>2018-07-15T08:46:43Z</time>
      </trkpt>
      <trkpt lat="45.89783" lon="4.73959">
        <ele>179</ele>
        <time>2018-07-15T08:46:44Z</time>
      </trkpt>
      <trkpt lat="45.89778" lon="4.73961">
        <ele>179</ele>
        <time>2018-07-15T08:46:45Z</time>
      </trkpt>
      <trkpt lat="45.89771" lon="4.73964">
        <ele>179</ele>
        <time>2018-07-15T08:46:46Z</time>
      </trkpt>
      <trkpt lat="45.89765" lon="4.73965">
        <ele>179</ele>
        <time>2018-07-15T08:46:47Z</time>
      </trkpt>
      <trkpt lat="45.89758" lon="4.73968">
        <ele>178</ele>
        <time>2018-07-15T08:46:48Z</time>
      </trkpt>
      <trkpt lat="45.89752" lon="4.73971">
        <ele>178</ele>
        <time>2018-07-15T08:46:49Z</time>
      </trkpt>
      <trkpt lat="45.89746" lon="4.73973">
        <ele>178</ele>
        <time>2018-07-15T08:46:50Z</time>
      </trkpt>
      <trkpt lat="45.89739" lon="4.73975">
        <ele>178</ele>
        <time>2018-07-15T08:46:51Z</time>
      </trkpt>
      <trkpt lat="45.89732" lon="4.73978">
        <ele>178</ele>
        <time>2018-07-15T08:46:52Z</time>
      </trkpt>
      <trkpt lat="45.89725" lon="4.73981">
        <ele>178</ele>
        <time>2018-07-15T08:46:53Z</time>
      </trkpt>
      <trkpt lat="45.89719" lon="4.73984">
        <ele>178</ele>
        <time>2018-07-15T08:46:54Z</time>
      </trkpt>
      <trkpt lat="45.89713" lon="4.73985">
        <ele>178</ele>
        <time>2018-07-15T08:46:55Z</time>
      </trkpt>
      <trkpt lat="45.89706" lon="4.73988">
        <ele>178</ele>
        <time>2018-07-15T08:46:56Z</time>
      </trkpt>
      <trkpt lat="45.89699" lon="4.7399">
        <ele>178</ele>
        <time>2018-07-15T08:46:57Z</time>
      </trkpt>
      <trkpt lat="45.89692" lon="4.73992">
        <ele>178</ele>
        <time>2018-07-15T08:46:58Z</time>
      </trkpt>
      <trkpt lat="45.89687" lon="4.73997">
        <ele>179</ele>
        <time>2018-07-15T08:46:59Z</time>
      </trkpt>
      <trkpt lat="45.89682" lon="4.74">
        <ele>179</ele>
        <time>2018-07-15T08:47:00Z</time>
      </trkpt>
      <trkpt lat="45.89676" lon="4.74002">
        <ele>179</ele>
        <time>2018-07-15T08:47:01Z</time>
      </trkpt>
      <trkpt lat="45.89672" lon="4.74004">
        <ele>179</ele>
        <time>2018-07-15T08:47:02Z</time>
      </trkpt>
      <trkpt lat="45.89665" lon="4.74009">
        <ele>179</ele>
        <time>2018-07-15T08:47:03Z</time>
      </trkpt>
      <trkpt lat="45.89659" lon="4.74012">
        <ele>179</ele>
        <time>2018-07-15T08:47:04Z</time>
      </trkpt>
      <trkpt lat="45.89652" lon="4.74017">
        <ele>180</ele>
        <time>2018-07-15T08:47:05Z</time>
      </trkpt>
      <trkpt lat="45.89645" lon="4.74019">
        <ele>180</ele>
        <time>2018-07-15T08:47:06Z</time>
      </trkpt>
      <trkpt lat="45.89638" lon="4.74022">
        <ele>180</ele>
        <time>2018-07-15T08:47:07Z</time>
      </trkpt>
      <trkpt lat="45.89632" lon="4.74024">
        <ele>180</ele>
        <time>2018-07-15T08:47:08Z</time>
      </trkpt>
      <trkpt lat="45.89627" lon="4.74027">
        <ele>180</ele>
        <time>2018-07-15T08:47:09Z</time>
      </trkpt>
      <trkpt lat="45.89621" lon="4.74029">
        <ele>180</ele>
        <time>2018-07-15T08:47:10Z</time>
      </trkpt>
      <trkpt lat="45.89615" lon="4.74032">
        <ele>180</ele>
        <time>2018-07-15T08:47:11Z</time>
      </trkpt>
      <trkpt lat="45.89609" lon="4.74035">
        <ele>180</ele>
        <time>2018-07-15T08:47:12Z</time>
      </trkpt>
      <trkpt lat="45.89603" lon="4.74036">
        <ele>180</ele>
        <time>2018-07-15T08:47:13Z</time>
      </trkpt>
      <trkpt lat="45.89597" lon="4.74038">
        <ele>180</ele>
        <time>2018-07-15T08:47:14Z</time>
      </trkpt>
      <trkpt lat="45.89594" lon="4.7404">
        <ele>180</ele>
        <time>2018-07-15T08:47:15Z</time>
      </trkpt>
      <trkpt lat="45.89589" lon="4.74043">
        <ele>180</ele>
        <time>2018-07-15T08:47:16Z</time>
      </trkpt>
      <trkpt lat="45.89583" lon="4.74045">
        <ele>181</ele>
        <time>2018-07-15T08:47:17Z</time>
      </trkpt>
      <trkpt lat="45.89577" lon="4.74047">
        <ele>181</ele>
        <time>2018-07-15T08:47:18Z</time>
      </trkpt>
      <trkpt lat="45.8957" lon="4.74051">
        <ele>181</ele>
        <time>2018-07-15T08:47:19Z</time>
      </trkpt>
      <trkpt lat="45.89565" lon="4.74055">
        <ele>181</ele>
        <time>2018-07-15T08:47:20Z</time>
      </trkpt>
      <trkpt lat="45.89558" lon="4.74057">
        <ele>181</ele>
        <time>2018-07-15T08:47:21Z</time>
      </trkpt>
      <trkpt lat="45.89552" lon="4.7406">
        <ele>181</ele>
        <time>2018-07-15T08:47:22Z</time>
      </trkpt>
      <trkpt lat="45.89545" lon="4.74063">
        <ele>181</ele>
        <time>2018-07-15T08:47:23Z</time>
      </trkpt>
      <trkpt lat="45.89539" lon="4.74064">
        <ele>181</ele>
        <time>2018-07-15T08:47:24Z</time>
      </trkpt>
      <trkpt lat="45.89532" lon="4.74068">
        <ele>181</ele>
        <time>2018-07-15T08:47:25Z</time>
      </trkpt>
      <trkpt lat="45.89528" lon="4.74071">
        <ele>181</ele>
        <time>2018-07-15T08:47:26Z</time>
      </trkpt>
      <trkpt lat="45.89523" lon="4.74073">
        <ele>181</ele>
        <time>2018-07-15T08:47:27Z</time>
      </trkpt>
      <trkpt lat="45.89518" lon="4.74074">
        <ele>181</ele>
        <time>2018-07-15T08:47:28Z</time>
      </trkpt>
      <trkpt lat="45.89512" lon="4.74076">
        <ele>181</ele>
        <time>2018-07-15T08:47:29Z</time>
      </trkpt>
      <trkpt lat="45.89507" lon="4.74077">
        <ele>181</ele>
        <time>2018-07-15T08:47:30Z</time>
      </trkpt>
      <trkpt lat="45.89502" lon="4.7408">
        <ele>181</ele>
        <time>2018-07-15T08:47:31Z</time>
      </trkpt>
      <trkpt lat="45.89497" lon="4.74082">
        <ele>181</ele>
        <time>2018-07-15T08:47:32Z</time>
      </trkpt>
      <trkpt lat="45.89492" lon="4.74084">
        <ele>182</ele>
        <time>2018-07-15T08:47:33Z</time>
      </trkpt>
      <trkpt lat="45.89487" lon="4.74086">
        <ele>182</ele>
        <time>2018-07-15T08:47:34Z</time>
      </trkpt>
      <trkpt lat="45.89481" lon="4.74089">
        <ele>182</ele>
        <time>2018-07-15T08:47:35Z</time>
      </trkpt>
      <trkpt lat="45.89475" lon="4.74091">
        <ele>182</ele>
        <time>2018-07-15T08:47:36Z</time>
      </trkpt>
      <trkpt lat="45.8947" lon="4.74093">
        <ele>182</ele>
        <time>2018-07-15T08:47:37Z</time>
      </trkpt>
      <trkpt lat="45.89465" lon="4.74095">
        <ele>182</ele>
        <time>2018-07-15T08:47:38Z</time>
      </trkpt>
      <trkpt lat="45.89459" lon="4.74098">
        <ele>182</ele>
        <time>2018-07-15T08:47:39Z</time>
      </trkpt>
      <trkpt lat="45.89453" lon="4.74101">
        <ele>182</ele>
        <time>2018-07-15T08:47:40Z</time>
      </trkpt>
      <trkpt lat="45.89446" lon="4.74104">
        <ele>182</ele>
        <time>2018-07-15T08:47:41Z</time>
      </trkpt>
      <trkpt lat="45.8944" lon="4.74105">
        <ele>183</ele>
        <time>2018-07-15T08:47:42Z</time>
      </trkpt>
      <trkpt lat="45.89435" lon="4.74108">
        <ele>183</ele>
        <time>2018-07-15T08:47:43Z</time>
      </trkpt>
      <trkpt lat="45.89429" lon="4.7411">
        <ele>183</ele>
        <time>2018-07-15T08:47:44Z</time>
      </trkpt>
      <trkpt lat="45.89424" lon="4.74113">
        <ele>183</ele>
        <time>2018-07-15T08:47:45Z</time>
      </trkpt>
      <trkpt lat="45.89418" lon="4.74116">
        <ele>183</ele>
        <time>2018-07-15T08:47:46Z</time>
      </trkpt>
      <trkpt lat="45.89412" lon="4.74118">
        <ele>184</ele>
        <time>2018-07-15T08:47:47Z</time>
      </trkpt>
      <trkpt lat="45.89406" lon="4.7412">
        <ele>184</ele>
        <time>2018-07-15T08:47:48Z</time>
      </trkpt>
      <trkpt lat="45.89401" lon="4.74123">
        <ele>184</ele>
        <time>2018-07-15T08:47:49Z</time>
      </trkpt>
      <trkpt lat="45.89395" lon="4.74127">
        <ele>184</ele>
        <time>2018-07-15T08:47:50Z</time>
      </trkpt>
      <trkpt lat="45.89389" lon="4.7413">
        <ele>184</ele>
        <time>2018-07-15T08:47:51Z</time>
      </trkpt>
      <trkpt lat="45.89383" lon="4.74133">
        <ele>184</ele>
        <time>2018-07-15T08:47:52Z</time>
      </trkpt>
      <trkpt lat="45.89378" lon="4.74137">
        <ele>184</ele>
        <time>2018-07-15T08:47:53Z</time>
      </trkpt>
      <trkpt lat="45.89373" lon="4.74139">
        <ele>184</ele>
        <time>2018-07-15T08:47:54Z</time>
      </trkpt>
      <trkpt lat="45.89368" lon="4.74142">
        <ele>184</ele>
        <time>2018-07-15T08:47:55Z</time>
      </trkpt>
      <trkpt lat="45.89361" lon="4.74145">
        <ele>184</ele>
        <time>2018-07-15T08:47:56Z</time>
      </trkpt>
      <trkpt lat="45.89355" lon="4.74146">
        <ele>185</ele>
        <time>2018-07-15T08:47:57Z</time>
      </trkpt>
      <trkpt lat="45.89349" lon="4.74148">
        <ele>185</ele>
        <time>2018-07-15T08:47:58Z</time>
      </trkpt>
      <trkpt lat="45.89345" lon="4.74151">
        <ele>185</ele>
        <time>2018-07-15T08:47:59Z</time>
      </trkpt>
      <trkpt lat="45.8934" lon="4.74154">
        <ele>185</ele>
        <time>2018-07-15T08:48:00Z</time>
      </trkpt>
      <trkpt lat="45.89334" lon="4.74156">
        <ele>185</ele>
        <time>2018-07-15T08:48:01Z</time>
      </trkpt>
      <trkpt lat="45.89329" lon="4.74158">
        <ele>186</ele>
        <time>2018-07-15T08:48:02Z</time>
      </trkpt>
      <trkpt lat="45.89323" lon="4.74158">
        <ele>185</ele>
        <time>2018-07-15T08:48:03Z</time>
      </trkpt>
      <trkpt lat="45.89317" lon="4.74159">
        <ele>185</ele>
        <time>2018-07-15T08:48:04Z</time>
      </trkpt>
      <trkpt lat="45.8931" lon="4.74162">
        <ele>185</ele>
        <time>2018-07-15T08:48:05Z</time>
      </trkpt>
      <trkpt lat="45.89304" lon="4.74163">
        <ele>185</ele>
        <time>2018-07-15T08:48:06Z</time>
      </trkpt>
      <trkpt lat="45.89299" lon="4.74165">
        <ele>185</ele>
        <time>2018-07-15T08:48:07Z</time>
      </trkpt>
      <trkpt lat="45.89294" lon="4.74168">
        <ele>186</ele>
        <time>2018-07-15T08:48:08Z</time>
      </trkpt>
      <trkpt lat="45.8929" lon="4.74172">
        <ele>186</ele>
        <time>2018-07-15T08:48:09Z</time>
      </trkpt>
      <trkpt lat="45.89284" lon="4.74174">
        <ele>186</ele>
        <time>2018-07-15T08:48:10Z</time>
      </trkpt>
      <trkpt lat="45.89277" lon="4.74176">
        <ele>186</ele>
        <time>2018-07-15T08:48:11Z</time>
      </trkpt>
      <trkpt lat="45.89271" lon="4.74178">
        <ele>186</ele>
        <time>2018-07-15T08:48:12Z</time>
      </trkpt>
      <trkpt lat="45.89267" lon="4.74181">
        <ele>186</ele>
        <time>2018-07-15T08:48:13Z</time>
      </trkpt>
      <trkpt lat="45.89257" lon="4.74181">
        <ele>186</ele>
        <time>2018-07-15T08:48:14Z</time>
      </trkpt>
      <trkpt lat="45.8925" lon="4.74182">
        <ele>186</ele>
        <time>2018-07-15T08:48:15Z</time>
      </trkpt>
      <trkpt lat="45.89244" lon="4.74184">
        <ele>186</ele>
        <time>2018-07-15T08:48:16Z</time>
      </trkpt>
      <trkpt lat="45.89237" lon="4.74187">
        <ele>186</ele>
        <time>2018-07-15T08:48:17Z</time>
      </trkpt>
      <trkpt lat="45.8923" lon="4.7419">
        <ele>186</ele>
        <time>2018-07-15T08:48:18Z</time>
      </trkpt>
      <trkpt lat="45.89223" lon="4.74192">
        <ele>186</ele>
        <time>2018-07-15T08:48:19Z</time>
      </trkpt>
      <trkpt lat="45.89218" lon="4.74195">
        <ele>186</ele>
        <time>2018-07-15T08:48:20Z</time>
      </trkpt>
      <trkpt lat="45.89212" lon="4.74198">
        <ele>186</ele>
        <time>2018-07-15T08:48:21Z</time>
      </trkpt>
      <trkpt lat="45.89204" lon="4.74198">
        <ele>186</ele>
        <time>2018-07-15T08:48:22Z</time>
      </trkpt>
      <trkpt lat="45.89199" lon="4.74199">
        <ele>186</ele>
        <time>2018-07-15T08:48:23Z</time>
      </trkpt>
      <trkpt lat="45.89194" lon="4.74201">
        <ele>186</ele>
        <time>2018-07-15T08:48:24Z</time>
      </trkpt>
      <trkpt lat="45.89185" lon="4.74201">
        <ele>186</ele>
        <time>2018-07-15T08:48:25Z</time>
      </trkpt>
      <trkpt lat="45.89179" lon="4.74204">
        <ele>186</ele>
        <time>2018-07-15T08:48:26Z</time>
      </trkpt>
      <trkpt lat="45.89174" lon="4.74207">
        <ele>186</ele>
        <time>2018-07-15T08:48:27Z</time>
      </trkpt>
      <trkpt lat="45.89168" lon="4.74209">
        <ele>186</ele>
        <time>2018-07-15T08:48:28Z</time>
      </trkpt>
      <trkpt lat="45.89163" lon="4.74213">
        <ele>186</ele>
        <time>2018-07-15T08:48:29Z</time>
      </trkpt>
      <trkpt lat="45.89157" lon="4.74217">
        <ele>186</ele>
        <time>2018-07-15T08:48:30Z</time>
      </trkpt>
      <trkpt lat="45.89153" lon="4.74223">
        <ele>186</ele>
        <time>2018-07-15T08:48:31Z</time>
      </trkpt>
      <trkpt lat="45.89147" lon="4.74224">
        <ele>186</ele>
        <time>2018-07-15T08:48:32Z</time>
      </trkpt>
      <trkpt lat="45.89143" lon="4.74227">
        <ele>186</ele>
        <time>2018-07-15T08:48:33Z</time>
      </trkpt>
      <trkpt lat="45.89136" lon="4.7423">
        <ele>186</ele>
        <time>2018-07-15T08:48:34Z</time>
      </trkpt>
      <trkpt lat="45.8913" lon="4.74231">
        <ele>186</ele>
        <time>2018-07-15T08:48:35Z</time>
      </trkpt>
      <trkpt lat="45.89124" lon="4.74234">
        <ele>186</ele>
        <time>2018-07-15T08:48:36Z</time>
      </trkpt>
      <trkpt lat="45.89116" lon="4.74236">
        <ele>186</ele>
        <time>2018-07-15T08:48:37Z</time>
      </trkpt>
      <trkpt lat="45.8911" lon="4.74236">
        <ele>186</ele>
        <time>2018-07-15T08:48:38Z</time>
      </trkpt>
      <trkpt lat="45.89104" lon="4.74239">
        <ele>186</ele>
        <time>2018-07-15T08:48:39Z</time>
      </trkpt>
      <trkpt lat="45.89098" lon="4.74243">
        <ele>186</ele>
        <time>2018-07-15T08:48:40Z</time>
      </trkpt>
      <trkpt lat="45.89092" lon="4.74247">
        <ele>186</ele>
        <time>2018-07-15T08:48:41Z</time>
      </trkpt>
      <trkpt lat="45.89086" lon="4.74251">
        <ele>186</ele>
        <time>2018-07-15T08:48:42.887Z</time>
      </trkpt>
      <trkpt lat="45.89079" lon="4.74253">
        <ele>186</ele>
        <time>2018-07-15T08:48:43Z</time>
      </trkpt>
      <trkpt lat="45.89074" lon="4.74255">
        <ele>186</ele>
        <time>2018-07-15T08:48:44Z</time>
      </trkpt>
      <trkpt lat="45.89069" lon="4.74256">
        <ele>186</ele>
        <time>2018-07-15T08:48:45Z</time>
      </trkpt>
      <trkpt lat="45.89063" lon="4.74258">
        <ele>186</ele>
        <time>2018-07-15T08:48:46Z</time>
      </trkpt>
      <trkpt lat="45.89059" lon="4.74259">
        <ele>187</ele>
        <time>2018-07-15T08:48:47Z</time>
      </trkpt>
      <trkpt lat="45.89054" lon="4.74262">
        <ele>187</ele>
        <time>2018-07-15T08:48:48Z</time>
      </trkpt>
      <trkpt lat="45.89049" lon="4.74263">
        <ele>187</ele>
        <time>2018-07-15T08:48:49Z</time>
      </trkpt>
      <trkpt lat="45.89042" lon="4.74265">
        <ele>187</ele>
        <time>2018-07-15T08:48:51Z</time>
      </trkpt>
      <trkpt lat="45.89036" lon="4.74268">
        <ele>187</ele>
        <time>2018-07-15T08:48:52Z</time>
      </trkpt>
      <trkpt lat="45.89031" lon="4.74268">
        <ele>187</ele>
        <time>2018-07-15T08:48:53Z</time>
      </trkpt>
      <trkpt lat="45.89027" lon="4.74272">
        <ele>187</ele>
        <time>2018-07-15T08:48:54Z</time>
      </trkpt>
      <trkpt lat="45.89021" lon="4.74273">
        <ele>187</ele>
        <time>2018-07-15T08:48:55Z</time>
      </trkpt>
      <trkpt lat="45.89015" lon="4.74274">
        <ele>187</ele>
        <time>2018-07-15T08:48:56Z</time>
      </trkpt>
      <trkpt lat="45.89011" lon="4.74276">
        <ele>187</ele>
        <time>2018-07-15T08:48:57Z</time>
      </trkpt>
      <trkpt lat="45.89005" lon="4.74276">
        <ele>187</ele>
        <time>2018-07-15T08:48:58Z</time>
      </trkpt>
      <trkpt lat="45.89" lon="4.74275">
        <ele>187</ele>
        <time>2018-07-15T08:48:59Z</time>
      </trkpt>
      <trkpt lat="45.88996" lon="4.74277">
        <ele>187</ele>
        <time>2018-07-15T08:49:00Z</time>
      </trkpt>
      <trkpt lat="45.88989" lon="4.7428">
        <ele>187</ele>
        <time>2018-07-15T08:49:01Z</time>
      </trkpt>
      <trkpt lat="45.88985" lon="4.7428">
        <ele>187</ele>
        <time>2018-07-15T08:49:02Z</time>
      </trkpt>
      <trkpt lat="45.88979" lon="4.7428">
        <ele>187</ele>
        <time>2018-07-15T08:49:03Z</time>
      </trkpt>
      <trkpt lat="45.88973" lon="4.74279">
        <ele>187</ele>
        <time>2018-07-15T08:49:04Z</time>
      </trkpt>
      <trkpt lat="45.88965" lon="4.74273">
        <ele>187</ele>
        <time>2018-07-15T08:49:06Z</time>
      </trkpt>
      <trkpt lat="45.88959" lon="4.74272">
        <ele>187</ele>
        <time>2018-07-15T08:49:07Z</time>
      </trkpt>
      <trkpt lat="45.88951" lon="4.7427">
        <ele>187</ele>
        <time>2018-07-15T08:49:09Z</time>
      </trkpt>
      <trkpt lat="45.88946" lon="4.74267">
        <ele>187</ele>
        <time>2018-07-15T08:49:10Z</time>
      </trkpt>
      <trkpt lat="45.88942" lon="4.74267">
        <ele>187</ele>
        <time>2018-07-15T08:49:11Z</time>
      </trkpt>
      <trkpt lat="45.88936" lon="4.74265">
        <ele>187</ele>
        <time>2018-07-15T08:49:12Z</time>
      </trkpt>
      <trkpt lat="45.88928" lon="4.74261">
        <ele>187</ele>
        <time>2018-07-15T08:49:14Z</time>
      </trkpt>
      <trkpt lat="45.88922" lon="4.74259">
        <ele>187</ele>
        <time>2018-07-15T08:49:15Z</time>
      </trkpt>
      <trkpt lat="45.88918" lon="4.74257">
        <ele>187</ele>
        <time>2018-07-15T08:49:16Z</time>
      </trkpt>
      <trkpt lat="45.88912" lon="4.74253">
        <ele>187</ele>
        <time>2018-07-15T08:49:17Z</time>
      </trkpt>
      <trkpt lat="45.88904" lon="4.74248">
        <ele>187</ele>
        <time>2018-07-15T08:49:19Z</time>
      </trkpt>
      <trkpt lat="45.88899" lon="4.74245">
        <ele>187</ele>
        <time>2018-07-15T08:49:20Z</time>
      </trkpt>
      <trkpt lat="45.88895" lon="4.74242">
        <ele>187</ele>
        <time>2018-07-15T08:49:21Z</time>
      </trkpt>
      <trkpt lat="45.88891" lon="4.74238">
        <ele>187</ele>
        <time>2018-07-15T08:49:22Z</time>
      </trkpt>
      <trkpt lat="45.88886" lon="4.74235">
        <ele>187</ele>
        <time>2018-07-15T08:49:23Z</time>
      </trkpt>
      <trkpt lat="45.88882" lon="4.74232">
        <ele>187</ele>
        <time>2018-07-15T08:49:24Z</time>
      </trkpt>
      <trkpt lat="45.88876" lon="4.74229">
        <ele>187</ele>
        <time>2018-07-15T08:49:25Z</time>
      </trkpt>
      <trkpt lat="45.88871" lon="4.74225">
        <ele>187</ele>
        <time>2018-07-15T08:49:26Z</time>
      </trkpt>
      <trkpt lat="45.88865" lon="4.74221">
        <ele>187</ele>
        <time>2018-07-15T08:49:27Z</time>
      </trkpt>
      <trkpt lat="45.88857" lon="4.74219">
        <ele>187</ele>
        <time>2018-07-15T08:49:28Z</time>
      </trkpt>
      <trkpt lat="45.88853" lon="4.74213">
        <ele>187</ele>
        <time>2018-07-15T08:49:29Z</time>
      </trkpt>
      <trkpt lat="45.88848" lon="4.7421">
        <ele>187</ele>
        <time>2018-07-15T08:49:30Z</time>
      </trkpt>
      <trkpt lat="45.88843" lon="4.74207">
        <ele>187</ele>
        <time>2018-07-15T08:49:31Z</time>
      </trkpt>
      <trkpt lat="45.88838" lon="4.74205">
        <ele>187</ele>
        <time>2018-07-15T08:49:32Z</time>
      </trkpt>
      <trkpt lat="45.88832" lon="4.74202">
        <ele>187</ele>
        <time>2018-07-15T08:49:33Z</time>
      </trkpt>
      <trkpt lat="45.88827" lon="4.74198">
        <ele>187</ele>
        <time>2018-07-15T08:49:34Z</time>
      </trkpt>
      <trkpt lat="45.88821" lon="4.74195">
        <ele>187</ele>
        <time>2018-07-15T08:49:35Z</time>
      </trkpt>
      <trkpt lat="45.88815" lon="4.74191">
        <ele>187</ele>
        <time>2018-07-15T08:49:36Z</time>
      </trkpt>
      <trkpt lat="45.88809" lon="4.74189">
        <ele>187</ele>
        <time>2018-07-15T08:49:37Z</time>
      </trkpt>
      <trkpt lat="45.88804" lon="4.74186">
        <ele>187</ele>
        <time>2018-07-15T08:49:38Z</time>
      </trkpt>
      <trkpt lat="45.88798" lon="4.74182">
        <ele>187</ele>
        <time>2018-07-15T08:49:39Z</time>
      </trkpt>
      <trkpt lat="45.88792" lon="4.74179">
        <ele>188</ele>
        <time>2018-07-15T08:49:40Z</time>
      </trkpt>
      <trkpt lat="45.88787" lon="4.74176">
        <ele>188</ele>
        <time>2018-07-15T08:49:41Z</time>
      </trkpt>
      <trkpt lat="45.88781" lon="4.74173">
        <ele>188</ele>
        <time>2018-07-15T08:49:42Z</time>
      </trkpt>
      <trkpt lat="45.88776" lon="4.74169">
        <ele>188</ele>
        <time>2018-07-15T08:49:43Z</time>
      </trkpt>
      <trkpt lat="45.8877" lon="4.74166">
        <ele>187</ele>
        <time>2018-07-15T08:49:44Z</time>
      </trkpt>
      <trkpt lat="45.88765" lon="4.74163">
        <ele>187</ele>
        <time>2018-07-15T08:49:45Z</time>
      </trkpt>
      <trkpt lat="45.88759" lon="4.7416">
        <ele>187</ele>
        <time>2018-07-15T08:49:46Z</time>
      </trkpt>
      <trkpt lat="45.88754" lon="4.74156">
        <ele>187</ele>
        <time>2018-07-15T08:49:47Z</time>
      </trkpt>
      <trkpt lat="45.88749" lon="4.74151">
        <ele>188</ele>
        <time>2018-07-15T08:49:48Z</time>
      </trkpt>
      <trkpt lat="45.88744" lon="4.74147">
        <ele>188</ele>
        <time>2018-07-15T08:49:49Z</time>
      </trkpt>
      <trkpt lat="45.88739" lon="4.74143">
        <ele>188</ele>
        <time>2018-07-15T08:49:50Z</time>
      </trkpt>
      <trkpt lat="45.88734" lon="4.74139">
        <ele>188</ele>
        <time>2018-07-15T08:49:51Z</time>
      </trkpt>
      <trkpt lat="45.8873" lon="4.74136">
        <ele>188</ele>
        <time>2018-07-15T08:49:52Z</time>
      </trkpt>
      <trkpt lat="45.88725" lon="4.74131">
        <ele>188</ele>
        <time>2018-07-15T08:49:53Z</time>
      </trkpt>
      <trkpt lat="45.8872" lon="4.74127">
        <ele>188</ele>
        <time>2018-07-15T08:49:54Z</time>
      </trkpt>
      <trkpt lat="45.88714" lon="4.74123">
        <ele>188</ele>
        <time>2018-07-15T08:49:55Z</time>
      </trkpt>
      <trkpt lat="45.88709" lon="4.74119">
        <ele>188</ele>
        <time>2018-07-15T08:49:56Z</time>
      </trkpt>
      <trkpt lat="45.88704" lon="4.74115">
        <ele>188</ele>
        <time>2018-07-15T08:49:57Z</time>
      </trkpt>
      <trkpt lat="45.887" lon="4.74112">
        <ele>188</ele>
        <time>2018-07-15T08:49:58Z</time>
      </trkpt>
      <trkpt lat="45.88695" lon="4.74111">
        <ele>188</ele>
        <time>2018-07-15T08:49:59Z</time>
      </trkpt>
      <trkpt lat="45.8869" lon="4.7411">
        <ele>188</ele>
        <time>2018-07-15T08:50:00Z</time>
      </trkpt>
      <trkpt lat="45.88685" lon="4.74108">
        <ele>188</ele>
        <time>2018-07-15T08:50:02Z</time>
      </trkpt>
      <trkpt lat="45.88681" lon="4.74104">
        <ele>188</ele>
        <time>2018-07-15T08:50:03Z</time>
      </trkpt>
      <trkpt lat="45.88676" lon="4.74093">
        <ele>188</ele>
        <time>2018-07-15T08:50:05Z</time>
      </trkpt>
      <trkpt lat="45.88674" lon="4.74087">
        <ele>188</ele>
        <time>2018-07-15T08:50:06Z</time>
      </trkpt>
      <trkpt lat="45.88672" lon="4.7408">
        <ele>188</ele>
        <time>2018-07-15T08:50:07Z</time>
      </trkpt>
      <trkpt lat="45.88669" lon="4.74074">
        <ele>188</ele>
        <time>2018-07-15T08:50:08Z</time>
      </trkpt>
      <trkpt lat="45.88667" lon="4.74066">
        <ele>187</ele>
        <time>2018-07-15T08:50:09Z</time>
      </trkpt>
      <trkpt lat="45.88665" lon="4.74059">
        <ele>187</ele>
        <time>2018-07-15T08:50:10Z</time>
      </trkpt>
      <trkpt lat="45.88662" lon="4.74051">
        <ele>187</ele>
        <time>2018-07-15T08:50:11Z</time>
      </trkpt>
      <trkpt lat="45.8866" lon="4.74043">
        <ele>187</ele>
        <time>2018-07-15T08:50:12Z</time>
      </trkpt>
      <trkpt lat="45.88658" lon="4.74034">
        <ele>187</ele>
        <time>2018-07-15T08:50:13Z</time>
      </trkpt>
      <trkpt lat="45.88657" lon="4.74026">
        <ele>187</ele>
        <time>2018-07-15T08:50:14Z</time>
      </trkpt>
      <trkpt lat="45.88656" lon="4.74017">
        <ele>187</ele>
        <time>2018-07-15T08:50:15Z</time>
      </trkpt>
      <trkpt lat="45.88659" lon="4.74007">
        <ele>186</ele>
        <time>2018-07-15T08:50:16Z</time>
      </trkpt>
      <trkpt lat="45.88659" lon="4.73997">
        <ele>186</ele>
        <time>2018-07-15T08:50:17Z</time>
      </trkpt>
      <trkpt lat="45.88658" lon="4.73989">
        <ele>186</ele>
        <time>2018-07-15T08:50:18Z</time>
      </trkpt>
      <trkpt lat="45.88655" lon="4.73979">
        <ele>187</ele>
        <time>2018-07-15T08:50:19Z</time>
      </trkpt>
      <trkpt lat="45.88654" lon="4.73971">
        <ele>187</ele>
        <time>2018-07-15T08:50:20Z</time>
      </trkpt>
      <trkpt lat="45.88651" lon="4.73961">
        <ele>187</ele>
        <time>2018-07-15T08:50:21Z</time>
      </trkpt>
      <trkpt lat="45.8865" lon="4.7395">
        <ele>187</ele>
        <time>2018-07-15T08:50:22Z</time>
      </trkpt>
      <trkpt lat="45.88651" lon="4.73942">
        <ele>187</ele>
        <time>2018-07-15T08:50:23Z</time>
      </trkpt>
      <trkpt lat="45.88649" lon="4.73932">
        <ele>187</ele>
        <time>2018-07-15T08:50:24Z</time>
      </trkpt>
      <trkpt lat="45.88649" lon="4.73922">
        <ele>187</ele>
        <time>2018-07-15T08:50:25Z</time>
      </trkpt>
      <trkpt lat="45.88648" lon="4.73912">
        <ele>187</ele>
        <time>2018-07-15T08:50:26Z</time>
      </trkpt>
      <trkpt lat="45.88649" lon="4.73903">
        <ele>187</ele>
        <time>2018-07-15T08:50:27Z</time>
      </trkpt>
      <trkpt lat="45.88648" lon="4.73894">
        <ele>187</ele>
        <time>2018-07-15T08:50:28Z</time>
      </trkpt>
      <trkpt lat="45.88649" lon="4.73883">
        <ele>187</ele>
        <time>2018-07-15T08:50:29Z</time>
      </trkpt>
      <trkpt lat="45.88647" lon="4.73873">
        <ele>187</ele>
        <time>2018-07-15T08:50:30Z</time>
      </trkpt>
      <trkpt lat="45.88647" lon="4.73863">
        <ele>187</ele>
        <time>2018-07-15T08:50:31Z</time>
      </trkpt>
      <trkpt lat="45.88648" lon="4.73854">
        <ele>187</ele>
        <time>2018-07-15T08:50:32Z</time>
      </trkpt>
      <trkpt lat="45.88649" lon="4.73845">
        <ele>187</ele>
        <time>2018-07-15T08:50:33Z</time>
      </trkpt>
      <trkpt lat="45.88649" lon="4.73838">
        <ele>187</ele>
        <time>2018-07-15T08:50:34Z</time>
      </trkpt>
      <trkpt lat="45.8865" lon="4.73829">
        <ele>187</ele>
        <time>2018-07-15T08:50:35Z</time>
      </trkpt>
      <trkpt lat="45.8865" lon="4.73819">
        <ele>187</ele>
        <time>2018-07-15T08:50:36Z</time>
      </trkpt>
      <trkpt lat="45.88649" lon="4.7381">
        <ele>187</ele>
        <time>2018-07-15T08:50:37Z</time>
      </trkpt>
      <trkpt lat="45.88649" lon="4.73802">
        <ele>187</ele>
        <time>2018-07-15T08:50:38Z</time>
      </trkpt>
      <trkpt lat="45.88649" lon="4.73794">
        <ele>187</ele>
        <time>2018-07-15T08:50:39Z</time>
      </trkpt>
      <trkpt lat="45.88649" lon="4.73785">
        <ele>187</ele>
        <time>2018-07-15T08:50:40Z</time>
      </trkpt>
      <trkpt lat="45.88649" lon="4.73777">
        <ele>187</ele>
        <time>2018-07-15T08:50:41Z</time>
      </trkpt>
      <trkpt lat="45.88649" lon="4.73769">
        <ele>187</ele>
        <time>2018-07-15T08:50:42Z</time>
      </trkpt>
      <trkpt lat="45.88649" lon="4.73761">
        <ele>187</ele>
        <time>2018-07-15T08:50:43Z</time>
      </trkpt>
      <trkpt lat="45.88649" lon="4.73753">
        <ele>187</ele>
        <time>2018-07-15T08:50:44Z</time>
      </trkpt>
      <trkpt lat="45.88648" lon="4.73747">
        <ele>187</ele>
        <time>2018-07-15T08:50:45Z</time>
      </trkpt>
      <trkpt lat="45.88646" lon="4.73738">
        <ele>187</ele>
        <time>2018-07-15T08:50:46Z</time>
      </trkpt>
      <trkpt lat="45.88646" lon="4.73731">
        <ele>186</ele>
        <time>2018-07-15T08:50:47Z</time>
      </trkpt>
      <trkpt lat="45.88647" lon="4.73724">
        <ele>186</ele>
        <time>2018-07-15T08:50:48Z</time>
      </trkpt>
      <trkpt lat="45.88649" lon="4.73717">
        <ele>186</ele>
        <time>2018-07-15T08:50:49Z</time>
      </trkpt>
      <trkpt lat="45.88649" lon="4.73711">
        <ele>186</ele>
        <time>2018-07-15T08:50:50Z</time>
      </trkpt>
      <trkpt lat="45.88651" lon="4.737">
        <ele>186</ele>
        <time>2018-07-15T08:50:52Z</time>
      </trkpt>
      <trkpt lat="45.88651" lon="4.73693">
        <ele>186</ele>
        <time>2018-07-15T08:50:53Z</time>
      </trkpt>
      <trkpt lat="45.88654" lon="4.73682">
        <ele>186</ele>
        <time>2018-07-15T08:50:55Z</time>
      </trkpt>
      <trkpt lat="45.88654" lon="4.73675">
        <ele>186</ele>
        <time>2018-07-15T08:50:56Z</time>
      </trkpt>
      <trkpt lat="45.88654" lon="4.73669">
        <ele>186</ele>
        <time>2018-07-15T08:50:57Z</time>
      </trkpt>
      <trkpt lat="45.88654" lon="4.73661">
        <ele>186</ele>
        <time>2018-07-15T08:50:58Z</time>
      </trkpt>
      <trkpt lat="45.88655" lon="4.73654">
        <ele>186</ele>
        <time>2018-07-15T08:50:59Z</time>
      </trkpt>
      <trkpt lat="45.88654" lon="4.73646">
        <ele>186</ele>
        <time>2018-07-15T08:51:00Z</time>
      </trkpt>
      <trkpt lat="45.88656" lon="4.73639">
        <ele>186</ele>
        <time>2018-07-15T08:51:01Z</time>
      </trkpt>
      <trkpt lat="45.88657" lon="4.73632">
        <ele>186</ele>
        <time>2018-07-15T08:51:02Z</time>
      </trkpt>
      <trkpt lat="45.88653" lon="4.73624">
        <ele>186</ele>
        <time>2018-07-15T08:51:03Z</time>
      </trkpt>
      <trkpt lat="45.88651" lon="4.73616">
        <ele>186</ele>
        <time>2018-07-15T08:51:04Z</time>
      </trkpt>
      <trkpt lat="45.88651" lon="4.73608">
        <ele>186</ele>
        <time>2018-07-15T08:51:05Z</time>
      </trkpt>
      <trkpt lat="45.88651" lon="4.73601">
        <ele>185</ele>
        <time>2018-07-15T08:51:06Z</time>
      </trkpt>
      <trkpt lat="45.88653" lon="4.73593">
        <ele>185</ele>
        <time>2018-07-15T08:51:07Z</time>
      </trkpt>
      <trkpt lat="45.88655" lon="4.73586">
        <ele>185</ele>
        <time>2018-07-15T08:51:08Z</time>
      </trkpt>
      <trkpt lat="45.88655" lon="4.73577">
        <ele>185</ele>
        <time>2018-07-15T08:51:09Z</time>
      </trkpt>
      <trkpt lat="45.88655" lon="4.73568">
        <ele>185</ele>
        <time>2018-07-15T08:51:10Z</time>
      </trkpt>
      <trkpt lat="45.88652" lon="4.73557">
        <ele>185</ele>
        <time>2018-07-15T08:51:11Z</time>
      </trkpt>
      <trkpt lat="45.88653" lon="4.73546">
        <ele>185</ele>
        <time>2018-07-15T08:51:12Z</time>
      </trkpt>
      <trkpt lat="45.88653" lon="4.73536">
        <ele>185</ele>
        <time>2018-07-15T08:51:13Z</time>
      </trkpt>
      <trkpt lat="45.88655" lon="4.73527">
        <ele>185</ele>
        <time>2018-07-15T08:51:14Z</time>
      </trkpt>
      <trkpt lat="45.88656" lon="4.73517">
        <ele>185</ele>
        <time>2018-07-15T08:51:15Z</time>
      </trkpt>
      <trkpt lat="45.88657" lon="4.73507">
        <ele>184</ele>
        <time>2018-07-15T08:51:16Z</time>
      </trkpt>
      <trkpt lat="45.88658" lon="4.73498">
        <ele>184</ele>
        <time>2018-07-15T08:51:17Z</time>
      </trkpt>
      <trkpt lat="45.88659" lon="4.7349">
        <ele>184</ele>
        <time>2018-07-15T08:51:18Z</time>
      </trkpt>
      <trkpt lat="45.88656" lon="4.73479">
        <ele>184</ele>
        <time>2018-07-15T08:51:20Z</time>
      </trkpt>
      <trkpt lat="45.88653" lon="4.73473">
        <ele>184</ele>
        <time>2018-07-15T08:51:21Z</time>
      </trkpt>
      <trkpt lat="45.88645" lon="4.73469">
        <ele>184</ele>
        <time>2018-07-15T08:51:23Z</time>
      </trkpt>
      <trkpt lat="45.88642" lon="4.73466">
        <ele>184</ele>
        <time>2018-07-15T08:51:24Z</time>
      </trkpt>
      <trkpt lat="45.88639" lon="4.73461">
        <ele>184</ele>
        <time>2018-07-15T08:51:25Z</time>
      </trkpt>
      <trkpt lat="45.88638" lon="4.73454">
        <ele>184</ele>
        <time>2018-07-15T08:51:26Z</time>
      </trkpt>
      <trkpt lat="45.88637" lon="4.73447">
        <ele>184</ele>
        <time>2018-07-15T08:51:27Z</time>
      </trkpt>
      <trkpt lat="45.88639" lon="4.7344">
        <ele>184</ele>
        <time>2018-07-15T08:51:28Z</time>
      </trkpt>
      <trkpt lat="45.8864" lon="4.73432">
        <ele>184</ele>
        <time>2018-07-15T08:51:29Z</time>
      </trkpt>
      <trkpt lat="45.8864" lon="4.73424">
        <ele>184</ele>
        <time>2018-07-15T08:51:30Z</time>
      </trkpt>
      <trkpt lat="45.8864" lon="4.73416">
        <ele>184</ele>
        <time>2018-07-15T08:51:31Z</time>
      </trkpt>
      <trkpt lat="45.88638" lon="4.73407">
        <ele>184</ele>
        <time>2018-07-15T08:51:32Z</time>
      </trkpt>
      <trkpt lat="45.88637" lon="4.73399">
        <ele>184</ele>
        <time>2018-07-15T08:51:33Z</time>
      </trkpt>
      <trkpt lat="45.88629" lon="4.73393">
        <ele>183</ele>
        <time>2018-07-15T08:51:34Z</time>
      </trkpt>
      <trkpt lat="45.88622" lon="4.73391">
        <ele>183</ele>
        <time>2018-07-15T08:51:35Z</time>
      </trkpt>
      <trkpt lat="45.88616" lon="4.7339">
        <ele>183</ele>
        <time>2018-07-15T08:51:36Z</time>
      </trkpt>
      <trkpt lat="45.88609" lon="4.73389">
        <ele>183</ele>
        <time>2018-07-15T08:51:37Z</time>
      </trkpt>
      <trkpt lat="45.88605" lon="4.73392">
        <ele>183</ele>
        <time>2018-07-15T08:51:38Z</time>
      </trkpt>
      <trkpt lat="45.88599" lon="4.73393">
        <ele>183</ele>
        <time>2018-07-15T08:51:39Z</time>
      </trkpt>
      <trkpt lat="45.88593" lon="4.73394">
        <ele>183</ele>
        <time>2018-07-15T08:51:40Z</time>
      </trkpt>
      <trkpt lat="45.88587" lon="4.73397">
        <ele>183</ele>
        <time>2018-07-15T08:51:41Z</time>
      </trkpt>
      <trkpt lat="45.88582" lon="4.73399">
        <ele>183</ele>
        <time>2018-07-15T08:51:42Z</time>
      </trkpt>
      <trkpt lat="45.88576" lon="4.73402">
        <ele>183</ele>
        <time>2018-07-15T08:51:43Z</time>
      </trkpt>
      <trkpt lat="45.88568" lon="4.73404">
        <ele>183</ele>
        <time>2018-07-15T08:51:44Z</time>
      </trkpt>
      <trkpt lat="45.88562" lon="4.73408">
        <ele>183</ele>
        <time>2018-07-15T08:51:45Z</time>
      </trkpt>
      <trkpt lat="45.88556" lon="4.73409">
        <ele>183</ele>
        <time>2018-07-15T08:51:46Z</time>
      </trkpt>
      <trkpt lat="45.88549" lon="4.7341">
        <ele>183</ele>
        <time>2018-07-15T08:51:47Z</time>
      </trkpt>
      <trkpt lat="45.88543" lon="4.73412">
        <ele>183</ele>
        <time>2018-07-15T08:51:48Z</time>
      </trkpt>
      <trkpt lat="45.88536" lon="4.73414">
        <ele>183</ele>
        <time>2018-07-15T08:51:49Z</time>
      </trkpt>
      <trkpt lat="45.8853" lon="4.73417">
        <ele>184</ele>
        <time>2018-07-15T08:51:50Z</time>
      </trkpt>
      <trkpt lat="45.88523" lon="4.73418">
        <ele>184</ele>
        <time>2018-07-15T08:51:51Z</time>
      </trkpt>
      <trkpt lat="45.88516" lon="4.73419">
        <ele>184</ele>
        <time>2018-07-15T08:51:52Z</time>
      </trkpt>
      <trkpt lat="45.88511" lon="4.73425">
        <ele>184</ele>
        <time>2018-07-15T08:51:53Z</time>
      </trkpt>
      <trkpt lat="45.88505" lon="4.73427">
        <ele>184</ele>
        <time>2018-07-15T08:51:54Z</time>
      </trkpt>
      <trkpt lat="45.88499" lon="4.73429">
        <ele>184</ele>
        <time>2018-07-15T08:51:55Z</time>
      </trkpt>
      <trkpt lat="45.88493" lon="4.7343">
        <ele>184</ele>
        <time>2018-07-15T08:51:56Z</time>
      </trkpt>
      <trkpt lat="45.88486" lon="4.73432">
        <ele>184</ele>
        <time>2018-07-15T08:51:57Z</time>
      </trkpt>
      <trkpt lat="45.8848" lon="4.73432">
        <ele>184</ele>
        <time>2018-07-15T08:51:58Z</time>
      </trkpt>
      <trkpt lat="45.88474" lon="4.73434">
        <ele>184</ele>
        <time>2018-07-15T08:51:59Z</time>
      </trkpt>
      <trkpt lat="45.88469" lon="4.73438">
        <ele>184</ele>
        <time>2018-07-15T08:52:00Z</time>
      </trkpt>
      <trkpt lat="45.88463" lon="4.7344">
        <ele>184</ele>
        <time>2018-07-15T08:52:01Z</time>
      </trkpt>
      <trkpt lat="45.88457" lon="4.73443">
        <ele>184</ele>
        <time>2018-07-15T08:52:02Z</time>
      </trkpt>
      <trkpt lat="45.8845" lon="4.73444">
        <ele>184</ele>
        <time>2018-07-15T08:52:03Z</time>
      </trkpt>
      <trkpt lat="45.88444" lon="4.73446">
        <ele>184</ele>
        <time>2018-07-15T08:52:04Z</time>
      </trkpt>
      <trkpt lat="45.88439" lon="4.73446">
        <ele>184</ele>
        <time>2018-07-15T08:52:05Z</time>
      </trkpt>
      <trkpt lat="45.88432" lon="4.73448">
        <ele>184</ele>
        <time>2018-07-15T08:52:06Z</time>
      </trkpt>
      <trkpt lat="45.88425" lon="4.73449">
        <ele>184</ele>
        <time>2018-07-15T08:52:07Z</time>
      </trkpt>
      <trkpt lat="45.88418" lon="4.7345">
        <ele>184</ele>
        <time>2018-07-15T08:52:08Z</time>
      </trkpt>
      <trkpt lat="45.88412" lon="4.73451">
        <ele>184</ele>
        <time>2018-07-15T08:52:09Z</time>
      </trkpt>
      <trkpt lat="45.88405" lon="4.73452">
        <ele>184</ele>
        <time>2018-07-15T08:52:10Z</time>
      </trkpt>
      <trkpt lat="45.88401" lon="4.73454">
        <ele>184</ele>
        <time>2018-07-15T08:52:11Z</time>
      </trkpt>
      <trkpt lat="45.88395" lon="4.73456">
        <ele>184</ele>
        <time>2018-07-15T08:52:12Z</time>
      </trkpt>
      <trkpt lat="45.88389" lon="4.73457">
        <ele>184</ele>
        <time>2018-07-15T08:52:13Z</time>
      </trkpt>
      <trkpt lat="45.88383" lon="4.73458">
        <ele>184</ele>
        <time>2018-07-15T08:52:14Z</time>
      </trkpt>
      <trkpt lat="45.88377" lon="4.7346">
        <ele>184</ele>
        <time>2018-07-15T08:52:15Z</time>
      </trkpt>
      <trkpt lat="45.88371" lon="4.73461">
        <ele>184</ele>
        <time>2018-07-15T08:52:16Z</time>
      </trkpt>
      <trkpt lat="45.88365" lon="4.73462">
        <ele>184</ele>
        <time>2018-07-15T08:52:17Z</time>
      </trkpt>
      <trkpt lat="45.88359" lon="4.73464">
        <ele>184</ele>
        <time>2018-07-15T08:52:18Z</time>
      </trkpt>
      <trkpt lat="45.88353" lon="4.73467">
        <ele>184</ele>
        <time>2018-07-15T08:52:19Z</time>
      </trkpt>
      <trkpt lat="45.88346" lon="4.73469">
        <ele>184</ele>
        <time>2018-07-15T08:52:20Z</time>
      </trkpt>
      <trkpt lat="45.88339" lon="4.73472">
        <ele>184</ele>
        <time>2018-07-15T08:52:21Z</time>
      </trkpt>
      <trkpt lat="45.88333" lon="4.73473">
        <ele>184</ele>
        <time>2018-07-15T08:52:22Z</time>
      </trkpt>
      <trkpt lat="45.88326" lon="4.73475">
        <ele>184</ele>
        <time>2018-07-15T08:52:23Z</time>
      </trkpt>
      <trkpt lat="45.8832" lon="4.73476">
        <ele>184</ele>
        <time>2018-07-15T08:52:24Z</time>
      </trkpt>
      <trkpt lat="45.88313" lon="4.73477">
        <ele>184</ele>
        <time>2018-07-15T08:52:25Z</time>
      </trkpt>
      <trkpt lat="45.88306" lon="4.73477">
        <ele>184</ele>
        <time>2018-07-15T08:52:26Z</time>
      </trkpt>
      <trkpt lat="45.883" lon="4.73479">
        <ele>184</ele>
        <time>2018-07-15T08:52:27Z</time>
      </trkpt>
      <trkpt lat="45.88297" lon="4.73483">
        <ele>184</ele>
        <time>2018-07-15T08:52:28Z</time>
      </trkpt>
      <trkpt lat="45.88293" lon="4.73486">
        <ele>184</ele>
        <time>2018-07-15T08:52:29Z</time>
      </trkpt>
      <trkpt lat="45.88288" lon="4.7349">
        <ele>184</ele>
        <time>2018-07-15T08:52:30Z</time>
      </trkpt>
      <trkpt lat="45.88283" lon="4.73494">
        <ele>184</ele>
        <time>2018-07-15T08:52:31Z</time>
      </trkpt>
      <trkpt lat="45.88277" lon="4.73497">
        <ele>184</ele>
        <time>2018-07-15T08:52:32Z</time>
      </trkpt>
      <trkpt lat="45.88272" lon="4.73501">
        <ele>185</ele>
        <time>2018-07-15T08:52:33Z</time>
      </trkpt>
      <trkpt lat="45.88268" lon="4.73507">
        <ele>185</ele>
        <time>2018-07-15T08:52:34Z</time>
      </trkpt>
      <trkpt lat="45.88262" lon="4.7351">
        <ele>185</ele>
        <time>2018-07-15T08:52:35Z</time>
      </trkpt>
      <trkpt lat="45.88257" lon="4.73515">
        <ele>185</ele>
        <time>2018-07-15T08:52:36Z</time>
      </trkpt>
      <trkpt lat="45.88252" lon="4.73519">
        <ele>185</ele>
        <time>2018-07-15T08:52:37Z</time>
      </trkpt>
      <trkpt lat="45.88246" lon="4.73522">
        <ele>185</ele>
        <time>2018-07-15T08:52:38Z</time>
      </trkpt>
      <trkpt lat="45.8824" lon="4.73525">
        <ele>185</ele>
        <time>2018-07-15T08:52:39Z</time>
      </trkpt>
      <trkpt lat="45.88234" lon="4.73529">
        <ele>185</ele>
        <time>2018-07-15T08:52:40Z</time>
      </trkpt>
      <trkpt lat="45.88228" lon="4.73533">
        <ele>185</ele>
        <time>2018-07-15T08:52:41Z</time>
      </trkpt>
      <trkpt lat="45.88222" lon="4.73536">
        <ele>185</ele>
        <time>2018-07-15T08:52:42Z</time>
      </trkpt>
      <trkpt lat="45.88217" lon="4.7354">
        <ele>185</ele>
        <time>2018-07-15T08:52:43Z</time>
      </trkpt>
      <trkpt lat="45.88212" lon="4.73543">
        <ele>185</ele>
        <time>2018-07-15T08:52:44Z</time>
      </trkpt>
      <trkpt lat="45.88206" lon="4.73547">
        <ele>186</ele>
        <time>2018-07-15T08:52:45Z</time>
      </trkpt>
      <trkpt lat="45.88201" lon="4.73551">
        <ele>186</ele>
        <time>2018-07-15T08:52:46Z</time>
      </trkpt>
      <trkpt lat="45.88197" lon="4.73555">
        <ele>186</ele>
        <time>2018-07-15T08:52:47Z</time>
      </trkpt>
      <trkpt lat="45.88191" lon="4.73558">
        <ele>186</ele>
        <time>2018-07-15T08:52:48Z</time>
      </trkpt>
      <trkpt lat="45.88185" lon="4.73563">
        <ele>186</ele>
        <time>2018-07-15T08:52:49Z</time>
      </trkpt>
      <trkpt lat="45.88179" lon="4.73569">
        <ele>186</ele>
        <time>2018-07-15T08:52:50Z</time>
      </trkpt>
      <trkpt lat="45.88173" lon="4.73573">
        <ele>186</ele>
        <time>2018-07-15T08:52:51Z</time>
      </trkpt>
      <trkpt lat="45.88166" lon="4.73576">
        <ele>186</ele>
        <time>2018-07-15T08:52:52Z</time>
      </trkpt>
      <trkpt lat="45.8816" lon="4.73579">
        <ele>186</ele>
        <time>2018-07-15T08:52:53Z</time>
      </trkpt>
      <trkpt lat="45.88154" lon="4.73582">
        <ele>186</ele>
        <time>2018-07-15T08:52:54Z</time>
      </trkpt>
      <trkpt lat="45.88149" lon="4.73586">
        <ele>187</ele>
        <time>2018-07-15T08:52:55Z</time>
      </trkpt>
      <trkpt lat="45.88143" lon="4.7359">
        <ele>187</ele>
        <time>2018-07-15T08:52:56Z</time>
      </trkpt>
      <trkpt lat="45.88137" lon="4.73595">
        <ele>187</ele>
        <time>2018-07-15T08:52:57Z</time>
      </trkpt>
      <trkpt lat="45.88132" lon="4.73599">
        <ele>187</ele>
        <time>2018-07-15T08:52:58Z</time>
      </trkpt>
      <trkpt lat="45.88127" lon="4.73603">
        <ele>187</ele>
        <time>2018-07-15T08:52:59Z</time>
      </trkpt>
      <trkpt lat="45.88122" lon="4.73607">
        <ele>188</ele>
        <time>2018-07-15T08:53:00Z</time>
      </trkpt>
      <trkpt lat="45.88115" lon="4.7361">
        <ele>188</ele>
        <time>2018-07-15T08:53:01Z</time>
      </trkpt>
      <trkpt lat="45.88109" lon="4.73614">
        <ele>188</ele>
        <time>2018-07-15T08:53:02Z</time>
      </trkpt>
      <trkpt lat="45.88104" lon="4.73617">
        <ele>188</ele>
        <time>2018-07-15T08:53:03Z</time>
      </trkpt>
      <trkpt lat="45.881" lon="4.73622">
        <ele>188</ele>
        <time>2018-07-15T08:53:04Z</time>
      </trkpt>
      <trkpt lat="45.88095" lon="4.73625">
        <ele>188</ele>
        <time>2018-07-15T08:53:05Z</time>
      </trkpt>
      <trkpt lat="45.8809" lon="4.73628">
        <ele>188</ele>
        <time>2018-07-15T08:53:06Z</time>
      </trkpt>
      <trkpt lat="45.88085" lon="4.73631">
        <ele>188</ele>
        <time>2018-07-15T08:53:07Z</time>
      </trkpt>
      <trkpt lat="45.8808" lon="4.73633">
        <ele>189</ele>
        <time>2018-07-15T08:53:08Z</time>
      </trkpt>
      <trkpt lat="45.88076" lon="4.73635">
        <ele>189</ele>
        <time>2018-07-15T08:53:09Z</time>
      </trkpt>
      <trkpt lat="45.88071" lon="4.73639">
        <ele>189</ele>
        <time>2018-07-15T08:53:10Z</time>
      </trkpt>
      <trkpt lat="45.88066" lon="4.73642">
        <ele>189</ele>
        <time>2018-07-15T08:53:11Z</time>
      </trkpt>
      <trkpt lat="45.8806" lon="4.73646">
        <ele>189</ele>
        <time>2018-07-15T08:53:12Z</time>
      </trkpt>
      <trkpt lat="45.88053" lon="4.7365">
        <ele>189</ele>
        <time>2018-07-15T08:53:13Z</time>
      </trkpt>
      <trkpt lat="45.88048" lon="4.73653">
        <ele>189</ele>
        <time>2018-07-15T08:53:14Z</time>
      </trkpt>
      <trkpt lat="45.88043" lon="4.73657">
        <ele>189</ele>
        <time>2018-07-15T08:53:15Z</time>
      </trkpt>
      <trkpt lat="45.88038" lon="4.7366">
        <ele>189</ele>
        <time>2018-07-15T08:53:16Z</time>
      </trkpt>
      <trkpt lat="45.88033" lon="4.73662">
        <ele>189</ele>
        <time>2018-07-15T08:53:17Z</time>
      </trkpt>
      <trkpt lat="45.88027" lon="4.73663">
        <ele>189</ele>
        <time>2018-07-15T08:53:18Z</time>
      </trkpt>
      <trkpt lat="45.88021" lon="4.73663">
        <ele>189</ele>
        <time>2018-07-15T08:53:19Z</time>
      </trkpt>
      <trkpt lat="45.88016" lon="4.73663">
        <ele>189</ele>
        <time>2018-07-15T08:53:20Z</time>
      </trkpt>
      <trkpt lat="45.8801" lon="4.73661">
        <ele>190</ele>
        <time>2018-07-15T08:53:21Z</time>
      </trkpt>
      <trkpt lat="45.88004" lon="4.73659">
        <ele>190</ele>
        <time>2018-07-15T08:53:22Z</time>
      </trkpt>
      <trkpt lat="45.87998" lon="4.73658">
        <ele>190</ele>
        <time>2018-07-15T08:53:23Z</time>
      </trkpt>
      <trkpt lat="45.87991" lon="4.73656">
        <ele>190</ele>
        <time>2018-07-15T08:53:24Z</time>
      </trkpt>
      <trkpt lat="45.87985" lon="4.73654">
        <ele>190</ele>
        <time>2018-07-15T08:53:25Z</time>
      </trkpt>
      <trkpt lat="45.8798" lon="4.73651">
        <ele>190</ele>
        <time>2018-07-15T08:53:26Z</time>
      </trkpt>
      <trkpt lat="45.87974" lon="4.73649">
        <ele>190</ele>
        <time>2018-07-15T08:53:27Z</time>
      </trkpt>
      <trkpt lat="45.87969" lon="4.73647">
        <ele>190</ele>
        <time>2018-07-15T08:53:28Z</time>
      </trkpt>
      <trkpt lat="45.87963" lon="4.73645">
        <ele>190</ele>
        <time>2018-07-15T08:53:29Z</time>
      </trkpt>
      <trkpt lat="45.87957" lon="4.73643">
        <ele>190</ele>
        <time>2018-07-15T08:53:30Z</time>
      </trkpt>
      <trkpt lat="45.87951" lon="4.73642">
        <ele>190</ele>
        <time>2018-07-15T08:53:31Z</time>
      </trkpt>
      <trkpt lat="45.87945" lon="4.7364">
        <ele>190</ele>
        <time>2018-07-15T08:53:32Z</time>
      </trkpt>
      <trkpt lat="45.8794" lon="4.73638">
        <ele>190</ele>
        <time>2018-07-15T08:53:33Z</time>
      </trkpt>
      <trkpt lat="45.87934" lon="4.73636">
        <ele>190</ele>
        <time>2018-07-15T08:53:34Z</time>
      </trkpt>
      <trkpt lat="45.87929" lon="4.73634">
        <ele>190</ele>
        <time>2018-07-15T08:53:35Z</time>
      </trkpt>
      <trkpt lat="45.87922" lon="4.73633">
        <ele>190</ele>
        <time>2018-07-15T08:53:36Z</time>
      </trkpt>
      <trkpt lat="45.87915" lon="4.73631">
        <ele>190</ele>
        <time>2018-07-15T08:53:37Z</time>
      </trkpt>
      <trkpt lat="45.8791" lon="4.7363">
        <ele>190</ele>
        <time>2018-07-15T08:53:38Z</time>
      </trkpt>
      <trkpt lat="45.87905" lon="4.73627">
        <ele>190</ele>
        <time>2018-07-15T08:53:39Z</time>
      </trkpt>
      <trkpt lat="45.87898" lon="4.73626">
        <ele>190</ele>
        <time>2018-07-15T08:53:40Z</time>
      </trkpt>
      <trkpt lat="45.87892" lon="4.73624">
        <ele>190</ele>
        <time>2018-07-15T08:53:41Z</time>
      </trkpt>
      <trkpt lat="45.87886" lon="4.73622">
        <ele>190</ele>
        <time>2018-07-15T08:53:42Z</time>
      </trkpt>
      <trkpt lat="45.87881" lon="4.7362">
        <ele>190</ele>
        <time>2018-07-15T08:53:43Z</time>
      </trkpt>
      <trkpt lat="45.87877" lon="4.7362">
        <ele>190</ele>
        <time>2018-07-15T08:53:44Z</time>
      </trkpt>
      <trkpt lat="45.87872" lon="4.7362">
        <ele>190</ele>
        <time>2018-07-15T08:53:45Z</time>
      </trkpt>
      <trkpt lat="45.87866" lon="4.73621">
        <ele>190</ele>
        <time>2018-07-15T08:53:46Z</time>
      </trkpt>
      <trkpt lat="45.87861" lon="4.73625">
        <ele>190</ele>
        <time>2018-07-15T08:53:47Z</time>
      </trkpt>
      <trkpt lat="45.87857" lon="4.73627">
        <ele>190</ele>
        <time>2018-07-15T08:53:48Z</time>
      </trkpt>
      <trkpt lat="45.87853" lon="4.7363">
        <ele>191</ele>
        <time>2018-07-15T08:53:49Z</time>
      </trkpt>
      <trkpt lat="45.87848" lon="4.73632">
        <ele>191</ele>
        <time>2018-07-15T08:53:50Z</time>
      </trkpt>
      <trkpt lat="45.87841" lon="4.73635">
        <ele>191</ele>
        <time>2018-07-15T08:53:52Z</time>
      </trkpt>
      <trkpt lat="45.87837" lon="4.73636">
        <ele>191</ele>
        <time>2018-07-15T08:53:53Z</time>
      </trkpt>
      <trkpt lat="45.87834" lon="4.73629">
        <ele>191</ele>
        <time>2018-07-15T08:53:54Z</time>
      </trkpt>
      <trkpt lat="45.87833" lon="4.73624">
        <ele>190</ele>
        <time>2018-07-15T08:53:55Z</time>
      </trkpt>
      <trkpt lat="45.8783" lon="4.73619">
        <ele>190</ele>
        <time>2018-07-15T08:53:56Z</time>
      </trkpt>
      <trkpt lat="45.87828" lon="4.73613">
        <ele>190</ele>
        <time>2018-07-15T08:53:57Z</time>
      </trkpt>
      <trkpt lat="45.87825" lon="4.73606">
        <ele>190</ele>
        <time>2018-07-15T08:53:58Z</time>
      </trkpt>
      <trkpt lat="45.87821" lon="4.73599">
        <ele>190</ele>
        <time>2018-07-15T08:53:59Z</time>
      </trkpt>
      <trkpt lat="45.8782" lon="4.73593">
        <ele>190</ele>
        <time>2018-07-15T08:54:00Z</time>
      </trkpt>
      <trkpt lat="45.87816" lon="4.73586">
        <ele>190</ele>
        <time>2018-07-15T08:54:01Z</time>
      </trkpt>
      <trkpt lat="45.87813" lon="4.7358">
        <ele>189</ele>
        <time>2018-07-15T08:54:02Z</time>
      </trkpt>
      <trkpt lat="45.87811" lon="4.73573">
        <ele>189</ele>
        <time>2018-07-15T08:54:03Z</time>
      </trkpt>
      <trkpt lat="45.87807" lon="4.73565">
        <ele>189</ele>
        <time>2018-07-15T08:54:04Z</time>
      </trkpt>
      <trkpt lat="45.87805" lon="4.73559">
        <ele>189</ele>
        <time>2018-07-15T08:54:05Z</time>
      </trkpt>
      <trkpt lat="45.87802" lon="4.73552">
        <ele>189</ele>
        <time>2018-07-15T08:54:06Z</time>
      </trkpt>
      <trkpt lat="45.87798" lon="4.73546">
        <ele>189</ele>
        <time>2018-07-15T08:54:07Z</time>
      </trkpt>
      <trkpt lat="45.87794" lon="4.73539">
        <ele>189</ele>
        <time>2018-07-15T08:54:08Z</time>
      </trkpt>
      <trkpt lat="45.87791" lon="4.73534">
        <ele>189</ele>
        <time>2018-07-15T08:54:09Z</time>
      </trkpt>
      <trkpt lat="45.87788" lon="4.73526">
        <ele>189</ele>
        <time>2018-07-15T08:54:10Z</time>
      </trkpt>
      <trkpt lat="45.87785" lon="4.73519">
        <ele>189</ele>
        <time>2018-07-15T08:54:11Z</time>
      </trkpt>
      <trkpt lat="45.8778" lon="4.73511">
        <ele>189</ele>
        <time>2018-07-15T08:54:12Z</time>
      </trkpt>
      <trkpt lat="45.87777" lon="4.73504">
        <ele>189</ele>
        <time>2018-07-15T08:54:13Z</time>
      </trkpt>
      <trkpt lat="45.87773" lon="4.73497">
        <ele>188</ele>
        <time>2018-07-15T08:54:14Z</time>
      </trkpt>
      <trkpt lat="45.8777" lon="4.73489">
        <ele>188</ele>
        <time>2018-07-15T08:54:15Z</time>
      </trkpt>
      <trkpt lat="45.87767" lon="4.73483">
        <ele>188</ele>
        <time>2018-07-15T08:54:16Z</time>
      </trkpt>
      <trkpt lat="45.87764" lon="4.73474">
        <ele>188</ele>
        <time>2018-07-15T08:54:17Z</time>
      </trkpt>
      <trkpt lat="45.8776" lon="4.73467">
        <ele>188</ele>
        <time>2018-07-15T08:54:18Z</time>
      </trkpt>
      <trkpt lat="45.87756" lon="4.73461">
        <ele>188</ele>
        <time>2018-07-15T08:54:19Z</time>
      </trkpt>
      <trkpt lat="45.87753" lon="4.73454">
        <ele>188</ele>
        <time>2018-07-15T08:54:20Z</time>
      </trkpt>
      <trkpt lat="45.87751" lon="4.73446">
        <ele>188</ele>
        <time>2018-07-15T08:54:21Z</time>
      </trkpt>
      <trkpt lat="45.87748" lon="4.7344">
        <ele>189</ele>
        <time>2018-07-15T08:54:22Z</time>
      </trkpt>
      <trkpt lat="45.87745" lon="4.73431">
        <ele>188</ele>
        <time>2018-07-15T08:54:23Z</time>
      </trkpt>
      <trkpt lat="45.87742" lon="4.73424">
        <ele>188</ele>
        <time>2018-07-15T08:54:24Z</time>
      </trkpt>
      <trkpt lat="45.87739" lon="4.73417">
        <ele>188</ele>
        <time>2018-07-15T08:54:25Z</time>
      </trkpt>
      <trkpt lat="45.87736" lon="4.73408">
        <ele>188</ele>
        <time>2018-07-15T08:54:26Z</time>
      </trkpt>
      <trkpt lat="45.87733" lon="4.73401">
        <ele>188</ele>
        <time>2018-07-15T08:54:27Z</time>
      </trkpt>
      <trkpt lat="45.87729" lon="4.73394">
        <ele>188</ele>
        <time>2018-07-15T08:54:28Z</time>
      </trkpt>
      <trkpt lat="45.87726" lon="4.73387">
        <ele>188</ele>
        <time>2018-07-15T08:54:29Z</time>
      </trkpt>
      <trkpt lat="45.87723" lon="4.73381">
        <ele>187</ele>
        <time>2018-07-15T08:54:30Z</time>
      </trkpt>
      <trkpt lat="45.8772" lon="4.73375">
        <ele>187</ele>
        <time>2018-07-15T08:54:31Z</time>
      </trkpt>
      <trkpt lat="45.87716" lon="4.73367">
        <ele>187</ele>
        <time>2018-07-15T08:54:32Z</time>
      </trkpt>
      <trkpt lat="45.87713" lon="4.7336">
        <ele>187</ele>
        <time>2018-07-15T08:54:33Z</time>
      </trkpt>
      <trkpt lat="45.87709" lon="4.73354">
        <ele>187</ele>
        <time>2018-07-15T08:54:34Z</time>
      </trkpt>
      <trkpt lat="45.87706" lon="4.73347">
        <ele>187</ele>
        <time>2018-07-15T08:54:35Z</time>
      </trkpt>
      <trkpt lat="45.87703" lon="4.7334">
        <ele>187</ele>
        <time>2018-07-15T08:54:36Z</time>
      </trkpt>
      <trkpt lat="45.87699" lon="4.73333">
        <ele>187</ele>
        <time>2018-07-15T08:54:37Z</time>
      </trkpt>
      <trkpt lat="45.87696" lon="4.73325">
        <ele>188</ele>
        <time>2018-07-15T08:54:38Z</time>
      </trkpt>
      <trkpt lat="45.87693" lon="4.73317">
        <ele>188</ele>
        <time>2018-07-15T08:54:39Z</time>
      </trkpt>
      <trkpt lat="45.87689" lon="4.73309">
        <ele>188</ele>
        <time>2018-07-15T08:54:40Z</time>
      </trkpt>
      <trkpt lat="45.87685" lon="4.73303">
        <ele>188</ele>
        <time>2018-07-15T08:54:41Z</time>
      </trkpt>
      <trkpt lat="45.87682" lon="4.73296">
        <ele>188</ele>
        <time>2018-07-15T08:54:42Z</time>
      </trkpt>
      <trkpt lat="45.8768" lon="4.73289">
        <ele>188</ele>
        <time>2018-07-15T08:54:43Z</time>
      </trkpt>
      <trkpt lat="45.87676" lon="4.73284">
        <ele>188</ele>
        <time>2018-07-15T08:54:44Z</time>
      </trkpt>
      <trkpt lat="45.87673" lon="4.73277">
        <ele>188</ele>
        <time>2018-07-15T08:54:45Z</time>
      </trkpt>
      <trkpt lat="45.87669" lon="4.73271">
        <ele>188</ele>
        <time>2018-07-15T08:54:46Z</time>
      </trkpt>
      <trkpt lat="45.87667" lon="4.73264">
        <ele>188</ele>
        <time>2018-07-15T08:54:47Z</time>
      </trkpt>
      <trkpt lat="45.87665" lon="4.73257">
        <ele>189</ele>
        <time>2018-07-15T08:54:48Z</time>
      </trkpt>
      <trkpt lat="45.87661" lon="4.73251">
        <ele>189</ele>
        <time>2018-07-15T08:54:49Z</time>
      </trkpt>
      <trkpt lat="45.87657" lon="4.73243">
        <ele>188</ele>
        <time>2018-07-15T08:54:50Z</time>
      </trkpt>
      <trkpt lat="45.87653" lon="4.73235">
        <ele>188</ele>
        <time>2018-07-15T08:54:51Z</time>
      </trkpt>
      <trkpt lat="45.87649" lon="4.73228">
        <ele>188</ele>
        <time>2018-07-15T08:54:52Z</time>
      </trkpt>
      <trkpt lat="45.87646" lon="4.73221">
        <ele>188</ele>
        <time>2018-07-15T08:54:53Z</time>
      </trkpt>
      <trkpt lat="45.87642" lon="4.73214">
        <ele>188</ele>
        <time>2018-07-15T08:54:54Z</time>
      </trkpt>
      <trkpt lat="45.87638" lon="4.73206">
        <ele>188</ele>
        <time>2018-07-15T08:54:55Z</time>
      </trkpt>
      <trkpt lat="45.87634" lon="4.73198">
        <ele>188</ele>
        <time>2018-07-15T08:54:56Z</time>
      </trkpt>
      <trkpt lat="45.87632" lon="4.73191">
        <ele>188</ele>
        <time>2018-07-15T08:54:57Z</time>
      </trkpt>
      <trkpt lat="45.87628" lon="4.73184">
        <ele>188</ele>
        <time>2018-07-15T08:54:58Z</time>
      </trkpt>
      <trkpt lat="45.87625" lon="4.73177">
        <ele>188</ele>
        <time>2018-07-15T08:54:59Z</time>
      </trkpt>
      <trkpt lat="45.8762" lon="4.73171">
        <ele>187</ele>
        <time>2018-07-15T08:55:00Z</time>
      </trkpt>
      <trkpt lat="45.87616" lon="4.73164">
        <ele>187</ele>
        <time>2018-07-15T08:55:01Z</time>
      </trkpt>
      <trkpt lat="45.87611" lon="4.73156">
        <ele>187</ele>
        <time>2018-07-15T08:55:02Z</time>
      </trkpt>
      <trkpt lat="45.87607" lon="4.73149">
        <ele>187</ele>
        <time>2018-07-15T08:55:03Z</time>
      </trkpt>
      <trkpt lat="45.87603" lon="4.73144">
        <ele>187</ele>
        <time>2018-07-15T08:55:04Z</time>
      </trkpt>
      <trkpt lat="45.87599" lon="4.73136">
        <ele>187</ele>
        <time>2018-07-15T08:55:05Z</time>
      </trkpt>
      <trkpt lat="45.87595" lon="4.73127">
        <ele>187</ele>
        <time>2018-07-15T08:55:06Z</time>
      </trkpt>
      <trkpt lat="45.87591" lon="4.7312">
        <ele>188</ele>
        <time>2018-07-15T08:55:07Z</time>
      </trkpt>
      <trkpt lat="45.87587" lon="4.73112">
        <ele>188</ele>
        <time>2018-07-15T08:55:08Z</time>
      </trkpt>
      <trkpt lat="45.87583" lon="4.73104">
        <ele>188</ele>
        <time>2018-07-15T08:55:09Z</time>
      </trkpt>
      <trkpt lat="45.87578" lon="4.73096">
        <ele>188</ele>
        <time>2018-07-15T08:55:10Z</time>
      </trkpt>
      <trkpt lat="45.87573" lon="4.7309">
        <ele>188</ele>
        <time>2018-07-15T08:55:11Z</time>
      </trkpt>
      <trkpt lat="45.87571" lon="4.73083">
        <ele>188</ele>
        <time>2018-07-15T08:55:12Z</time>
      </trkpt>
      <trkpt lat="45.87567" lon="4.73076">
        <ele>188</ele>
        <time>2018-07-15T08:55:13Z</time>
      </trkpt>
      <trkpt lat="45.87564" lon="4.73069">
        <ele>188</ele>
        <time>2018-07-15T08:55:14Z</time>
      </trkpt>
      <trkpt lat="45.8756" lon="4.73062">
        <ele>188</ele>
        <time>2018-07-15T08:55:15Z</time>
      </trkpt>
      <trkpt lat="45.87556" lon="4.73054">
        <ele>188</ele>
        <time>2018-07-15T08:55:16Z</time>
      </trkpt>
      <trkpt lat="45.87554" lon="4.73046">
        <ele>188</ele>
        <time>2018-07-15T08:55:17Z</time>
      </trkpt>
      <trkpt lat="45.87549" lon="4.73038">
        <ele>188</ele>
        <time>2018-07-15T08:55:18Z</time>
      </trkpt>
      <trkpt lat="45.87546" lon="4.7303">
        <ele>188</ele>
        <time>2018-07-15T08:55:19Z</time>
      </trkpt>
      <trkpt lat="45.87542" lon="4.73022">
        <ele>188</ele>
        <time>2018-07-15T08:55:20Z</time>
      </trkpt>
      <trkpt lat="45.87538" lon="4.73014">
        <ele>187</ele>
        <time>2018-07-15T08:55:21Z</time>
      </trkpt>
      <trkpt lat="45.87536" lon="4.73007">
        <ele>187</ele>
        <time>2018-07-15T08:55:22Z</time>
      </trkpt>
      <trkpt lat="45.87533" lon="4.73">
        <ele>187</ele>
        <time>2018-07-15T08:55:23Z</time>
      </trkpt>
      <trkpt lat="45.87529" lon="4.72993">
        <ele>187</ele>
        <time>2018-07-15T08:55:24Z</time>
      </trkpt>
      <trkpt lat="45.87526" lon="4.72986">
        <ele>187</ele>
        <time>2018-07-15T08:55:25Z</time>
      </trkpt>
      <trkpt lat="45.87523" lon="4.72981">
        <ele>187</ele>
        <time>2018-07-15T08:55:26Z</time>
      </trkpt>
      <trkpt lat="45.8752" lon="4.72974">
        <ele>187</ele>
        <time>2018-07-15T08:55:27Z</time>
      </trkpt>
      <trkpt lat="45.87518" lon="4.72967">
        <ele>187</ele>
        <time>2018-07-15T08:55:28Z</time>
      </trkpt>
      <trkpt lat="45.87514" lon="4.7296">
        <ele>187</ele>
        <time>2018-07-15T08:55:29Z</time>
      </trkpt>
      <trkpt lat="45.87509" lon="4.72953">
        <ele>187</ele>
        <time>2018-07-15T08:55:30Z</time>
      </trkpt>
      <trkpt lat="45.87505" lon="4.72947">
        <ele>187</ele>
        <time>2018-07-15T08:55:31Z</time>
      </trkpt>
      <trkpt lat="45.87502" lon="4.72944">
        <ele>187</ele>
        <time>2018-07-15T08:55:32Z</time>
      </trkpt>
      <trkpt lat="45.87497" lon="4.7294">
        <ele>188</ele>
        <time>2018-07-15T08:55:33Z</time>
      </trkpt>
      <trkpt lat="45.87492" lon="4.72937">
        <ele>188</ele>
        <time>2018-07-15T08:55:34Z</time>
      </trkpt>
      <trkpt lat="45.87486" lon="4.72934">
        <ele>188</ele>
        <time>2018-07-15T08:55:35Z</time>
      </trkpt>
      <trkpt lat="45.87482" lon="4.7293">
        <ele>188</ele>
        <time>2018-07-15T08:55:36Z</time>
      </trkpt>
      <trkpt lat="45.87476" lon="4.72925">
        <ele>188</ele>
        <time>2018-07-15T08:55:37Z</time>
      </trkpt>
      <trkpt lat="45.87473" lon="4.72918">
        <ele>188</ele>
        <time>2018-07-15T08:55:38Z</time>
      </trkpt>
      <trkpt lat="45.87469" lon="4.72911">
        <ele>188</ele>
        <time>2018-07-15T08:55:39Z</time>
      </trkpt>
      <trkpt lat="45.87466" lon="4.72905">
        <ele>188</ele>
        <time>2018-07-15T08:55:40Z</time>
      </trkpt>
      <trkpt lat="45.87464" lon="4.72898">
        <ele>188</ele>
        <time>2018-07-15T08:55:41Z</time>
      </trkpt>
      <trkpt lat="45.87459" lon="4.72891">
        <ele>188</ele>
        <time>2018-07-15T08:55:42Z</time>
      </trkpt>
      <trkpt lat="45.87458" lon="4.72884">
        <ele>188</ele>
        <time>2018-07-15T08:55:43Z</time>
      </trkpt>
      <trkpt lat="45.87457" lon="4.72878">
        <ele>188</ele>
        <time>2018-07-15T08:55:44Z</time>
      </trkpt>
      <trkpt lat="45.87455" lon="4.7287">
        <ele>188</ele>
        <time>2018-07-15T08:55:45Z</time>
      </trkpt>
      <trkpt lat="45.87453" lon="4.72863">
        <ele>188</ele>
        <time>2018-07-15T08:55:46Z</time>
      </trkpt>
      <trkpt lat="45.8745" lon="4.72856">
        <ele>188</ele>
        <time>2018-07-15T08:55:47Z</time>
      </trkpt>
      <trkpt lat="45.87449" lon="4.7285">
        <ele>188</ele>
        <time>2018-07-15T08:55:48Z</time>
      </trkpt>
      <trkpt lat="45.87446" lon="4.72842">
        <ele>188</ele>
        <time>2018-07-15T08:55:49Z</time>
      </trkpt>
      <trkpt lat="45.87444" lon="4.72834">
        <ele>188</ele>
        <time>2018-07-15T08:55:50Z</time>
      </trkpt>
      <trkpt lat="45.87441" lon="4.72826">
        <ele>189</ele>
        <time>2018-07-15T08:55:51Z</time>
      </trkpt>
      <trkpt lat="45.87437" lon="4.7282">
        <ele>189</ele>
        <time>2018-07-15T08:55:52Z</time>
      </trkpt>
      <trkpt lat="45.87435" lon="4.72813">
        <ele>189</ele>
        <time>2018-07-15T08:55:53Z</time>
      </trkpt>
      <trkpt lat="45.87431" lon="4.72806">
        <ele>189</ele>
        <time>2018-07-15T08:55:54Z</time>
      </trkpt>
      <trkpt lat="45.87428" lon="4.72799">
        <ele>189</ele>
        <time>2018-07-15T08:55:55Z</time>
      </trkpt>
      <trkpt lat="45.87425" lon="4.72792">
        <ele>189</ele>
        <time>2018-07-15T08:55:56Z</time>
      </trkpt>
      <trkpt lat="45.87423" lon="4.72786">
        <ele>189</ele>
        <time>2018-07-15T08:55:57Z</time>
      </trkpt>
      <trkpt lat="45.8742" lon="4.72779">
        <ele>189</ele>
        <time>2018-07-15T08:55:58Z</time>
      </trkpt>
      <trkpt lat="45.87419" lon="4.72771">
        <ele>189</ele>
        <time>2018-07-15T08:55:59Z</time>
      </trkpt>
      <trkpt lat="45.87416" lon="4.72764">
        <ele>189</ele>
        <time>2018-07-15T08:56:00Z</time>
      </trkpt>
      <trkpt lat="45.87412" lon="4.72758">
        <ele>189</ele>
        <time>2018-07-15T08:56:01Z</time>
      </trkpt>
      <trkpt lat="45.87409" lon="4.72752">
        <ele>189</ele>
        <time>2018-07-15T08:56:02Z</time>
      </trkpt>
      <trkpt lat="45.87406" lon="4.72747">
        <ele>189</ele>
        <time>2018-07-15T08:56:03Z</time>
      </trkpt>
      <trkpt lat="45.87399" lon="4.72741">
        <ele>189</ele>
        <time>2018-07-15T08:56:04Z</time>
      </trkpt>
      <trkpt lat="45.87395" lon="4.72738">
        <ele>189</ele>
        <time>2018-07-15T08:56:05Z</time>
      </trkpt>
      <trkpt lat="45.8739" lon="4.72728">
        <ele>190</ele>
        <time>2018-07-15T08:56:07Z</time>
      </trkpt>
      <trkpt lat="45.87389" lon="4.72721">
        <ele>190</ele>
        <time>2018-07-15T08:56:08Z</time>
      </trkpt>
      <trkpt lat="45.87387" lon="4.72715">
        <ele>190</ele>
        <time>2018-07-15T08:56:09Z</time>
      </trkpt>
      <trkpt lat="45.87384" lon="4.72708">
        <ele>190</ele>
        <time>2018-07-15T08:56:10Z</time>
      </trkpt>
      <trkpt lat="45.87379" lon="4.72698">
        <ele>190</ele>
        <time>2018-07-15T08:56:11Z</time>
      </trkpt>
      <trkpt lat="45.87375" lon="4.72692">
        <ele>190</ele>
        <time>2018-07-15T08:56:12Z</time>
      </trkpt>
      <trkpt lat="45.87372" lon="4.72687">
        <ele>190</ele>
        <time>2018-07-15T08:56:13Z</time>
      </trkpt>
      <trkpt lat="45.87367" lon="4.72682">
        <ele>190</ele>
        <time>2018-07-15T08:56:14Z</time>
      </trkpt>
      <trkpt lat="45.87361" lon="4.72676">
        <ele>190</ele>
        <time>2018-07-15T08:56:15Z</time>
      </trkpt>
      <trkpt lat="45.87356" lon="4.72671">
        <ele>190</ele>
        <time>2018-07-15T08:56:16Z</time>
      </trkpt>
      <trkpt lat="45.87351" lon="4.72666">
        <ele>190</ele>
        <time>2018-07-15T08:56:17Z</time>
      </trkpt>
      <trkpt lat="45.87346" lon="4.72662">
        <ele>190</ele>
        <time>2018-07-15T08:56:18Z</time>
      </trkpt>
      <trkpt lat="45.87337" lon="4.72658">
        <ele>190</ele>
        <time>2018-07-15T08:56:19Z</time>
      </trkpt>
      <trkpt lat="45.87334" lon="4.72654">
        <ele>190</ele>
        <time>2018-07-15T08:56:20Z</time>
      </trkpt>
      <trkpt lat="45.87329" lon="4.7265">
        <ele>192</ele>
        <time>2018-07-15T08:56:21Z</time>
      </trkpt>
      <trkpt lat="45.87324" lon="4.72645">
        <ele>192</ele>
        <time>2018-07-15T08:56:22Z</time>
      </trkpt>
      <trkpt lat="45.8732" lon="4.7264">
        <ele>193</ele>
        <time>2018-07-15T08:56:23Z</time>
      </trkpt>
      <trkpt lat="45.87315" lon="4.72636">
        <ele>193</ele>
        <time>2018-07-15T08:56:24Z</time>
      </trkpt>
      <trkpt lat="45.87311" lon="4.72632">
        <ele>193</ele>
        <time>2018-07-15T08:56:25Z</time>
      </trkpt>
      <trkpt lat="45.87306" lon="4.72626">
        <ele>193</ele>
        <time>2018-07-15T08:56:26Z</time>
      </trkpt>
      <trkpt lat="45.87303" lon="4.72621">
        <ele>193</ele>
        <time>2018-07-15T08:56:27Z</time>
      </trkpt>
      <trkpt lat="45.87298" lon="4.7261">
        <ele>194</ele>
        <time>2018-07-15T08:56:29Z</time>
      </trkpt>
      <trkpt lat="45.87294" lon="4.72605">
        <ele>194</ele>
        <time>2018-07-15T08:56:30Z</time>
      </trkpt>
      <trkpt lat="45.8729" lon="4.72599">
        <ele>194</ele>
        <time>2018-07-15T08:56:31Z</time>
      </trkpt>
      <trkpt lat="45.87286" lon="4.72594">
        <ele>194</ele>
        <time>2018-07-15T08:56:32Z</time>
      </trkpt>
      <trkpt lat="45.87283" lon="4.7259">
        <ele>194</ele>
        <time>2018-07-15T08:56:33Z</time>
      </trkpt>
      <trkpt lat="45.8728" lon="4.72584">
        <ele>195</ele>
        <time>2018-07-15T08:56:34Z</time>
      </trkpt>
      <trkpt lat="45.87276" lon="4.7258">
        <ele>194</ele>
        <time>2018-07-15T08:56:35Z</time>
      </trkpt>
      <trkpt lat="45.87273" lon="4.72574">
        <ele>194</ele>
        <time>2018-07-15T08:56:36Z</time>
      </trkpt>
      <trkpt lat="45.87269" lon="4.72568">
        <ele>194</ele>
        <time>2018-07-15T08:56:37Z</time>
      </trkpt>
      <trkpt lat="45.87267" lon="4.72562">
        <ele>194</ele>
        <time>2018-07-15T08:56:38Z</time>
      </trkpt>
      <trkpt lat="45.87261" lon="4.72554">
        <ele>194</ele>
        <time>2018-07-15T08:56:40Z</time>
      </trkpt>
      <trkpt lat="45.87258" lon="4.72549">
        <ele>194</ele>
        <time>2018-07-15T08:56:41Z</time>
      </trkpt>
      <trkpt lat="45.87255" lon="4.72538">
        <ele>194</ele>
        <time>2018-07-15T08:56:46Z</time>
      </trkpt>
      <trkpt lat="45.87254" lon="4.72534">
        <ele>193</ele>
        <time>2018-07-15T08:56:47Z</time>
      </trkpt>
      <trkpt lat="45.87252" lon="4.72523">
        <ele>193</ele>
        <time>2018-07-15T08:56:48Z</time>
      </trkpt>
      <trkpt lat="45.87249" lon="4.72518">
        <ele>196</ele>
        <time>2018-07-15T08:56:49Z</time>
      </trkpt>
      <trkpt lat="45.87244" lon="4.72513">
        <ele>195</ele>
        <time>2018-07-15T08:56:50Z</time>
      </trkpt>
      <trkpt lat="45.87241" lon="4.72508">
        <ele>195</ele>
        <time>2018-07-15T08:56:51Z</time>
      </trkpt>
      <trkpt lat="45.87237" lon="4.72503">
        <ele>195</ele>
        <time>2018-07-15T08:56:52Z</time>
      </trkpt>
      <trkpt lat="45.87234" lon="4.72497">
        <ele>194</ele>
        <time>2018-07-15T08:56:53Z</time>
      </trkpt>
      <trkpt lat="45.87231" lon="4.72492">
        <ele>194</ele>
        <time>2018-07-15T08:56:54Z</time>
      </trkpt>
      <trkpt lat="45.8722" lon="4.72488">
        <ele>194</ele>
        <time>2018-07-15T08:56:55Z</time>
      </trkpt>
      <trkpt lat="45.87215" lon="4.72478">
        <ele>194</ele>
        <time>2018-07-15T08:56:57Z</time>
      </trkpt>
      <trkpt lat="45.87213" lon="4.72473">
        <ele>194</ele>
        <time>2018-07-15T08:56:58Z</time>
      </trkpt>
      <trkpt lat="45.87208" lon="4.72463">
        <ele>194</ele>
        <time>2018-07-15T08:57:00Z</time>
      </trkpt>
      <trkpt lat="45.87206" lon="4.72461">
        <ele>194</ele>
        <time>2018-07-15T08:57:01Z</time>
      </trkpt>
      <trkpt lat="45.87199" lon="4.72452">
        <ele>194</ele>
        <time>2018-07-15T08:57:03Z</time>
      </trkpt>
      <trkpt lat="45.87196" lon="4.72447">
        <ele>194</ele>
        <time>2018-07-15T08:57:04Z</time>
      </trkpt>
      <trkpt lat="45.8719" lon="4.72438">
        <ele>194</ele>
        <time>2018-07-15T08:57:06Z</time>
      </trkpt>
      <trkpt lat="45.87188" lon="4.72434">
        <ele>194</ele>
        <time>2018-07-15T08:57:07Z</time>
      </trkpt>
      <trkpt lat="45.87183" lon="4.7243">
        <ele>194</ele>
        <time>2018-07-15T08:57:08Z</time>
      </trkpt>
      <trkpt lat="45.87181" lon="4.72426">
        <ele>194</ele>
        <time>2018-07-15T08:57:09Z</time>
      </trkpt>
      <trkpt lat="45.87176" lon="4.72418">
        <ele>194</ele>
        <time>2018-07-15T08:57:11Z</time>
      </trkpt>
      <trkpt lat="45.87175" lon="4.72413">
        <ele>192</ele>
        <time>2018-07-15T08:57:12Z</time>
      </trkpt>
      <trkpt lat="45.87169" lon="4.72403">
        <ele>192</ele>
        <time>2018-07-15T08:57:14Z</time>
      </trkpt>
      <trkpt lat="45.87166" lon="4.72397">
        <ele>196</ele>
        <time>2018-07-15T08:57:15Z</time>
      </trkpt>
      <trkpt lat="45.87162" lon="4.72387">
        <ele>197</ele>
        <time>2018-07-15T08:57:17Z</time>
      </trkpt>
      <trkpt lat="45.8716" lon="4.72382">
        <ele>197</ele>
        <time>2018-07-15T08:57:18Z</time>
      </trkpt>
      <trkpt lat="45.87156" lon="4.72376">
        <ele>197</ele>
        <time>2018-07-15T08:57:19Z</time>
      </trkpt>
      <trkpt lat="45.87153" lon="4.7237">
        <ele>197</ele>
        <time>2018-07-15T08:57:20Z</time>
      </trkpt>
      <trkpt lat="45.87148" lon="4.72364">
        <ele>197</ele>
        <time>2018-07-15T08:57:21Z</time>
      </trkpt>
      <trkpt lat="45.87146" lon="4.72359">
        <ele>197</ele>
        <time>2018-07-15T08:57:22Z</time>
      </trkpt>
      <trkpt lat="45.87143" lon="4.72351">
        <ele>197</ele>
        <time>2018-07-15T08:57:23Z</time>
      </trkpt>
      <trkpt lat="45.87141" lon="4.72344">
        <ele>197</ele>
        <time>2018-07-15T08:57:24Z</time>
      </trkpt>
      <trkpt lat="45.87138" lon="4.72337">
        <ele>197</ele>
        <time>2018-07-15T08:57:25Z</time>
      </trkpt>
      <trkpt lat="45.87134" lon="4.7233">
        <ele>195</ele>
        <time>2018-07-15T08:57:26Z</time>
      </trkpt>
      <trkpt lat="45.87131" lon="4.72323">
        <ele>196</ele>
        <time>2018-07-15T08:57:27Z</time>
      </trkpt>
      <trkpt lat="45.87129" lon="4.72316">
        <ele>196</ele>
        <time>2018-07-15T08:57:28Z</time>
      </trkpt>
      <trkpt lat="45.87127" lon="4.7231">
        <ele>196</ele>
        <time>2018-07-15T08:57:29Z</time>
      </trkpt>
      <trkpt lat="45.8712" lon="4.72303">
        <ele>197</ele>
        <time>2018-07-15T08:57:30Z</time>
      </trkpt>
      <trkpt lat="45.87117" lon="4.72299">
        <ele>197</ele>
        <time>2018-07-15T08:57:31Z</time>
      </trkpt>
      <trkpt lat="45.87114" lon="4.72293">
        <ele>197</ele>
        <time>2018-07-15T08:57:32Z</time>
      </trkpt>
      <trkpt lat="45.87113" lon="4.72288">
        <ele>197</ele>
        <time>2018-07-15T08:57:33Z</time>
      </trkpt>
      <trkpt lat="45.87107" lon="4.72283">
        <ele>197</ele>
        <time>2018-07-15T08:57:34Z</time>
      </trkpt>
      <trkpt lat="45.87103" lon="4.72278">
        <ele>197</ele>
        <time>2018-07-15T08:57:35Z</time>
      </trkpt>
      <trkpt lat="45.87099" lon="4.72273">
        <ele>197</ele>
        <time>2018-07-15T08:57:36Z</time>
      </trkpt>
      <trkpt lat="45.87095" lon="4.72268">
        <ele>198</ele>
        <time>2018-07-15T08:57:37Z</time>
      </trkpt>
      <trkpt lat="45.87092" lon="4.72263">
        <ele>198</ele>
        <time>2018-07-15T08:57:38Z</time>
      </trkpt>
      <trkpt lat="45.87088" lon="4.7226">
        <ele>198</ele>
        <time>2018-07-15T08:57:39Z</time>
      </trkpt>
      <trkpt lat="45.87084" lon="4.72255">
        <ele>199</ele>
        <time>2018-07-15T08:57:40Z</time>
      </trkpt>
      <trkpt lat="45.8708" lon="4.7225">
        <ele>200</ele>
        <time>2018-07-15T08:57:41Z</time>
      </trkpt>
      <trkpt lat="45.87076" lon="4.72246">
        <ele>200</ele>
        <time>2018-07-15T08:57:42Z</time>
      </trkpt>
      <trkpt lat="45.87071" lon="4.72241">
        <ele>200</ele>
        <time>2018-07-15T08:57:43Z</time>
      </trkpt>
      <trkpt lat="45.87067" lon="4.72236">
        <ele>200</ele>
        <time>2018-07-15T08:57:44Z</time>
      </trkpt>
      <trkpt lat="45.87061" lon="4.72231">
        <ele>200</ele>
        <time>2018-07-15T08:57:45Z</time>
      </trkpt>
      <trkpt lat="45.87058" lon="4.72227">
        <ele>201</ele>
        <time>2018-07-15T08:57:46Z</time>
      </trkpt>
      <trkpt lat="45.87053" lon="4.72222">
        <ele>201</ele>
        <time>2018-07-15T08:57:47Z</time>
      </trkpt>
      <trkpt lat="45.87048" lon="4.72218">
        <ele>201</ele>
        <time>2018-07-15T08:57:48Z</time>
      </trkpt>
      <trkpt lat="45.87041" lon="4.72214">
        <ele>201</ele>
        <time>2018-07-15T08:57:49Z</time>
      </trkpt>
      <trkpt lat="45.87036" lon="4.7221">
        <ele>201</ele>
        <time>2018-07-15T08:57:50Z</time>
      </trkpt>
      <trkpt lat="45.87031" lon="4.72205">
        <ele>201</ele>
        <time>2018-07-15T08:57:51Z</time>
      </trkpt>
      <trkpt lat="45.87026" lon="4.72201">
        <ele>201</ele>
        <time>2018-07-15T08:57:52Z</time>
      </trkpt>
      <trkpt lat="45.87021" lon="4.72199">
        <ele>202</ele>
        <time>2018-07-15T08:57:53Z</time>
      </trkpt>
      <trkpt lat="45.87016" lon="4.72196">
        <ele>202</ele>
        <time>2018-07-15T08:57:54Z</time>
      </trkpt>
      <trkpt lat="45.87011" lon="4.72191">
        <ele>201</ele>
        <time>2018-07-15T08:57:55Z</time>
      </trkpt>
      <trkpt lat="45.87005" lon="4.72186">
        <ele>201</ele>
        <time>2018-07-15T08:57:56Z</time>
      </trkpt>
      <trkpt lat="45.87" lon="4.72182">
        <ele>206</ele>
        <time>2018-07-15T08:57:57Z</time>
      </trkpt>
      <trkpt lat="45.86994" lon="4.72178">
        <ele>206</ele>
        <time>2018-07-15T08:57:58Z</time>
      </trkpt>
      <trkpt lat="45.86988" lon="4.72173">
        <ele>206</ele>
        <time>2018-07-15T08:57:59Z</time>
      </trkpt>
      <trkpt lat="45.86983" lon="4.72169">
        <ele>207</ele>
        <time>2018-07-15T08:58:00Z</time>
      </trkpt>
      <trkpt lat="45.86978" lon="4.72165">
        <ele>201</ele>
        <time>2018-07-15T08:58:01Z</time>
      </trkpt>
      <trkpt lat="45.86972" lon="4.72161">
        <ele>201</ele>
        <time>2018-07-15T08:58:02Z</time>
      </trkpt>
      <trkpt lat="45.86966" lon="4.72158">
        <ele>201</ele>
        <time>2018-07-15T08:58:03Z</time>
      </trkpt>
      <trkpt lat="45.86959" lon="4.72153">
        <ele>201</ele>
        <time>2018-07-15T08:58:04Z</time>
      </trkpt>
      <trkpt lat="45.86953" lon="4.72149">
        <ele>201</ele>
        <time>2018-07-15T08:58:05Z</time>
      </trkpt>
      <trkpt lat="45.86948" lon="4.72147">
        <ele>202</ele>
        <time>2018-07-15T08:58:06Z</time>
      </trkpt>
      <trkpt lat="45.86942" lon="4.72143">
        <ele>202</ele>
        <time>2018-07-15T08:58:07Z</time>
      </trkpt>
      <trkpt lat="45.86938" lon="4.72143">
        <ele>202</ele>
        <time>2018-07-15T08:58:08Z</time>
      </trkpt>
      <trkpt lat="45.86932" lon="4.7214">
        <ele>202</ele>
        <time>2018-07-15T08:58:09Z</time>
      </trkpt>
      <trkpt lat="45.86927" lon="4.72138">
        <ele>202</ele>
        <time>2018-07-15T08:58:10Z</time>
      </trkpt>
      <trkpt lat="45.8692" lon="4.72135">
        <ele>202</ele>
        <time>2018-07-15T08:58:11Z</time>
      </trkpt>
      <trkpt lat="45.86913" lon="4.72131">
        <ele>203</ele>
        <time>2018-07-15T08:58:12Z</time>
      </trkpt>
      <trkpt lat="45.86907" lon="4.72128">
        <ele>203</ele>
        <time>2018-07-15T08:58:13Z</time>
      </trkpt>
      <trkpt lat="45.86901" lon="4.72126">
        <ele>203</ele>
        <time>2018-07-15T08:58:14Z</time>
      </trkpt>
      <trkpt lat="45.86895" lon="4.72122">
        <ele>202</ele>
        <time>2018-07-15T08:58:15Z</time>
      </trkpt>
      <trkpt lat="45.86888" lon="4.72118">
        <ele>202</ele>
        <time>2018-07-15T08:58:16Z</time>
      </trkpt>
      <trkpt lat="45.86882" lon="4.72116">
        <ele>201</ele>
        <time>2018-07-15T08:58:17Z</time>
      </trkpt>
      <trkpt lat="45.86877" lon="4.72114">
        <ele>201</ele>
        <time>2018-07-15T08:58:18Z</time>
      </trkpt>
      <trkpt lat="45.86871" lon="4.72111">
        <ele>201</ele>
        <time>2018-07-15T08:58:19Z</time>
      </trkpt>
      <trkpt lat="45.86865" lon="4.72108">
        <ele>201</ele>
        <time>2018-07-15T08:58:20Z</time>
      </trkpt>
      <trkpt lat="45.86858" lon="4.72105">
        <ele>200</ele>
        <time>2018-07-15T08:58:21Z</time>
      </trkpt>
      <trkpt lat="45.86851" lon="4.72102">
        <ele>199</ele>
        <time>2018-07-15T08:58:22Z</time>
      </trkpt>
      <trkpt lat="45.86846" lon="4.721">
        <ele>199</ele>
        <time>2018-07-15T08:58:23Z</time>
      </trkpt>
      <trkpt lat="45.8684" lon="4.72098">
        <ele>198</ele>
        <time>2018-07-15T08:58:24Z</time>
      </trkpt>
      <trkpt lat="45.86834" lon="4.72094">
        <ele>197</ele>
        <time>2018-07-15T08:58:25Z</time>
      </trkpt>
      <trkpt lat="45.86828" lon="4.72093">
        <ele>198</ele>
        <time>2018-07-15T08:58:26Z</time>
      </trkpt>
      <trkpt lat="45.86822" lon="4.7209">
        <ele>198</ele>
        <time>2018-07-15T08:58:27Z</time>
      </trkpt>
      <trkpt lat="45.86816" lon="4.72087">
        <ele>199</ele>
        <time>2018-07-15T08:58:28Z</time>
      </trkpt>
      <trkpt lat="45.86808" lon="4.72085">
        <ele>200</ele>
        <time>2018-07-15T08:58:29Z</time>
      </trkpt>
      <trkpt lat="45.86801" lon="4.72082">
        <ele>194</ele>
        <time>2018-07-15T08:58:30Z</time>
      </trkpt>
      <trkpt lat="45.86795" lon="4.72079">
        <ele>194</ele>
        <time>2018-07-15T08:58:31Z</time>
      </trkpt>
      <trkpt lat="45.86787" lon="4.72075">
        <ele>194</ele>
        <time>2018-07-15T08:58:32Z</time>
      </trkpt>
      <trkpt lat="45.8678" lon="4.72072">
        <ele>194</ele>
        <time>2018-07-15T08:58:33Z</time>
      </trkpt>
      <trkpt lat="45.86774" lon="4.72069">
        <ele>195</ele>
        <time>2018-07-15T08:58:34Z</time>
      </trkpt>
      <trkpt lat="45.86767" lon="4.72065">
        <ele>195</ele>
        <time>2018-07-15T08:58:35Z</time>
      </trkpt>
      <trkpt lat="45.8676" lon="4.72062">
        <ele>195</ele>
        <time>2018-07-15T08:58:36Z</time>
      </trkpt>
      <trkpt lat="45.86754" lon="4.72058">
        <ele>195</ele>
        <time>2018-07-15T08:58:37Z</time>
      </trkpt>
      <trkpt lat="45.86748" lon="4.72056">
        <ele>197</ele>
        <time>2018-07-15T08:58:38Z</time>
      </trkpt>
      <trkpt lat="45.86741" lon="4.72053">
        <ele>197</ele>
        <time>2018-07-15T08:58:39Z</time>
      </trkpt>
      <trkpt lat="45.86735" lon="4.7205">
        <ele>197</ele>
        <time>2018-07-15T08:58:40Z</time>
      </trkpt>
      <trkpt lat="45.86729" lon="4.72046">
        <ele>197</ele>
        <time>2018-07-15T08:58:41Z</time>
      </trkpt>
      <trkpt lat="45.86724" lon="4.72042">
        <ele>197</ele>
        <time>2018-07-15T08:58:42Z</time>
      </trkpt>
      <trkpt lat="45.86717" lon="4.72039">
        <ele>197</ele>
        <time>2018-07-15T08:58:43Z</time>
      </trkpt>
      <trkpt lat="45.86712" lon="4.72035">
        <ele>197</ele>
        <time>2018-07-15T08:58:44Z</time>
      </trkpt>
      <trkpt lat="45.86706" lon="4.72032">
        <ele>197</ele>
        <time>2018-07-15T08:58:45Z</time>
      </trkpt>
      <trkpt lat="45.86698" lon="4.72026">
        <ele>197</ele>
        <time>2018-07-15T08:58:46Z</time>
      </trkpt>
      <trkpt lat="45.86692" lon="4.72021">
        <ele>197</ele>
        <time>2018-07-15T08:58:47Z</time>
      </trkpt>
      <trkpt lat="45.86685" lon="4.72016">
        <ele>196</ele>
        <time>2018-07-15T08:58:48Z</time>
      </trkpt>
      <trkpt lat="45.86678" lon="4.72012">
        <ele>196</ele>
        <time>2018-07-15T08:58:49Z</time>
      </trkpt>
      <trkpt lat="45.86671" lon="4.72006">
        <ele>196</ele>
        <time>2018-07-15T08:58:50Z</time>
      </trkpt>
      <trkpt lat="45.86665" lon="4.72001">
        <ele>195</ele>
        <time>2018-07-15T08:58:51Z</time>
      </trkpt>
      <trkpt lat="45.86657" lon="4.71998">
        <ele>195</ele>
        <time>2018-07-15T08:58:52Z</time>
      </trkpt>
      <trkpt lat="45.8665" lon="4.71993">
        <ele>195</ele>
        <time>2018-07-15T08:58:53Z</time>
      </trkpt>
      <trkpt lat="45.86646" lon="4.71987">
        <ele>195</ele>
        <time>2018-07-15T08:58:54Z</time>
      </trkpt>
      <trkpt lat="45.8664" lon="4.71983">
        <ele>195</ele>
        <time>2018-07-15T08:58:55Z</time>
      </trkpt>
      <trkpt lat="45.86632" lon="4.71978">
        <ele>195</ele>
        <time>2018-07-15T08:58:56Z</time>
      </trkpt>
      <trkpt lat="45.86627" lon="4.71973">
        <ele>195</ele>
        <time>2018-07-15T08:58:57Z</time>
      </trkpt>
      <trkpt lat="45.8662" lon="4.71968">
        <ele>195</ele>
        <time>2018-07-15T08:58:58Z</time>
      </trkpt>
      <trkpt lat="45.86615" lon="4.71963">
        <ele>195</ele>
        <time>2018-07-15T08:58:59Z</time>
      </trkpt>
      <trkpt lat="45.86608" lon="4.71958">
        <ele>194</ele>
        <time>2018-07-15T08:59:00Z</time>
      </trkpt>
      <trkpt lat="45.86602" lon="4.71954">
        <ele>194</ele>
        <time>2018-07-15T08:59:01Z</time>
      </trkpt>
      <trkpt lat="45.86596" lon="4.71948">
        <ele>194</ele>
        <time>2018-07-15T08:59:02Z</time>
      </trkpt>
      <trkpt lat="45.8659" lon="4.71945">
        <ele>194</ele>
        <time>2018-07-15T08:59:03Z</time>
      </trkpt>
      <trkpt lat="45.86584" lon="4.7194">
        <ele>194</ele>
        <time>2018-07-15T08:59:04Z</time>
      </trkpt>
      <trkpt lat="45.86577" lon="4.71935">
        <ele>195</ele>
        <time>2018-07-15T08:59:05Z</time>
      </trkpt>
      <trkpt lat="45.86571" lon="4.7193">
        <ele>195</ele>
        <time>2018-07-15T08:59:06Z</time>
      </trkpt>
      <trkpt lat="45.86563" lon="4.71926">
        <ele>196</ele>
        <time>2018-07-15T08:59:07Z</time>
      </trkpt>
      <trkpt lat="45.86557" lon="4.7192">
        <ele>196</ele>
        <time>2018-07-15T08:59:08Z</time>
      </trkpt>
      <trkpt lat="45.86551" lon="4.71915">
        <ele>195</ele>
        <time>2018-07-15T08:59:09Z</time>
      </trkpt>
      <trkpt lat="45.86546" lon="4.71908">
        <ele>195</ele>
        <time>2018-07-15T08:59:10Z</time>
      </trkpt>
      <trkpt lat="45.8654" lon="4.71902">
        <ele>195</ele>
        <time>2018-07-15T08:59:11Z</time>
      </trkpt>
      <trkpt lat="45.86536" lon="4.71898">
        <ele>195</ele>
        <time>2018-07-15T08:59:12Z</time>
      </trkpt>
      <trkpt lat="45.8653" lon="4.71893">
        <ele>195</ele>
        <time>2018-07-15T08:59:13Z</time>
      </trkpt>
      <trkpt lat="45.86524" lon="4.71887">
        <ele>195</ele>
        <time>2018-07-15T08:59:14Z</time>
      </trkpt>
      <trkpt lat="45.86519" lon="4.71882">
        <ele>195</ele>
        <time>2018-07-15T08:59:15Z</time>
      </trkpt>
      <trkpt lat="45.86514" lon="4.71878">
        <ele>195</ele>
        <time>2018-07-15T08:59:16Z</time>
      </trkpt>
      <trkpt lat="45.86508" lon="4.71872">
        <ele>195</ele>
        <time>2018-07-15T08:59:17Z</time>
      </trkpt>
      <trkpt lat="45.86502" lon="4.71868">
        <ele>195</ele>
        <time>2018-07-15T08:59:18Z</time>
      </trkpt>
      <trkpt lat="45.86496" lon="4.71864">
        <ele>198</ele>
        <time>2018-07-15T08:59:19Z</time>
      </trkpt>
      <trkpt lat="45.8649" lon="4.71859">
        <ele>198</ele>
        <time>2018-07-15T08:59:20Z</time>
      </trkpt>
      <trkpt lat="45.86485" lon="4.71854">
        <ele>198</ele>
        <time>2018-07-15T08:59:21Z</time>
      </trkpt>
      <trkpt lat="45.8648" lon="4.7185">
        <ele>198</ele>
        <time>2018-07-15T08:59:22Z</time>
      </trkpt>
      <trkpt lat="45.86473" lon="4.71845">
        <ele>199</ele>
        <time>2018-07-15T08:59:23Z</time>
      </trkpt>
      <trkpt lat="45.86467" lon="4.7184">
        <ele>199</ele>
        <time>2018-07-15T08:59:24Z</time>
      </trkpt>
      <trkpt lat="45.86461" lon="4.71835">
        <ele>199</ele>
        <time>2018-07-15T08:59:25Z</time>
      </trkpt>
      <trkpt lat="45.86455" lon="4.7183">
        <ele>197</ele>
        <time>2018-07-15T08:59:26Z</time>
      </trkpt>
      <trkpt lat="45.86447" lon="4.71826">
        <ele>197</ele>
        <time>2018-07-15T08:59:27Z</time>
      </trkpt>
      <trkpt lat="45.86441" lon="4.71822">
        <ele>198</ele>
        <time>2018-07-15T08:59:28Z</time>
      </trkpt>
      <trkpt lat="45.86435" lon="4.71818">
        <ele>198</ele>
        <time>2018-07-15T08:59:29Z</time>
      </trkpt>
      <trkpt lat="45.8643" lon="4.71813">
        <ele>198</ele>
        <time>2018-07-15T08:59:30Z</time>
      </trkpt>
      <trkpt lat="45.86423" lon="4.71808">
        <ele>198</ele>
        <time>2018-07-15T08:59:31Z</time>
      </trkpt>
      <trkpt lat="45.8642" lon="4.71806">
        <ele>197</ele>
        <time>2018-07-15T08:59:32Z</time>
      </trkpt>
      <trkpt lat="45.86413" lon="4.71801">
        <ele>199</ele>
        <time>2018-07-15T08:59:33Z</time>
      </trkpt>
      <trkpt lat="45.86406" lon="4.71795">
        <ele>199</ele>
        <time>2018-07-15T08:59:34Z</time>
      </trkpt>
      <trkpt lat="45.86399" lon="4.71789">
        <ele>198</ele>
        <time>2018-07-15T08:59:35Z</time>
      </trkpt>
      <trkpt lat="45.86393" lon="4.71784">
        <ele>198</ele>
        <time>2018-07-15T08:59:36Z</time>
      </trkpt>
      <trkpt lat="45.86387" lon="4.7178">
        <ele>198</ele>
        <time>2018-07-15T08:59:37Z</time>
      </trkpt>
      <trkpt lat="45.86382" lon="4.71775">
        <ele>198</ele>
        <time>2018-07-15T08:59:38Z</time>
      </trkpt>
      <trkpt lat="45.86376" lon="4.7177">
        <ele>198</ele>
        <time>2018-07-15T08:59:39Z</time>
      </trkpt>
      <trkpt lat="45.8637" lon="4.71766">
        <ele>198</ele>
        <time>2018-07-15T08:59:40Z</time>
      </trkpt>
      <trkpt lat="45.86366" lon="4.71763">
        <ele>198</ele>
        <time>2018-07-15T08:59:41Z</time>
      </trkpt>
      <trkpt lat="45.8636" lon="4.71761">
        <ele>198</ele>
        <time>2018-07-15T08:59:42Z</time>
      </trkpt>
      <trkpt lat="45.86354" lon="4.71757">
        <ele>197</ele>
        <time>2018-07-15T08:59:43Z</time>
      </trkpt>
      <trkpt lat="45.86349" lon="4.71752">
        <ele>197</ele>
        <time>2018-07-15T08:59:44Z</time>
      </trkpt>
      <trkpt lat="45.86344" lon="4.71747">
        <ele>195</ele>
        <time>2018-07-15T08:59:45Z</time>
      </trkpt>
      <trkpt lat="45.86339" lon="4.71742">
        <ele>195</ele>
        <time>2018-07-15T08:59:46Z</time>
      </trkpt>
      <trkpt lat="45.86335" lon="4.71738">
        <ele>195</ele>
        <time>2018-07-15T08:59:47Z</time>
      </trkpt>
      <trkpt lat="45.86329" lon="4.71734">
        <ele>196</ele>
        <time>2018-07-15T08:59:48Z</time>
      </trkpt>
      <trkpt lat="45.86326" lon="4.7173">
        <ele>196</ele>
        <time>2018-07-15T08:59:49Z</time>
      </trkpt>
      <trkpt lat="45.86315" lon="4.71727">
        <ele>196</ele>
        <time>2018-07-15T08:59:50Z</time>
      </trkpt>
      <trkpt lat="45.86311" lon="4.71723">
        <ele>196</ele>
        <time>2018-07-15T08:59:51Z</time>
      </trkpt>
      <trkpt lat="45.86306" lon="4.71719">
        <ele>196</ele>
        <time>2018-07-15T08:59:52Z</time>
      </trkpt>
      <trkpt lat="45.86299" lon="4.71715">
        <ele>196</ele>
        <time>2018-07-15T08:59:53Z</time>
      </trkpt>
      <trkpt lat="45.86294" lon="4.71709">
        <ele>195</ele>
        <time>2018-07-15T08:59:54Z</time>
      </trkpt>
      <trkpt lat="45.86289" lon="4.71704">
        <ele>195</ele>
        <time>2018-07-15T08:59:55Z</time>
      </trkpt>
      <trkpt lat="45.86284" lon="4.71698">
        <ele>195</ele>
        <time>2018-07-15T08:59:56Z</time>
      </trkpt>
      <trkpt lat="45.86278" lon="4.71694">
        <ele>195</ele>
        <time>2018-07-15T08:59:57Z</time>
      </trkpt>
      <trkpt lat="45.86274" lon="4.7169">
        <ele>195</ele>
        <time>2018-07-15T08:59:58Z</time>
      </trkpt>
      <trkpt lat="45.86271" lon="4.71685">
        <ele>195</ele>
        <time>2018-07-15T08:59:59Z</time>
      </trkpt>
      <trkpt lat="45.86265" lon="4.7168">
        <ele>195</ele>
        <time>2018-07-15T09:00:00Z</time>
      </trkpt>
      <trkpt lat="45.86256" lon="4.71676">
        <ele>195</ele>
        <time>2018-07-15T09:00:01Z</time>
      </trkpt>
      <trkpt lat="45.86245" lon="4.71666">
        <ele>195</ele>
        <time>2018-07-15T09:00:03Z</time>
      </trkpt>
      <trkpt lat="45.86241" lon="4.71662">
        <ele>195</ele>
        <time>2018-07-15T09:00:04Z</time>
      </trkpt>
      <trkpt lat="45.86236" lon="4.71657">
        <ele>195</ele>
        <time>2018-07-15T09:00:05Z</time>
      </trkpt>
      <trkpt lat="45.86231" lon="4.71652">
        <ele>195</ele>
        <time>2018-07-15T09:00:06Z</time>
      </trkpt>
      <trkpt lat="45.86225" lon="4.71648">
        <ele>195</ele>
        <time>2018-07-15T09:00:07Z</time>
      </trkpt>
      <trkpt lat="45.86221" lon="4.71645">
        <ele>195</ele>
        <time>2018-07-15T09:00:08Z</time>
      </trkpt>
      <trkpt lat="45.86217" lon="4.71638">
        <ele>195</ele>
        <time>2018-07-15T09:00:09Z</time>
      </trkpt>
      <trkpt lat="45.86213" lon="4.71632">
        <ele>195</ele>
        <time>2018-07-15T09:00:10Z</time>
      </trkpt>
      <trkpt lat="45.8621" lon="4.71626">
        <ele>195</ele>
        <time>2018-07-15T09:00:11Z</time>
      </trkpt>
      <trkpt lat="45.86208" lon="4.71618">
        <ele>195</ele>
        <time>2018-07-15T09:00:12Z</time>
      </trkpt>
      <trkpt lat="45.86204" lon="4.71612">
        <ele>195</ele>
        <time>2018-07-15T09:00:13Z</time>
      </trkpt>
      <trkpt lat="45.86202" lon="4.71607">
        <ele>195</ele>
        <time>2018-07-15T09:00:14Z</time>
      </trkpt>
      <trkpt lat="45.86198" lon="4.716">
        <ele>195</ele>
        <time>2018-07-15T09:00:15Z</time>
      </trkpt>
      <trkpt lat="45.86199" lon="4.71592">
        <ele>195</ele>
        <time>2018-07-15T09:00:17Z</time>
      </trkpt>
      <trkpt lat="45.86195" lon="4.71586">
        <ele>195</ele>
        <time>2018-07-15T09:00:18Z</time>
      </trkpt>
      <trkpt lat="45.8619" lon="4.71579">
        <ele>195</ele>
        <time>2018-07-15T09:00:19Z</time>
      </trkpt>
      <trkpt lat="45.86186" lon="4.71574">
        <ele>195</ele>
        <time>2018-07-15T09:00:20Z</time>
      </trkpt>
      <trkpt lat="45.86183" lon="4.71564">
        <ele>195</ele>
        <time>2018-07-15T09:00:22Z</time>
      </trkpt>
      <trkpt lat="45.8618" lon="4.71559">
        <ele>195</ele>
        <time>2018-07-15T09:00:23Z</time>
      </trkpt>
      <trkpt lat="45.86176" lon="4.71547">
        <ele>195</ele>
        <time>2018-07-15T09:00:25Z</time>
      </trkpt>
      <trkpt lat="45.86173" lon="4.71541">
        <ele>195</ele>
        <time>2018-07-15T09:00:26Z</time>
      </trkpt>
      <trkpt lat="45.86167" lon="4.71536">
        <ele>195</ele>
        <time>2018-07-15T09:00:27Z</time>
      </trkpt>
      <trkpt lat="45.86164" lon="4.71531">
        <ele>195</ele>
        <time>2018-07-15T09:00:28Z</time>
      </trkpt>
      <trkpt lat="45.86161" lon="4.71526">
        <ele>195</ele>
        <time>2018-07-15T09:00:29Z</time>
      </trkpt>
      <trkpt lat="45.86157" lon="4.7152">
        <ele>195</ele>
        <time>2018-07-15T09:00:30Z</time>
      </trkpt>
      <trkpt lat="45.86153" lon="4.71514">
        <ele>195</ele>
        <time>2018-07-15T09:00:31Z</time>
      </trkpt>
      <trkpt lat="45.86148" lon="4.71508">
        <ele>195</ele>
        <time>2018-07-15T09:00:32Z</time>
      </trkpt>
      <trkpt lat="45.86146" lon="4.71503">
        <ele>195</ele>
        <time>2018-07-15T09:00:33Z</time>
      </trkpt>
      <trkpt lat="45.86143" lon="4.71496">
        <ele>195</ele>
        <time>2018-07-15T09:00:34Z</time>
      </trkpt>
      <trkpt lat="45.8614" lon="4.71489">
        <ele>195</ele>
        <time>2018-07-15T09:00:35Z</time>
      </trkpt>
      <trkpt lat="45.86142" lon="4.71483">
        <ele>195</ele>
        <time>2018-07-15T09:00:36Z</time>
      </trkpt>
      <trkpt lat="45.86139" lon="4.71475">
        <ele>195</ele>
        <time>2018-07-15T09:00:37Z</time>
      </trkpt>
      <trkpt lat="45.86138" lon="4.71467">
        <ele>195</ele>
        <time>2018-07-15T09:00:38Z</time>
      </trkpt>
      <trkpt lat="45.86134" lon="4.71459">
        <ele>195</ele>
        <time>2018-07-15T09:00:39Z</time>
      </trkpt>
      <trkpt lat="45.86134" lon="4.71453">
        <ele>195</ele>
        <time>2018-07-15T09:00:40Z</time>
      </trkpt>
      <trkpt lat="45.86132" lon="4.71441">
        <ele>195</ele>
        <time>2018-07-15T09:00:42Z</time>
      </trkpt>
      <trkpt lat="45.86132" lon="4.71434">
        <ele>195</ele>
        <time>2018-07-15T09:00:43Z</time>
      </trkpt>
      <trkpt lat="45.86136" lon="4.71429">
        <ele>195</ele>
        <time>2018-07-15T09:00:44Z</time>
      </trkpt>
      <trkpt lat="45.86132" lon="4.71419">
        <ele>195</ele>
        <time>2018-07-15T09:00:45Z</time>
      </trkpt>
      <trkpt lat="45.86129" lon="4.71411">
        <ele>196</ele>
        <time>2018-07-15T09:00:46Z</time>
      </trkpt>
      <trkpt lat="45.86129" lon="4.71403">
        <ele>196</ele>
        <time>2018-07-15T09:00:47Z</time>
      </trkpt>
      <trkpt lat="45.86125" lon="4.71394">
        <ele>196</ele>
        <time>2018-07-15T09:00:48Z</time>
      </trkpt>
      <trkpt lat="45.86123" lon="4.71387">
        <ele>196</ele>
        <time>2018-07-15T09:00:49Z</time>
      </trkpt>
      <trkpt lat="45.86122" lon="4.7138">
        <ele>196</ele>
        <time>2018-07-15T09:00:50Z</time>
      </trkpt>
      <trkpt lat="45.86121" lon="4.71373">
        <ele>196</ele>
        <time>2018-07-15T09:00:51Z</time>
      </trkpt>
      <trkpt lat="45.86119" lon="4.71361">
        <ele>196</ele>
        <time>2018-07-15T09:00:53Z</time>
      </trkpt>
      <trkpt lat="45.86116" lon="4.71353">
        <ele>196</ele>
        <time>2018-07-15T09:00:54Z</time>
      </trkpt>
      <trkpt lat="45.86116" lon="4.71347">
        <ele>196</ele>
        <time>2018-07-15T09:00:55Z</time>
      </trkpt>
      <trkpt lat="45.86114" lon="4.71339">
        <ele>196</ele>
        <time>2018-07-15T09:00:56Z</time>
      </trkpt>
      <trkpt lat="45.86114" lon="4.71331">
        <ele>196</ele>
        <time>2018-07-15T09:00:57Z</time>
      </trkpt>
      <trkpt lat="45.86112" lon="4.71323">
        <ele>196</ele>
        <time>2018-07-15T09:00:58Z</time>
      </trkpt>
      <trkpt lat="45.8611" lon="4.71315">
        <ele>196</ele>
        <time>2018-07-15T09:00:59Z</time>
      </trkpt>
      <trkpt lat="45.86109" lon="4.71307">
        <ele>196</ele>
        <time>2018-07-15T09:01:00Z</time>
      </trkpt>
      <trkpt lat="45.86108" lon="4.713">
        <ele>196</ele>
        <time>2018-07-15T09:01:01Z</time>
      </trkpt>
      <trkpt lat="45.86104" lon="4.71293">
        <ele>197</ele>
        <time>2018-07-15T09:01:02Z</time>
      </trkpt>
      <trkpt lat="45.86103" lon="4.71288">
        <ele>197</ele>
        <time>2018-07-15T09:01:03Z</time>
      </trkpt>
      <trkpt lat="45.861" lon="4.71281">
        <ele>197</ele>
        <time>2018-07-15T09:01:04Z</time>
      </trkpt>
      <trkpt lat="45.86097" lon="4.71271">
        <ele>197</ele>
        <time>2018-07-15T09:01:06Z</time>
      </trkpt>
      <trkpt lat="45.86094" lon="4.71265">
        <ele>197</ele>
        <time>2018-07-15T09:01:07Z</time>
      </trkpt>
      <trkpt lat="45.8609" lon="4.71256">
        <ele>197</ele>
        <time>2018-07-15T09:01:09Z</time>
      </trkpt>
      <trkpt lat="45.86089" lon="4.71252">
        <ele>198</ele>
        <time>2018-07-15T09:01:10Z</time>
      </trkpt>
      <trkpt lat="45.86086" lon="4.71246">
        <ele>198</ele>
        <time>2018-07-15T09:01:11Z</time>
      </trkpt>
      <trkpt lat="45.86085" lon="4.71239">
        <ele>197</ele>
        <time>2018-07-15T09:01:12Z</time>
      </trkpt>
      <trkpt lat="45.86084" lon="4.71231">
        <ele>197</ele>
        <time>2018-07-15T09:01:13Z</time>
      </trkpt>
      <trkpt lat="45.86085" lon="4.71224">
        <ele>197</ele>
        <time>2018-07-15T09:01:14Z</time>
      </trkpt>
      <trkpt lat="45.86084" lon="4.71216">
        <ele>197</ele>
        <time>2018-07-15T09:01:15Z</time>
      </trkpt>
      <trkpt lat="45.86087" lon="4.7121">
        <ele>197</ele>
        <time>2018-07-15T09:01:16Z</time>
      </trkpt>
      <trkpt lat="45.86085" lon="4.71203">
        <ele>197</ele>
        <time>2018-07-15T09:01:17Z</time>
      </trkpt>
      <trkpt lat="45.86088" lon="4.71197">
        <ele>197</ele>
        <time>2018-07-15T09:01:18Z</time>
      </trkpt>
      <trkpt lat="45.86092" lon="4.71187">
        <ele>197</ele>
        <time>2018-07-15T09:01:20Z</time>
      </trkpt>
      <trkpt lat="45.86095" lon="4.71179">
        <ele>197</ele>
        <time>2018-07-15T09:01:21Z</time>
      </trkpt>
      <trkpt lat="45.86095" lon="4.71167">
        <ele>197</ele>
        <time>2018-07-15T09:01:23Z</time>
      </trkpt>
      <trkpt lat="45.86095" lon="4.71165">
        <ele>197</ele>
        <time>2018-07-15T09:01:24Z</time>
      </trkpt>
      <trkpt lat="45.86095" lon="4.71161">
        <ele>197</ele>
        <time>2018-07-15T09:01:26Z</time>
      </trkpt>
      <trkpt lat="45.86095" lon="4.7116">
        <ele>197</ele>
        <time>2018-07-15T09:01:27Z</time>
      </trkpt>
      <trkpt lat="45.86096" lon="4.71158">
        <ele>197</ele>
        <time>2018-07-15T09:01:29Z</time>
      </trkpt>
      <trkpt lat="45.86096" lon="4.71158">
        <ele>197</ele>
        <time>2018-07-15T09:01:30Z</time>
      </trkpt>
      <trkpt lat="45.86097" lon="4.71156">
        <ele>197</ele>
        <time>2018-07-15T09:01:34Z</time>
      </trkpt>
      <trkpt lat="45.86097" lon="4.71155">
        <ele>197</ele>
        <time>2018-07-15T09:01:35Z</time>
      </trkpt>
      <trkpt lat="45.86098" lon="4.71156">
        <ele>197</ele>
        <time>2018-07-15T09:01:40Z</time>
      </trkpt>
      <trkpt lat="45.86098" lon="4.71156">
        <ele>197</ele>
        <time>2018-07-15T09:01:41Z</time>
      </trkpt>
      <trkpt lat="45.86098" lon="4.71156">
        <ele>197</ele>
        <time>2018-07-15T09:01:44Z</time>
      </trkpt>
      <trkpt lat="45.86098" lon="4.71155">
        <ele>197</ele>
        <time>2018-07-15T09:01:45Z</time>
      </trkpt>
      <trkpt lat="45.86097" lon="4.71155">
        <ele>197</ele>
        <time>2018-07-15T09:01:47Z</time>
      </trkpt>
      <trkpt lat="45.86097" lon="4.71155">
        <ele>197</ele>
        <time>2018-07-15T09:01:48Z</time>
      </trkpt>
      <trkpt lat="45.86095" lon="4.71153">
        <ele>197</ele>
        <time>2018-07-15T09:04:45Z</time>
      </trkpt>
      <trkpt lat="45.86095" lon="4.71153">
        <ele>197</ele>
        <time>2018-07-15T09:04:46Z</time>
      </trkpt>
      <trkpt lat="45.86095" lon="4.71152">
        <ele>197</ele>
        <time>2018-07-15T09:05:03Z</time>
      </trkpt>
      <trkpt lat="45.86095" lon="4.71152">
        <ele>197</ele>
        <time>2018-07-15T09:05:04Z</time>
      </trkpt>
      <trkpt lat="45.86093" lon="4.71141">
        <ele>197</ele>
        <time>2018-07-15T09:05:12Z</time>
      </trkpt>
      <trkpt lat="45.86091" lon="4.71139">
        <ele>197</ele>
        <time>2018-07-15T09:05:13Z</time>
      </trkpt>
      <trkpt lat="45.86084" lon="4.71133">
        <ele>197</ele>
        <time>2018-07-15T09:05:16Z</time>
      </trkpt>
      <trkpt lat="45.86082" lon="4.71131">
        <ele>197</ele>
        <time>2018-07-15T09:05:17Z</time>
      </trkpt>
      <trkpt lat="45.86078" lon="4.71128">
        <ele>197</ele>
        <time>2018-07-15T09:05:18Z</time>
      </trkpt>
      <trkpt lat="45.8607" lon="4.7112">
        <ele>197</ele>
        <time>2018-07-15T09:05:19Z</time>
      </trkpt>
      <trkpt lat="45.86063" lon="4.71116">
        <ele>197</ele>
        <time>2018-07-15T09:05:20Z</time>
      </trkpt>
      <trkpt lat="45.86059" lon="4.71112">
        <ele>197</ele>
        <time>2018-07-15T09:05:21Z</time>
      </trkpt>
      <trkpt lat="45.86055" lon="4.71107">
        <ele>197</ele>
        <time>2018-07-15T09:05:22Z</time>
      </trkpt>
      <trkpt lat="45.86053" lon="4.71101">
        <ele>197</ele>
        <time>2018-07-15T09:05:23Z</time>
      </trkpt>
      <trkpt lat="45.86048" lon="4.71095">
        <ele>197</ele>
        <time>2018-07-15T09:05:24Z</time>
      </trkpt>
      <trkpt lat="45.86044" lon="4.71088">
        <ele>197</ele>
        <time>2018-07-15T09:05:25Z</time>
      </trkpt>
      <trkpt lat="45.8604" lon="4.71083">
        <ele>197</ele>
        <time>2018-07-15T09:05:26Z</time>
      </trkpt>
      <trkpt lat="45.86038" lon="4.71075">
        <ele>197</ele>
        <time>2018-07-15T09:05:27Z</time>
      </trkpt>
      <trkpt lat="45.86036" lon="4.71068">
        <ele>197</ele>
        <time>2018-07-15T09:05:28Z</time>
      </trkpt>
      <trkpt lat="45.86034" lon="4.7106">
        <ele>197</ele>
        <time>2018-07-15T09:05:29Z</time>
      </trkpt>
      <trkpt lat="45.86031" lon="4.71053">
        <ele>197</ele>
        <time>2018-07-15T09:05:30Z</time>
      </trkpt>
      <trkpt lat="45.86032" lon="4.71047">
        <ele>197</ele>
        <time>2018-07-15T09:05:31Z</time>
      </trkpt>
      <trkpt lat="45.86031" lon="4.71039">
        <ele>197</ele>
        <time>2018-07-15T09:05:32Z</time>
      </trkpt>
      <trkpt lat="45.8603" lon="4.71033">
        <ele>197</ele>
        <time>2018-07-15T09:05:33Z</time>
      </trkpt>
      <trkpt lat="45.86028" lon="4.71026">
        <ele>197</ele>
        <time>2018-07-15T09:05:34Z</time>
      </trkpt>
      <trkpt lat="45.86027" lon="4.7102">
        <ele>197</ele>
        <time>2018-07-15T09:05:35Z</time>
      </trkpt>
      <trkpt lat="45.86025" lon="4.71014">
        <ele>197</ele>
        <time>2018-07-15T09:05:36Z</time>
      </trkpt>
      <trkpt lat="45.86019" lon="4.71007">
        <ele>197</ele>
        <time>2018-07-15T09:05:37Z</time>
      </trkpt>
      <trkpt lat="45.86017" lon="4.71">
        <ele>197</ele>
        <time>2018-07-15T09:05:38Z</time>
      </trkpt>
      <trkpt lat="45.86013" lon="4.70995">
        <ele>197</ele>
        <time>2018-07-15T09:05:39Z</time>
      </trkpt>
      <trkpt lat="45.86009" lon="4.70991">
        <ele>197</ele>
        <time>2018-07-15T09:05:40Z</time>
      </trkpt>
      <trkpt lat="45.86005" lon="4.70986">
        <ele>197</ele>
        <time>2018-07-15T09:05:41Z</time>
      </trkpt>
      <trkpt lat="45.85999" lon="4.70982">
        <ele>197</ele>
        <time>2018-07-15T09:05:42Z</time>
      </trkpt>
      <trkpt lat="45.85995" lon="4.70979">
        <ele>197</ele>
        <time>2018-07-15T09:05:43Z</time>
      </trkpt>
      <trkpt lat="45.85988" lon="4.70976">
        <ele>197</ele>
        <time>2018-07-15T09:05:44Z</time>
      </trkpt>
      <trkpt lat="45.85982" lon="4.70972">
        <ele>197</ele>
        <time>2018-07-15T09:05:45Z</time>
      </trkpt>
      <trkpt lat="45.85977" lon="4.70971">
        <ele>197</ele>
        <time>2018-07-15T09:05:46Z</time>
      </trkpt>
      <trkpt lat="45.85971" lon="4.70969">
        <ele>197</ele>
        <time>2018-07-15T09:05:47Z</time>
      </trkpt>
      <trkpt lat="45.85965" lon="4.70969">
        <ele>197</ele>
        <time>2018-07-15T09:05:48Z</time>
      </trkpt>
      <trkpt lat="45.85959" lon="4.70968">
        <ele>197</ele>
        <time>2018-07-15T09:05:49Z</time>
      </trkpt>
      <trkpt lat="45.85954" lon="4.70969">
        <ele>197</ele>
        <time>2018-07-15T09:05:50Z</time>
      </trkpt>
      <trkpt lat="45.85949" lon="4.70968">
        <ele>197</ele>
        <time>2018-07-15T09:05:51Z</time>
      </trkpt>
      <trkpt lat="45.85942" lon="4.70963">
        <ele>197</ele>
        <time>2018-07-15T09:05:53Z</time>
      </trkpt>
      <trkpt lat="45.8594" lon="4.70957">
        <ele>197</ele>
        <time>2018-07-15T09:05:54Z</time>
      </trkpt>
      <trkpt lat="45.85938" lon="4.7095">
        <ele>197</ele>
        <time>2018-07-15T09:05:55Z</time>
      </trkpt>
      <trkpt lat="45.85936" lon="4.70944">
        <ele>197</ele>
        <time>2018-07-15T09:05:56Z</time>
      </trkpt>
      <trkpt lat="45.85938" lon="4.70938">
        <ele>197</ele>
        <time>2018-07-15T09:05:57Z</time>
      </trkpt>
      <trkpt lat="45.85941" lon="4.70931">
        <ele>197</ele>
        <time>2018-07-15T09:05:58Z</time>
      </trkpt>
      <trkpt lat="45.85943" lon="4.70924">
        <ele>197</ele>
        <time>2018-07-15T09:05:59Z</time>
      </trkpt>
      <trkpt lat="45.85945" lon="4.70917">
        <ele>197</ele>
        <time>2018-07-15T09:06:00Z</time>
      </trkpt>
      <trkpt lat="45.85946" lon="4.7091">
        <ele>197</ele>
        <time>2018-07-15T09:06:01Z</time>
      </trkpt>
      <trkpt lat="45.85949" lon="4.70902">
        <ele>197</ele>
        <time>2018-07-15T09:06:02Z</time>
      </trkpt>
      <trkpt lat="45.85951" lon="4.70895">
        <ele>197</ele>
        <time>2018-07-15T09:06:03Z</time>
      </trkpt>
      <trkpt lat="45.85953" lon="4.70887">
        <ele>197</ele>
        <time>2018-07-15T09:06:04Z</time>
      </trkpt>
      <trkpt lat="45.85955" lon="4.70879">
        <ele>197</ele>
        <time>2018-07-15T09:06:05Z</time>
      </trkpt>
      <trkpt lat="45.85957" lon="4.70874">
        <ele>196</ele>
        <time>2018-07-15T09:06:06Z</time>
      </trkpt>
      <trkpt lat="45.85958" lon="4.70865">
        <ele>196</ele>
        <time>2018-07-15T09:06:07Z</time>
      </trkpt>
      <trkpt lat="45.85958" lon="4.70858">
        <ele>196</ele>
        <time>2018-07-15T09:06:08Z</time>
      </trkpt>
      <trkpt lat="45.8596" lon="4.70846">
        <ele>196</ele>
        <time>2018-07-15T09:06:10Z</time>
      </trkpt>
      <trkpt lat="45.85961" lon="4.70838">
        <ele>196</ele>
        <time>2018-07-15T09:06:11Z</time>
      </trkpt>
      <trkpt lat="45.85962" lon="4.70826">
        <ele>196</ele>
        <time>2018-07-15T09:06:13Z</time>
      </trkpt>
      <trkpt lat="45.85962" lon="4.70819">
        <ele>195</ele>
        <time>2018-07-15T09:06:14Z</time>
      </trkpt>
      <trkpt lat="45.85964" lon="4.70813">
        <ele>195</ele>
        <time>2018-07-15T09:06:15Z</time>
      </trkpt>
      <trkpt lat="45.85961" lon="4.70804">
        <ele>195</ele>
        <time>2018-07-15T09:06:16Z</time>
      </trkpt>
      <trkpt lat="45.8596" lon="4.70796">
        <ele>195</ele>
        <time>2018-07-15T09:06:17Z</time>
      </trkpt>
      <trkpt lat="45.85957" lon="4.70787">
        <ele>195</ele>
        <time>2018-07-15T09:06:18Z</time>
      </trkpt>
      <trkpt lat="45.8596" lon="4.70778">
        <ele>195</ele>
        <time>2018-07-15T09:06:19Z</time>
      </trkpt>
      <trkpt lat="45.8596" lon="4.7077">
        <ele>195</ele>
        <time>2018-07-15T09:06:20Z</time>
      </trkpt>
      <trkpt lat="45.8596" lon="4.70761">
        <ele>195</ele>
        <time>2018-07-15T09:06:21Z</time>
      </trkpt>
      <trkpt lat="45.85961" lon="4.70753">
        <ele>195</ele>
        <time>2018-07-15T09:06:22Z</time>
      </trkpt>
      <trkpt lat="45.8596" lon="4.70746">
        <ele>194</ele>
        <time>2018-07-15T09:06:23Z</time>
      </trkpt>
      <trkpt lat="45.85959" lon="4.70738">
        <ele>194</ele>
        <time>2018-07-15T09:06:24Z</time>
      </trkpt>
      <trkpt lat="45.85961" lon="4.7073">
        <ele>194</ele>
        <time>2018-07-15T09:06:25Z</time>
      </trkpt>
      <trkpt lat="45.85961" lon="4.70722">
        <ele>194</ele>
        <time>2018-07-15T09:06:26Z</time>
      </trkpt>
      <trkpt lat="45.85963" lon="4.70715">
        <ele>194</ele>
        <time>2018-07-15T09:06:27Z</time>
      </trkpt>
      <trkpt lat="45.85964" lon="4.70708">
        <ele>194</ele>
        <time>2018-07-15T09:06:28Z</time>
      </trkpt>
      <trkpt lat="45.85963" lon="4.70699">
        <ele>194</ele>
        <time>2018-07-15T09:06:29Z</time>
      </trkpt>
      <trkpt lat="45.85963" lon="4.70692">
        <ele>194</ele>
        <time>2018-07-15T09:06:30Z</time>
      </trkpt>
      <trkpt lat="45.85963" lon="4.70685">
        <ele>194</ele>
        <time>2018-07-15T09:06:31Z</time>
      </trkpt>
      <trkpt lat="45.85964" lon="4.70678">
        <ele>194</ele>
        <time>2018-07-15T09:06:32Z</time>
      </trkpt>
      <trkpt lat="45.85958" lon="4.7067">
        <ele>194</ele>
        <time>2018-07-15T09:06:33Z</time>
      </trkpt>
      <trkpt lat="45.85952" lon="4.70662">
        <ele>194</ele>
        <time>2018-07-15T09:06:34Z</time>
      </trkpt>
      <trkpt lat="45.85948" lon="4.70655">
        <ele>194</ele>
        <time>2018-07-15T09:06:35Z</time>
      </trkpt>
      <trkpt lat="45.85945" lon="4.70649">
        <ele>194</ele>
        <time>2018-07-15T09:06:36Z</time>
      </trkpt>
      <trkpt lat="45.85942" lon="4.70641">
        <ele>194</ele>
        <time>2018-07-15T09:06:37Z</time>
      </trkpt>
      <trkpt lat="45.85939" lon="4.70635">
        <ele>194</ele>
        <time>2018-07-15T09:06:38Z</time>
      </trkpt>
      <trkpt lat="45.85934" lon="4.70628">
        <ele>194</ele>
        <time>2018-07-15T09:06:39Z</time>
      </trkpt>
      <trkpt lat="45.8593" lon="4.70621">
        <ele>194</ele>
        <time>2018-07-15T09:06:40Z</time>
      </trkpt>
      <trkpt lat="45.85926" lon="4.70615">
        <ele>194</ele>
        <time>2018-07-15T09:06:41Z</time>
      </trkpt>
      <trkpt lat="45.85923" lon="4.70611">
        <ele>194</ele>
        <time>2018-07-15T09:06:42Z</time>
      </trkpt>
      <trkpt lat="45.85919" lon="4.70604">
        <ele>194</ele>
        <time>2018-07-15T09:06:43Z</time>
      </trkpt>
      <trkpt lat="45.85914" lon="4.70599">
        <ele>195</ele>
        <time>2018-07-15T09:06:44Z</time>
      </trkpt>
      <trkpt lat="45.85909" lon="4.70595">
        <ele>195</ele>
        <time>2018-07-15T09:06:45Z</time>
      </trkpt>
      <trkpt lat="45.85904" lon="4.7059">
        <ele>195</ele>
        <time>2018-07-15T09:06:46Z</time>
      </trkpt>
      <trkpt lat="45.85899" lon="4.70586">
        <ele>195</ele>
        <time>2018-07-15T09:06:47Z</time>
      </trkpt>
      <trkpt lat="45.85895" lon="4.70583">
        <ele>195</ele>
        <time>2018-07-15T09:06:48Z</time>
      </trkpt>
      <trkpt lat="45.8589" lon="4.70581">
        <ele>195</ele>
        <time>2018-07-15T09:06:49Z</time>
      </trkpt>
      <trkpt lat="45.85885" lon="4.70579">
        <ele>195</ele>
        <time>2018-07-15T09:06:50Z</time>
      </trkpt>
      <trkpt lat="45.85879" lon="4.70577">
        <ele>195</ele>
        <time>2018-07-15T09:06:51Z</time>
      </trkpt>
      <trkpt lat="45.85876" lon="4.70575">
        <ele>195</ele>
        <time>2018-07-15T09:06:52Z</time>
      </trkpt>
      <trkpt lat="45.85869" lon="4.70573">
        <ele>195</ele>
        <time>2018-07-15T09:06:53Z</time>
      </trkpt>
      <trkpt lat="45.85864" lon="4.70571">
        <ele>195</ele>
        <time>2018-07-15T09:06:54Z</time>
      </trkpt>
      <trkpt lat="45.85858" lon="4.7057">
        <ele>195</ele>
        <time>2018-07-15T09:06:55Z</time>
      </trkpt>
      <trkpt lat="45.85853" lon="4.70567">
        <ele>195</ele>
        <time>2018-07-15T09:06:56Z</time>
      </trkpt>
      <trkpt lat="45.85845" lon="4.70561">
        <ele>195</ele>
        <time>2018-07-15T09:06:57Z</time>
      </trkpt>
      <trkpt lat="45.8584" lon="4.7056">
        <ele>195</ele>
        <time>2018-07-15T09:06:58Z</time>
      </trkpt>
      <trkpt lat="45.85834" lon="4.70557">
        <ele>195</ele>
        <time>2018-07-15T09:06:59Z</time>
      </trkpt>
      <trkpt lat="45.8583" lon="4.70555">
        <ele>195</ele>
        <time>2018-07-15T09:07:00Z</time>
      </trkpt>
      <trkpt lat="45.85824" lon="4.70552">
        <ele>195</ele>
        <time>2018-07-15T09:07:01Z</time>
      </trkpt>
      <trkpt lat="45.85818" lon="4.70549">
        <ele>195</ele>
        <time>2018-07-15T09:07:02Z</time>
      </trkpt>
      <trkpt lat="45.85812" lon="4.70548">
        <ele>195</ele>
        <time>2018-07-15T09:07:03Z</time>
      </trkpt>
      <trkpt lat="45.85807" lon="4.70545">
        <ele>195</ele>
        <time>2018-07-15T09:07:04Z</time>
      </trkpt>
      <trkpt lat="45.858" lon="4.70541">
        <ele>195</ele>
        <time>2018-07-15T09:07:06Z</time>
      </trkpt>
      <trkpt lat="45.85794" lon="4.70537">
        <ele>195</ele>
        <time>2018-07-15T09:07:07Z</time>
      </trkpt>
      <trkpt lat="45.85786" lon="4.70535">
        <ele>196</ele>
        <time>2018-07-15T09:07:08Z</time>
      </trkpt>
      <trkpt lat="45.85778" lon="4.70533">
        <ele>196</ele>
        <time>2018-07-15T09:07:09Z</time>
      </trkpt>
      <trkpt lat="45.85773" lon="4.70531">
        <ele>196</ele>
        <time>2018-07-15T09:07:10Z</time>
      </trkpt>
      <trkpt lat="45.85768" lon="4.70526">
        <ele>196</ele>
        <time>2018-07-15T09:07:11Z</time>
      </trkpt>
      <trkpt lat="45.85764" lon="4.70522">
        <ele>196</ele>
        <time>2018-07-15T09:07:12Z</time>
      </trkpt>
      <trkpt lat="45.8576" lon="4.70519">
        <ele>196</ele>
        <time>2018-07-15T09:07:13Z</time>
      </trkpt>
      <trkpt lat="45.85755" lon="4.70516">
        <ele>196</ele>
        <time>2018-07-15T09:07:14Z</time>
      </trkpt>
      <trkpt lat="45.8575" lon="4.70511">
        <ele>196</ele>
        <time>2018-07-15T09:07:15Z</time>
      </trkpt>
      <trkpt lat="45.85746" lon="4.70507">
        <ele>196</ele>
        <time>2018-07-15T09:07:16Z</time>
      </trkpt>
      <trkpt lat="45.85741" lon="4.70503">
        <ele>196</ele>
        <time>2018-07-15T09:07:17Z</time>
      </trkpt>
      <trkpt lat="45.85737" lon="4.70497">
        <ele>196</ele>
        <time>2018-07-15T09:07:18Z</time>
      </trkpt>
      <trkpt lat="45.85732" lon="4.70491">
        <ele>196</ele>
        <time>2018-07-15T09:07:19Z</time>
      </trkpt>
      <trkpt lat="45.85731" lon="4.70484">
        <ele>196</ele>
        <time>2018-07-15T09:07:20Z</time>
      </trkpt>
      <trkpt lat="45.85728" lon="4.70478">
        <ele>196</ele>
        <time>2018-07-15T09:07:21Z</time>
      </trkpt>
      <trkpt lat="45.85729" lon="4.70471">
        <ele>196</ele>
        <time>2018-07-15T09:07:22Z</time>
      </trkpt>
      <trkpt lat="45.85727" lon="4.70462">
        <ele>196</ele>
        <time>2018-07-15T09:07:23Z</time>
      </trkpt>
      <trkpt lat="45.85727" lon="4.70454">
        <ele>196</ele>
        <time>2018-07-15T09:07:24Z</time>
      </trkpt>
      <trkpt lat="45.85726" lon="4.70445">
        <ele>196</ele>
        <time>2018-07-15T09:07:25Z</time>
      </trkpt>
      <trkpt lat="45.85725" lon="4.70437">
        <ele>196</ele>
        <time>2018-07-15T09:07:26Z</time>
      </trkpt>
      <trkpt lat="45.85723" lon="4.70428">
        <ele>196</ele>
        <time>2018-07-15T09:07:27Z</time>
      </trkpt>
      <trkpt lat="45.85722" lon="4.70419">
        <ele>196</ele>
        <time>2018-07-15T09:07:28Z</time>
      </trkpt>
      <trkpt lat="45.8572" lon="4.7041">
        <ele>196</ele>
        <time>2018-07-15T09:07:29Z</time>
      </trkpt>
      <trkpt lat="45.8572" lon="4.70403">
        <ele>196</ele>
        <time>2018-07-15T09:07:30Z</time>
      </trkpt>
      <trkpt lat="45.85718" lon="4.70394">
        <ele>196</ele>
        <time>2018-07-15T09:07:31Z</time>
      </trkpt>
      <trkpt lat="45.85716" lon="4.70387">
        <ele>196</ele>
        <time>2018-07-15T09:07:32Z</time>
      </trkpt>
      <trkpt lat="45.85715" lon="4.70378">
        <ele>196</ele>
        <time>2018-07-15T09:07:33Z</time>
      </trkpt>
      <trkpt lat="45.85715" lon="4.70371">
        <ele>196</ele>
        <time>2018-07-15T09:07:34Z</time>
      </trkpt>
      <trkpt lat="45.85713" lon="4.70362">
        <ele>196</ele>
        <time>2018-07-15T09:07:35Z</time>
      </trkpt>
      <trkpt lat="45.85713" lon="4.70354">
        <ele>196</ele>
        <time>2018-07-15T09:07:36Z</time>
      </trkpt>
      <trkpt lat="45.85712" lon="4.70345">
        <ele>196</ele>
        <time>2018-07-15T09:07:37Z</time>
      </trkpt>
      <trkpt lat="45.8571" lon="4.70336">
        <ele>196</ele>
        <time>2018-07-15T09:07:38Z</time>
      </trkpt>
      <trkpt lat="45.85713" lon="4.70328">
        <ele>197</ele>
        <time>2018-07-15T09:07:39Z</time>
      </trkpt>
      <trkpt lat="45.85713" lon="4.70319">
        <ele>197</ele>
        <time>2018-07-15T09:07:40Z</time>
      </trkpt>
      <trkpt lat="45.85711" lon="4.7031">
        <ele>197</ele>
        <time>2018-07-15T09:07:41Z</time>
      </trkpt>
      <trkpt lat="45.8571" lon="4.70301">
        <ele>197</ele>
        <time>2018-07-15T09:07:42Z</time>
      </trkpt>
      <trkpt lat="45.85709" lon="4.70293">
        <ele>197</ele>
        <time>2018-07-15T09:07:43Z</time>
      </trkpt>
      <trkpt lat="45.85707" lon="4.70284">
        <ele>197</ele>
        <time>2018-07-15T09:07:44Z</time>
      </trkpt>
      <trkpt lat="45.85705" lon="4.70274">
        <ele>197</ele>
        <time>2018-07-15T09:07:45Z</time>
      </trkpt>
      <trkpt lat="45.85704" lon="4.70265">
        <ele>197</ele>
        <time>2018-07-15T09:07:46Z</time>
      </trkpt>
      <trkpt lat="45.85703" lon="4.70255">
        <ele>197</ele>
        <time>2018-07-15T09:07:47Z</time>
      </trkpt>
      <trkpt lat="45.85702" lon="4.70246">
        <ele>197</ele>
        <time>2018-07-15T09:07:48Z</time>
      </trkpt>
      <trkpt lat="45.85702" lon="4.70237">
        <ele>197</ele>
        <time>2018-07-15T09:07:49Z</time>
      </trkpt>
      <trkpt lat="45.85702" lon="4.70229">
        <ele>197</ele>
        <time>2018-07-15T09:07:50Z</time>
      </trkpt>
      <trkpt lat="45.85701" lon="4.70222">
        <ele>197</ele>
        <time>2018-07-15T09:07:51Z</time>
      </trkpt>
      <trkpt lat="45.857" lon="4.70215">
        <ele>197</ele>
        <time>2018-07-15T09:07:52Z</time>
      </trkpt>
      <trkpt lat="45.857" lon="4.70207">
        <ele>197</ele>
        <time>2018-07-15T09:07:53Z</time>
      </trkpt>
      <trkpt lat="45.85699" lon="4.702">
        <ele>197</ele>
        <time>2018-07-15T09:07:54Z</time>
      </trkpt>
      <trkpt lat="45.85698" lon="4.70193">
        <ele>197</ele>
        <time>2018-07-15T09:07:55Z</time>
      </trkpt>
      <trkpt lat="45.85691" lon="4.70184">
        <ele>197</ele>
        <time>2018-07-15T09:07:56Z</time>
      </trkpt>
      <trkpt lat="45.85691" lon="4.70178">
        <ele>197</ele>
        <time>2018-07-15T09:07:57Z</time>
      </trkpt>
      <trkpt lat="45.8569" lon="4.70171">
        <ele>197</ele>
        <time>2018-07-15T09:07:58Z</time>
      </trkpt>
      <trkpt lat="45.85687" lon="4.70164">
        <ele>197</ele>
        <time>2018-07-15T09:07:59Z</time>
      </trkpt>
      <trkpt lat="45.85687" lon="4.70152">
        <ele>197</ele>
        <time>2018-07-15T09:08:01Z</time>
      </trkpt>
      <trkpt lat="45.85684" lon="4.70144">
        <ele>197</ele>
        <time>2018-07-15T09:08:02Z</time>
      </trkpt>
      <trkpt lat="45.85682" lon="4.70137">
        <ele>197</ele>
        <time>2018-07-15T09:08:03Z</time>
      </trkpt>
      <trkpt lat="45.85682" lon="4.70129">
        <ele>197</ele>
        <time>2018-07-15T09:08:04Z</time>
      </trkpt>
      <trkpt lat="45.85684" lon="4.70121">
        <ele>197</ele>
        <time>2018-07-15T09:08:05Z</time>
      </trkpt>
      <trkpt lat="45.85681" lon="4.70114">
        <ele>197</ele>
        <time>2018-07-15T09:08:06Z</time>
      </trkpt>
      <trkpt lat="45.85679" lon="4.70106">
        <ele>196</ele>
        <time>2018-07-15T09:08:07Z</time>
      </trkpt>
      <trkpt lat="45.8568" lon="4.70099">
        <ele>196</ele>
        <time>2018-07-15T09:08:08Z</time>
      </trkpt>
      <trkpt lat="45.85679" lon="4.70091">
        <ele>196</ele>
        <time>2018-07-15T09:08:09Z</time>
      </trkpt>
      <trkpt lat="45.85679" lon="4.70083">
        <ele>196</ele>
        <time>2018-07-15T09:08:10Z</time>
      </trkpt>
      <trkpt lat="45.8568" lon="4.70076">
        <ele>196</ele>
        <time>2018-07-15T09:08:11Z</time>
      </trkpt>
      <trkpt lat="45.85681" lon="4.70068">
        <ele>196</ele>
        <time>2018-07-15T09:08:12Z</time>
      </trkpt>
      <trkpt lat="45.85681" lon="4.70061">
        <ele>196</ele>
        <time>2018-07-15T09:08:13Z</time>
      </trkpt>
      <trkpt lat="45.85684" lon="4.70052">
        <ele>195</ele>
        <time>2018-07-15T09:08:14Z</time>
      </trkpt>
      <trkpt lat="45.85685" lon="4.70046">
        <ele>195</ele>
        <time>2018-07-15T09:08:15Z</time>
      </trkpt>
      <trkpt lat="45.85689" lon="4.70039">
        <ele>195</ele>
        <time>2018-07-15T09:08:16Z</time>
      </trkpt>
      <trkpt lat="45.85687" lon="4.7003">
        <ele>195</ele>
        <time>2018-07-15T09:08:17Z</time>
      </trkpt>
      <trkpt lat="45.85689" lon="4.70023">
        <ele>195</ele>
        <time>2018-07-15T09:08:18Z</time>
      </trkpt>
      <trkpt lat="45.8569" lon="4.70015">
        <ele>195</ele>
        <time>2018-07-15T09:08:19Z</time>
      </trkpt>
      <trkpt lat="45.85689" lon="4.70007">
        <ele>195</ele>
        <time>2018-07-15T09:08:20Z</time>
      </trkpt>
      <trkpt lat="45.8569" lon="4.69999">
        <ele>195</ele>
        <time>2018-07-15T09:08:21Z</time>
      </trkpt>
      <trkpt lat="45.8569" lon="4.6999">
        <ele>195</ele>
        <time>2018-07-15T09:08:22Z</time>
      </trkpt>
      <trkpt lat="45.85689" lon="4.69982">
        <ele>195</ele>
        <time>2018-07-15T09:08:23Z</time>
      </trkpt>
      <trkpt lat="45.85688" lon="4.69974">
        <ele>195</ele>
        <time>2018-07-15T09:08:24Z</time>
      </trkpt>
      <trkpt lat="45.85688" lon="4.69966">
        <ele>195</ele>
        <time>2018-07-15T09:08:25Z</time>
      </trkpt>
      <trkpt lat="45.85686" lon="4.69957">
        <ele>195</ele>
        <time>2018-07-15T09:08:26Z</time>
      </trkpt>
      <trkpt lat="45.85684" lon="4.69949">
        <ele>195</ele>
        <time>2018-07-15T09:08:27Z</time>
      </trkpt>
      <trkpt lat="45.85682" lon="4.69939">
        <ele>195</ele>
        <time>2018-07-15T09:08:28Z</time>
      </trkpt>
      <trkpt lat="45.85679" lon="4.6993">
        <ele>195</ele>
        <time>2018-07-15T09:08:29Z</time>
      </trkpt>
      <trkpt lat="45.85677" lon="4.69921">
        <ele>195</ele>
        <time>2018-07-15T09:08:30Z</time>
      </trkpt>
      <trkpt lat="45.85676" lon="4.69912">
        <ele>195</ele>
        <time>2018-07-15T09:08:31Z</time>
      </trkpt>
      <trkpt lat="45.85674" lon="4.69904">
        <ele>195</ele>
        <time>2018-07-15T09:08:32Z</time>
      </trkpt>
      <trkpt lat="45.85672" lon="4.69895">
        <ele>195</ele>
        <time>2018-07-15T09:08:33Z</time>
      </trkpt>
      <trkpt lat="45.8567" lon="4.69885">
        <ele>195</ele>
        <time>2018-07-15T09:08:34Z</time>
      </trkpt>
      <trkpt lat="45.85668" lon="4.69877">
        <ele>195</ele>
        <time>2018-07-15T09:08:35Z</time>
      </trkpt>
      <trkpt lat="45.85666" lon="4.69869">
        <ele>195</ele>
        <time>2018-07-15T09:08:36Z</time>
      </trkpt>
      <trkpt lat="45.85661" lon="4.69858">
        <ele>195</ele>
        <time>2018-07-15T09:08:37Z</time>
      </trkpt>
      <trkpt lat="45.85661" lon="4.6985">
        <ele>195</ele>
        <time>2018-07-15T09:08:38Z</time>
      </trkpt>
      <trkpt lat="45.85659" lon="4.69841">
        <ele>195</ele>
        <time>2018-07-15T09:08:39Z</time>
      </trkpt>
      <trkpt lat="45.85657" lon="4.69832">
        <ele>195</ele>
        <time>2018-07-15T09:08:40Z</time>
      </trkpt>
      <trkpt lat="45.85658" lon="4.69823">
        <ele>195</ele>
        <time>2018-07-15T09:08:41Z</time>
      </trkpt>
      <trkpt lat="45.85657" lon="4.69815">
        <ele>195</ele>
        <time>2018-07-15T09:08:42Z</time>
      </trkpt>
      <trkpt lat="45.85656" lon="4.69805">
        <ele>195</ele>
        <time>2018-07-15T09:08:43Z</time>
      </trkpt>
      <trkpt lat="45.85655" lon="4.69795">
        <ele>195</ele>
        <time>2018-07-15T09:08:44Z</time>
      </trkpt>
      <trkpt lat="45.85655" lon="4.69786">
        <ele>195</ele>
        <time>2018-07-15T09:08:45Z</time>
      </trkpt>
      <trkpt lat="45.85654" lon="4.69778">
        <ele>195</ele>
        <time>2018-07-15T09:08:46Z</time>
      </trkpt>
      <trkpt lat="45.85653" lon="4.69769">
        <ele>195</ele>
        <time>2018-07-15T09:08:47Z</time>
      </trkpt>
      <trkpt lat="45.85653" lon="4.69762">
        <ele>195</ele>
        <time>2018-07-15T09:08:48Z</time>
      </trkpt>
      <trkpt lat="45.85652" lon="4.69754">
        <ele>195</ele>
        <time>2018-07-15T09:08:49Z</time>
      </trkpt>
      <trkpt lat="45.85652" lon="4.69745">
        <ele>195</ele>
        <time>2018-07-15T09:08:50Z</time>
      </trkpt>
      <trkpt lat="45.85651" lon="4.69737">
        <ele>195</ele>
        <time>2018-07-15T09:08:51Z</time>
      </trkpt>
      <trkpt lat="45.8565" lon="4.6973">
        <ele>195</ele>
        <time>2018-07-15T09:08:52Z</time>
      </trkpt>
      <trkpt lat="45.8565" lon="4.69723">
        <ele>195</ele>
        <time>2018-07-15T09:08:53Z</time>
      </trkpt>
      <trkpt lat="45.8565" lon="4.69714">
        <ele>196</ele>
        <time>2018-07-15T09:08:54Z</time>
      </trkpt>
      <trkpt lat="45.85648" lon="4.69706">
        <ele>196</ele>
        <time>2018-07-15T09:08:55Z</time>
      </trkpt>
      <trkpt lat="45.85648" lon="4.69697">
        <ele>196</ele>
        <time>2018-07-15T09:08:56Z</time>
      </trkpt>
      <trkpt lat="45.85647" lon="4.69689">
        <ele>196</ele>
        <time>2018-07-15T09:08:57Z</time>
      </trkpt>
      <trkpt lat="45.85645" lon="4.69679">
        <ele>196</ele>
        <time>2018-07-15T09:08:58Z</time>
      </trkpt>
      <trkpt lat="45.85644" lon="4.69671">
        <ele>196</ele>
        <time>2018-07-15T09:08:59Z</time>
      </trkpt>
      <trkpt lat="45.85646" lon="4.69664">
        <ele>197</ele>
        <time>2018-07-15T09:09:00Z</time>
      </trkpt>
      <trkpt lat="45.85646" lon="4.69656">
        <ele>197</ele>
        <time>2018-07-15T09:09:01Z</time>
      </trkpt>
      <trkpt lat="45.85645" lon="4.69648">
        <ele>197</ele>
        <time>2018-07-15T09:09:02Z</time>
      </trkpt>
      <trkpt lat="45.85646" lon="4.6964">
        <ele>197</ele>
        <time>2018-07-15T09:09:03Z</time>
      </trkpt>
      <trkpt lat="45.85646" lon="4.69632">
        <ele>197</ele>
        <time>2018-07-15T09:09:04Z</time>
      </trkpt>
      <trkpt lat="45.85646" lon="4.69624">
        <ele>197</ele>
        <time>2018-07-15T09:09:05Z</time>
      </trkpt>
      <trkpt lat="45.85645" lon="4.69616">
        <ele>197</ele>
        <time>2018-07-15T09:09:06Z</time>
      </trkpt>
      <trkpt lat="45.85643" lon="4.69609">
        <ele>197</ele>
        <time>2018-07-15T09:09:07Z</time>
      </trkpt>
      <trkpt lat="45.85642" lon="4.69601">
        <ele>197</ele>
        <time>2018-07-15T09:09:08Z</time>
      </trkpt>
      <trkpt lat="45.85641" lon="4.69594">
        <ele>197</ele>
        <time>2018-07-15T09:09:09Z</time>
      </trkpt>
      <trkpt lat="45.85641" lon="4.69586">
        <ele>197</ele>
        <time>2018-07-15T09:09:10Z</time>
      </trkpt>
      <trkpt lat="45.85641" lon="4.6958">
        <ele>198</ele>
        <time>2018-07-15T09:09:11Z</time>
      </trkpt>
      <trkpt lat="45.85641" lon="4.69572">
        <ele>198</ele>
        <time>2018-07-15T09:09:12Z</time>
      </trkpt>
      <trkpt lat="45.8564" lon="4.69564">
        <ele>198</ele>
        <time>2018-07-15T09:09:13Z</time>
      </trkpt>
      <trkpt lat="45.85637" lon="4.69555">
        <ele>198</ele>
        <time>2018-07-15T09:09:14Z</time>
      </trkpt>
      <trkpt lat="45.85637" lon="4.69547">
        <ele>198</ele>
        <time>2018-07-15T09:09:15Z</time>
      </trkpt>
      <trkpt lat="45.85637" lon="4.69539">
        <ele>198</ele>
        <time>2018-07-15T09:09:16Z</time>
      </trkpt>
      <trkpt lat="45.8564" lon="4.69532">
        <ele>198</ele>
        <time>2018-07-15T09:09:17Z</time>
      </trkpt>
      <trkpt lat="45.85636" lon="4.69524">
        <ele>198</ele>
        <time>2018-07-15T09:09:18Z</time>
      </trkpt>
      <trkpt lat="45.85634" lon="4.69516">
        <ele>198</ele>
        <time>2018-07-15T09:09:19Z</time>
      </trkpt>
      <trkpt lat="45.85634" lon="4.69508">
        <ele>198</ele>
        <time>2018-07-15T09:09:20Z</time>
      </trkpt>
      <trkpt lat="45.85632" lon="4.69499">
        <ele>198</ele>
        <time>2018-07-15T09:09:21Z</time>
      </trkpt>
      <trkpt lat="45.85631" lon="4.6949">
        <ele>198</ele>
        <time>2018-07-15T09:09:22Z</time>
      </trkpt>
      <trkpt lat="45.85632" lon="4.69481">
        <ele>198</ele>
        <time>2018-07-15T09:09:23Z</time>
      </trkpt>
      <trkpt lat="45.85635" lon="4.69473">
        <ele>198</ele>
        <time>2018-07-15T09:09:24Z</time>
      </trkpt>
      <trkpt lat="45.85633" lon="4.69464">
        <ele>198</ele>
        <time>2018-07-15T09:09:25Z</time>
      </trkpt>
      <trkpt lat="45.85633" lon="4.69456">
        <ele>198</ele>
        <time>2018-07-15T09:09:26Z</time>
      </trkpt>
      <trkpt lat="45.8563" lon="4.69447">
        <ele>198</ele>
        <time>2018-07-15T09:09:27Z</time>
      </trkpt>
      <trkpt lat="45.8563" lon="4.69439">
        <ele>198</ele>
        <time>2018-07-15T09:09:28Z</time>
      </trkpt>
      <trkpt lat="45.85628" lon="4.69431">
        <ele>198</ele>
        <time>2018-07-15T09:09:29Z</time>
      </trkpt>
      <trkpt lat="45.85627" lon="4.69423">
        <ele>198</ele>
        <time>2018-07-15T09:09:30Z</time>
      </trkpt>
      <trkpt lat="45.85624" lon="4.69415">
        <ele>198</ele>
        <time>2018-07-15T09:09:31Z</time>
      </trkpt>
      <trkpt lat="45.85622" lon="4.69407">
        <ele>198</ele>
        <time>2018-07-15T09:09:32Z</time>
      </trkpt>
      <trkpt lat="45.8562" lon="4.69399">
        <ele>198</ele>
        <time>2018-07-15T09:09:33Z</time>
      </trkpt>
      <trkpt lat="45.85619" lon="4.69391">
        <ele>198</ele>
        <time>2018-07-15T09:09:34Z</time>
      </trkpt>
      <trkpt lat="45.85618" lon="4.69383">
        <ele>198</ele>
        <time>2018-07-15T09:09:35Z</time>
      </trkpt>
      <trkpt lat="45.85618" lon="4.69374">
        <ele>198</ele>
        <time>2018-07-15T09:09:36Z</time>
      </trkpt>
      <trkpt lat="45.85617" lon="4.69365">
        <ele>198</ele>
        <time>2018-07-15T09:09:37Z</time>
      </trkpt>
      <trkpt lat="45.85616" lon="4.69356">
        <ele>198</ele>
        <time>2018-07-15T09:09:38Z</time>
      </trkpt>
      <trkpt lat="45.85616" lon="4.69349">
        <ele>198</ele>
        <time>2018-07-15T09:09:39Z</time>
      </trkpt>
      <trkpt lat="45.85615" lon="4.6934">
        <ele>198</ele>
        <time>2018-07-15T09:09:40Z</time>
      </trkpt>
      <trkpt lat="45.85615" lon="4.69332">
        <ele>198</ele>
        <time>2018-07-15T09:09:41Z</time>
      </trkpt>
      <trkpt lat="45.85614" lon="4.69325">
        <ele>198</ele>
        <time>2018-07-15T09:09:42Z</time>
      </trkpt>
      <trkpt lat="45.85613" lon="4.69317">
        <ele>198</ele>
        <time>2018-07-15T09:09:43Z</time>
      </trkpt>
      <trkpt lat="45.85612" lon="4.6931">
        <ele>198</ele>
        <time>2018-07-15T09:09:44Z</time>
      </trkpt>
      <trkpt lat="45.85612" lon="4.69303">
        <ele>198</ele>
        <time>2018-07-15T09:09:45Z</time>
      </trkpt>
      <trkpt lat="45.85611" lon="4.69297">
        <ele>198</ele>
        <time>2018-07-15T09:09:46Z</time>
      </trkpt>
      <trkpt lat="45.85614" lon="4.69285">
        <ele>198</ele>
        <time>2018-07-15T09:09:48Z</time>
      </trkpt>
      <trkpt lat="45.85613" lon="4.69279">
        <ele>198</ele>
        <time>2018-07-15T09:09:49Z</time>
      </trkpt>
      <trkpt lat="45.85617" lon="4.69269">
        <ele>198</ele>
        <time>2018-07-15T09:09:51Z</time>
      </trkpt>
      <trkpt lat="45.85618" lon="4.69262">
        <ele>198</ele>
        <time>2018-07-15T09:09:52Z</time>
      </trkpt>
      <trkpt lat="45.85616" lon="4.69256">
        <ele>198</ele>
        <time>2018-07-15T09:09:53Z</time>
      </trkpt>
      <trkpt lat="45.85613" lon="4.6925">
        <ele>199</ele>
        <time>2018-07-15T09:09:54Z</time>
      </trkpt>
      <trkpt lat="45.8561" lon="4.69244">
        <ele>199</ele>
        <time>2018-07-15T09:09:55Z</time>
      </trkpt>
      <trkpt lat="45.85607" lon="4.69238">
        <ele>199</ele>
        <time>2018-07-15T09:09:56Z</time>
      </trkpt>
      <trkpt lat="45.85606" lon="4.6923">
        <ele>199</ele>
        <time>2018-07-15T09:09:57Z</time>
      </trkpt>
      <trkpt lat="45.85604" lon="4.69222">
        <ele>199</ele>
        <time>2018-07-15T09:09:58Z</time>
      </trkpt>
      <trkpt lat="45.85604" lon="4.69213">
        <ele>199</ele>
        <time>2018-07-15T09:09:59Z</time>
      </trkpt>
      <trkpt lat="45.85603" lon="4.69205">
        <ele>199</ele>
        <time>2018-07-15T09:10:00Z</time>
      </trkpt>
      <trkpt lat="45.85605" lon="4.69196">
        <ele>199</ele>
        <time>2018-07-15T09:10:01Z</time>
      </trkpt>
      <trkpt lat="45.85604" lon="4.69187">
        <ele>199</ele>
        <time>2018-07-15T09:10:02Z</time>
      </trkpt>
      <trkpt lat="45.85604" lon="4.69178">
        <ele>199</ele>
        <time>2018-07-15T09:10:03Z</time>
      </trkpt>
      <trkpt lat="45.85608" lon="4.69169">
        <ele>199</ele>
        <time>2018-07-15T09:10:04Z</time>
      </trkpt>
      <trkpt lat="45.85605" lon="4.6916">
        <ele>199</ele>
        <time>2018-07-15T09:10:05Z</time>
      </trkpt>
      <trkpt lat="45.85604" lon="4.69151">
        <ele>199</ele>
        <time>2018-07-15T09:10:06Z</time>
      </trkpt>
      <trkpt lat="45.85607" lon="4.69143">
        <ele>198</ele>
        <time>2018-07-15T09:10:07Z</time>
      </trkpt>
      <trkpt lat="45.85606" lon="4.69136">
        <ele>198</ele>
        <time>2018-07-15T09:10:08Z</time>
      </trkpt>
      <trkpt lat="45.85606" lon="4.69127">
        <ele>198</ele>
        <time>2018-07-15T09:10:09Z</time>
      </trkpt>
      <trkpt lat="45.85606" lon="4.69118">
        <ele>198</ele>
        <time>2018-07-15T09:10:10Z</time>
      </trkpt>
      <trkpt lat="45.85603" lon="4.6911">
        <ele>198</ele>
        <time>2018-07-15T09:10:11Z</time>
      </trkpt>
      <trkpt lat="45.85602" lon="4.69102">
        <ele>198</ele>
        <time>2018-07-15T09:10:12Z</time>
      </trkpt>
      <trkpt lat="45.85601" lon="4.69092">
        <ele>199</ele>
        <time>2018-07-15T09:10:13Z</time>
      </trkpt>
      <trkpt lat="45.85597" lon="4.69082">
        <ele>199</ele>
        <time>2018-07-15T09:10:14Z</time>
      </trkpt>
      <trkpt lat="45.85596" lon="4.69072">
        <ele>199</ele>
        <time>2018-07-15T09:10:15Z</time>
      </trkpt>
      <trkpt lat="45.85596" lon="4.69062">
        <ele>199</ele>
        <time>2018-07-15T09:10:16Z</time>
      </trkpt>
      <trkpt lat="45.85595" lon="4.69052">
        <ele>199</ele>
        <time>2018-07-15T09:10:17Z</time>
      </trkpt>
      <trkpt lat="45.85595" lon="4.69042">
        <ele>199</ele>
        <time>2018-07-15T09:10:18Z</time>
      </trkpt>
      <trkpt lat="45.85594" lon="4.69032">
        <ele>199</ele>
        <time>2018-07-15T09:10:19Z</time>
      </trkpt>
      <trkpt lat="45.8559" lon="4.69023">
        <ele>199</ele>
        <time>2018-07-15T09:10:20Z</time>
      </trkpt>
      <trkpt lat="45.85589" lon="4.69014">
        <ele>199</ele>
        <time>2018-07-15T09:10:21Z</time>
      </trkpt>
      <trkpt lat="45.8559" lon="4.69005">
        <ele>200</ele>
        <time>2018-07-15T09:10:22Z</time>
      </trkpt>
      <trkpt lat="45.85587" lon="4.68995">
        <ele>200</ele>
        <time>2018-07-15T09:10:23Z</time>
      </trkpt>
      <trkpt lat="45.85586" lon="4.68985">
        <ele>200</ele>
        <time>2018-07-15T09:10:24Z</time>
      </trkpt>
      <trkpt lat="45.85589" lon="4.68976">
        <ele>200</ele>
        <time>2018-07-15T09:10:25Z</time>
      </trkpt>
      <trkpt lat="45.85585" lon="4.68964">
        <ele>200</ele>
        <time>2018-07-15T09:10:26Z</time>
      </trkpt>
      <trkpt lat="45.85583" lon="4.68954">
        <ele>200</ele>
        <time>2018-07-15T09:10:27Z</time>
      </trkpt>
      <trkpt lat="45.85584" lon="4.68944">
        <ele>200</ele>
        <time>2018-07-15T09:10:28Z</time>
      </trkpt>
      <trkpt lat="45.85584" lon="4.68935">
        <ele>200</ele>
        <time>2018-07-15T09:10:29Z</time>
      </trkpt>
      <trkpt lat="45.85583" lon="4.68926">
        <ele>200</ele>
        <time>2018-07-15T09:10:30Z</time>
      </trkpt>
      <trkpt lat="45.85583" lon="4.68917">
        <ele>200</ele>
        <time>2018-07-15T09:10:31Z</time>
      </trkpt>
      <trkpt lat="45.8558" lon="4.68909">
        <ele>200</ele>
        <time>2018-07-15T09:10:32Z</time>
      </trkpt>
      <trkpt lat="45.85579" lon="4.68899">
        <ele>200</ele>
        <time>2018-07-15T09:10:33Z</time>
      </trkpt>
      <trkpt lat="45.85579" lon="4.68889">
        <ele>200</ele>
        <time>2018-07-15T09:10:34Z</time>
      </trkpt>
      <trkpt lat="45.85578" lon="4.6888">
        <ele>200</ele>
        <time>2018-07-15T09:10:35Z</time>
      </trkpt>
      <trkpt lat="45.85578" lon="4.68871">
        <ele>200</ele>
        <time>2018-07-15T09:10:36Z</time>
      </trkpt>
      <trkpt lat="45.85576" lon="4.68861">
        <ele>200</ele>
        <time>2018-07-15T09:10:37Z</time>
      </trkpt>
      <trkpt lat="45.85575" lon="4.68851">
        <ele>200</ele>
        <time>2018-07-15T09:10:38Z</time>
      </trkpt>
      <trkpt lat="45.85574" lon="4.68843">
        <ele>200</ele>
        <time>2018-07-15T09:10:39Z</time>
      </trkpt>
      <trkpt lat="45.85574" lon="4.68833">
        <ele>200</ele>
        <time>2018-07-15T09:10:40Z</time>
      </trkpt>
      <trkpt lat="45.85573" lon="4.68823">
        <ele>200</ele>
        <time>2018-07-15T09:10:41Z</time>
      </trkpt>
      <trkpt lat="45.85573" lon="4.68813">
        <ele>200</ele>
        <time>2018-07-15T09:10:42Z</time>
      </trkpt>
      <trkpt lat="45.85572" lon="4.68803">
        <ele>200</ele>
        <time>2018-07-15T09:10:43Z</time>
      </trkpt>
      <trkpt lat="45.8557" lon="4.68793">
        <ele>200</ele>
        <time>2018-07-15T09:10:44Z</time>
      </trkpt>
      <trkpt lat="45.85568" lon="4.68784">
        <ele>200</ele>
        <time>2018-07-15T09:10:45Z</time>
      </trkpt>
      <trkpt lat="45.85573" lon="4.68774">
        <ele>200</ele>
        <time>2018-07-15T09:10:46Z</time>
      </trkpt>
      <trkpt lat="45.85571" lon="4.68765">
        <ele>200</ele>
        <time>2018-07-15T09:10:47Z</time>
      </trkpt>
      <trkpt lat="45.85569" lon="4.68755">
        <ele>200</ele>
        <time>2018-07-15T09:10:48Z</time>
      </trkpt>
      <trkpt lat="45.85566" lon="4.68745">
        <ele>200</ele>
        <time>2018-07-15T09:10:49Z</time>
      </trkpt>
      <trkpt lat="45.85565" lon="4.68734">
        <ele>200</ele>
        <time>2018-07-15T09:10:50Z</time>
      </trkpt>
      <trkpt lat="45.85563" lon="4.68725">
        <ele>200</ele>
        <time>2018-07-15T09:10:51Z</time>
      </trkpt>
      <trkpt lat="45.85562" lon="4.68717">
        <ele>200</ele>
        <time>2018-07-15T09:10:52Z</time>
      </trkpt>
      <trkpt lat="45.85562" lon="4.68708">
        <ele>200</ele>
        <time>2018-07-15T09:10:53Z</time>
      </trkpt>
      <trkpt lat="45.85561" lon="4.68698">
        <ele>200</ele>
        <time>2018-07-15T09:10:54Z</time>
      </trkpt>
      <trkpt lat="45.8556" lon="4.68688">
        <ele>200</ele>
        <time>2018-07-15T09:10:55Z</time>
      </trkpt>
      <trkpt lat="45.85557" lon="4.68678">
        <ele>200</ele>
        <time>2018-07-15T09:10:56Z</time>
      </trkpt>
      <trkpt lat="45.85555" lon="4.68667">
        <ele>200</ele>
        <time>2018-07-15T09:10:57Z</time>
      </trkpt>
      <trkpt lat="45.85554" lon="4.68657">
        <ele>200</ele>
        <time>2018-07-15T09:10:58Z</time>
      </trkpt>
      <trkpt lat="45.85553" lon="4.68647">
        <ele>201</ele>
        <time>2018-07-15T09:10:59Z</time>
      </trkpt>
      <trkpt lat="45.85554" lon="4.68637">
        <ele>201</ele>
        <time>2018-07-15T09:11:00Z</time>
      </trkpt>
      <trkpt lat="45.85553" lon="4.68628">
        <ele>201</ele>
        <time>2018-07-15T09:11:01Z</time>
      </trkpt>
      <trkpt lat="45.85552" lon="4.68619">
        <ele>201</ele>
        <time>2018-07-15T09:11:02Z</time>
      </trkpt>
      <trkpt lat="45.85553" lon="4.6861">
        <ele>201</ele>
        <time>2018-07-15T09:11:03Z</time>
      </trkpt>
      <trkpt lat="45.85552" lon="4.68602">
        <ele>201</ele>
        <time>2018-07-15T09:11:04Z</time>
      </trkpt>
      <trkpt lat="45.8555" lon="4.68592">
        <ele>201</ele>
        <time>2018-07-15T09:11:05Z</time>
      </trkpt>
      <trkpt lat="45.85549" lon="4.68582">
        <ele>201</ele>
        <time>2018-07-15T09:11:06Z</time>
      </trkpt>
      <trkpt lat="45.85544" lon="4.68572">
        <ele>201</ele>
        <time>2018-07-15T09:11:07Z</time>
      </trkpt>
      <trkpt lat="45.85543" lon="4.68563">
        <ele>201</ele>
        <time>2018-07-15T09:11:08Z</time>
      </trkpt>
      <trkpt lat="45.85542" lon="4.68554">
        <ele>201</ele>
        <time>2018-07-15T09:11:09Z</time>
      </trkpt>
      <trkpt lat="45.85541" lon="4.68545">
        <ele>201</ele>
        <time>2018-07-15T09:11:10Z</time>
      </trkpt>
      <trkpt lat="45.85539" lon="4.68536">
        <ele>201</ele>
        <time>2018-07-15T09:11:11Z</time>
      </trkpt>
      <trkpt lat="45.85538" lon="4.68528">
        <ele>201</ele>
        <time>2018-07-15T09:11:12Z</time>
      </trkpt>
      <trkpt lat="45.85539" lon="4.68519">
        <ele>201</ele>
        <time>2018-07-15T09:11:13Z</time>
      </trkpt>
      <trkpt lat="45.85537" lon="4.68509">
        <ele>201</ele>
        <time>2018-07-15T09:11:14Z</time>
      </trkpt>
      <trkpt lat="45.85537" lon="4.68502">
        <ele>201</ele>
        <time>2018-07-15T09:11:15Z</time>
      </trkpt>
      <trkpt lat="45.85536" lon="4.68494">
        <ele>200</ele>
        <time>2018-07-15T09:11:16Z</time>
      </trkpt>
      <trkpt lat="45.85535" lon="4.68486">
        <ele>200</ele>
        <time>2018-07-15T09:11:17Z</time>
      </trkpt>
      <trkpt lat="45.85536" lon="4.68478">
        <ele>200</ele>
        <time>2018-07-15T09:11:18Z</time>
      </trkpt>
      <trkpt lat="45.85537" lon="4.68471">
        <ele>200</ele>
        <time>2018-07-15T09:11:19Z</time>
      </trkpt>
      <trkpt lat="45.85536" lon="4.68463">
        <ele>200</ele>
        <time>2018-07-15T09:11:20Z</time>
      </trkpt>
      <trkpt lat="45.85534" lon="4.68455">
        <ele>200</ele>
        <time>2018-07-15T09:11:21Z</time>
      </trkpt>
      <trkpt lat="45.85531" lon="4.68445">
        <ele>200</ele>
        <time>2018-07-15T09:11:22Z</time>
      </trkpt>
      <trkpt lat="45.85532" lon="4.68437">
        <ele>200</ele>
        <time>2018-07-15T09:11:23Z</time>
      </trkpt>
      <trkpt lat="45.8553" lon="4.68428">
        <ele>200</ele>
        <time>2018-07-15T09:11:24Z</time>
      </trkpt>
      <trkpt lat="45.8553" lon="4.68418">
        <ele>200</ele>
        <time>2018-07-15T09:11:25Z</time>
      </trkpt>
      <trkpt lat="45.85529" lon="4.6841">
        <ele>200</ele>
        <time>2018-07-15T09:11:26Z</time>
      </trkpt>
      <trkpt lat="45.85527" lon="4.68401">
        <ele>200</ele>
        <time>2018-07-15T09:11:27Z</time>
      </trkpt>
      <trkpt lat="45.85526" lon="4.68391">
        <ele>200</ele>
        <time>2018-07-15T09:11:28Z</time>
      </trkpt>
      <trkpt lat="45.85525" lon="4.68381">
        <ele>201</ele>
        <time>2018-07-15T09:11:29Z</time>
      </trkpt>
      <trkpt lat="45.85526" lon="4.68372">
        <ele>201</ele>
        <time>2018-07-15T09:11:30Z</time>
      </trkpt>
      <trkpt lat="45.85523" lon="4.68361">
        <ele>201</ele>
        <time>2018-07-15T09:11:31Z</time>
      </trkpt>
      <trkpt lat="45.85522" lon="4.68352">
        <ele>201</ele>
        <time>2018-07-15T09:11:32Z</time>
      </trkpt>
      <trkpt lat="45.8552" lon="4.68342">
        <ele>201</ele>
        <time>2018-07-15T09:11:33Z</time>
      </trkpt>
      <trkpt lat="45.8552" lon="4.68333">
        <ele>202</ele>
        <time>2018-07-15T09:11:34Z</time>
      </trkpt>
      <trkpt lat="45.85519" lon="4.68323">
        <ele>202</ele>
        <time>2018-07-15T09:11:35Z</time>
      </trkpt>
      <trkpt lat="45.85518" lon="4.68314">
        <ele>202</ele>
        <time>2018-07-15T09:11:36Z</time>
      </trkpt>
      <trkpt lat="45.85515" lon="4.68304">
        <ele>202</ele>
        <time>2018-07-15T09:11:37Z</time>
      </trkpt>
      <trkpt lat="45.85513" lon="4.68295">
        <ele>202</ele>
        <time>2018-07-15T09:11:38Z</time>
      </trkpt>
      <trkpt lat="45.85511" lon="4.68286">
        <ele>202</ele>
        <time>2018-07-15T09:11:39Z</time>
      </trkpt>
      <trkpt lat="45.85513" lon="4.68278">
        <ele>202</ele>
        <time>2018-07-15T09:11:40Z</time>
      </trkpt>
      <trkpt lat="45.85514" lon="4.68268">
        <ele>202</ele>
        <time>2018-07-15T09:11:41Z</time>
      </trkpt>
      <trkpt lat="45.85511" lon="4.68259">
        <ele>203</ele>
        <time>2018-07-15T09:11:42Z</time>
      </trkpt>
      <trkpt lat="45.85513" lon="4.68249">
        <ele>203</ele>
        <time>2018-07-15T09:11:43Z</time>
      </trkpt>
      <trkpt lat="45.85512" lon="4.68241">
        <ele>203</ele>
        <time>2018-07-15T09:11:44Z</time>
      </trkpt>
      <trkpt lat="45.85513" lon="4.68233">
        <ele>203</ele>
        <time>2018-07-15T09:11:45Z</time>
      </trkpt>
      <trkpt lat="45.85512" lon="4.68225">
        <ele>203</ele>
        <time>2018-07-15T09:11:46Z</time>
      </trkpt>
      <trkpt lat="45.85512" lon="4.68218">
        <ele>203</ele>
        <time>2018-07-15T09:11:47Z</time>
      </trkpt>
      <trkpt lat="45.85513" lon="4.6821">
        <ele>203</ele>
        <time>2018-07-15T09:11:48Z</time>
      </trkpt>
      <trkpt lat="45.85514" lon="4.68202">
        <ele>203</ele>
        <time>2018-07-15T09:11:49Z</time>
      </trkpt>
      <trkpt lat="45.85515" lon="4.68193">
        <ele>203</ele>
        <time>2018-07-15T09:11:50Z</time>
      </trkpt>
      <trkpt lat="45.85514" lon="4.68185">
        <ele>203</ele>
        <time>2018-07-15T09:11:51Z</time>
      </trkpt>
      <trkpt lat="45.85513" lon="4.68176">
        <ele>204</ele>
        <time>2018-07-15T09:11:52Z</time>
      </trkpt>
      <trkpt lat="45.85511" lon="4.68168">
        <ele>204</ele>
        <time>2018-07-15T09:11:53Z</time>
      </trkpt>
      <trkpt lat="45.85511" lon="4.68158">
        <ele>203</ele>
        <time>2018-07-15T09:11:54Z</time>
      </trkpt>
      <trkpt lat="45.8551" lon="4.68149">
        <ele>203</ele>
        <time>2018-07-15T09:11:55Z</time>
      </trkpt>
      <trkpt lat="45.85508" lon="4.68141">
        <ele>203</ele>
        <time>2018-07-15T09:11:56Z</time>
      </trkpt>
      <trkpt lat="45.85503" lon="4.68134">
        <ele>203</ele>
        <time>2018-07-15T09:11:57Z</time>
      </trkpt>
      <trkpt lat="45.85503" lon="4.68126">
        <ele>203</ele>
        <time>2018-07-15T09:11:58Z</time>
      </trkpt>
      <trkpt lat="45.85505" lon="4.6812">
        <ele>203</ele>
        <time>2018-07-15T09:11:59Z</time>
      </trkpt>
      <trkpt lat="45.85504" lon="4.68112">
        <ele>203</ele>
        <time>2018-07-15T09:12:00Z</time>
      </trkpt>
      <trkpt lat="45.85504" lon="4.68105">
        <ele>203</ele>
        <time>2018-07-15T09:12:01Z</time>
      </trkpt>
      <trkpt lat="45.85505" lon="4.68097">
        <ele>203</ele>
        <time>2018-07-15T09:12:02Z</time>
      </trkpt>
      <trkpt lat="45.85505" lon="4.6809">
        <ele>204</ele>
        <time>2018-07-15T09:12:03Z</time>
      </trkpt>
      <trkpt lat="45.85505" lon="4.68083">
        <ele>204</ele>
        <time>2018-07-15T09:12:04Z</time>
      </trkpt>
      <trkpt lat="45.85502" lon="4.68075">
        <ele>204</ele>
        <time>2018-07-15T09:12:05Z</time>
      </trkpt>
      <trkpt lat="45.85499" lon="4.68067">
        <ele>205</ele>
        <time>2018-07-15T09:12:06Z</time>
      </trkpt>
      <trkpt lat="45.85498" lon="4.6806">
        <ele>206</ele>
        <time>2018-07-15T09:12:07Z</time>
      </trkpt>
      <trkpt lat="45.85498" lon="4.68052">
        <ele>206</ele>
        <time>2018-07-15T09:12:08Z</time>
      </trkpt>
      <trkpt lat="45.85496" lon="4.68045">
        <ele>206</ele>
        <time>2018-07-15T09:12:09Z</time>
      </trkpt>
      <trkpt lat="45.85499" lon="4.68038">
        <ele>206</ele>
        <time>2018-07-15T09:12:10Z</time>
      </trkpt>
      <trkpt lat="45.855" lon="4.6803">
        <ele>207</ele>
        <time>2018-07-15T09:12:11Z</time>
      </trkpt>
      <trkpt lat="45.85501" lon="4.68023">
        <ele>204</ele>
        <time>2018-07-15T09:12:12Z</time>
      </trkpt>
      <trkpt lat="45.855" lon="4.68015">
        <ele>205</ele>
        <time>2018-07-15T09:12:13Z</time>
      </trkpt>
      <trkpt lat="45.855" lon="4.68008">
        <ele>206</ele>
        <time>2018-07-15T09:12:14Z</time>
      </trkpt>
      <trkpt lat="45.85501" lon="4.67998">
        <ele>206</ele>
        <time>2018-07-15T09:12:16Z</time>
      </trkpt>
      <trkpt lat="45.85502" lon="4.67992">
        <ele>206</ele>
        <time>2018-07-15T09:12:17Z</time>
      </trkpt>
      <trkpt lat="45.85508" lon="4.67983">
        <ele>206</ele>
        <time>2018-07-15T09:12:19Z</time>
      </trkpt>
      <trkpt lat="45.85512" lon="4.67979">
        <ele>206</ele>
        <time>2018-07-15T09:12:20Z</time>
      </trkpt>
      <trkpt lat="45.85518" lon="4.67975">
        <ele>206</ele>
        <time>2018-07-15T09:12:21Z</time>
      </trkpt>
      <trkpt lat="45.85524" lon="4.67971">
        <ele>206</ele>
        <time>2018-07-15T09:12:22Z</time>
      </trkpt>
      <trkpt lat="45.85524" lon="4.67965">
        <ele>206</ele>
        <time>2018-07-15T09:12:23Z</time>
      </trkpt>
      <trkpt lat="45.85531" lon="4.67961">
        <ele>206</ele>
        <time>2018-07-15T09:12:24Z</time>
      </trkpt>
      <trkpt lat="45.85535" lon="4.67957">
        <ele>206</ele>
        <time>2018-07-15T09:12:25Z</time>
      </trkpt>
      <trkpt lat="45.85539" lon="4.67953">
        <ele>205</ele>
        <time>2018-07-15T09:12:26Z</time>
      </trkpt>
      <trkpt lat="45.85545" lon="4.67949">
        <ele>205</ele>
        <time>2018-07-15T09:12:27Z</time>
      </trkpt>
      <trkpt lat="45.8555" lon="4.67945">
        <ele>205</ele>
        <time>2018-07-15T09:12:28Z</time>
      </trkpt>
      <trkpt lat="45.85555" lon="4.67939">
        <ele>205</ele>
        <time>2018-07-15T09:12:29Z</time>
      </trkpt>
      <trkpt lat="45.8556" lon="4.67936">
        <ele>205</ele>
        <time>2018-07-15T09:12:30Z</time>
      </trkpt>
      <trkpt lat="45.85565" lon="4.67933">
        <ele>205</ele>
        <time>2018-07-15T09:12:31Z</time>
      </trkpt>
      <trkpt lat="45.8557" lon="4.67931">
        <ele>205</ele>
        <time>2018-07-15T09:12:32Z</time>
      </trkpt>
      <trkpt lat="45.85574" lon="4.67929">
        <ele>205</ele>
        <time>2018-07-15T09:12:33Z</time>
      </trkpt>
      <trkpt lat="45.85577" lon="4.67922">
        <ele>204</ele>
        <time>2018-07-15T09:12:34Z</time>
      </trkpt>
      <trkpt lat="45.8558" lon="4.67912">
        <ele>205</ele>
        <time>2018-07-15T09:12:36Z</time>
      </trkpt>
      <trkpt lat="45.85581" lon="4.67907">
        <ele>205</ele>
        <time>2018-07-15T09:12:37Z</time>
      </trkpt>
      <trkpt lat="45.85581" lon="4.67902">
        <ele>206</ele>
        <time>2018-07-15T09:12:38Z</time>
      </trkpt>
      <trkpt lat="45.8558" lon="4.67891">
        <ele>206</ele>
        <time>2018-07-15T09:12:39Z</time>
      </trkpt>
      <trkpt lat="45.85581" lon="4.67882">
        <ele>206</ele>
        <time>2018-07-15T09:12:40Z</time>
      </trkpt>
      <trkpt lat="45.85576" lon="4.67873">
        <ele>206</ele>
        <time>2018-07-15T09:12:41Z</time>
      </trkpt>
      <trkpt lat="45.85574" lon="4.67865">
        <ele>207</ele>
        <time>2018-07-15T09:12:42Z</time>
      </trkpt>
      <trkpt lat="45.85576" lon="4.67857">
        <ele>206</ele>
        <time>2018-07-15T09:12:43Z</time>
      </trkpt>
      <trkpt lat="45.85576" lon="4.67849">
        <ele>206</ele>
        <time>2018-07-15T09:12:44Z</time>
      </trkpt>
      <trkpt lat="45.85577" lon="4.6784">
        <ele>206</ele>
        <time>2018-07-15T09:12:45Z</time>
      </trkpt>
      <trkpt lat="45.85578" lon="4.67831">
        <ele>205</ele>
        <time>2018-07-15T09:12:46Z</time>
      </trkpt>
      <trkpt lat="45.85581" lon="4.67822">
        <ele>206</ele>
        <time>2018-07-15T09:12:47Z</time>
      </trkpt>
      <trkpt lat="45.85579" lon="4.67812">
        <ele>206</ele>
        <time>2018-07-15T09:12:48Z</time>
      </trkpt>
      <trkpt lat="45.85582" lon="4.67805">
        <ele>206</ele>
        <time>2018-07-15T09:12:49Z</time>
      </trkpt>
      <trkpt lat="45.85587" lon="4.67796">
        <ele>210</ele>
        <time>2018-07-15T09:12:50Z</time>
      </trkpt>
      <trkpt lat="45.85589" lon="4.67787">
        <ele>209</ele>
        <time>2018-07-15T09:12:51Z</time>
      </trkpt>
      <trkpt lat="45.85591" lon="4.67779">
        <ele>209</ele>
        <time>2018-07-15T09:12:52Z</time>
      </trkpt>
      <trkpt lat="45.85592" lon="4.67772">
        <ele>209</ele>
        <time>2018-07-15T09:12:53Z</time>
      </trkpt>
      <trkpt lat="45.85593" lon="4.67765">
        <ele>208</ele>
        <time>2018-07-15T09:12:54Z</time>
      </trkpt>
      <trkpt lat="45.85595" lon="4.67759">
        <ele>207</ele>
        <time>2018-07-15T09:12:55Z</time>
      </trkpt>
      <trkpt lat="45.85598" lon="4.67752">
        <ele>207</ele>
        <time>2018-07-15T09:12:56Z</time>
      </trkpt>
      <trkpt lat="45.85601" lon="4.67744">
        <ele>207</ele>
        <time>2018-07-15T09:12:57Z</time>
      </trkpt>
      <trkpt lat="45.85605" lon="4.67737">
        <ele>207</ele>
        <time>2018-07-15T09:12:58Z</time>
      </trkpt>
      <trkpt lat="45.85608" lon="4.6773">
        <ele>208</ele>
        <time>2018-07-15T09:12:59Z</time>
      </trkpt>
      <trkpt lat="45.85612" lon="4.67725">
        <ele>208</ele>
        <time>2018-07-15T09:13:00Z</time>
      </trkpt>
      <trkpt lat="45.85617" lon="4.67718">
        <ele>209</ele>
        <time>2018-07-15T09:13:01Z</time>
      </trkpt>
      <trkpt lat="45.85622" lon="4.67714">
        <ele>209</ele>
        <time>2018-07-15T09:13:02Z</time>
      </trkpt>
      <trkpt lat="45.85625" lon="4.67708">
        <ele>209</ele>
        <time>2018-07-15T09:13:03Z</time>
      </trkpt>
      <trkpt lat="45.8563" lon="4.67705">
        <ele>209</ele>
        <time>2018-07-15T09:13:04Z</time>
      </trkpt>
      <trkpt lat="45.85634" lon="4.677">
        <ele>209</ele>
        <time>2018-07-15T09:13:05Z</time>
      </trkpt>
      <trkpt lat="45.85639" lon="4.67695">
        <ele>209</ele>
        <time>2018-07-15T09:13:06Z</time>
      </trkpt>
      <trkpt lat="45.85644" lon="4.67689">
        <ele>209</ele>
        <time>2018-07-15T09:13:07Z</time>
      </trkpt>
      <trkpt lat="45.85649" lon="4.67683">
        <ele>209</ele>
        <time>2018-07-15T09:13:08Z</time>
      </trkpt>
      <trkpt lat="45.85655" lon="4.67679">
        <ele>209</ele>
        <time>2018-07-15T09:13:09Z</time>
      </trkpt>
      <trkpt lat="45.85661" lon="4.67675">
        <ele>209</ele>
        <time>2018-07-15T09:13:10Z</time>
      </trkpt>
      <trkpt lat="45.85665" lon="4.67669">
        <ele>209</ele>
        <time>2018-07-15T09:13:11Z</time>
      </trkpt>
      <trkpt lat="45.85671" lon="4.67666">
        <ele>209</ele>
        <time>2018-07-15T09:13:12Z</time>
      </trkpt>
      <trkpt lat="45.8568" lon="4.6766">
        <ele>210</ele>
        <time>2018-07-15T09:13:13Z</time>
      </trkpt>
      <trkpt lat="45.85685" lon="4.67657">
        <ele>210</ele>
        <time>2018-07-15T09:13:14Z</time>
      </trkpt>
      <trkpt lat="45.85691" lon="4.67654">
        <ele>211</ele>
        <time>2018-07-15T09:13:15Z</time>
      </trkpt>
      <trkpt lat="45.85698" lon="4.6765">
        <ele>211</ele>
        <time>2018-07-15T09:13:16Z</time>
      </trkpt>
      <trkpt lat="45.85705" lon="4.67645">
        <ele>211</ele>
        <time>2018-07-15T09:13:17Z</time>
      </trkpt>
      <trkpt lat="45.85711" lon="4.67642">
        <ele>212</ele>
        <time>2018-07-15T09:13:18Z</time>
      </trkpt>
      <trkpt lat="45.85716" lon="4.67636">
        <ele>212</ele>
        <time>2018-07-15T09:13:19Z</time>
      </trkpt>
      <trkpt lat="45.85721" lon="4.67631">
        <ele>211</ele>
        <time>2018-07-15T09:13:20Z</time>
      </trkpt>
      <trkpt lat="45.85726" lon="4.6763">
        <ele>212</ele>
        <time>2018-07-15T09:13:21Z</time>
      </trkpt>
      <trkpt lat="45.8573" lon="4.67629">
        <ele>212</ele>
        <time>2018-07-15T09:13:22Z</time>
      </trkpt>
      <trkpt lat="45.85736" lon="4.67629">
        <ele>212</ele>
        <time>2018-07-15T09:13:23Z</time>
      </trkpt>
      <trkpt lat="45.85743" lon="4.67625">
        <ele>212</ele>
        <time>2018-07-15T09:13:24Z</time>
      </trkpt>
      <trkpt lat="45.85748" lon="4.67624">
        <ele>212</ele>
        <time>2018-07-15T09:13:25Z</time>
      </trkpt>
      <trkpt lat="45.85754" lon="4.67621">
        <ele>219</ele>
        <time>2018-07-15T09:13:26Z</time>
      </trkpt>
      <trkpt lat="45.8576" lon="4.67617">
        <ele>219</ele>
        <time>2018-07-15T09:13:27Z</time>
      </trkpt>
      <trkpt lat="45.85766" lon="4.67612">
        <ele>218</ele>
        <time>2018-07-15T09:13:28Z</time>
      </trkpt>
      <trkpt lat="45.85771" lon="4.67609">
        <ele>218</ele>
        <time>2018-07-15T09:13:29Z</time>
      </trkpt>
      <trkpt lat="45.85776" lon="4.67606">
        <ele>219</ele>
        <time>2018-07-15T09:13:30Z</time>
      </trkpt>
      <trkpt lat="45.85781" lon="4.67598">
        <ele>218</ele>
        <time>2018-07-15T09:13:31Z</time>
      </trkpt>
      <trkpt lat="45.85787" lon="4.67592">
        <ele>219</ele>
        <time>2018-07-15T09:13:32Z</time>
      </trkpt>
      <trkpt lat="45.85793" lon="4.67586">
        <ele>220</ele>
        <time>2018-07-15T09:13:33Z</time>
      </trkpt>
      <trkpt lat="45.85799" lon="4.67579">
        <ele>212</ele>
        <time>2018-07-15T09:13:34Z</time>
      </trkpt>
      <trkpt lat="45.85805" lon="4.67573">
        <ele>213</ele>
        <time>2018-07-15T09:13:35Z</time>
      </trkpt>
      <trkpt lat="45.85811" lon="4.67565">
        <ele>213</ele>
        <time>2018-07-15T09:13:36Z</time>
      </trkpt>
      <trkpt lat="45.85816" lon="4.67556">
        <ele>212</ele>
        <time>2018-07-15T09:13:37Z</time>
      </trkpt>
      <trkpt lat="45.85821" lon="4.67551">
        <ele>212</ele>
        <time>2018-07-15T09:13:38Z</time>
      </trkpt>
      <trkpt lat="45.85825" lon="4.67543">
        <ele>211</ele>
        <time>2018-07-15T09:13:39Z</time>
      </trkpt>
      <trkpt lat="45.85829" lon="4.67536">
        <ele>210</ele>
        <time>2018-07-15T09:13:40Z</time>
      </trkpt>
      <trkpt lat="45.85834" lon="4.67529">
        <ele>219</ele>
        <time>2018-07-15T09:13:41Z</time>
      </trkpt>
      <trkpt lat="45.85838" lon="4.67525">
        <ele>218</ele>
        <time>2018-07-15T09:13:42Z</time>
      </trkpt>
      <trkpt lat="45.85843" lon="4.67517">
        <ele>217</ele>
        <time>2018-07-15T09:13:43Z</time>
      </trkpt>
      <trkpt lat="45.85848" lon="4.67506">
        <ele>215</ele>
        <time>2018-07-15T09:13:44Z</time>
      </trkpt>
      <trkpt lat="45.85852" lon="4.675">
        <ele>211</ele>
        <time>2018-07-15T09:13:45Z</time>
      </trkpt>
      <trkpt lat="45.85853" lon="4.67485">
        <ele>212</ele>
        <time>2018-07-15T09:13:46Z</time>
      </trkpt>
      <trkpt lat="45.85854" lon="4.67479">
        <ele>213</ele>
        <time>2018-07-15T09:13:47Z</time>
      </trkpt>
      <trkpt lat="45.85857" lon="4.67472">
        <ele>213</ele>
        <time>2018-07-15T09:13:48Z</time>
      </trkpt>
      <trkpt lat="45.8586" lon="4.67464">
        <ele>213</ele>
        <time>2018-07-15T09:13:49Z</time>
      </trkpt>
      <trkpt lat="45.85862" lon="4.67453">
        <ele>213</ele>
        <time>2018-07-15T09:13:50Z</time>
      </trkpt>
      <trkpt lat="45.85865" lon="4.67445">
        <ele>213</ele>
        <time>2018-07-15T09:13:51Z</time>
      </trkpt>
      <trkpt lat="45.85867" lon="4.67436">
        <ele>213</ele>
        <time>2018-07-15T09:13:52Z</time>
      </trkpt>
      <trkpt lat="45.85868" lon="4.67428">
        <ele>213</ele>
        <time>2018-07-15T09:13:53Z</time>
      </trkpt>
      <trkpt lat="45.8587" lon="4.67417">
        <ele>213</ele>
        <time>2018-07-15T09:13:54Z</time>
      </trkpt>
      <trkpt lat="45.85871" lon="4.67407">
        <ele>210</ele>
        <time>2018-07-15T09:13:55Z</time>
      </trkpt>
      <trkpt lat="45.85871" lon="4.67398">
        <ele>209</ele>
        <time>2018-07-15T09:13:56Z</time>
      </trkpt>
      <trkpt lat="45.85872" lon="4.67389">
        <ele>209</ele>
        <time>2018-07-15T09:13:57Z</time>
      </trkpt>
      <trkpt lat="45.85874" lon="4.67377">
        <ele>209</ele>
        <time>2018-07-15T09:13:58Z</time>
      </trkpt>
      <trkpt lat="45.85876" lon="4.67368">
        <ele>209</ele>
        <time>2018-07-15T09:13:59Z</time>
      </trkpt>
      <trkpt lat="45.85877" lon="4.67358">
        <ele>209</ele>
        <time>2018-07-15T09:14:00Z</time>
      </trkpt>
      <trkpt lat="45.85878" lon="4.67347">
        <ele>209</ele>
        <time>2018-07-15T09:14:01Z</time>
      </trkpt>
      <trkpt lat="45.85881" lon="4.67338">
        <ele>209</ele>
        <time>2018-07-15T09:14:02Z</time>
      </trkpt>
      <trkpt lat="45.85879" lon="4.67327">
        <ele>206</ele>
        <time>2018-07-15T09:14:03Z</time>
      </trkpt>
      <trkpt lat="45.85881" lon="4.67318">
        <ele>206</ele>
        <time>2018-07-15T09:14:04Z</time>
      </trkpt>
      <trkpt lat="45.85889" lon="4.67309">
        <ele>206</ele>
        <time>2018-07-15T09:14:05Z</time>
      </trkpt>
      <trkpt lat="45.85886" lon="4.67299">
        <ele>206</ele>
        <time>2018-07-15T09:14:06Z</time>
      </trkpt>
      <trkpt lat="45.85889" lon="4.6729">
        <ele>206</ele>
        <time>2018-07-15T09:14:07Z</time>
      </trkpt>
      <trkpt lat="45.85888" lon="4.67282">
        <ele>206</ele>
        <time>2018-07-15T09:14:08Z</time>
      </trkpt>
      <trkpt lat="45.85887" lon="4.67273">
        <ele>205</ele>
        <time>2018-07-15T09:14:09Z</time>
      </trkpt>
      <trkpt lat="45.85888" lon="4.67263">
        <ele>205</ele>
        <time>2018-07-15T09:14:10Z</time>
      </trkpt>
      <trkpt lat="45.8589" lon="4.67254">
        <ele>205</ele>
        <time>2018-07-15T09:14:11Z</time>
      </trkpt>
      <trkpt lat="45.85887" lon="4.67244">
        <ele>205</ele>
        <time>2018-07-15T09:14:12Z</time>
      </trkpt>
      <trkpt lat="45.85887" lon="4.67235">
        <ele>205</ele>
        <time>2018-07-15T09:14:13Z</time>
      </trkpt>
      <trkpt lat="45.85889" lon="4.67225">
        <ele>205</ele>
        <time>2018-07-15T09:14:14Z</time>
      </trkpt>
      <trkpt lat="45.85889" lon="4.67215">
        <ele>204</ele>
        <time>2018-07-15T09:14:15Z</time>
      </trkpt>
      <trkpt lat="45.8589" lon="4.67206">
        <ele>204</ele>
        <time>2018-07-15T09:14:16Z</time>
      </trkpt>
      <trkpt lat="45.85891" lon="4.67196">
        <ele>204</ele>
        <time>2018-07-15T09:14:17Z</time>
      </trkpt>
      <trkpt lat="45.85892" lon="4.67187">
        <ele>205</ele>
        <time>2018-07-15T09:14:18Z</time>
      </trkpt>
      <trkpt lat="45.85892" lon="4.67178">
        <ele>205</ele>
        <time>2018-07-15T09:14:19Z</time>
      </trkpt>
      <trkpt lat="45.85892" lon="4.67166">
        <ele>205</ele>
        <time>2018-07-15T09:14:20Z</time>
      </trkpt>
      <trkpt lat="45.85891" lon="4.67156">
        <ele>204</ele>
        <time>2018-07-15T09:14:21Z</time>
      </trkpt>
      <trkpt lat="45.85892" lon="4.67147">
        <ele>204</ele>
        <time>2018-07-15T09:14:22Z</time>
      </trkpt>
      <trkpt lat="45.85892" lon="4.67137">
        <ele>204</ele>
        <time>2018-07-15T09:14:23Z</time>
      </trkpt>
      <trkpt lat="45.85893" lon="4.67127">
        <ele>204</ele>
        <time>2018-07-15T09:14:24Z</time>
      </trkpt>
      <trkpt lat="45.85895" lon="4.67117">
        <ele>204</ele>
        <time>2018-07-15T09:14:25Z</time>
      </trkpt>
      <trkpt lat="45.85896" lon="4.67109">
        <ele>204</ele>
        <time>2018-07-15T09:14:26Z</time>
      </trkpt>
      <trkpt lat="45.85898" lon="4.671">
        <ele>204</ele>
        <time>2018-07-15T09:14:27Z</time>
      </trkpt>
      <trkpt lat="45.85899" lon="4.67092">
        <ele>204</ele>
        <time>2018-07-15T09:14:28Z</time>
      </trkpt>
      <trkpt lat="45.859" lon="4.67084">
        <ele>204</ele>
        <time>2018-07-15T09:14:29Z</time>
      </trkpt>
      <trkpt lat="45.85901" lon="4.67075">
        <ele>204</ele>
        <time>2018-07-15T09:14:30Z</time>
      </trkpt>
      <trkpt lat="45.85902" lon="4.67065">
        <ele>205</ele>
        <time>2018-07-15T09:14:31Z</time>
      </trkpt>
      <trkpt lat="45.85904" lon="4.67057">
        <ele>205</ele>
        <time>2018-07-15T09:14:32Z</time>
      </trkpt>
      <trkpt lat="45.85905" lon="4.67048">
        <ele>205</ele>
        <time>2018-07-15T09:14:33Z</time>
      </trkpt>
      <trkpt lat="45.85908" lon="4.67039">
        <ele>205</ele>
        <time>2018-07-15T09:14:34Z</time>
      </trkpt>
      <trkpt lat="45.8591" lon="4.67032">
        <ele>205</ele>
        <time>2018-07-15T09:14:35Z</time>
      </trkpt>
      <trkpt lat="45.85911" lon="4.67024">
        <ele>205</ele>
        <time>2018-07-15T09:14:36Z</time>
      </trkpt>
      <trkpt lat="45.85913" lon="4.67017">
        <ele>205</ele>
        <time>2018-07-15T09:14:37Z</time>
      </trkpt>
      <trkpt lat="45.85914" lon="4.67009">
        <ele>206</ele>
        <time>2018-07-15T09:14:38Z</time>
      </trkpt>
      <trkpt lat="45.85917" lon="4.67004">
        <ele>207</ele>
        <time>2018-07-15T09:14:39Z</time>
      </trkpt>
      <trkpt lat="45.85919" lon="4.66999">
        <ele>206</ele>
        <time>2018-07-15T09:14:40Z</time>
      </trkpt>
      <trkpt lat="45.85923" lon="4.66992">
        <ele>207</ele>
        <time>2018-07-15T09:14:41Z</time>
      </trkpt>
      <trkpt lat="45.85925" lon="4.66987">
        <ele>208</ele>
        <time>2018-07-15T09:14:42Z</time>
      </trkpt>
      <trkpt lat="45.85927" lon="4.66979">
        <ele>208</ele>
        <time>2018-07-15T09:14:43Z</time>
      </trkpt>
      <trkpt lat="45.85928" lon="4.66971">
        <ele>209</ele>
        <time>2018-07-15T09:14:44Z</time>
      </trkpt>
      <trkpt lat="45.85927" lon="4.66963">
        <ele>209</ele>
        <time>2018-07-15T09:14:45Z</time>
      </trkpt>
      <trkpt lat="45.85925" lon="4.66955">
        <ele>209</ele>
        <time>2018-07-15T09:14:46Z</time>
      </trkpt>
      <trkpt lat="45.85925" lon="4.66946">
        <ele>209</ele>
        <time>2018-07-15T09:14:47Z</time>
      </trkpt>
      <trkpt lat="45.85925" lon="4.66938">
        <ele>208</ele>
        <time>2018-07-15T09:14:48Z</time>
      </trkpt>
      <trkpt lat="45.85927" lon="4.66929">
        <ele>208</ele>
        <time>2018-07-15T09:14:49Z</time>
      </trkpt>
      <trkpt lat="45.85928" lon="4.66921">
        <ele>208</ele>
        <time>2018-07-15T09:14:50Z</time>
      </trkpt>
      <trkpt lat="45.85929" lon="4.66914">
        <ele>208</ele>
        <time>2018-07-15T09:14:51Z</time>
      </trkpt>
      <trkpt lat="45.85931" lon="4.66907">
        <ele>209</ele>
        <time>2018-07-15T09:14:52Z</time>
      </trkpt>
      <trkpt lat="45.85933" lon="4.669">
        <ele>209</ele>
        <time>2018-07-15T09:14:53Z</time>
      </trkpt>
      <trkpt lat="45.85934" lon="4.66891">
        <ele>210</ele>
        <time>2018-07-15T09:14:54Z</time>
      </trkpt>
      <trkpt lat="45.85936" lon="4.66884">
        <ele>210</ele>
        <time>2018-07-15T09:14:55Z</time>
      </trkpt>
      <trkpt lat="45.85939" lon="4.66875">
        <ele>210</ele>
        <time>2018-07-15T09:14:56Z</time>
      </trkpt>
      <trkpt lat="45.85941" lon="4.66867">
        <ele>210</ele>
        <time>2018-07-15T09:14:57Z</time>
      </trkpt>
      <trkpt lat="45.85943" lon="4.66859">
        <ele>210</ele>
        <time>2018-07-15T09:14:58Z</time>
      </trkpt>
      <trkpt lat="45.85945" lon="4.6685">
        <ele>210</ele>
        <time>2018-07-15T09:14:59Z</time>
      </trkpt>
      <trkpt lat="45.85948" lon="4.66843">
        <ele>211</ele>
        <time>2018-07-15T09:15:00Z</time>
      </trkpt>
      <trkpt lat="45.8595" lon="4.66835">
        <ele>211</ele>
        <time>2018-07-15T09:15:01Z</time>
      </trkpt>
      <trkpt lat="45.85953" lon="4.66827">
        <ele>212</ele>
        <time>2018-07-15T09:15:02Z</time>
      </trkpt>
      <trkpt lat="45.85955" lon="4.66819">
        <ele>213</ele>
        <time>2018-07-15T09:15:03Z</time>
      </trkpt>
      <trkpt lat="45.85957" lon="4.66811">
        <ele>213</ele>
        <time>2018-07-15T09:15:04Z</time>
      </trkpt>
      <trkpt lat="45.85959" lon="4.66803">
        <ele>213</ele>
        <time>2018-07-15T09:15:05Z</time>
      </trkpt>
      <trkpt lat="45.85963" lon="4.66793">
        <ele>213</ele>
        <time>2018-07-15T09:15:06Z</time>
      </trkpt>
      <trkpt lat="45.85964" lon="4.66786">
        <ele>214</ele>
        <time>2018-07-15T09:15:07Z</time>
      </trkpt>
      <trkpt lat="45.85965" lon="4.66777">
        <ele>214</ele>
        <time>2018-07-15T09:15:08Z</time>
      </trkpt>
      <trkpt lat="45.85969" lon="4.66769">
        <ele>214</ele>
        <time>2018-07-15T09:15:09Z</time>
      </trkpt>
      <trkpt lat="45.8597" lon="4.66761">
        <ele>214</ele>
        <time>2018-07-15T09:15:10Z</time>
      </trkpt>
      <trkpt lat="45.85976" lon="4.66753">
        <ele>215</ele>
        <time>2018-07-15T09:15:11Z</time>
      </trkpt>
      <trkpt lat="45.85974" lon="4.66746">
        <ele>216</ele>
        <time>2018-07-15T09:15:12Z</time>
      </trkpt>
      <trkpt lat="45.85978" lon="4.66738">
        <ele>216</ele>
        <time>2018-07-15T09:15:13Z</time>
      </trkpt>
      <trkpt lat="45.85982" lon="4.66731">
        <ele>216</ele>
        <time>2018-07-15T09:15:14Z</time>
      </trkpt>
      <trkpt lat="45.85986" lon="4.66722">
        <ele>215</ele>
        <time>2018-07-15T09:15:15Z</time>
      </trkpt>
      <trkpt lat="45.85987" lon="4.66715">
        <ele>215</ele>
        <time>2018-07-15T09:15:16Z</time>
      </trkpt>
      <trkpt lat="45.85994" lon="4.6671">
        <ele>215</ele>
        <time>2018-07-15T09:15:17Z</time>
      </trkpt>
      <trkpt lat="45.86001" lon="4.66701">
        <ele>219</ele>
        <time>2018-07-15T09:15:18Z</time>
      </trkpt>
      <trkpt lat="45.86002" lon="4.66691">
        <ele>218</ele>
        <time>2018-07-15T09:15:19Z</time>
      </trkpt>
      <trkpt lat="45.8601" lon="4.66686">
        <ele>217</ele>
        <time>2018-07-15T09:15:20Z</time>
      </trkpt>
      <trkpt lat="45.8602" lon="4.6668">
        <ele>218</ele>
        <time>2018-07-15T09:15:21Z</time>
      </trkpt>
      <trkpt lat="45.86022" lon="4.6667">
        <ele>218</ele>
        <time>2018-07-15T09:15:23Z</time>
      </trkpt>
      <trkpt lat="45.86028" lon="4.66667">
        <ele>219</ele>
        <time>2018-07-15T09:15:24Z</time>
      </trkpt>
      <trkpt lat="45.86036" lon="4.6666">
        <ele>214</ele>
        <time>2018-07-15T09:15:25Z</time>
      </trkpt>
      <trkpt lat="45.86038" lon="4.66655">
        <ele>214</ele>
        <time>2018-07-15T09:15:26Z</time>
      </trkpt>
      <trkpt lat="45.86045" lon="4.66648">
        <ele>215</ele>
        <time>2018-07-15T09:15:27Z</time>
      </trkpt>
      <trkpt lat="45.86048" lon="4.66643">
        <ele>215</ele>
        <time>2018-07-15T09:15:28Z</time>
      </trkpt>
      <trkpt lat="45.86051" lon="4.66634">
        <ele>214</ele>
        <time>2018-07-15T09:15:29Z</time>
      </trkpt>
      <trkpt lat="45.86055" lon="4.66631">
        <ele>214</ele>
        <time>2018-07-15T09:15:30Z</time>
      </trkpt>
      <trkpt lat="45.86062" lon="4.66628">
        <ele>214</ele>
        <time>2018-07-15T09:15:31Z</time>
      </trkpt>
      <trkpt lat="45.86067" lon="4.66621">
        <ele>214</ele>
        <time>2018-07-15T09:15:32Z</time>
      </trkpt>
      <trkpt lat="45.86069" lon="4.66616">
        <ele>214</ele>
        <time>2018-07-15T09:15:33Z</time>
      </trkpt>
      <trkpt lat="45.86075" lon="4.66612">
        <ele>213</ele>
        <time>2018-07-15T09:15:34Z</time>
      </trkpt>
      <trkpt lat="45.8608" lon="4.66608">
        <ele>213</ele>
        <time>2018-07-15T09:15:35Z</time>
      </trkpt>
      <trkpt lat="45.86082" lon="4.66603">
        <ele>212</ele>
        <time>2018-07-15T09:15:36Z</time>
      </trkpt>
      <trkpt lat="45.86089" lon="4.666">
        <ele>217</ele>
        <time>2018-07-15T09:15:37Z</time>
      </trkpt>
      <trkpt lat="45.86098" lon="4.66595">
        <ele>217</ele>
        <time>2018-07-15T09:15:38Z</time>
      </trkpt>
      <trkpt lat="45.86103" lon="4.66593">
        <ele>218</ele>
        <time>2018-07-15T09:15:39Z</time>
      </trkpt>
      <trkpt lat="45.86107" lon="4.66592">
        <ele>219</ele>
        <time>2018-07-15T09:15:40Z</time>
      </trkpt>
      <trkpt lat="45.86111" lon="4.66587">
        <ele>219</ele>
        <time>2018-07-15T09:15:41Z</time>
      </trkpt>
      <trkpt lat="45.86118" lon="4.66583">
        <ele>213</ele>
        <time>2018-07-15T09:15:42Z</time>
      </trkpt>
      <trkpt lat="45.86121" lon="4.6658">
        <ele>214</ele>
        <time>2018-07-15T09:15:43Z</time>
      </trkpt>
      <trkpt lat="45.86128" lon="4.66576">
        <ele>214</ele>
        <time>2018-07-15T09:15:44Z</time>
      </trkpt>
      <trkpt lat="45.86132" lon="4.6657">
        <ele>214</ele>
        <time>2018-07-15T09:15:45Z</time>
      </trkpt>
      <trkpt lat="45.86135" lon="4.66564">
        <ele>214</ele>
        <time>2018-07-15T09:15:46Z</time>
      </trkpt>
      <trkpt lat="45.86139" lon="4.66556">
        <ele>214</ele>
        <time>2018-07-15T09:15:47Z</time>
      </trkpt>
      <trkpt lat="45.86146" lon="4.6655">
        <ele>214</ele>
        <time>2018-07-15T09:15:48Z</time>
      </trkpt>
      <trkpt lat="45.86152" lon="4.66544">
        <ele>214</ele>
        <time>2018-07-15T09:15:49Z</time>
      </trkpt>
      <trkpt lat="45.86159" lon="4.66538">
        <ele>213</ele>
        <time>2018-07-15T09:15:50Z</time>
      </trkpt>
      <trkpt lat="45.86165" lon="4.66531">
        <ele>213</ele>
        <time>2018-07-15T09:15:51Z</time>
      </trkpt>
      <trkpt lat="45.86171" lon="4.66524">
        <ele>217</ele>
        <time>2018-07-15T09:15:52Z</time>
      </trkpt>
      <trkpt lat="45.86177" lon="4.66516">
        <ele>216</ele>
        <time>2018-07-15T09:15:53Z</time>
      </trkpt>
      <trkpt lat="45.86181" lon="4.66508">
        <ele>215</ele>
        <time>2018-07-15T09:15:54Z</time>
      </trkpt>
      <trkpt lat="45.86185" lon="4.665">
        <ele>216</ele>
        <time>2018-07-15T09:15:55Z</time>
      </trkpt>
      <trkpt lat="45.86185" lon="4.66489">
        <ele>212</ele>
        <time>2018-07-15T09:15:56Z</time>
      </trkpt>
      <trkpt lat="45.86192" lon="4.6648">
        <ele>213</ele>
        <time>2018-07-15T09:15:57Z</time>
      </trkpt>
      <trkpt lat="45.86193" lon="4.66473">
        <ele>213</ele>
        <time>2018-07-15T09:15:58Z</time>
      </trkpt>
      <trkpt lat="45.86197" lon="4.66465">
        <ele>213</ele>
        <time>2018-07-15T09:15:59Z</time>
      </trkpt>
      <trkpt lat="45.86199" lon="4.66457">
        <ele>213</ele>
        <time>2018-07-15T09:16:00Z</time>
      </trkpt>
      <trkpt lat="45.86211" lon="4.66451">
        <ele>213</ele>
        <time>2018-07-15T09:16:01Z</time>
      </trkpt>
      <trkpt lat="45.86222" lon="4.66446">
        <ele>214</ele>
        <time>2018-07-15T09:16:02Z</time>
      </trkpt>
      <trkpt lat="45.86221" lon="4.66437">
        <ele>213</ele>
        <time>2018-07-15T09:16:03Z</time>
      </trkpt>
      <trkpt lat="45.86223" lon="4.6643">
        <ele>213</ele>
        <time>2018-07-15T09:16:04Z</time>
      </trkpt>
      <trkpt lat="45.86226" lon="4.66421">
        <ele>213</ele>
        <time>2018-07-15T09:16:05Z</time>
      </trkpt>
      <trkpt lat="45.86231" lon="4.66415">
        <ele>213</ele>
        <time>2018-07-15T09:16:06Z</time>
      </trkpt>
      <trkpt lat="45.86233" lon="4.66403">
        <ele>212</ele>
        <time>2018-07-15T09:16:08Z</time>
      </trkpt>
      <trkpt lat="45.86238" lon="4.66395">
        <ele>212</ele>
        <time>2018-07-15T09:16:09Z</time>
      </trkpt>
      <trkpt lat="45.86238" lon="4.66388">
        <ele>212</ele>
        <time>2018-07-15T09:16:10Z</time>
      </trkpt>
      <trkpt lat="45.86242" lon="4.66382">
        <ele>212</ele>
        <time>2018-07-15T09:16:11Z</time>
      </trkpt>
      <trkpt lat="45.86249" lon="4.66376">
        <ele>212</ele>
        <time>2018-07-15T09:16:12Z</time>
      </trkpt>
      <trkpt lat="45.86252" lon="4.66369">
        <ele>216</ele>
        <time>2018-07-15T09:16:13Z</time>
      </trkpt>
      <trkpt lat="45.86258" lon="4.66362">
        <ele>216</ele>
        <time>2018-07-15T09:16:14Z</time>
      </trkpt>
      <trkpt lat="45.86261" lon="4.66356">
        <ele>215</ele>
        <time>2018-07-15T09:16:15Z</time>
      </trkpt>
      <trkpt lat="45.86268" lon="4.6635">
        <ele>215</ele>
        <time>2018-07-15T09:16:16Z</time>
      </trkpt>
      <trkpt lat="45.8627" lon="4.66346">
        <ele>215</ele>
        <time>2018-07-15T09:16:17Z</time>
      </trkpt>
      <trkpt lat="45.86275" lon="4.66338">
        <ele>216</ele>
        <time>2018-07-15T09:16:18Z</time>
      </trkpt>
      <trkpt lat="45.86282" lon="4.66332">
        <ele>214</ele>
        <time>2018-07-15T09:16:19Z</time>
      </trkpt>
      <trkpt lat="45.86288" lon="4.66329">
        <ele>214</ele>
        <time>2018-07-15T09:16:20Z</time>
      </trkpt>
      <trkpt lat="45.86292" lon="4.66322">
        <ele>215</ele>
        <time>2018-07-15T09:16:21Z</time>
      </trkpt>
      <trkpt lat="45.86297" lon="4.66317">
        <ele>215</ele>
        <time>2018-07-15T09:16:22Z</time>
      </trkpt>
      <trkpt lat="45.863" lon="4.66312">
        <ele>215</ele>
        <time>2018-07-15T09:16:23Z</time>
      </trkpt>
      <trkpt lat="45.86308" lon="4.66306">
        <ele>215</ele>
        <time>2018-07-15T09:16:24Z</time>
      </trkpt>
      <trkpt lat="45.86309" lon="4.66298">
        <ele>215</ele>
        <time>2018-07-15T09:16:25Z</time>
      </trkpt>
      <trkpt lat="45.86314" lon="4.66296">
        <ele>215</ele>
        <time>2018-07-15T09:16:26Z</time>
      </trkpt>
      <trkpt lat="45.86316" lon="4.66289">
        <ele>214</ele>
        <time>2018-07-15T09:16:27Z</time>
      </trkpt>
      <trkpt lat="45.86323" lon="4.66284">
        <ele>214</ele>
        <time>2018-07-15T09:16:28Z</time>
      </trkpt>
      <trkpt lat="45.86329" lon="4.6628">
        <ele>214</ele>
        <time>2018-07-15T09:16:29Z</time>
      </trkpt>
      <trkpt lat="45.86332" lon="4.66274">
        <ele>214</ele>
        <time>2018-07-15T09:16:30Z</time>
      </trkpt>
      <trkpt lat="45.86337" lon="4.66269">
        <ele>217</ele>
        <time>2018-07-15T09:16:31Z</time>
      </trkpt>
      <trkpt lat="45.86345" lon="4.66266">
        <ele>217</ele>
        <time>2018-07-15T09:16:32Z</time>
      </trkpt>
      <trkpt lat="45.8635" lon="4.66262">
        <ele>217</ele>
        <time>2018-07-15T09:16:33Z</time>
      </trkpt>
      <trkpt lat="45.86357" lon="4.66258">
        <ele>218</ele>
        <time>2018-07-15T09:16:34Z</time>
      </trkpt>
      <trkpt lat="45.86362" lon="4.66255">
        <ele>218</ele>
        <time>2018-07-15T09:16:35Z</time>
      </trkpt>
      <trkpt lat="45.86367" lon="4.66254">
        <ele>219</ele>
        <time>2018-07-15T09:16:36Z</time>
      </trkpt>
      <trkpt lat="45.86373" lon="4.66252">
        <ele>219</ele>
        <time>2018-07-15T09:16:37Z</time>
      </trkpt>
      <trkpt lat="45.86377" lon="4.6624">
        <ele>214</ele>
        <time>2018-07-15T09:16:38Z</time>
      </trkpt>
      <trkpt lat="45.86382" lon="4.66237">
        <ele>214</ele>
        <time>2018-07-15T09:16:39Z</time>
      </trkpt>
      <trkpt lat="45.86386" lon="4.66232">
        <ele>214</ele>
        <time>2018-07-15T09:16:40Z</time>
      </trkpt>
      <trkpt lat="45.86392" lon="4.66229">
        <ele>214</ele>
        <time>2018-07-15T09:16:41Z</time>
      </trkpt>
      <trkpt lat="45.86399" lon="4.6623">
        <ele>215</ele>
        <time>2018-07-15T09:16:42Z</time>
      </trkpt>
      <trkpt lat="45.86404" lon="4.66229">
        <ele>215</ele>
        <time>2018-07-15T09:16:43Z</time>
      </trkpt>
      <trkpt lat="45.86411" lon="4.6622">
        <ele>214</ele>
        <time>2018-07-15T09:16:44Z</time>
      </trkpt>
      <trkpt lat="45.86418" lon="4.66219">
        <ele>217</ele>
        <time>2018-07-15T09:16:45Z</time>
      </trkpt>
      <trkpt lat="45.86423" lon="4.66212">
        <ele>217</ele>
        <time>2018-07-15T09:16:46Z</time>
      </trkpt>
      <trkpt lat="45.86428" lon="4.6622">
        <ele>218</ele>
        <time>2018-07-15T09:16:47Z</time>
      </trkpt>
      <trkpt lat="45.86434" lon="4.66218">
        <ele>218</ele>
        <time>2018-07-15T09:16:48Z</time>
      </trkpt>
      <trkpt lat="45.86439" lon="4.66216">
        <ele>217</ele>
        <time>2018-07-15T09:16:49Z</time>
      </trkpt>
      <trkpt lat="45.86445" lon="4.66214">
        <ele>217</ele>
        <time>2018-07-15T09:16:50Z</time>
      </trkpt>
      <trkpt lat="45.86451" lon="4.66212">
        <ele>217</ele>
        <time>2018-07-15T09:16:51Z</time>
      </trkpt>
      <trkpt lat="45.86456" lon="4.66208">
        <ele>217</ele>
        <time>2018-07-15T09:16:52Z</time>
      </trkpt>
      <trkpt lat="45.86462" lon="4.66205">
        <ele>217</ele>
        <time>2018-07-15T09:16:53Z</time>
      </trkpt>
      <trkpt lat="45.86467" lon="4.66206">
        <ele>218</ele>
        <time>2018-07-15T09:16:54Z</time>
      </trkpt>
      <trkpt lat="45.86474" lon="4.66201">
        <ele>217</ele>
        <time>2018-07-15T09:16:55Z</time>
      </trkpt>
      <trkpt lat="45.86478" lon="4.66203">
        <ele>218</ele>
        <time>2018-07-15T09:16:56Z</time>
      </trkpt>
      <trkpt lat="45.86482" lon="4.66204">
        <ele>218</ele>
        <time>2018-07-15T09:16:57Z</time>
      </trkpt>
      <trkpt lat="45.8649" lon="4.66208">
        <ele>218</ele>
        <time>2018-07-15T09:16:58Z</time>
      </trkpt>
      <trkpt lat="45.86498" lon="4.66209">
        <ele>219</ele>
        <time>2018-07-15T09:17:00Z</time>
      </trkpt>
      <trkpt lat="45.86505" lon="4.66197">
        <ele>223</ele>
        <time>2018-07-15T09:17:01Z</time>
      </trkpt>
      <trkpt lat="45.86511" lon="4.66189">
        <ele>222</ele>
        <time>2018-07-15T09:17:02Z</time>
      </trkpt>
      <trkpt lat="45.86516" lon="4.66185">
        <ele>223</ele>
        <time>2018-07-15T09:17:03Z</time>
      </trkpt>
      <trkpt lat="45.86522" lon="4.6618">
        <ele>223</ele>
        <time>2018-07-15T09:17:04Z</time>
      </trkpt>
      <trkpt lat="45.86527" lon="4.66177">
        <ele>223</ele>
        <time>2018-07-15T09:17:05Z</time>
      </trkpt>
      <trkpt lat="45.86532" lon="4.66172">
        <ele>224</ele>
        <time>2018-07-15T09:17:06Z</time>
      </trkpt>
      <trkpt lat="45.86537" lon="4.66168">
        <ele>224</ele>
        <time>2018-07-15T09:17:07Z</time>
      </trkpt>
      <trkpt lat="45.86543" lon="4.66166">
        <ele>217</ele>
        <time>2018-07-15T09:17:08Z</time>
      </trkpt>
      <trkpt lat="45.86549" lon="4.66161">
        <ele>218</ele>
        <time>2018-07-15T09:17:09Z</time>
      </trkpt>
      <trkpt lat="45.86553" lon="4.66158">
        <ele>218</ele>
        <time>2018-07-15T09:17:10Z</time>
      </trkpt>
      <trkpt lat="45.86557" lon="4.66152">
        <ele>219</ele>
        <time>2018-07-15T09:17:11Z</time>
      </trkpt>
      <trkpt lat="45.86561" lon="4.66149">
        <ele>219</ele>
        <time>2018-07-15T09:17:12Z</time>
      </trkpt>
      <trkpt lat="45.86567" lon="4.6615">
        <ele>220</ele>
        <time>2018-07-15T09:17:13Z</time>
      </trkpt>
      <trkpt lat="45.86574" lon="4.66144">
        <ele>219</ele>
        <time>2018-07-15T09:17:14Z</time>
      </trkpt>
      <trkpt lat="45.86579" lon="4.66139">
        <ele>219</ele>
        <time>2018-07-15T09:17:15Z</time>
      </trkpt>
      <trkpt lat="45.86586" lon="4.66135">
        <ele>225</ele>
        <time>2018-07-15T09:17:16Z</time>
      </trkpt>
      <trkpt lat="45.8659" lon="4.66129">
        <ele>224</ele>
        <time>2018-07-15T09:17:17Z</time>
      </trkpt>
      <trkpt lat="45.86594" lon="4.66125">
        <ele>224</ele>
        <time>2018-07-15T09:17:18Z</time>
      </trkpt>
      <trkpt lat="45.86603" lon="4.66119">
        <ele>223</ele>
        <time>2018-07-15T09:17:19Z</time>
      </trkpt>
      <trkpt lat="45.86609" lon="4.66114">
        <ele>223</ele>
        <time>2018-07-15T09:17:20Z</time>
      </trkpt>
      <trkpt lat="45.86614" lon="4.6611">
        <ele>223</ele>
        <time>2018-07-15T09:17:21Z</time>
      </trkpt>
      <trkpt lat="45.86619" lon="4.66106">
        <ele>223</ele>
        <time>2018-07-15T09:17:22Z</time>
      </trkpt>
      <trkpt lat="45.86626" lon="4.66101">
        <ele>223</ele>
        <time>2018-07-15T09:17:23Z</time>
      </trkpt>
      <trkpt lat="45.86632" lon="4.66101">
        <ele>223</ele>
        <time>2018-07-15T09:17:24Z</time>
      </trkpt>
      <trkpt lat="45.86637" lon="4.66097">
        <ele>223</ele>
        <time>2018-07-15T09:17:25Z</time>
      </trkpt>
      <trkpt lat="45.86642" lon="4.66096">
        <ele>223</ele>
        <time>2018-07-15T09:17:26Z</time>
      </trkpt>
      <trkpt lat="45.86647" lon="4.66097">
        <ele>223</ele>
        <time>2018-07-15T09:17:27Z</time>
      </trkpt>
      <trkpt lat="45.86652" lon="4.66094">
        <ele>223</ele>
        <time>2018-07-15T09:17:28Z</time>
      </trkpt>
      <trkpt lat="45.86658" lon="4.66093">
        <ele>222</ele>
        <time>2018-07-15T09:17:29Z</time>
      </trkpt>
      <trkpt lat="45.86662" lon="4.66088">
        <ele>221</ele>
        <time>2018-07-15T09:17:30Z</time>
      </trkpt>
      <trkpt lat="45.86668" lon="4.66087">
        <ele>222</ele>
        <time>2018-07-15T09:17:31Z</time>
      </trkpt>
      <trkpt lat="45.86673" lon="4.66084">
        <ele>224</ele>
        <time>2018-07-15T09:17:32Z</time>
      </trkpt>
      <trkpt lat="45.86679" lon="4.66083">
        <ele>220</ele>
        <time>2018-07-15T09:17:33Z</time>
      </trkpt>
      <trkpt lat="45.86685" lon="4.66083">
        <ele>221</ele>
        <time>2018-07-15T09:17:34Z</time>
      </trkpt>
      <trkpt lat="45.86691" lon="4.6608">
        <ele>222</ele>
        <time>2018-07-15T09:17:35Z</time>
      </trkpt>
      <trkpt lat="45.86695" lon="4.66078">
        <ele>222</ele>
        <time>2018-07-15T09:17:36Z</time>
      </trkpt>
      <trkpt lat="45.867" lon="4.66073">
        <ele>223</ele>
        <time>2018-07-15T09:17:37Z</time>
      </trkpt>
      <trkpt lat="45.86708" lon="4.66072">
        <ele>224</ele>
        <time>2018-07-15T09:17:38Z</time>
      </trkpt>
      <trkpt lat="45.86712" lon="4.6607">
        <ele>224</ele>
        <time>2018-07-15T09:17:39Z</time>
      </trkpt>
      <trkpt lat="45.86719" lon="4.66063">
        <ele>225</ele>
        <time>2018-07-15T09:17:40Z</time>
      </trkpt>
      <trkpt lat="45.86727" lon="4.6606">
        <ele>226</ele>
        <time>2018-07-15T09:17:41Z</time>
      </trkpt>
      <trkpt lat="45.86729" lon="4.66061">
        <ele>226</ele>
        <time>2018-07-15T09:17:42Z</time>
      </trkpt>
      <trkpt lat="45.86734" lon="4.66057">
        <ele>226</ele>
        <time>2018-07-15T09:17:43Z</time>
      </trkpt>
      <trkpt lat="45.86739" lon="4.66051">
        <ele>225</ele>
        <time>2018-07-15T09:17:44Z</time>
      </trkpt>
      <trkpt lat="45.86744" lon="4.66045">
        <ele>224</ele>
        <time>2018-07-15T09:17:45Z</time>
      </trkpt>
      <trkpt lat="45.86749" lon="4.66033">
        <ele>222</ele>
        <time>2018-07-15T09:17:46Z</time>
      </trkpt>
      <trkpt lat="45.86755" lon="4.6603">
        <ele>231</ele>
        <time>2018-07-15T09:17:47Z</time>
      </trkpt>
      <trkpt lat="45.86759" lon="4.66026">
        <ele>231</ele>
        <time>2018-07-15T09:17:48Z</time>
      </trkpt>
      <trkpt lat="45.86763" lon="4.66022">
        <ele>230</ele>
        <time>2018-07-15T09:17:49Z</time>
      </trkpt>
      <trkpt lat="45.86766" lon="4.66019">
        <ele>230</ele>
        <time>2018-07-15T09:17:50Z</time>
      </trkpt>
      <trkpt lat="45.86772" lon="4.6601">
        <ele>229</ele>
        <time>2018-07-15T09:17:52Z</time>
      </trkpt>
      <trkpt lat="45.86777" lon="4.66005">
        <ele>230</ele>
        <time>2018-07-15T09:17:53Z</time>
      </trkpt>
      <trkpt lat="45.86778" lon="4.66">
        <ele>221</ele>
        <time>2018-07-15T09:17:54Z</time>
      </trkpt>
      <trkpt lat="45.86783" lon="4.65994">
        <ele>222</ele>
        <time>2018-07-15T09:17:55Z</time>
      </trkpt>
      <trkpt lat="45.86789" lon="4.65989">
        <ele>222</ele>
        <time>2018-07-15T09:17:56Z</time>
      </trkpt>
      <trkpt lat="45.86793" lon="4.65984">
        <ele>223</ele>
        <time>2018-07-15T09:17:57Z</time>
      </trkpt>
      <trkpt lat="45.86796" lon="4.65978">
        <ele>223</ele>
        <time>2018-07-15T09:17:58Z</time>
      </trkpt>
      <trkpt lat="45.86797" lon="4.65972">
        <ele>223</ele>
        <time>2018-07-15T09:17:59Z</time>
      </trkpt>
      <trkpt lat="45.86803" lon="4.65962">
        <ele>223</ele>
        <time>2018-07-15T09:18:01Z</time>
      </trkpt>
      <trkpt lat="45.86807" lon="4.65954">
        <ele>222</ele>
        <time>2018-07-15T09:18:02Z</time>
      </trkpt>
      <trkpt lat="45.86811" lon="4.65948">
        <ele>222</ele>
        <time>2018-07-15T09:18:03Z</time>
      </trkpt>
      <trkpt lat="45.86816" lon="4.65943">
        <ele>222</ele>
        <time>2018-07-15T09:18:04Z</time>
      </trkpt>
      <trkpt lat="45.86821" lon="4.65934">
        <ele>222</ele>
        <time>2018-07-15T09:18:05Z</time>
      </trkpt>
      <trkpt lat="45.86824" lon="4.65926">
        <ele>221</ele>
        <time>2018-07-15T09:18:06Z</time>
      </trkpt>
      <trkpt lat="45.86829" lon="4.65919">
        <ele>221</ele>
        <time>2018-07-15T09:18:07Z</time>
      </trkpt>
      <trkpt lat="45.86831" lon="4.65911">
        <ele>219</ele>
        <time>2018-07-15T09:18:08Z</time>
      </trkpt>
      <trkpt lat="45.86833" lon="4.65904">
        <ele>224</ele>
        <time>2018-07-15T09:18:09Z</time>
      </trkpt>
      <trkpt lat="45.86837" lon="4.65899">
        <ele>225</ele>
        <time>2018-07-15T09:18:10Z</time>
      </trkpt>
      <trkpt lat="45.8684" lon="4.65892">
        <ele>225</ele>
        <time>2018-07-15T09:18:11Z</time>
      </trkpt>
      <trkpt lat="45.86845" lon="4.65887">
        <ele>226</ele>
        <time>2018-07-15T09:18:12Z</time>
      </trkpt>
      <trkpt lat="45.86849" lon="4.65879">
        <ele>226</ele>
        <time>2018-07-15T09:18:13Z</time>
      </trkpt>
      <trkpt lat="45.86854" lon="4.65872">
        <ele>226</ele>
        <time>2018-07-15T09:18:14Z</time>
      </trkpt>
      <trkpt lat="45.86855" lon="4.65865">
        <ele>226</ele>
        <time>2018-07-15T09:18:15Z</time>
      </trkpt>
      <trkpt lat="45.86854" lon="4.65856">
        <ele>224</ele>
        <time>2018-07-15T09:18:16Z</time>
      </trkpt>
      <trkpt lat="45.86857" lon="4.6585">
        <ele>224</ele>
        <time>2018-07-15T09:18:17Z</time>
      </trkpt>
      <trkpt lat="45.8686" lon="4.65843">
        <ele>224</ele>
        <time>2018-07-15T09:18:18Z</time>
      </trkpt>
      <trkpt lat="45.86863" lon="4.65835">
        <ele>225</ele>
        <time>2018-07-15T09:18:19Z</time>
      </trkpt>
      <trkpt lat="45.86865" lon="4.65829">
        <ele>220</ele>
        <time>2018-07-15T09:18:20Z</time>
      </trkpt>
      <trkpt lat="45.86866" lon="4.65821">
        <ele>221</ele>
        <time>2018-07-15T09:18:21Z</time>
      </trkpt>
      <trkpt lat="45.86866" lon="4.65812">
        <ele>221</ele>
        <time>2018-07-15T09:18:22Z</time>
      </trkpt>
      <trkpt lat="45.8687" lon="4.65804">
        <ele>221</ele>
        <time>2018-07-15T09:18:23Z</time>
      </trkpt>
      <trkpt lat="45.86872" lon="4.65796">
        <ele>222</ele>
        <time>2018-07-15T09:18:24Z</time>
      </trkpt>
      <trkpt lat="45.86875" lon="4.65787">
        <ele>222</ele>
        <time>2018-07-15T09:18:25Z</time>
      </trkpt>
      <trkpt lat="45.86879" lon="4.65779">
        <ele>222</ele>
        <time>2018-07-15T09:18:26Z</time>
      </trkpt>
      <trkpt lat="45.8688" lon="4.65771">
        <ele>222</ele>
        <time>2018-07-15T09:18:27Z</time>
      </trkpt>
      <trkpt lat="45.86882" lon="4.65764">
        <ele>223</ele>
        <time>2018-07-15T09:18:28Z</time>
      </trkpt>
      <trkpt lat="45.86884" lon="4.65755">
        <ele>223</ele>
        <time>2018-07-15T09:18:29Z</time>
      </trkpt>
      <trkpt lat="45.86887" lon="4.65747">
        <ele>223</ele>
        <time>2018-07-15T09:18:30Z</time>
      </trkpt>
      <trkpt lat="45.8689" lon="4.65742">
        <ele>223</ele>
        <time>2018-07-15T09:18:31Z</time>
      </trkpt>
      <trkpt lat="45.86894" lon="4.65734">
        <ele>224</ele>
        <time>2018-07-15T09:18:32Z</time>
      </trkpt>
      <trkpt lat="45.86895" lon="4.65724">
        <ele>223</ele>
        <time>2018-07-15T09:18:33Z</time>
      </trkpt>
      <trkpt lat="45.86895" lon="4.65714">
        <ele>223</ele>
        <time>2018-07-15T09:18:34Z</time>
      </trkpt>
      <trkpt lat="45.86896" lon="4.65705">
        <ele>223</ele>
        <time>2018-07-15T09:18:35Z</time>
      </trkpt>
      <trkpt lat="45.86896" lon="4.65696">
        <ele>224</ele>
        <time>2018-07-15T09:18:36Z</time>
      </trkpt>
      <trkpt lat="45.86896" lon="4.65688">
        <ele>224</ele>
        <time>2018-07-15T09:18:37Z</time>
      </trkpt>
      <trkpt lat="45.86897" lon="4.65679">
        <ele>225</ele>
        <time>2018-07-15T09:18:38Z</time>
      </trkpt>
      <trkpt lat="45.86896" lon="4.6567">
        <ele>225</ele>
        <time>2018-07-15T09:18:39Z</time>
      </trkpt>
      <trkpt lat="45.86896" lon="4.6566">
        <ele>225</ele>
        <time>2018-07-15T09:18:40Z</time>
      </trkpt>
      <trkpt lat="45.86896" lon="4.6565">
        <ele>224</ele>
        <time>2018-07-15T09:18:41Z</time>
      </trkpt>
      <trkpt lat="45.86896" lon="4.6564">
        <ele>223</ele>
        <time>2018-07-15T09:18:42Z</time>
      </trkpt>
      <trkpt lat="45.86896" lon="4.65632">
        <ele>223</ele>
        <time>2018-07-15T09:18:43Z</time>
      </trkpt>
      <trkpt lat="45.86898" lon="4.65622">
        <ele>223</ele>
        <time>2018-07-15T09:18:44Z</time>
      </trkpt>
      <trkpt lat="45.86901" lon="4.65611">
        <ele>223</ele>
        <time>2018-07-15T09:18:45Z</time>
      </trkpt>
      <trkpt lat="45.869" lon="4.656">
        <ele>223</ele>
        <time>2018-07-15T09:18:46Z</time>
      </trkpt>
      <trkpt lat="45.86901" lon="4.65588">
        <ele>223</ele>
        <time>2018-07-15T09:18:47Z</time>
      </trkpt>
      <trkpt lat="45.86902" lon="4.65579">
        <ele>222</ele>
        <time>2018-07-15T09:18:48Z</time>
      </trkpt>
      <trkpt lat="45.86909" lon="4.6557">
        <ele>222</ele>
        <time>2018-07-15T09:18:49Z</time>
      </trkpt>
      <trkpt lat="45.86909" lon="4.6556">
        <ele>220</ele>
        <time>2018-07-15T09:18:50Z</time>
      </trkpt>
      <trkpt lat="45.86911" lon="4.65549">
        <ele>219</ele>
        <time>2018-07-15T09:18:51Z</time>
      </trkpt>
      <trkpt lat="45.86915" lon="4.6554">
        <ele>219</ele>
        <time>2018-07-15T09:18:52Z</time>
      </trkpt>
      <trkpt lat="45.86918" lon="4.65531">
        <ele>228</ele>
        <time>2018-07-15T09:18:53Z</time>
      </trkpt>
      <trkpt lat="45.86917" lon="4.6552">
        <ele>218</ele>
        <time>2018-07-15T09:18:54Z</time>
      </trkpt>
      <trkpt lat="45.86923" lon="4.65513">
        <ele>225</ele>
        <time>2018-07-15T09:18:55Z</time>
      </trkpt>
      <trkpt lat="45.86926" lon="4.65502">
        <ele>223</ele>
        <time>2018-07-15T09:18:56Z</time>
      </trkpt>
      <trkpt lat="45.86931" lon="4.65493">
        <ele>220</ele>
        <time>2018-07-15T09:18:57Z</time>
      </trkpt>
      <trkpt lat="45.86934" lon="4.65487">
        <ele>221</ele>
        <time>2018-07-15T09:18:58Z</time>
      </trkpt>
      <trkpt lat="45.86941" lon="4.65479">
        <ele>221</ele>
        <time>2018-07-15T09:18:59Z</time>
      </trkpt>
      <trkpt lat="45.86945" lon="4.6547">
        <ele>221</ele>
        <time>2018-07-15T09:19:00Z</time>
      </trkpt>
      <trkpt lat="45.86953" lon="4.65465">
        <ele>222</ele>
        <time>2018-07-15T09:19:01Z</time>
      </trkpt>
      <trkpt lat="45.86962" lon="4.65459">
        <ele>222</ele>
        <time>2018-07-15T09:19:02Z</time>
      </trkpt>
      <trkpt lat="45.86967" lon="4.65451">
        <ele>222</ele>
        <time>2018-07-15T09:19:03Z</time>
      </trkpt>
      <trkpt lat="45.86971" lon="4.65444">
        <ele>222</ele>
        <time>2018-07-15T09:19:04Z</time>
      </trkpt>
      <trkpt lat="45.8698" lon="4.65436">
        <ele>222</ele>
        <time>2018-07-15T09:19:05Z</time>
      </trkpt>
      <trkpt lat="45.86987" lon="4.6543">
        <ele>222</ele>
        <time>2018-07-15T09:19:06Z</time>
      </trkpt>
      <trkpt lat="45.86989" lon="4.65422">
        <ele>221</ele>
        <time>2018-07-15T09:19:07Z</time>
      </trkpt>
      <trkpt lat="45.86995" lon="4.65414">
        <ele>220</ele>
        <time>2018-07-15T09:19:08Z</time>
      </trkpt>
      <trkpt lat="45.87001" lon="4.65409">
        <ele>222</ele>
        <time>2018-07-15T09:19:09Z</time>
      </trkpt>
      <trkpt lat="45.87002" lon="4.65401">
        <ele>222</ele>
        <time>2018-07-15T09:19:10Z</time>
      </trkpt>
      <trkpt lat="45.87009" lon="4.65395">
        <ele>223</ele>
        <time>2018-07-15T09:19:11Z</time>
      </trkpt>
      <trkpt lat="45.87013" lon="4.65387">
        <ele>223</ele>
        <time>2018-07-15T09:19:12.063Z</time>
      </trkpt>
      <trkpt lat="45.87016" lon="4.65379">
        <ele>223</ele>
        <time>2018-07-15T09:19:13Z</time>
      </trkpt>
      <trkpt lat="45.87021" lon="4.6537">
        <ele>222</ele>
        <time>2018-07-15T09:19:14Z</time>
      </trkpt>
      <trkpt lat="45.87029" lon="4.65362">
        <ele>222</ele>
        <time>2018-07-15T09:19:15Z</time>
      </trkpt>
      <trkpt lat="45.87038" lon="4.65356">
        <ele>223</ele>
        <time>2018-07-15T09:19:16Z</time>
      </trkpt>
      <trkpt lat="45.87045" lon="4.65348">
        <ele>223</ele>
        <time>2018-07-15T09:19:17Z</time>
      </trkpt>
      <trkpt lat="45.87053" lon="4.6534">
        <ele>223</ele>
        <time>2018-07-15T09:19:18Z</time>
      </trkpt>
      <trkpt lat="45.87058" lon="4.65332">
        <ele>218</ele>
        <time>2018-07-15T09:19:19Z</time>
      </trkpt>
      <trkpt lat="45.87062" lon="4.65325">
        <ele>219</ele>
        <time>2018-07-15T09:19:20Z</time>
      </trkpt>
      <trkpt lat="45.87068" lon="4.65317">
        <ele>219</ele>
        <time>2018-07-15T09:19:21Z</time>
      </trkpt>
      <trkpt lat="45.8707" lon="4.65308">
        <ele>218</ele>
        <time>2018-07-15T09:19:22Z</time>
      </trkpt>
      <trkpt lat="45.87073" lon="4.65299">
        <ele>217</ele>
        <time>2018-07-15T09:19:23Z</time>
      </trkpt>
      <trkpt lat="45.87076" lon="4.65289">
        <ele>216</ele>
        <time>2018-07-15T09:19:24Z</time>
      </trkpt>
      <trkpt lat="45.87079" lon="4.65282">
        <ele>216</ele>
        <time>2018-07-15T09:19:25Z</time>
      </trkpt>
      <trkpt lat="45.87083" lon="4.65274">
        <ele>215</ele>
        <time>2018-07-15T09:19:26Z</time>
      </trkpt>
      <trkpt lat="45.87086" lon="4.65267">
        <ele>222</ele>
        <time>2018-07-15T09:19:27Z</time>
      </trkpt>
      <trkpt lat="45.87088" lon="4.65258">
        <ele>219</ele>
        <time>2018-07-15T09:19:28Z</time>
      </trkpt>
      <trkpt lat="45.87089" lon="4.65249">
        <ele>215</ele>
        <time>2018-07-15T09:19:29Z</time>
      </trkpt>
      <trkpt lat="45.87091" lon="4.6524">
        <ele>216</ele>
        <time>2018-07-15T09:19:30Z</time>
      </trkpt>
      <trkpt lat="45.87098" lon="4.65232">
        <ele>218</ele>
        <time>2018-07-15T09:19:31Z</time>
      </trkpt>
      <trkpt lat="45.87107" lon="4.65223">
        <ele>219</ele>
        <time>2018-07-15T09:19:32Z</time>
      </trkpt>
      <trkpt lat="45.87115" lon="4.65217">
        <ele>220</ele>
        <time>2018-07-15T09:19:33Z</time>
      </trkpt>
      <trkpt lat="45.87121" lon="4.65212">
        <ele>220</ele>
        <time>2018-07-15T09:19:34Z</time>
      </trkpt>
      <trkpt lat="45.87128" lon="4.65205">
        <ele>220</ele>
        <time>2018-07-15T09:19:35Z</time>
      </trkpt>
      <trkpt lat="45.8713" lon="4.65196">
        <ele>220</ele>
        <time>2018-07-15T09:19:36Z</time>
      </trkpt>
      <trkpt lat="45.87134" lon="4.65189">
        <ele>220</ele>
        <time>2018-07-15T09:19:37Z</time>
      </trkpt>
      <trkpt lat="45.87139" lon="4.65186">
        <ele>220</ele>
        <time>2018-07-15T09:19:38Z</time>
      </trkpt>
      <trkpt lat="45.87145" lon="4.65181">
        <ele>220</ele>
        <time>2018-07-15T09:19:39Z</time>
      </trkpt>
      <trkpt lat="45.8715" lon="4.65176">
        <ele>220</ele>
        <time>2018-07-15T09:19:40Z</time>
      </trkpt>
      <trkpt lat="45.87157" lon="4.65169">
        <ele>220</ele>
        <time>2018-07-15T09:19:41Z</time>
      </trkpt>
      <trkpt lat="45.87161" lon="4.65166">
        <ele>218</ele>
        <time>2018-07-15T09:19:42Z</time>
      </trkpt>
      <trkpt lat="45.87166" lon="4.6516">
        <ele>218</ele>
        <time>2018-07-15T09:19:43Z</time>
      </trkpt>
      <trkpt lat="45.87172" lon="4.65155">
        <ele>221</ele>
        <time>2018-07-15T09:19:44Z</time>
      </trkpt>
      <trkpt lat="45.87175" lon="4.65149">
        <ele>221</ele>
        <time>2018-07-15T09:19:45Z</time>
      </trkpt>
      <trkpt lat="45.87182" lon="4.65145">
        <ele>221</ele>
        <time>2018-07-15T09:19:46Z</time>
      </trkpt>
      <trkpt lat="45.87187" lon="4.65141">
        <ele>221</ele>
        <time>2018-07-15T09:19:47Z</time>
      </trkpt>
      <trkpt lat="45.87193" lon="4.65135">
        <ele>222</ele>
        <time>2018-07-15T09:19:48Z</time>
      </trkpt>
      <trkpt lat="45.87196" lon="4.65128">
        <ele>221</ele>
        <time>2018-07-15T09:19:49Z</time>
      </trkpt>
      <trkpt lat="45.87201" lon="4.65124">
        <ele>221</ele>
        <time>2018-07-15T09:19:50Z</time>
      </trkpt>
      <trkpt lat="45.87208" lon="4.65122">
        <ele>222</ele>
        <time>2018-07-15T09:19:51Z</time>
      </trkpt>
      <trkpt lat="45.87212" lon="4.65119">
        <ele>222</ele>
        <time>2018-07-15T09:19:52Z</time>
      </trkpt>
      <trkpt lat="45.87217" lon="4.65115">
        <ele>222</ele>
        <time>2018-07-15T09:19:53.139Z</time>
      </trkpt>
      <trkpt lat="45.87222" lon="4.65116">
        <ele>222</ele>
        <time>2018-07-15T09:19:54Z</time>
      </trkpt>
      <trkpt lat="45.87225" lon="4.6511">
        <ele>222</ele>
        <time>2018-07-15T09:19:55Z</time>
      </trkpt>
      <trkpt lat="45.87229" lon="4.65101">
        <ele>221</ele>
        <time>2018-07-15T09:19:56Z</time>
      </trkpt>
      <trkpt lat="45.87234" lon="4.65101">
        <ele>221</ele>
        <time>2018-07-15T09:19:57Z</time>
      </trkpt>
      <trkpt lat="45.8724" lon="4.65098">
        <ele>220</ele>
        <time>2018-07-15T09:19:58Z</time>
      </trkpt>
      <trkpt lat="45.87247" lon="4.65093">
        <ele>220</ele>
        <time>2018-07-15T09:19:59Z</time>
      </trkpt>
      <trkpt lat="45.87252" lon="4.65087">
        <ele>221</ele>
        <time>2018-07-15T09:20:00Z</time>
      </trkpt>
      <trkpt lat="45.87259" lon="4.65085">
        <ele>223</ele>
        <time>2018-07-15T09:20:01Z</time>
      </trkpt>
      <trkpt lat="45.87262" lon="4.65078">
        <ele>219</ele>
        <time>2018-07-15T09:20:02Z</time>
      </trkpt>
      <trkpt lat="45.87267" lon="4.65072">
        <ele>219</ele>
        <time>2018-07-15T09:20:03Z</time>
      </trkpt>
      <trkpt lat="45.87273" lon="4.65067">
        <ele>220</ele>
        <time>2018-07-15T09:20:04Z</time>
      </trkpt>
      <trkpt lat="45.87278" lon="4.65057">
        <ele>220</ele>
        <time>2018-07-15T09:20:05Z</time>
      </trkpt>
      <trkpt lat="45.87284" lon="4.65051">
        <ele>220</ele>
        <time>2018-07-15T09:20:06Z</time>
      </trkpt>
      <trkpt lat="45.87288" lon="4.65046">
        <ele>220</ele>
        <time>2018-07-15T09:20:07Z</time>
      </trkpt>
      <trkpt lat="45.87291" lon="4.65038">
        <ele>219</ele>
        <time>2018-07-15T09:20:08Z</time>
      </trkpt>
      <trkpt lat="45.87299" lon="4.65033">
        <ele>220</ele>
        <time>2018-07-15T09:20:10Z</time>
      </trkpt>
      <trkpt lat="45.87303" lon="4.65027">
        <ele>219</ele>
        <time>2018-07-15T09:20:11Z</time>
      </trkpt>
      <trkpt lat="45.87307" lon="4.6502">
        <ele>219</ele>
        <time>2018-07-15T09:20:12Z</time>
      </trkpt>
      <trkpt lat="45.8731" lon="4.65013">
        <ele>219</ele>
        <time>2018-07-15T09:20:13Z</time>
      </trkpt>
      <trkpt lat="45.87313" lon="4.65004">
        <ele>219</ele>
        <time>2018-07-15T09:20:14Z</time>
      </trkpt>
      <trkpt lat="45.87317" lon="4.64998">
        <ele>215</ele>
        <time>2018-07-15T09:20:15Z</time>
      </trkpt>
      <trkpt lat="45.87321" lon="4.6499">
        <ele>215</ele>
        <time>2018-07-15T09:20:16Z</time>
      </trkpt>
      <trkpt lat="45.87326" lon="4.64983">
        <ele>215</ele>
        <time>2018-07-15T09:20:17Z</time>
      </trkpt>
      <trkpt lat="45.87328" lon="4.64976">
        <ele>215</ele>
        <time>2018-07-15T09:20:18Z</time>
      </trkpt>
      <trkpt lat="45.87334" lon="4.64968">
        <ele>219</ele>
        <time>2018-07-15T09:20:19Z</time>
      </trkpt>
      <trkpt lat="45.87338" lon="4.64959">
        <ele>218</ele>
        <time>2018-07-15T09:20:20Z</time>
      </trkpt>
      <trkpt lat="45.87344" lon="4.64948">
        <ele>218</ele>
        <time>2018-07-15T09:20:21Z</time>
      </trkpt>
      <trkpt lat="45.87348" lon="4.6494">
        <ele>217</ele>
        <time>2018-07-15T09:20:22Z</time>
      </trkpt>
      <trkpt lat="45.87351" lon="4.64934">
        <ele>217</ele>
        <time>2018-07-15T09:20:23Z</time>
      </trkpt>
      <trkpt lat="45.87356" lon="4.64926">
        <ele>217</ele>
        <time>2018-07-15T09:20:24Z</time>
      </trkpt>
      <trkpt lat="45.87359" lon="4.64922">
        <ele>217</ele>
        <time>2018-07-15T09:20:25Z</time>
      </trkpt>
      <trkpt lat="45.87365" lon="4.64917">
        <ele>218</ele>
        <time>2018-07-15T09:20:26Z</time>
      </trkpt>
      <trkpt lat="45.87365" lon="4.64908">
        <ele>214</ele>
        <time>2018-07-15T09:20:27Z</time>
      </trkpt>
      <trkpt lat="45.87369" lon="4.64901">
        <ele>215</ele>
        <time>2018-07-15T09:20:28Z</time>
      </trkpt>
      <trkpt lat="45.87377" lon="4.64893">
        <ele>215</ele>
        <time>2018-07-15T09:20:29Z</time>
      </trkpt>
      <trkpt lat="45.87383" lon="4.64887">
        <ele>215</ele>
        <time>2018-07-15T09:20:30Z</time>
      </trkpt>
      <trkpt lat="45.87385" lon="4.64879">
        <ele>215</ele>
        <time>2018-07-15T09:20:31Z</time>
      </trkpt>
      <trkpt lat="45.87392" lon="4.64872">
        <ele>215</ele>
        <time>2018-07-15T09:20:32Z</time>
      </trkpt>
      <trkpt lat="45.87397" lon="4.64866">
        <ele>215</ele>
        <time>2018-07-15T09:20:33Z</time>
      </trkpt>
      <trkpt lat="45.87403" lon="4.6486">
        <ele>215</ele>
        <time>2018-07-15T09:20:34Z</time>
      </trkpt>
      <trkpt lat="45.87409" lon="4.64855">
        <ele>215</ele>
        <time>2018-07-15T09:20:35Z</time>
      </trkpt>
      <trkpt lat="45.87413" lon="4.64849">
        <ele>215</ele>
        <time>2018-07-15T09:20:36Z</time>
      </trkpt>
      <trkpt lat="45.87419" lon="4.64844">
        <ele>217</ele>
        <time>2018-07-15T09:20:37Z</time>
      </trkpt>
      <trkpt lat="45.87423" lon="4.64839">
        <ele>217</ele>
        <time>2018-07-15T09:20:38Z</time>
      </trkpt>
      <trkpt lat="45.87424" lon="4.6483">
        <ele>215</ele>
        <time>2018-07-15T09:20:39Z</time>
      </trkpt>
      <trkpt lat="45.87425" lon="4.64824">
        <ele>215</ele>
        <time>2018-07-15T09:20:40Z</time>
      </trkpt>
      <trkpt lat="45.87433" lon="4.64818">
        <ele>215</ele>
        <time>2018-07-15T09:20:41Z</time>
      </trkpt>
      <trkpt lat="45.87436" lon="4.64815">
        <ele>215</ele>
        <time>2018-07-15T09:20:42Z</time>
      </trkpt>
      <trkpt lat="45.87443" lon="4.64811">
        <ele>215</ele>
        <time>2018-07-15T09:20:43Z</time>
      </trkpt>
      <trkpt lat="45.87447" lon="4.64802">
        <ele>214</ele>
        <time>2018-07-15T09:20:44.879Z</time>
      </trkpt>
      <trkpt lat="45.87453" lon="4.64796">
        <ele>214</ele>
        <time>2018-07-15T09:20:45Z</time>
      </trkpt>
      <trkpt lat="45.8746" lon="4.64788">
        <ele>214</ele>
        <time>2018-07-15T09:20:46Z</time>
      </trkpt>
      <trkpt lat="45.87463" lon="4.64781">
        <ele>214</ele>
        <time>2018-07-15T09:20:47Z</time>
      </trkpt>
      <trkpt lat="45.87469" lon="4.64777">
        <ele>214</ele>
        <time>2018-07-15T09:20:48Z</time>
      </trkpt>
      <trkpt lat="45.87473" lon="4.6477">
        <ele>214</ele>
        <time>2018-07-15T09:20:49Z</time>
      </trkpt>
      <trkpt lat="45.87478" lon="4.64763">
        <ele>214</ele>
        <time>2018-07-15T09:20:50Z</time>
      </trkpt>
      <trkpt lat="45.87482" lon="4.64757">
        <ele>214</ele>
        <time>2018-07-15T09:20:51Z</time>
      </trkpt>
      <trkpt lat="45.87486" lon="4.6475">
        <ele>213</ele>
        <time>2018-07-15T09:20:52Z</time>
      </trkpt>
      <trkpt lat="45.87492" lon="4.64746">
        <ele>213</ele>
        <time>2018-07-15T09:20:53Z</time>
      </trkpt>
      <trkpt lat="45.87495" lon="4.6474">
        <ele>213</ele>
        <time>2018-07-15T09:20:54Z</time>
      </trkpt>
      <trkpt lat="45.87499" lon="4.64733">
        <ele>213</ele>
        <time>2018-07-15T09:20:55Z</time>
      </trkpt>
      <trkpt lat="45.87504" lon="4.64726">
        <ele>213</ele>
        <time>2018-07-15T09:20:56Z</time>
      </trkpt>
      <trkpt lat="45.8751" lon="4.64721">
        <ele>213</ele>
        <time>2018-07-15T09:20:57Z</time>
      </trkpt>
      <trkpt lat="45.87515" lon="4.64715">
        <ele>212</ele>
        <time>2018-07-15T09:20:58Z</time>
      </trkpt>
      <trkpt lat="45.8752" lon="4.6471">
        <ele>212</ele>
        <time>2018-07-15T09:20:59Z</time>
      </trkpt>
      <trkpt lat="45.87523" lon="4.64704">
        <ele>212</ele>
        <time>2018-07-15T09:21:00Z</time>
      </trkpt>
      <trkpt lat="45.87527" lon="4.64699">
        <ele>212</ele>
        <time>2018-07-15T09:21:01Z</time>
      </trkpt>
      <trkpt lat="45.87531" lon="4.64694">
        <ele>212</ele>
        <time>2018-07-15T09:21:02Z</time>
      </trkpt>
      <trkpt lat="45.87535" lon="4.64687">
        <ele>212</ele>
        <time>2018-07-15T09:21:03Z</time>
      </trkpt>
      <trkpt lat="45.8754" lon="4.64681">
        <ele>212</ele>
        <time>2018-07-15T09:21:04Z</time>
      </trkpt>
      <trkpt lat="45.87544" lon="4.64676">
        <ele>212</ele>
        <time>2018-07-15T09:21:05Z</time>
      </trkpt>
      <trkpt lat="45.87548" lon="4.64671">
        <ele>212</ele>
        <time>2018-07-15T09:21:06Z</time>
      </trkpt>
      <trkpt lat="45.87552" lon="4.64663">
        <ele>212</ele>
        <time>2018-07-15T09:21:07Z</time>
      </trkpt>
      <trkpt lat="45.87556" lon="4.64659">
        <ele>212</ele>
        <time>2018-07-15T09:21:08Z</time>
      </trkpt>
      <trkpt lat="45.8756" lon="4.64653">
        <ele>212</ele>
        <time>2018-07-15T09:21:09Z</time>
      </trkpt>
      <trkpt lat="45.87565" lon="4.64646">
        <ele>212</ele>
        <time>2018-07-15T09:21:10Z</time>
      </trkpt>
      <trkpt lat="45.87568" lon="4.6464">
        <ele>212</ele>
        <time>2018-07-15T09:21:11Z</time>
      </trkpt>
      <trkpt lat="45.87573" lon="4.64634">
        <ele>212</ele>
        <time>2018-07-15T09:21:12Z</time>
      </trkpt>
      <trkpt lat="45.87576" lon="4.64627">
        <ele>212</ele>
        <time>2018-07-15T09:21:13Z</time>
      </trkpt>
      <trkpt lat="45.87582" lon="4.64623">
        <ele>212</ele>
        <time>2018-07-15T09:21:14Z</time>
      </trkpt>
      <trkpt lat="45.87586" lon="4.64619">
        <ele>212</ele>
        <time>2018-07-15T09:21:15Z</time>
      </trkpt>
      <trkpt lat="45.87589" lon="4.64614">
        <ele>212</ele>
        <time>2018-07-15T09:21:16Z</time>
      </trkpt>
      <trkpt lat="45.87593" lon="4.64609">
        <ele>212</ele>
        <time>2018-07-15T09:21:17Z</time>
      </trkpt>
      <trkpt lat="45.87597" lon="4.64603">
        <ele>212</ele>
        <time>2018-07-15T09:21:18Z</time>
      </trkpt>
      <trkpt lat="45.876" lon="4.64598">
        <ele>212</ele>
        <time>2018-07-15T09:21:19Z</time>
      </trkpt>
      <trkpt lat="45.87604" lon="4.64594">
        <ele>212</ele>
        <time>2018-07-15T09:21:20Z</time>
      </trkpt>
      <trkpt lat="45.87608" lon="4.6459">
        <ele>212</ele>
        <time>2018-07-15T09:21:21Z</time>
      </trkpt>
      <trkpt lat="45.87612" lon="4.64585">
        <ele>212</ele>
        <time>2018-07-15T09:21:22Z</time>
      </trkpt>
      <trkpt lat="45.87615" lon="4.64582">
        <ele>212</ele>
        <time>2018-07-15T09:21:23Z</time>
      </trkpt>
      <trkpt lat="45.87623" lon="4.64575">
        <ele>212</ele>
        <time>2018-07-15T09:21:25Z</time>
      </trkpt>
      <trkpt lat="45.87625" lon="4.64569">
        <ele>212</ele>
        <time>2018-07-15T09:21:26Z</time>
      </trkpt>
      <trkpt lat="45.8763" lon="4.64561">
        <ele>212</ele>
        <time>2018-07-15T09:21:28Z</time>
      </trkpt>
      <trkpt lat="45.87632" lon="4.6456">
        <ele>212</ele>
        <time>2018-07-15T09:21:29Z</time>
      </trkpt>
      <trkpt lat="45.87637" lon="4.64554">
        <ele>212</ele>
        <time>2018-07-15T09:21:30Z</time>
      </trkpt>
      <trkpt lat="45.8764" lon="4.6455">
        <ele>212</ele>
        <time>2018-07-15T09:21:31Z</time>
      </trkpt>
      <trkpt lat="45.87643" lon="4.64545">
        <ele>212</ele>
        <time>2018-07-15T09:21:32Z</time>
      </trkpt>
      <trkpt lat="45.87647" lon="4.6454">
        <ele>213</ele>
        <time>2018-07-15T09:21:33Z</time>
      </trkpt>
      <trkpt lat="45.87651" lon="4.64535">
        <ele>213</ele>
        <time>2018-07-15T09:21:34Z</time>
      </trkpt>
      <trkpt lat="45.87655" lon="4.64531">
        <ele>213</ele>
        <time>2018-07-15T09:21:35Z</time>
      </trkpt>
      <trkpt lat="45.87662" lon="4.64524">
        <ele>213</ele>
        <time>2018-07-15T09:21:37Z</time>
      </trkpt>
      <trkpt lat="45.87665" lon="4.64518">
        <ele>213</ele>
        <time>2018-07-15T09:21:38Z</time>
      </trkpt>
      <trkpt lat="45.87668" lon="4.64514">
        <ele>215</ele>
        <time>2018-07-15T09:21:39Z</time>
      </trkpt>
      <trkpt lat="45.87672" lon="4.64509">
        <ele>215</ele>
        <time>2018-07-15T09:21:40Z</time>
      </trkpt>
      <trkpt lat="45.87675" lon="4.64504">
        <ele>214</ele>
        <time>2018-07-15T09:21:41Z</time>
      </trkpt>
      <trkpt lat="45.87679" lon="4.645">
        <ele>214</ele>
        <time>2018-07-15T09:21:42Z</time>
      </trkpt>
      <trkpt lat="45.87685" lon="4.64491">
        <ele>214</ele>
        <time>2018-07-15T09:21:44Z</time>
      </trkpt>
      <trkpt lat="45.87687" lon="4.64493">
        <ele>214</ele>
        <time>2018-07-15T09:21:45Z</time>
      </trkpt>
      <trkpt lat="45.87692" lon="4.64502">
        <ele>215</ele>
        <time>2018-07-15T09:21:46Z</time>
      </trkpt>
      <trkpt lat="45.87694" lon="4.64507">
        <ele>215</ele>
        <time>2018-07-15T09:21:47Z</time>
      </trkpt>
      <trkpt lat="45.87697" lon="4.64516">
        <ele>215</ele>
        <time>2018-07-15T09:21:49Z</time>
      </trkpt>
      <trkpt lat="45.877" lon="4.6452">
        <ele>215</ele>
        <time>2018-07-15T09:21:50Z</time>
      </trkpt>
      <trkpt lat="45.877" lon="4.64522">
        <ele>215</ele>
        <time>2018-07-15T09:21:51Z</time>
      </trkpt>
      <trkpt lat="45.87705" lon="4.64531">
        <ele>216</ele>
        <time>2018-07-15T09:21:52Z</time>
      </trkpt>
      <trkpt lat="45.87707" lon="4.64542">
        <ele>216</ele>
        <time>2018-07-15T09:21:55Z</time>
      </trkpt>
      <trkpt lat="45.87712" lon="4.64547">
        <ele>216</ele>
        <time>2018-07-15T09:21:56Z</time>
      </trkpt>
      <trkpt lat="45.87716" lon="4.64558">
        <ele>216</ele>
        <time>2018-07-15T09:21:58Z</time>
      </trkpt>
      <trkpt lat="45.87717" lon="4.64565">
        <ele>216</ele>
        <time>2018-07-15T09:21:59Z</time>
      </trkpt>
      <trkpt lat="45.87719" lon="4.64572">
        <ele>217</ele>
        <time>2018-07-15T09:22:00Z</time>
      </trkpt>
      <trkpt lat="45.87722" lon="4.64577">
        <ele>217</ele>
        <time>2018-07-15T09:22:01Z</time>
      </trkpt>
      <trkpt lat="45.87724" lon="4.64585">
        <ele>217</ele>
        <time>2018-07-15T09:22:02Z</time>
      </trkpt>
      <trkpt lat="45.87724" lon="4.64592">
        <ele>217</ele>
        <time>2018-07-15T09:22:03Z</time>
      </trkpt>
      <trkpt lat="45.87724" lon="4.64599">
        <ele>217</ele>
        <time>2018-07-15T09:22:04Z</time>
      </trkpt>
      <trkpt lat="45.87726" lon="4.64606">
        <ele>217</ele>
        <time>2018-07-15T09:22:05Z</time>
      </trkpt>
      <trkpt lat="45.8773" lon="4.64613">
        <ele>217</ele>
        <time>2018-07-15T09:22:06Z</time>
      </trkpt>
      <trkpt lat="45.87731" lon="4.64621">
        <ele>217</ele>
        <time>2018-07-15T09:22:07Z</time>
      </trkpt>
      <trkpt lat="45.87732" lon="4.64628">
        <ele>217</ele>
        <time>2018-07-15T09:22:08Z</time>
      </trkpt>
      <trkpt lat="45.87731" lon="4.64634">
        <ele>217</ele>
        <time>2018-07-15T09:22:09Z</time>
      </trkpt>
      <trkpt lat="45.87729" lon="4.64646">
        <ele>217</ele>
        <time>2018-07-15T09:22:11Z</time>
      </trkpt>
      <trkpt lat="45.87728" lon="4.64652">
        <ele>217</ele>
        <time>2018-07-15T09:22:12Z</time>
      </trkpt>
      <trkpt lat="45.87727" lon="4.6466">
        <ele>217</ele>
        <time>2018-07-15T09:22:13Z</time>
      </trkpt>
      <trkpt lat="45.87726" lon="4.64667">
        <ele>216</ele>
        <time>2018-07-15T09:22:14Z</time>
      </trkpt>
      <trkpt lat="45.87724" lon="4.64675">
        <ele>216</ele>
        <time>2018-07-15T09:22:15Z</time>
      </trkpt>
      <trkpt lat="45.87723" lon="4.64683">
        <ele>216</ele>
        <time>2018-07-15T09:22:16Z</time>
      </trkpt>
      <trkpt lat="45.87724" lon="4.64692">
        <ele>216</ele>
        <time>2018-07-15T09:22:17Z</time>
      </trkpt>
      <trkpt lat="45.87724" lon="4.64701">
        <ele>215</ele>
        <time>2018-07-15T09:22:18Z</time>
      </trkpt>
      <trkpt lat="45.87722" lon="4.64707">
        <ele>215</ele>
        <time>2018-07-15T09:22:19Z</time>
      </trkpt>
      <trkpt lat="45.87722" lon="4.64714">
        <ele>215</ele>
        <time>2018-07-15T09:22:20Z</time>
      </trkpt>
      <trkpt lat="45.87724" lon="4.64722">
        <ele>215</ele>
        <time>2018-07-15T09:22:21Z</time>
      </trkpt>
      <trkpt lat="45.87727" lon="4.64728">
        <ele>215</ele>
        <time>2018-07-15T09:22:22Z</time>
      </trkpt>
      <trkpt lat="45.87729" lon="4.64734">
        <ele>214</ele>
        <time>2018-07-15T09:22:23Z</time>
      </trkpt>
      <trkpt lat="45.8773" lon="4.64741">
        <ele>214</ele>
        <time>2018-07-15T09:22:24Z</time>
      </trkpt>
      <trkpt lat="45.87733" lon="4.64746">
        <ele>214</ele>
        <time>2018-07-15T09:22:25Z</time>
      </trkpt>
      <trkpt lat="45.87734" lon="4.64754">
        <ele>213</ele>
        <time>2018-07-15T09:22:26Z</time>
      </trkpt>
      <trkpt lat="45.87735" lon="4.64766">
        <ele>213</ele>
        <time>2018-07-15T09:22:28Z</time>
      </trkpt>
      <trkpt lat="45.87736" lon="4.64772">
        <ele>213</ele>
        <time>2018-07-15T09:22:29Z</time>
      </trkpt>
      <trkpt lat="45.87738" lon="4.64779">
        <ele>213</ele>
        <time>2018-07-15T09:22:30Z</time>
      </trkpt>
      <trkpt lat="45.87739" lon="4.64786">
        <ele>213</ele>
        <time>2018-07-15T09:22:31Z</time>
      </trkpt>
      <trkpt lat="45.87742" lon="4.64791">
        <ele>213</ele>
        <time>2018-07-15T09:22:32Z</time>
      </trkpt>
      <trkpt lat="45.87745" lon="4.64796">
        <ele>214</ele>
        <time>2018-07-15T09:22:33Z</time>
      </trkpt>
      <trkpt lat="45.87747" lon="4.64801">
        <ele>214</ele>
        <time>2018-07-15T09:22:34Z</time>
      </trkpt>
      <trkpt lat="45.8775" lon="4.64806">
        <ele>214</ele>
        <time>2018-07-15T09:22:35Z</time>
      </trkpt>
      <trkpt lat="45.87754" lon="4.64811">
        <ele>214</ele>
        <time>2018-07-15T09:22:36Z</time>
      </trkpt>
      <trkpt lat="45.87758" lon="4.64817">
        <ele>214</ele>
        <time>2018-07-15T09:22:37Z</time>
      </trkpt>
      <trkpt lat="45.87762" lon="4.64821">
        <ele>214</ele>
        <time>2018-07-15T09:22:38Z</time>
      </trkpt>
      <trkpt lat="45.87765" lon="4.64826">
        <ele>214</ele>
        <time>2018-07-15T09:22:39Z</time>
      </trkpt>
      <trkpt lat="45.8777" lon="4.64836">
        <ele>216</ele>
        <time>2018-07-15T09:22:41Z</time>
      </trkpt>
      <trkpt lat="45.87771" lon="4.6484">
        <ele>217</ele>
        <time>2018-07-15T09:22:42Z</time>
      </trkpt>
      <trkpt lat="45.87776" lon="4.64848">
        <ele>217</ele>
        <time>2018-07-15T09:22:45Z</time>
      </trkpt>
      <trkpt lat="45.87776" lon="4.64851">
        <ele>217</ele>
        <time>2018-07-15T09:22:46Z</time>
      </trkpt>
      <trkpt lat="45.8778" lon="4.6486">
        <ele>218</ele>
        <time>2018-07-15T09:22:48Z</time>
      </trkpt>
      <trkpt lat="45.87782" lon="4.64862">
        <ele>218</ele>
        <time>2018-07-15T09:22:49Z</time>
      </trkpt>
      <trkpt lat="45.87787" lon="4.64872">
        <ele>218</ele>
        <time>2018-07-15T09:22:53Z</time>
      </trkpt>
      <trkpt lat="45.87788" lon="4.64875">
        <ele>218</ele>
        <time>2018-07-15T09:22:54Z</time>
      </trkpt>
      <trkpt lat="45.87794" lon="4.64885">
        <ele>219</ele>
        <time>2018-07-15T09:22:57Z</time>
      </trkpt>
      <trkpt lat="45.87795" lon="4.64888">
        <ele>219</ele>
        <time>2018-07-15T09:22:58Z</time>
      </trkpt>
      <trkpt lat="45.878" lon="4.64897">
        <ele>219</ele>
        <time>2018-07-15T09:23:01Z</time>
      </trkpt>
      <trkpt lat="45.87802" lon="4.649">
        <ele>220</ele>
        <time>2018-07-15T09:23:02Z</time>
      </trkpt>
      <trkpt lat="45.87806" lon="4.64908">
        <ele>220</ele>
        <time>2018-07-15T09:23:04Z</time>
      </trkpt>
      <trkpt lat="45.87807" lon="4.64911">
        <ele>220</ele>
        <time>2018-07-15T09:23:05Z</time>
      </trkpt>
      <trkpt lat="45.87811" lon="4.64921">
        <ele>224</ele>
        <time>2018-07-15T09:23:08Z</time>
      </trkpt>
      <trkpt lat="45.87812" lon="4.64924">
        <ele>224</ele>
        <time>2018-07-15T09:23:09Z</time>
      </trkpt>
      <trkpt lat="45.87816" lon="4.64935">
        <ele>225</ele>
        <time>2018-07-15T09:23:13Z</time>
      </trkpt>
      <trkpt lat="45.87817" lon="4.64937">
        <ele>225</ele>
        <time>2018-07-15T09:23:14Z</time>
      </trkpt>
      <trkpt lat="45.87824" lon="4.64945">
        <ele>225</ele>
        <time>2018-07-15T09:23:18Z</time>
      </trkpt>
      <trkpt lat="45.87826" lon="4.64947">
        <ele>225</ele>
        <time>2018-07-15T09:23:19Z</time>
      </trkpt>
      <trkpt lat="45.87832" lon="4.64952">
        <ele>226</ele>
        <time>2018-07-15T09:23:22Z</time>
      </trkpt>
      <trkpt lat="45.87834" lon="4.64954">
        <ele>228</ele>
        <time>2018-07-15T09:23:23Z</time>
      </trkpt>
      <trkpt lat="45.8784" lon="4.64961">
        <ele>228</ele>
        <time>2018-07-15T09:23:26Z</time>
      </trkpt>
      <trkpt lat="45.87842" lon="4.64963">
        <ele>228</ele>
        <time>2018-07-15T09:23:27Z</time>
      </trkpt>
      <trkpt lat="45.87848" lon="4.64968">
        <ele>229</ele>
        <time>2018-07-15T09:23:30Z</time>
      </trkpt>
      <trkpt lat="45.8785" lon="4.6497">
        <ele>229</ele>
        <time>2018-07-15T09:23:31Z</time>
      </trkpt>
      <trkpt lat="45.87857" lon="4.64974">
        <ele>229</ele>
        <time>2018-07-15T09:23:34Z</time>
      </trkpt>
      <trkpt lat="45.87859" lon="4.64975">
        <ele>229</ele>
        <time>2018-07-15T09:23:35Z</time>
      </trkpt>
      <trkpt lat="45.87866" lon="4.64978">
        <ele>230</ele>
        <time>2018-07-15T09:23:38Z</time>
      </trkpt>
      <trkpt lat="45.87869" lon="4.64979">
        <ele>230</ele>
        <time>2018-07-15T09:23:39Z</time>
      </trkpt>
      <trkpt lat="45.87876" lon="4.64982">
        <ele>230</ele>
        <time>2018-07-15T09:23:42Z</time>
      </trkpt>
      <trkpt lat="45.87878" lon="4.64983">
        <ele>230</ele>
        <time>2018-07-15T09:23:43Z</time>
      </trkpt>
      <trkpt lat="45.87886" lon="4.64985">
        <ele>231</ele>
        <time>2018-07-15T09:23:46Z</time>
      </trkpt>
      <trkpt lat="45.87888" lon="4.64985">
        <ele>231</ele>
        <time>2018-07-15T09:23:47Z</time>
      </trkpt>
      <trkpt lat="45.87895" lon="4.64987">
        <ele>232</ele>
        <time>2018-07-15T09:23:50Z</time>
      </trkpt>
      <trkpt lat="45.87897" lon="4.64987">
        <ele>232</ele>
        <time>2018-07-15T09:23:51Z</time>
      </trkpt>
      <trkpt lat="45.87905" lon="4.64987">
        <ele>233</ele>
        <time>2018-07-15T09:23:55Z</time>
      </trkpt>
      <trkpt lat="45.87908" lon="4.64987">
        <ele>233</ele>
        <time>2018-07-15T09:23:56Z</time>
      </trkpt>
      <trkpt lat="45.87916" lon="4.64985">
        <ele>233</ele>
        <time>2018-07-15T09:24:00Z</time>
      </trkpt>
      <trkpt lat="45.87918" lon="4.64985">
        <ele>237</ele>
        <time>2018-07-15T09:24:01Z</time>
      </trkpt>
      <trkpt lat="45.87927" lon="4.64983">
        <ele>237</ele>
        <time>2018-07-15T09:24:05Z</time>
      </trkpt>
      <trkpt lat="45.87929" lon="4.64983">
        <ele>237</ele>
        <time>2018-07-15T09:24:06Z</time>
      </trkpt>
      <trkpt lat="45.87936" lon="4.64981">
        <ele>237</ele>
        <time>2018-07-15T09:24:09Z</time>
      </trkpt>
      <trkpt lat="45.87938" lon="4.6498">
        <ele>237</ele>
        <time>2018-07-15T09:24:10Z</time>
      </trkpt>
      <trkpt lat="45.87945" lon="4.64975">
        <ele>237</ele>
        <time>2018-07-15T09:24:13Z</time>
      </trkpt>
      <trkpt lat="45.87947" lon="4.64974">
        <ele>237</ele>
        <time>2018-07-15T09:24:14Z</time>
      </trkpt>
      <trkpt lat="45.87954" lon="4.64969">
        <ele>237</ele>
        <time>2018-07-15T09:24:17Z</time>
      </trkpt>
      <trkpt lat="45.87956" lon="4.64967">
        <ele>237</ele>
        <time>2018-07-15T09:24:18Z</time>
      </trkpt>
      <trkpt lat="45.87964" lon="4.64964">
        <ele>238</ele>
        <time>2018-07-15T09:24:22Z</time>
      </trkpt>
      <trkpt lat="45.87966" lon="4.64962">
        <ele>238</ele>
        <time>2018-07-15T09:24:23Z</time>
      </trkpt>
      <trkpt lat="45.87974" lon="4.64957">
        <ele>238</ele>
        <time>2018-07-15T09:24:27Z</time>
      </trkpt>
      <trkpt lat="45.87975" lon="4.64956">
        <ele>238</ele>
        <time>2018-07-15T09:24:28Z</time>
      </trkpt>
      <trkpt lat="45.87981" lon="4.64951">
        <ele>238</ele>
        <time>2018-07-15T09:24:31Z</time>
      </trkpt>
      <trkpt lat="45.87984" lon="4.64949">
        <ele>237</ele>
        <time>2018-07-15T09:24:32Z</time>
      </trkpt>
      <trkpt lat="45.87989" lon="4.64942">
        <ele>237</ele>
        <time>2018-07-15T09:24:35Z</time>
      </trkpt>
      <trkpt lat="45.87991" lon="4.6494">
        <ele>237</ele>
        <time>2018-07-15T09:24:36Z</time>
      </trkpt>
      <trkpt lat="45.87997" lon="4.64935">
        <ele>236</ele>
        <time>2018-07-15T09:24:39Z</time>
      </trkpt>
      <trkpt lat="45.87999" lon="4.64933">
        <ele>236</ele>
        <time>2018-07-15T09:24:40Z</time>
      </trkpt>
      <trkpt lat="45.88006" lon="4.64928">
        <ele>242</ele>
        <time>2018-07-15T09:24:44Z</time>
      </trkpt>
      <trkpt lat="45.88008" lon="4.64927">
        <ele>242</ele>
        <time>2018-07-15T09:24:45Z</time>
      </trkpt>
      <trkpt lat="45.88015" lon="4.64923">
        <ele>243</ele>
        <time>2018-07-15T09:24:49Z</time>
      </trkpt>
      <trkpt lat="45.88017" lon="4.64922">
        <ele>244</ele>
        <time>2018-07-15T09:24:50Z</time>
      </trkpt>
      <trkpt lat="45.88022" lon="4.64917">
        <ele>245</ele>
        <time>2018-07-15T09:24:53Z</time>
      </trkpt>
      <trkpt lat="45.88024" lon="4.64915">
        <ele>238</ele>
        <time>2018-07-15T09:24:54Z</time>
      </trkpt>
      <trkpt lat="45.88031" lon="4.6491">
        <ele>238</ele>
        <time>2018-07-15T09:24:57Z</time>
      </trkpt>
      <trkpt lat="45.88033" lon="4.64908">
        <ele>239</ele>
        <time>2018-07-15T09:24:58Z</time>
      </trkpt>
      <trkpt lat="45.88038" lon="4.649">
        <ele>239</ele>
        <time>2018-07-15T09:25:01Z</time>
      </trkpt>
      <trkpt lat="45.8804" lon="4.64898">
        <ele>239</ele>
        <time>2018-07-15T09:25:02Z</time>
      </trkpt>
      <trkpt lat="45.88045" lon="4.64891">
        <ele>239</ele>
        <time>2018-07-15T09:25:05Z</time>
      </trkpt>
      <trkpt lat="45.88047" lon="4.64889">
        <ele>239</ele>
        <time>2018-07-15T09:25:06Z</time>
      </trkpt>
      <trkpt lat="45.88054" lon="4.64883">
        <ele>239</ele>
        <time>2018-07-15T09:25:10Z</time>
      </trkpt>
      <trkpt lat="45.88056" lon="4.64881">
        <ele>240</ele>
        <time>2018-07-15T09:25:11Z</time>
      </trkpt>
      <trkpt lat="45.88062" lon="4.64876">
        <ele>239</ele>
        <time>2018-07-15T09:25:14Z</time>
      </trkpt>
      <trkpt lat="45.88064" lon="4.64874">
        <ele>239</ele>
        <time>2018-07-15T09:25:15Z</time>
      </trkpt>
      <trkpt lat="45.8807" lon="4.64868">
        <ele>239</ele>
        <time>2018-07-15T09:25:18Z</time>
      </trkpt>
      <trkpt lat="45.88073" lon="4.64866">
        <ele>239</ele>
        <time>2018-07-15T09:25:19Z</time>
      </trkpt>
      <trkpt lat="45.88079" lon="4.64864">
        <ele>239</ele>
        <time>2018-07-15T09:25:22Z</time>
      </trkpt>
      <trkpt lat="45.88081" lon="4.64863">
        <ele>239</ele>
        <time>2018-07-15T09:25:23Z</time>
      </trkpt>
      <trkpt lat="45.88088" lon="4.64861">
        <ele>245</ele>
        <time>2018-07-15T09:25:26Z</time>
      </trkpt>
      <trkpt lat="45.8809" lon="4.6486">
        <ele>245</ele>
        <time>2018-07-15T09:25:27Z</time>
      </trkpt>
      <trkpt lat="45.88097" lon="4.64857">
        <ele>245</ele>
        <time>2018-07-15T09:25:30Z</time>
      </trkpt>
      <trkpt lat="45.88099" lon="4.64856">
        <ele>245</ele>
        <time>2018-07-15T09:25:31Z</time>
      </trkpt>
      <trkpt lat="45.88107" lon="4.64853">
        <ele>246</ele>
        <time>2018-07-15T09:25:35Z</time>
      </trkpt>
      <trkpt lat="45.88109" lon="4.64852">
        <ele>246</ele>
        <time>2018-07-15T09:25:36Z</time>
      </trkpt>
      <trkpt lat="45.88116" lon="4.64848">
        <ele>246</ele>
        <time>2018-07-15T09:25:40Z</time>
      </trkpt>
      <trkpt lat="45.88118" lon="4.64848">
        <ele>246</ele>
        <time>2018-07-15T09:25:41Z</time>
      </trkpt>
      <trkpt lat="45.88126" lon="4.64847">
        <ele>247</ele>
        <time>2018-07-15T09:25:45Z</time>
      </trkpt>
      <trkpt lat="45.88128" lon="4.64847">
        <ele>247</ele>
        <time>2018-07-15T09:25:46Z</time>
      </trkpt>
      <trkpt lat="45.88136" lon="4.64846">
        <ele>247</ele>
        <time>2018-07-15T09:25:50Z</time>
      </trkpt>
      <trkpt lat="45.88139" lon="4.64845">
        <ele>247</ele>
        <time>2018-07-15T09:25:51Z</time>
      </trkpt>
      <trkpt lat="45.88147" lon="4.64845">
        <ele>247</ele>
        <time>2018-07-15T09:25:55Z</time>
      </trkpt>
      <trkpt lat="45.88149" lon="4.64845">
        <ele>247</ele>
        <time>2018-07-15T09:25:56Z</time>
      </trkpt>
      <trkpt lat="45.88157" lon="4.64846">
        <ele>247</ele>
        <time>2018-07-15T09:26:00Z</time>
      </trkpt>
      <trkpt lat="45.88158" lon="4.64845">
        <ele>247</ele>
        <time>2018-07-15T09:26:01Z</time>
      </trkpt>
      <trkpt lat="45.88165" lon="4.64843">
        <ele>247</ele>
        <time>2018-07-15T09:26:05Z</time>
      </trkpt>
      <trkpt lat="45.88167" lon="4.64842">
        <ele>249</ele>
        <time>2018-07-15T09:26:06Z</time>
      </trkpt>
      <trkpt lat="45.88174" lon="4.6484">
        <ele>249</ele>
        <time>2018-07-15T09:26:09Z</time>
      </trkpt>
      <trkpt lat="45.88176" lon="4.6484">
        <ele>250</ele>
        <time>2018-07-15T09:26:10Z</time>
      </trkpt>
      <trkpt lat="45.88185" lon="4.64839">
        <ele>252</ele>
        <time>2018-07-15T09:26:14Z</time>
      </trkpt>
      <trkpt lat="45.88187" lon="4.64839">
        <ele>252</ele>
        <time>2018-07-15T09:26:15Z</time>
      </trkpt>
      <trkpt lat="45.88194" lon="4.64837">
        <ele>254</ele>
        <time>2018-07-15T09:26:18Z</time>
      </trkpt>
      <trkpt lat="45.88196" lon="4.64836">
        <ele>254</ele>
        <time>2018-07-15T09:26:19Z</time>
      </trkpt>
      <trkpt lat="45.88203" lon="4.64834">
        <ele>255</ele>
        <time>2018-07-15T09:26:22Z</time>
      </trkpt>
      <trkpt lat="45.88205" lon="4.64833">
        <ele>246</ele>
        <time>2018-07-15T09:26:23Z</time>
      </trkpt>
      <trkpt lat="45.88213" lon="4.64831">
        <ele>247</ele>
        <time>2018-07-15T09:26:26Z</time>
      </trkpt>
      <trkpt lat="45.88215" lon="4.64831">
        <ele>247</ele>
        <time>2018-07-15T09:26:27Z</time>
      </trkpt>
      <trkpt lat="45.88222" lon="4.64828">
        <ele>248</ele>
        <time>2018-07-15T09:26:30Z</time>
      </trkpt>
      <trkpt lat="45.88224" lon="4.64827">
        <ele>248</ele>
        <time>2018-07-15T09:26:31Z</time>
      </trkpt>
      <trkpt lat="45.88231" lon="4.64823">
        <ele>249</ele>
        <time>2018-07-15T09:26:34Z</time>
      </trkpt>
      <trkpt lat="45.88233" lon="4.64822">
        <ele>249</ele>
        <time>2018-07-15T09:26:35Z</time>
      </trkpt>
      <trkpt lat="45.88241" lon="4.64818">
        <ele>250</ele>
        <time>2018-07-15T09:26:39Z</time>
      </trkpt>
      <trkpt lat="45.88243" lon="4.64817">
        <ele>250</ele>
        <time>2018-07-15T09:26:40Z</time>
      </trkpt>
      <trkpt lat="45.88251" lon="4.64814">
        <ele>257</ele>
        <time>2018-07-15T09:26:44Z</time>
      </trkpt>
      <trkpt lat="45.88252" lon="4.64814">
        <ele>257</ele>
        <time>2018-07-15T09:26:45Z</time>
      </trkpt>
      <trkpt lat="45.88259" lon="4.6481">
        <ele>257</ele>
        <time>2018-07-15T09:26:49Z</time>
      </trkpt>
      <trkpt lat="45.88261" lon="4.6481">
        <ele>257</ele>
        <time>2018-07-15T09:26:50Z</time>
      </trkpt>
      <trkpt lat="45.88269" lon="4.64807">
        <ele>257</ele>
        <time>2018-07-15T09:26:54Z</time>
      </trkpt>
      <trkpt lat="45.88271" lon="4.64806">
        <ele>257</ele>
        <time>2018-07-15T09:26:55Z</time>
      </trkpt>
      <trkpt lat="45.88279" lon="4.64804">
        <ele>257</ele>
        <time>2018-07-15T09:26:59Z</time>
      </trkpt>
      <trkpt lat="45.88281" lon="4.64803">
        <ele>257</ele>
        <time>2018-07-15T09:27:00Z</time>
      </trkpt>
      <trkpt lat="45.88289" lon="4.648">
        <ele>258</ele>
        <time>2018-07-15T09:27:04Z</time>
      </trkpt>
      <trkpt lat="45.88291" lon="4.648">
        <ele>258</ele>
        <time>2018-07-15T09:27:05Z</time>
      </trkpt>
      <trkpt lat="45.88298" lon="4.64799">
        <ele>259</ele>
        <time>2018-07-15T09:27:09Z</time>
      </trkpt>
      <trkpt lat="45.883" lon="4.64799">
        <ele>259</ele>
        <time>2018-07-15T09:27:10Z</time>
      </trkpt>
      <trkpt lat="45.88308" lon="4.64798">
        <ele>259</ele>
        <time>2018-07-15T09:27:14Z</time>
      </trkpt>
      <trkpt lat="45.8831" lon="4.64797">
        <ele>259</ele>
        <time>2018-07-15T09:27:15Z</time>
      </trkpt>
      <trkpt lat="45.88317" lon="4.64795">
        <ele>260</ele>
        <time>2018-07-15T09:27:19Z</time>
      </trkpt>
      <trkpt lat="45.88319" lon="4.64795">
        <ele>260</ele>
        <time>2018-07-15T09:27:20Z</time>
      </trkpt>
      <trkpt lat="45.88327" lon="4.64794">
        <ele>260</ele>
        <time>2018-07-15T09:27:25Z</time>
      </trkpt>
      <trkpt lat="45.88328" lon="4.64794">
        <ele>260</ele>
        <time>2018-07-15T09:27:26Z</time>
      </trkpt>
      <trkpt lat="45.88337" lon="4.64793">
        <ele>267</ele>
        <time>2018-07-15T09:27:31Z</time>
      </trkpt>
      <trkpt lat="45.88339" lon="4.64793">
        <ele>267</ele>
        <time>2018-07-15T09:27:32Z</time>
      </trkpt>
      <trkpt lat="45.88347" lon="4.64791">
        <ele>266</ele>
        <time>2018-07-15T09:27:36Z</time>
      </trkpt>
      <trkpt lat="45.88349" lon="4.6479">
        <ele>266</ele>
        <time>2018-07-15T09:27:37Z</time>
      </trkpt>
      <trkpt lat="45.88357" lon="4.64789">
        <ele>267</ele>
        <time>2018-07-15T09:27:41Z</time>
      </trkpt>
      <trkpt lat="45.88359" lon="4.64789">
        <ele>267</ele>
        <time>2018-07-15T09:27:42Z</time>
      </trkpt>
      <trkpt lat="45.88368" lon="4.64788">
        <ele>267</ele>
        <time>2018-07-15T09:27:47Z</time>
      </trkpt>
      <trkpt lat="45.88369" lon="4.64788">
        <ele>267</ele>
        <time>2018-07-15T09:27:48Z</time>
      </trkpt>
      <trkpt lat="45.88377" lon="4.64786">
        <ele>267</ele>
        <time>2018-07-15T09:27:52Z</time>
      </trkpt>
      <trkpt lat="45.88379" lon="4.64785">
        <ele>267</ele>
        <time>2018-07-15T09:27:53Z</time>
      </trkpt>
      <trkpt lat="45.88387" lon="4.64785">
        <ele>267</ele>
        <time>2018-07-15T09:27:57Z</time>
      </trkpt>
      <trkpt lat="45.88389" lon="4.64785">
        <ele>267</ele>
        <time>2018-07-15T09:27:58Z</time>
      </trkpt>
      <trkpt lat="45.88397" lon="4.64783">
        <ele>267</ele>
        <time>2018-07-15T09:28:02Z</time>
      </trkpt>
      <trkpt lat="45.88399" lon="4.64782">
        <ele>267</ele>
        <time>2018-07-15T09:28:03Z</time>
      </trkpt>
      <trkpt lat="45.88406" lon="4.6478">
        <ele>267</ele>
        <time>2018-07-15T09:28:06Z</time>
      </trkpt>
      <trkpt lat="45.88408" lon="4.6478">
        <ele>267</ele>
        <time>2018-07-15T09:28:07Z</time>
      </trkpt>
      <trkpt lat="45.88417" lon="4.64778">
        <ele>270</ele>
        <time>2018-07-15T09:28:11Z</time>
      </trkpt>
      <trkpt lat="45.88419" lon="4.64778">
        <ele>270</ele>
        <time>2018-07-15T09:28:12Z</time>
      </trkpt>
      <trkpt lat="45.88427" lon="4.64777">
        <ele>270</ele>
        <time>2018-07-15T09:28:16Z</time>
      </trkpt>
      <trkpt lat="45.88429" lon="4.64776">
        <ele>270</ele>
        <time>2018-07-15T09:28:17Z</time>
      </trkpt>
      <trkpt lat="45.88436" lon="4.64775">
        <ele>270</ele>
        <time>2018-07-15T09:28:21Z</time>
      </trkpt>
      <trkpt lat="45.88438" lon="4.64775">
        <ele>270</ele>
        <time>2018-07-15T09:28:22Z</time>
      </trkpt>
      <trkpt lat="45.88447" lon="4.64775">
        <ele>270</ele>
        <time>2018-07-15T09:28:27Z</time>
      </trkpt>
      <trkpt lat="45.88449" lon="4.64775">
        <ele>271</ele>
        <time>2018-07-15T09:28:28Z</time>
      </trkpt>
      <trkpt lat="45.88457" lon="4.64775">
        <ele>271</ele>
        <time>2018-07-15T09:28:32Z</time>
      </trkpt>
      <trkpt lat="45.88459" lon="4.64774">
        <ele>271</ele>
        <time>2018-07-15T09:28:33Z</time>
      </trkpt>
      <trkpt lat="45.88468" lon="4.64774">
        <ele>271</ele>
        <time>2018-07-15T09:28:37Z</time>
      </trkpt>
      <trkpt lat="45.88471" lon="4.64774">
        <ele>271</ele>
        <time>2018-07-15T09:28:38Z</time>
      </trkpt>
      <trkpt lat="45.88478" lon="4.64774">
        <ele>271</ele>
        <time>2018-07-15T09:28:41Z</time>
      </trkpt>
      <trkpt lat="45.8848" lon="4.64774">
        <ele>271</ele>
        <time>2018-07-15T09:28:42Z</time>
      </trkpt>
      <trkpt lat="45.88488" lon="4.64773">
        <ele>271</ele>
        <time>2018-07-15T09:28:45Z</time>
      </trkpt>
      <trkpt lat="45.88491" lon="4.64773">
        <ele>271</ele>
        <time>2018-07-15T09:28:46Z</time>
      </trkpt>
      <trkpt lat="45.88498" lon="4.64772">
        <ele>270</ele>
        <time>2018-07-15T09:28:49Z</time>
      </trkpt>
      <trkpt lat="45.88501" lon="4.64772">
        <ele>270</ele>
        <time>2018-07-15T09:28:50Z</time>
      </trkpt>
      <trkpt lat="45.88508" lon="4.64772">
        <ele>270</ele>
        <time>2018-07-15T09:28:53Z</time>
      </trkpt>
      <trkpt lat="45.8851" lon="4.64772">
        <ele>270</ele>
        <time>2018-07-15T09:28:54Z</time>
      </trkpt>
      <trkpt lat="45.88517" lon="4.64772">
        <ele>271</ele>
        <time>2018-07-15T09:28:57Z</time>
      </trkpt>
      <trkpt lat="45.88519" lon="4.64773">
        <ele>271</ele>
        <time>2018-07-15T09:28:58Z</time>
      </trkpt>
      <trkpt lat="45.88526" lon="4.64775">
        <ele>271</ele>
        <time>2018-07-15T09:29:01Z</time>
      </trkpt>
      <trkpt lat="45.88528" lon="4.64776">
        <ele>271</ele>
        <time>2018-07-15T09:29:02Z</time>
      </trkpt>
      <trkpt lat="45.88535" lon="4.64782">
        <ele>271</ele>
        <time>2018-07-15T09:29:06Z</time>
      </trkpt>
      <trkpt lat="45.88537" lon="4.64784">
        <ele>271</ele>
        <time>2018-07-15T09:29:07Z</time>
      </trkpt>
      <trkpt lat="45.88543" lon="4.64793">
        <ele>272</ele>
        <time>2018-07-15T09:29:11Z</time>
      </trkpt>
      <trkpt lat="45.88544" lon="4.64795">
        <ele>272</ele>
        <time>2018-07-15T09:29:12Z</time>
      </trkpt>
      <trkpt lat="45.88547" lon="4.64806">
        <ele>272</ele>
        <time>2018-07-15T09:29:16Z</time>
      </trkpt>
      <trkpt lat="45.88548" lon="4.64808">
        <ele>272</ele>
        <time>2018-07-15T09:29:17Z</time>
      </trkpt>
      <trkpt lat="45.88549" lon="4.64818">
        <ele>273</ele>
        <time>2018-07-15T09:29:20Z</time>
      </trkpt>
      <trkpt lat="45.8855" lon="4.64821">
        <ele>273</ele>
        <time>2018-07-15T09:29:21Z</time>
      </trkpt>
      <trkpt lat="45.8855" lon="4.64833">
        <ele>273</ele>
        <time>2018-07-15T09:29:25Z</time>
      </trkpt>
      <trkpt lat="45.8855" lon="4.64836">
        <ele>276</ele>
        <time>2018-07-15T09:29:26Z</time>
      </trkpt>
      <trkpt lat="45.88547" lon="4.64847">
        <ele>277</ele>
        <time>2018-07-15T09:29:30Z</time>
      </trkpt>
      <trkpt lat="45.88546" lon="4.6485">
        <ele>277</ele>
        <time>2018-07-15T09:29:31Z</time>
      </trkpt>
      <trkpt lat="45.88545" lon="4.6486">
        <ele>277</ele>
        <time>2018-07-15T09:29:34Z</time>
      </trkpt>
      <trkpt lat="45.88544" lon="4.64863">
        <ele>277</ele>
        <time>2018-07-15T09:29:35Z</time>
      </trkpt>
      <trkpt lat="45.88543" lon="4.64875">
        <ele>277</ele>
        <time>2018-07-15T09:29:39Z</time>
      </trkpt>
      <trkpt lat="45.88543" lon="4.64878">
        <ele>277</ele>
        <time>2018-07-15T09:29:40Z</time>
      </trkpt>
      <trkpt lat="45.8854" lon="4.6489">
        <ele>278</ele>
        <time>2018-07-15T09:29:44Z</time>
      </trkpt>
      <trkpt lat="45.88539" lon="4.64893">
        <ele>278</ele>
        <time>2018-07-15T09:29:45Z</time>
      </trkpt>
      <trkpt lat="45.88537" lon="4.64905">
        <ele>278</ele>
        <time>2018-07-15T09:29:49Z</time>
      </trkpt>
      <trkpt lat="45.88537" lon="4.64908">
        <ele>278</ele>
        <time>2018-07-15T09:29:50Z</time>
      </trkpt>
      <trkpt lat="45.88536" lon="4.64917">
        <ele>280</ele>
        <time>2018-07-15T09:29:53Z</time>
      </trkpt>
      <trkpt lat="45.88535" lon="4.6492">
        <ele>280</ele>
        <time>2018-07-15T09:29:54Z</time>
      </trkpt>
      <trkpt lat="45.88534" lon="4.6493">
        <ele>281</ele>
        <time>2018-07-15T09:29:57Z</time>
      </trkpt>
      <trkpt lat="45.88534" lon="4.64934">
        <ele>281</ele>
        <time>2018-07-15T09:29:58Z</time>
      </trkpt>
      <trkpt lat="45.88532" lon="4.64944">
        <ele>281</ele>
        <time>2018-07-15T09:30:01Z</time>
      </trkpt>
      <trkpt lat="45.88531" lon="4.64947">
        <ele>281</ele>
        <time>2018-07-15T09:30:02Z</time>
      </trkpt>
      <trkpt lat="45.8853" lon="4.64956">
        <ele>281</ele>
        <time>2018-07-15T09:30:05Z</time>
      </trkpt>
      <trkpt lat="45.88529" lon="4.6496">
        <ele>281</ele>
        <time>2018-07-15T09:30:06Z</time>
      </trkpt>
      <trkpt lat="45.88528" lon="4.6497">
        <ele>282</ele>
        <time>2018-07-15T09:30:09Z</time>
      </trkpt>
      <trkpt lat="45.88528" lon="4.64973">
        <ele>282</ele>
        <time>2018-07-15T09:30:10Z</time>
      </trkpt>
      <trkpt lat="45.88527" lon="4.64983">
        <ele>283</ele>
        <time>2018-07-15T09:30:13Z</time>
      </trkpt>
      <trkpt lat="45.88526" lon="4.64986">
        <ele>283</ele>
        <time>2018-07-15T09:30:14Z</time>
      </trkpt>
      <trkpt lat="45.88524" lon="4.64998">
        <ele>283</ele>
        <time>2018-07-15T09:30:18Z</time>
      </trkpt>
      <trkpt lat="45.88523" lon="4.65">
        <ele>285</ele>
        <time>2018-07-15T09:30:19Z</time>
      </trkpt>
      <trkpt lat="45.88521" lon="4.65011">
        <ele>285</ele>
        <time>2018-07-15T09:30:23Z</time>
      </trkpt>
      <trkpt lat="45.88521" lon="4.65013">
        <ele>285</ele>
        <time>2018-07-15T09:30:24Z</time>
      </trkpt>
      <trkpt lat="45.88518" lon="4.65025">
        <ele>285</ele>
        <time>2018-07-15T09:30:28Z</time>
      </trkpt>
      <trkpt lat="45.88517" lon="4.65028">
        <ele>285</ele>
        <time>2018-07-15T09:30:29Z</time>
      </trkpt>
      <trkpt lat="45.88515" lon="4.6504">
        <ele>285</ele>
        <time>2018-07-15T09:30:33Z</time>
      </trkpt>
      <trkpt lat="45.88514" lon="4.65043">
        <ele>285</ele>
        <time>2018-07-15T09:30:34Z</time>
      </trkpt>
      <trkpt lat="45.88511" lon="4.65054">
        <ele>286</ele>
        <time>2018-07-15T09:30:38Z</time>
      </trkpt>
      <trkpt lat="45.8851" lon="4.65056">
        <ele>286</ele>
        <time>2018-07-15T09:30:39Z</time>
      </trkpt>
      <trkpt lat="45.88507" lon="4.65067">
        <ele>287</ele>
        <time>2018-07-15T09:30:43Z</time>
      </trkpt>
      <trkpt lat="45.88506" lon="4.65069">
        <ele>287</ele>
        <time>2018-07-15T09:30:44Z</time>
      </trkpt>
      <trkpt lat="45.88502" lon="4.65079">
        <ele>289</ele>
        <time>2018-07-15T09:30:48Z</time>
      </trkpt>
      <trkpt lat="45.88501" lon="4.65082">
        <ele>290</ele>
        <time>2018-07-15T09:30:49Z</time>
      </trkpt>
      <trkpt lat="45.88497" lon="4.65091">
        <ele>291</ele>
        <time>2018-07-15T09:30:53Z</time>
      </trkpt>
      <trkpt lat="45.88495" lon="4.65093">
        <ele>291</ele>
        <time>2018-07-15T09:30:54Z</time>
      </trkpt>
      <trkpt lat="45.88491" lon="4.65101">
        <ele>292</ele>
        <time>2018-07-15T09:30:58Z</time>
      </trkpt>
      <trkpt lat="45.88489" lon="4.65103">
        <ele>292</ele>
        <time>2018-07-15T09:30:59Z</time>
      </trkpt>
      <trkpt lat="45.88484" lon="4.65111">
        <ele>293</ele>
        <time>2018-07-15T09:31:03Z</time>
      </trkpt>
      <trkpt lat="45.88483" lon="4.65113">
        <ele>293</ele>
        <time>2018-07-15T09:31:04Z</time>
      </trkpt>
      <trkpt lat="45.88476" lon="4.65122">
        <ele>293</ele>
        <time>2018-07-15T09:31:08Z</time>
      </trkpt>
      <trkpt lat="45.88475" lon="4.65124">
        <ele>293</ele>
        <time>2018-07-15T09:31:09Z</time>
      </trkpt>
      <trkpt lat="45.8847" lon="4.65132">
        <ele>294</ele>
        <time>2018-07-15T09:31:12Z</time>
      </trkpt>
      <trkpt lat="45.88469" lon="4.65135">
        <ele>294</ele>
        <time>2018-07-15T09:31:13Z</time>
      </trkpt>
      <trkpt lat="45.88464" lon="4.65143">
        <ele>294</ele>
        <time>2018-07-15T09:31:17Z</time>
      </trkpt>
      <trkpt lat="45.88462" lon="4.65145">
        <ele>294</ele>
        <time>2018-07-15T09:31:18Z</time>
      </trkpt>
      <trkpt lat="45.88456" lon="4.6515">
        <ele>295</ele>
        <time>2018-07-15T09:31:21Z</time>
      </trkpt>
      <trkpt lat="45.88454" lon="4.65152">
        <ele>295</ele>
        <time>2018-07-15T09:31:22Z</time>
      </trkpt>
      <trkpt lat="45.88447" lon="4.65158">
        <ele>295</ele>
        <time>2018-07-15T09:31:26Z</time>
      </trkpt>
      <trkpt lat="45.88446" lon="4.6516">
        <ele>295</ele>
        <time>2018-07-15T09:31:27Z</time>
      </trkpt>
      <trkpt lat="45.88439" lon="4.65166">
        <ele>296</ele>
        <time>2018-07-15T09:31:32Z</time>
      </trkpt>
      <trkpt lat="45.88437" lon="4.65168">
        <ele>297</ele>
        <time>2018-07-15T09:31:33Z</time>
      </trkpt>
      <trkpt lat="45.88431" lon="4.65172">
        <ele>298</ele>
        <time>2018-07-15T09:31:36Z</time>
      </trkpt>
      <trkpt lat="45.88429" lon="4.65174">
        <ele>298</ele>
        <time>2018-07-15T09:31:37Z</time>
      </trkpt>
      <trkpt lat="45.88422" lon="4.65181">
        <ele>298</ele>
        <time>2018-07-15T09:31:41Z</time>
      </trkpt>
      <trkpt lat="45.8842" lon="4.65183">
        <ele>298</ele>
        <time>2018-07-15T09:31:42Z</time>
      </trkpt>
      <trkpt lat="45.88414" lon="4.6519">
        <ele>299</ele>
        <time>2018-07-15T09:31:46Z</time>
      </trkpt>
      <trkpt lat="45.88412" lon="4.65192">
        <ele>299</ele>
        <time>2018-07-15T09:31:47Z</time>
      </trkpt>
      <trkpt lat="45.88406" lon="4.65198">
        <ele>299</ele>
        <time>2018-07-15T09:31:50Z</time>
      </trkpt>
      <trkpt lat="45.88405" lon="4.652">
        <ele>299</ele>
        <time>2018-07-15T09:31:51Z</time>
      </trkpt>
      <trkpt lat="45.88398" lon="4.65206">
        <ele>300</ele>
        <time>2018-07-15T09:31:55Z</time>
      </trkpt>
      <trkpt lat="45.88396" lon="4.65207">
        <ele>300</ele>
        <time>2018-07-15T09:31:56Z</time>
      </trkpt>
      <trkpt lat="45.88389" lon="4.65213">
        <ele>300</ele>
        <time>2018-07-15T09:32:00Z</time>
      </trkpt>
      <trkpt lat="45.88387" lon="4.65215">
        <ele>300</ele>
        <time>2018-07-15T09:32:01Z</time>
      </trkpt>
      <trkpt lat="45.88382" lon="4.65221">
        <ele>300</ele>
        <time>2018-07-15T09:32:04Z</time>
      </trkpt>
      <trkpt lat="45.8838" lon="4.65223">
        <ele>300</ele>
        <time>2018-07-15T09:32:05Z</time>
      </trkpt>
      <trkpt lat="45.88374" lon="4.6523">
        <ele>300</ele>
        <time>2018-07-15T09:32:08Z</time>
      </trkpt>
      <trkpt lat="45.88371" lon="4.65233">
        <ele>300</ele>
        <time>2018-07-15T09:32:09Z</time>
      </trkpt>
      <trkpt lat="45.88365" lon="4.6524">
        <ele>300</ele>
        <time>2018-07-15T09:32:12Z</time>
      </trkpt>
      <trkpt lat="45.88363" lon="4.65242">
        <ele>300</ele>
        <time>2018-07-15T09:32:13Z</time>
      </trkpt>
      <trkpt lat="45.88357" lon="4.65249">
        <ele>300</ele>
        <time>2018-07-15T09:32:16Z</time>
      </trkpt>
      <trkpt lat="45.88355" lon="4.65251">
        <ele>301</ele>
        <time>2018-07-15T09:32:17Z</time>
      </trkpt>
      <trkpt lat="45.8835" lon="4.65258">
        <ele>301</ele>
        <time>2018-07-15T09:32:20Z</time>
      </trkpt>
      <trkpt lat="45.88348" lon="4.65261">
        <ele>301</ele>
        <time>2018-07-15T09:32:21Z</time>
      </trkpt>
      <trkpt lat="45.88342" lon="4.65267">
        <ele>301</ele>
        <time>2018-07-15T09:32:24Z</time>
      </trkpt>
      <trkpt lat="45.8834" lon="4.65269">
        <ele>301</ele>
        <time>2018-07-15T09:32:25Z</time>
      </trkpt>
      <trkpt lat="45.88334" lon="4.65277">
        <ele>302</ele>
        <time>2018-07-15T09:32:29Z</time>
      </trkpt>
      <trkpt lat="45.88333" lon="4.65278">
        <ele>304</ele>
        <time>2018-07-15T09:32:30Z</time>
      </trkpt>
      <trkpt lat="45.88327" lon="4.65285">
        <ele>304</ele>
        <time>2018-07-15T09:32:35Z</time>
      </trkpt>
      <trkpt lat="45.88326" lon="4.65287">
        <ele>304</ele>
        <time>2018-07-15T09:32:36Z</time>
      </trkpt>
      <trkpt lat="45.8832" lon="4.65295">
        <ele>304</ele>
        <time>2018-07-15T09:32:40Z</time>
      </trkpt>
      <trkpt lat="45.88318" lon="4.65298">
        <ele>304</ele>
        <time>2018-07-15T09:32:41Z</time>
      </trkpt>
      <trkpt lat="45.88314" lon="4.65306">
        <ele>305</ele>
        <time>2018-07-15T09:32:44Z</time>
      </trkpt>
      <trkpt lat="45.88313" lon="4.65309">
        <ele>305</ele>
        <time>2018-07-15T09:32:45Z</time>
      </trkpt>
      <trkpt lat="45.8831" lon="4.65318">
        <ele>305</ele>
        <time>2018-07-15T09:32:48Z</time>
      </trkpt>
      <trkpt lat="45.88309" lon="4.65321">
        <ele>305</ele>
        <time>2018-07-15T09:32:49Z</time>
      </trkpt>
      <trkpt lat="45.88306" lon="4.65329">
        <ele>305</ele>
        <time>2018-07-15T09:32:52Z</time>
      </trkpt>
      <trkpt lat="45.88305" lon="4.65332">
        <ele>305</ele>
        <time>2018-07-15T09:32:53Z</time>
      </trkpt>
      <trkpt lat="45.883" lon="4.65343">
        <ele>307</ele>
        <time>2018-07-15T09:32:57Z</time>
      </trkpt>
      <trkpt lat="45.883" lon="4.65345">
        <ele>307</ele>
        <time>2018-07-15T09:32:58Z</time>
      </trkpt>
      <trkpt lat="45.88296" lon="4.65354">
        <ele>307</ele>
        <time>2018-07-15T09:33:02Z</time>
      </trkpt>
      <trkpt lat="45.88295" lon="4.65356">
        <ele>307</ele>
        <time>2018-07-15T09:33:03Z</time>
      </trkpt>
      <trkpt lat="45.88291" lon="4.65366">
        <ele>308</ele>
        <time>2018-07-15T09:33:07Z</time>
      </trkpt>
      <trkpt lat="45.8829" lon="4.65369">
        <ele>308</ele>
        <time>2018-07-15T09:33:08Z</time>
      </trkpt>
      <trkpt lat="45.88286" lon="4.6538">
        <ele>308</ele>
        <time>2018-07-15T09:33:12Z</time>
      </trkpt>
      <trkpt lat="45.88285" lon="4.65382">
        <ele>308</ele>
        <time>2018-07-15T09:33:13Z</time>
      </trkpt>
      <trkpt lat="45.88281" lon="4.65392">
        <ele>308</ele>
        <time>2018-07-15T09:33:17Z</time>
      </trkpt>
      <trkpt lat="45.8828" lon="4.65395">
        <ele>308</ele>
        <time>2018-07-15T09:33:18Z</time>
      </trkpt>
      <trkpt lat="45.88276" lon="4.65405">
        <ele>309</ele>
        <time>2018-07-15T09:33:22Z</time>
      </trkpt>
      <trkpt lat="45.88276" lon="4.65408">
        <ele>309</ele>
        <time>2018-07-15T09:33:23Z</time>
      </trkpt>
      <trkpt lat="45.88272" lon="4.65418">
        <ele>310</ele>
        <time>2018-07-15T09:33:27Z</time>
      </trkpt>
      <trkpt lat="45.88271" lon="4.6542">
        <ele>310</ele>
        <time>2018-07-15T09:33:28Z</time>
      </trkpt>
      <trkpt lat="45.88268" lon="4.6543">
        <ele>311</ele>
        <time>2018-07-15T09:33:32Z</time>
      </trkpt>
      <trkpt lat="45.88266" lon="4.65433">
        <ele>311</ele>
        <time>2018-07-15T09:33:33Z</time>
      </trkpt>
      <trkpt lat="45.88262" lon="4.65443">
        <ele>311</ele>
        <time>2018-07-15T09:33:37Z</time>
      </trkpt>
      <trkpt lat="45.8826" lon="4.65445">
        <ele>311</ele>
        <time>2018-07-15T09:33:38Z</time>
      </trkpt>
      <trkpt lat="45.88256" lon="4.65455">
        <ele>311</ele>
        <time>2018-07-15T09:33:42Z</time>
      </trkpt>
      <trkpt lat="45.88256" lon="4.65458">
        <ele>311</ele>
        <time>2018-07-15T09:33:43Z</time>
      </trkpt>
      <trkpt lat="45.88253" lon="4.65469">
        <ele>312</ele>
        <time>2018-07-15T09:33:47Z</time>
      </trkpt>
      <trkpt lat="45.88252" lon="4.65472">
        <ele>312</ele>
        <time>2018-07-15T09:33:48Z</time>
      </trkpt>
      <trkpt lat="45.88248" lon="4.65482">
        <ele>316</ele>
        <time>2018-07-15T09:33:52Z</time>
      </trkpt>
      <trkpt lat="45.88248" lon="4.65485">
        <ele>316</ele>
        <time>2018-07-15T09:33:53Z</time>
      </trkpt>
      <trkpt lat="45.88246" lon="4.65496">
        <ele>315</ele>
        <time>2018-07-15T09:33:57Z</time>
      </trkpt>
      <trkpt lat="45.88245" lon="4.65499">
        <ele>315</ele>
        <time>2018-07-15T09:33:58Z</time>
      </trkpt>
      <trkpt lat="45.88242" lon="4.65511">
        <ele>317</ele>
        <time>2018-07-15T09:34:02Z</time>
      </trkpt>
      <trkpt lat="45.88242" lon="4.65514">
        <ele>318</ele>
        <time>2018-07-15T09:34:03Z</time>
      </trkpt>
      <trkpt lat="45.88238" lon="4.65523">
        <ele>319</ele>
        <time>2018-07-15T09:34:06Z</time>
      </trkpt>
      <trkpt lat="45.88237" lon="4.65526">
        <ele>319</ele>
        <time>2018-07-15T09:34:07Z</time>
      </trkpt>
      <trkpt lat="45.88234" lon="4.65535">
        <ele>319</ele>
        <time>2018-07-15T09:34:10Z</time>
      </trkpt>
      <trkpt lat="45.88233" lon="4.65538">
        <ele>320</ele>
        <time>2018-07-15T09:34:11Z</time>
      </trkpt>
      <trkpt lat="45.88229" lon="4.65549">
        <ele>320</ele>
        <time>2018-07-15T09:34:15Z</time>
      </trkpt>
      <trkpt lat="45.88228" lon="4.65553">
        <ele>320</ele>
        <time>2018-07-15T09:34:16Z</time>
      </trkpt>
      <trkpt lat="45.88225" lon="4.65564">
        <ele>320</ele>
        <time>2018-07-15T09:34:20Z</time>
      </trkpt>
      <trkpt lat="45.88224" lon="4.65567">
        <ele>320</ele>
        <time>2018-07-15T09:34:21Z</time>
      </trkpt>
      <trkpt lat="45.88221" lon="4.65576">
        <ele>320</ele>
        <time>2018-07-15T09:34:24Z</time>
      </trkpt>
      <trkpt lat="45.88219" lon="4.65579">
        <ele>320</ele>
        <time>2018-07-15T09:34:25Z</time>
      </trkpt>
      <trkpt lat="45.88216" lon="4.65587">
        <ele>321</ele>
        <time>2018-07-15T09:34:28Z</time>
      </trkpt>
      <trkpt lat="45.88215" lon="4.6559">
        <ele>321</ele>
        <time>2018-07-15T09:34:29Z</time>
      </trkpt>
      <trkpt lat="45.88211" lon="4.65602">
        <ele>321</ele>
        <time>2018-07-15T09:34:33Z</time>
      </trkpt>
      <trkpt lat="45.8821" lon="4.65605">
        <ele>321</ele>
        <time>2018-07-15T09:34:34Z</time>
      </trkpt>
      <trkpt lat="45.88207" lon="4.65616">
        <ele>321</ele>
        <time>2018-07-15T09:34:38Z</time>
      </trkpt>
      <trkpt lat="45.88206" lon="4.65618">
        <ele>321</ele>
        <time>2018-07-15T09:34:39Z</time>
      </trkpt>
      <trkpt lat="45.88202" lon="4.65628">
        <ele>321</ele>
        <time>2018-07-15T09:34:43Z</time>
      </trkpt>
      <trkpt lat="45.88201" lon="4.65631">
        <ele>321</ele>
        <time>2018-07-15T09:34:44Z</time>
      </trkpt>
      <trkpt lat="45.88197" lon="4.65641">
        <ele>322</ele>
        <time>2018-07-15T09:34:48Z</time>
      </trkpt>
      <trkpt lat="45.88196" lon="4.65643">
        <ele>322</ele>
        <time>2018-07-15T09:34:49Z</time>
      </trkpt>
      <trkpt lat="45.88193" lon="4.65652">
        <ele>322</ele>
        <time>2018-07-15T09:34:52Z</time>
      </trkpt>
      <trkpt lat="45.88192" lon="4.65655">
        <ele>322</ele>
        <time>2018-07-15T09:34:53Z</time>
      </trkpt>
      <trkpt lat="45.88188" lon="4.65665">
        <ele>322</ele>
        <time>2018-07-15T09:34:57Z</time>
      </trkpt>
      <trkpt lat="45.88187" lon="4.65668">
        <ele>322</ele>
        <time>2018-07-15T09:34:58Z</time>
      </trkpt>
      <trkpt lat="45.88182" lon="4.65677">
        <ele>322</ele>
        <time>2018-07-15T09:35:02Z</time>
      </trkpt>
      <trkpt lat="45.88181" lon="4.65679">
        <ele>322</ele>
        <time>2018-07-15T09:35:03Z</time>
      </trkpt>
      <trkpt lat="45.88176" lon="4.65689">
        <ele>322</ele>
        <time>2018-07-15T09:35:07Z</time>
      </trkpt>
      <trkpt lat="45.88175" lon="4.65692">
        <ele>322</ele>
        <time>2018-07-15T09:35:08Z</time>
      </trkpt>
      <trkpt lat="45.88169" lon="4.65702">
        <ele>322</ele>
        <time>2018-07-15T09:35:12Z</time>
      </trkpt>
      <trkpt lat="45.88168" lon="4.65705">
        <ele>322</ele>
        <time>2018-07-15T09:35:13Z</time>
      </trkpt>
      <trkpt lat="45.88163" lon="4.65715">
        <ele>331</ele>
        <time>2018-07-15T09:35:17Z</time>
      </trkpt>
      <trkpt lat="45.88161" lon="4.65717">
        <ele>331</ele>
        <time>2018-07-15T09:35:18Z</time>
      </trkpt>
      <trkpt lat="45.88155" lon="4.65726">
        <ele>331</ele>
        <time>2018-07-15T09:35:23Z</time>
      </trkpt>
      <trkpt lat="45.88154" lon="4.65728">
        <ele>331</ele>
        <time>2018-07-15T09:35:24Z</time>
      </trkpt>
      <trkpt lat="45.88147" lon="4.65736">
        <ele>331</ele>
        <time>2018-07-15T09:35:28Z</time>
      </trkpt>
      <trkpt lat="45.88146" lon="4.65738">
        <ele>331</ele>
        <time>2018-07-15T09:35:29Z</time>
      </trkpt>
      <trkpt lat="45.88139" lon="4.65744">
        <ele>332</ele>
        <time>2018-07-15T09:35:33Z</time>
      </trkpt>
      <trkpt lat="45.88138" lon="4.65746">
        <ele>332</ele>
        <time>2018-07-15T09:35:34Z</time>
      </trkpt>
      <trkpt lat="45.8813" lon="4.65752">
        <ele>332</ele>
        <time>2018-07-15T09:35:38Z</time>
      </trkpt>
      <trkpt lat="45.88128" lon="4.65753">
        <ele>332</ele>
        <time>2018-07-15T09:35:39Z</time>
      </trkpt>
      <trkpt lat="45.88121" lon="4.65758">
        <ele>334</ele>
        <time>2018-07-15T09:35:43Z</time>
      </trkpt>
      <trkpt lat="45.88119" lon="4.65759">
        <ele>334</ele>
        <time>2018-07-15T09:35:44Z</time>
      </trkpt>
      <trkpt lat="45.88111" lon="4.65764">
        <ele>335</ele>
        <time>2018-07-15T09:35:47Z</time>
      </trkpt>
      <trkpt lat="45.88109" lon="4.65766">
        <ele>335</ele>
        <time>2018-07-15T09:35:48Z</time>
      </trkpt>
      <trkpt lat="45.88103" lon="4.65771">
        <ele>336</ele>
        <time>2018-07-15T09:35:51Z</time>
      </trkpt>
      <trkpt lat="45.88101" lon="4.65773">
        <ele>336</ele>
        <time>2018-07-15T09:35:52Z</time>
      </trkpt>
      <trkpt lat="45.88095" lon="4.65778">
        <ele>336</ele>
        <time>2018-07-15T09:35:56Z</time>
      </trkpt>
      <trkpt lat="45.88093" lon="4.65779">
        <ele>336</ele>
        <time>2018-07-15T09:35:57Z</time>
      </trkpt>
      <trkpt lat="45.88086" lon="4.65785">
        <ele>335</ele>
        <time>2018-07-15T09:36:01Z</time>
      </trkpt>
      <trkpt lat="45.88085" lon="4.65787">
        <ele>335</ele>
        <time>2018-07-15T09:36:02Z</time>
      </trkpt>
      <trkpt lat="45.88078" lon="4.65792">
        <ele>342</ele>
        <time>2018-07-15T09:36:05Z</time>
      </trkpt>
      <trkpt lat="45.88076" lon="4.65794">
        <ele>342</ele>
        <time>2018-07-15T09:36:06Z</time>
      </trkpt>
      <trkpt lat="45.8807" lon="4.65801">
        <ele>342</ele>
        <time>2018-07-15T09:36:09Z</time>
      </trkpt>
      <trkpt lat="45.88067" lon="4.65802">
        <ele>342</ele>
        <time>2018-07-15T09:36:10Z</time>
      </trkpt>
      <trkpt lat="45.88061" lon="4.65808">
        <ele>342</ele>
        <time>2018-07-15T09:36:13Z</time>
      </trkpt>
      <trkpt lat="45.88059" lon="4.6581">
        <ele>342</ele>
        <time>2018-07-15T09:36:14Z</time>
      </trkpt>
      <trkpt lat="45.88052" lon="4.65815">
        <ele>342</ele>
        <time>2018-07-15T09:36:17Z</time>
      </trkpt>
      <trkpt lat="45.88049" lon="4.65816">
        <ele>342</ele>
        <time>2018-07-15T09:36:18Z</time>
      </trkpt>
      <trkpt lat="45.88042" lon="4.65822">
        <ele>343</ele>
        <time>2018-07-15T09:36:21Z</time>
      </trkpt>
      <trkpt lat="45.88039" lon="4.65825">
        <ele>343</ele>
        <time>2018-07-15T09:36:22Z</time>
      </trkpt>
      <trkpt lat="45.88029" lon="4.65833">
        <ele>344</ele>
        <time>2018-07-15T09:36:23Z</time>
      </trkpt>
      <trkpt lat="45.88022" lon="4.65838">
        <ele>340</ele>
        <time>2018-07-15T09:36:26Z</time>
      </trkpt>
      <trkpt lat="45.8802" lon="4.65839">
        <ele>340</ele>
        <time>2018-07-15T09:36:27Z</time>
      </trkpt>
      <trkpt lat="45.88013" lon="4.65843">
        <ele>341</ele>
        <time>2018-07-15T09:36:30Z</time>
      </trkpt>
      <trkpt lat="45.8801" lon="4.65844">
        <ele>341</ele>
        <time>2018-07-15T09:36:31Z</time>
      </trkpt>
      <trkpt lat="45.88003" lon="4.65849">
        <ele>341</ele>
        <time>2018-07-15T09:36:34Z</time>
      </trkpt>
      <trkpt lat="45.88" lon="4.65851">
        <ele>341</ele>
        <time>2018-07-15T09:36:35Z</time>
      </trkpt>
      <trkpt lat="45.87991" lon="4.65858">
        <ele>344</ele>
        <time>2018-07-15T09:36:36Z</time>
      </trkpt>
      <trkpt lat="45.87984" lon="4.65866">
        <ele>344</ele>
        <time>2018-07-15T09:36:38Z</time>
      </trkpt>
      <trkpt lat="45.87982" lon="4.65867">
        <ele>344</ele>
        <time>2018-07-15T09:36:39Z</time>
      </trkpt>
      <trkpt lat="45.87978" lon="4.65873">
        <ele>343</ele>
        <time>2018-07-15T09:36:40Z</time>
      </trkpt>
      <trkpt lat="45.87975" lon="4.65877">
        <ele>343</ele>
        <time>2018-07-15T09:36:41Z</time>
      </trkpt>
      <trkpt lat="45.87969" lon="4.65884">
        <ele>343</ele>
        <time>2018-07-15T09:36:43Z</time>
      </trkpt>
      <trkpt lat="45.87966" lon="4.65888">
        <ele>343</ele>
        <time>2018-07-15T09:36:44Z</time>
      </trkpt>
      <trkpt lat="45.87961" lon="4.65898">
        <ele>343</ele>
        <time>2018-07-15T09:36:46Z</time>
      </trkpt>
      <trkpt lat="45.87959" lon="4.659">
        <ele>343</ele>
        <time>2018-07-15T09:36:47Z</time>
      </trkpt>
      <trkpt lat="45.87955" lon="4.65908">
        <ele>343</ele>
        <time>2018-07-15T09:36:50Z</time>
      </trkpt>
      <trkpt lat="45.87953" lon="4.6591">
        <ele>343</ele>
        <time>2018-07-15T09:36:51Z</time>
      </trkpt>
      <trkpt lat="45.87948" lon="4.6592">
        <ele>341</ele>
        <time>2018-07-15T09:36:54Z</time>
      </trkpt>
      <trkpt lat="45.87945" lon="4.65923">
        <ele>341</ele>
        <time>2018-07-15T09:36:55Z</time>
      </trkpt>
      <trkpt lat="45.87941" lon="4.6593">
        <ele>341</ele>
        <time>2018-07-15T09:36:57Z</time>
      </trkpt>
      <trkpt lat="45.87939" lon="4.65933">
        <ele>341</ele>
        <time>2018-07-15T09:36:58Z</time>
      </trkpt>
      <trkpt lat="45.87934" lon="4.65943">
        <ele>341</ele>
        <time>2018-07-15T09:37:01Z</time>
      </trkpt>
      <trkpt lat="45.87933" lon="4.65947">
        <ele>341</ele>
        <time>2018-07-15T09:37:02Z</time>
      </trkpt>
      <trkpt lat="45.87929" lon="4.65956">
        <ele>341</ele>
        <time>2018-07-15T09:37:05Z</time>
      </trkpt>
      <trkpt lat="45.87928" lon="4.6596">
        <ele>341</ele>
        <time>2018-07-15T09:37:06Z</time>
      </trkpt>
      <trkpt lat="45.87926" lon="4.65971">
        <ele>341</ele>
        <time>2018-07-15T09:37:09Z</time>
      </trkpt>
      <trkpt lat="45.87926" lon="4.65975">
        <ele>341</ele>
        <time>2018-07-15T09:37:10Z</time>
      </trkpt>
      <trkpt lat="45.87925" lon="4.65985">
        <ele>342</ele>
        <time>2018-07-15T09:37:13Z</time>
      </trkpt>
      <trkpt lat="45.87924" lon="4.65989">
        <ele>342</ele>
        <time>2018-07-15T09:37:14Z</time>
      </trkpt>
      <trkpt lat="45.87923" lon="4.65999">
        <ele>342</ele>
        <time>2018-07-15T09:37:17Z</time>
      </trkpt>
      <trkpt lat="45.87923" lon="4.66002">
        <ele>343</ele>
        <time>2018-07-15T09:37:18Z</time>
      </trkpt>
      <trkpt lat="45.87923" lon="4.66015">
        <ele>342</ele>
        <time>2018-07-15T09:37:22Z</time>
      </trkpt>
      <trkpt lat="45.87923" lon="4.66018">
        <ele>342</ele>
        <time>2018-07-15T09:37:23Z</time>
      </trkpt>
      <trkpt lat="45.87923" lon="4.66028">
        <ele>342</ele>
        <time>2018-07-15T09:37:26Z</time>
      </trkpt>
      <trkpt lat="45.87923" lon="4.66031">
        <ele>342</ele>
        <time>2018-07-15T09:37:27Z</time>
      </trkpt>
      <trkpt lat="45.87923" lon="4.66042">
        <ele>342</ele>
        <time>2018-07-15T09:37:30Z</time>
      </trkpt>
      <trkpt lat="45.87923" lon="4.66045">
        <ele>342</ele>
        <time>2018-07-15T09:37:31Z</time>
      </trkpt>
      <trkpt lat="45.87923" lon="4.66058">
        <ele>342</ele>
        <time>2018-07-15T09:37:35Z</time>
      </trkpt>
      <trkpt lat="45.87923" lon="4.66061">
        <ele>343</ele>
        <time>2018-07-15T09:37:36Z</time>
      </trkpt>
      <trkpt lat="45.87923" lon="4.6607">
        <ele>343</ele>
        <time>2018-07-15T09:37:39Z</time>
      </trkpt>
      <trkpt lat="45.87924" lon="4.66074">
        <ele>343</ele>
        <time>2018-07-15T09:37:40Z</time>
      </trkpt>
      <trkpt lat="45.87924" lon="4.66084">
        <ele>345</ele>
        <time>2018-07-15T09:37:43Z</time>
      </trkpt>
      <trkpt lat="45.87925" lon="4.66087">
        <ele>345</ele>
        <time>2018-07-15T09:37:44Z</time>
      </trkpt>
      <trkpt lat="45.87925" lon="4.66097">
        <ele>346</ele>
        <time>2018-07-15T09:37:47Z</time>
      </trkpt>
      <trkpt lat="45.87925" lon="4.661">
        <ele>346</ele>
        <time>2018-07-15T09:37:48Z</time>
      </trkpt>
      <trkpt lat="45.87925" lon="4.66113">
        <ele>347</ele>
        <time>2018-07-15T09:37:52Z</time>
      </trkpt>
      <trkpt lat="45.87924" lon="4.66116">
        <ele>347</ele>
        <time>2018-07-15T09:37:53Z</time>
      </trkpt>
      <trkpt lat="45.87924" lon="4.66128">
        <ele>348</ele>
        <time>2018-07-15T09:37:57Z</time>
      </trkpt>
      <trkpt lat="45.87925" lon="4.66131">
        <ele>348</ele>
        <time>2018-07-15T09:37:58Z</time>
      </trkpt>
      <trkpt lat="45.87932" lon="4.66138">
        <ele>349</ele>
        <time>2018-07-15T09:38:02Z</time>
      </trkpt>
      <trkpt lat="45.87935" lon="4.66138">
        <ele>349</ele>
        <time>2018-07-15T09:38:03Z</time>
      </trkpt>
      <trkpt lat="45.87943" lon="4.66138">
        <ele>348</ele>
        <time>2018-07-15T09:38:06Z</time>
      </trkpt>
      <trkpt lat="45.87946" lon="4.66138">
        <ele>348</ele>
        <time>2018-07-15T09:38:07Z</time>
      </trkpt>
      <trkpt lat="45.87953" lon="4.66138">
        <ele>348</ele>
        <time>2018-07-15T09:38:09Z</time>
      </trkpt>
      <trkpt lat="45.87956" lon="4.66137">
        <ele>348</ele>
        <time>2018-07-15T09:38:10Z</time>
      </trkpt>
      <trkpt lat="45.87962" lon="4.66138">
        <ele>348</ele>
        <time>2018-07-15T09:38:12Z</time>
      </trkpt>
      <trkpt lat="45.87972" lon="4.6614">
        <ele>348</ele>
        <time>2018-07-15T09:38:13Z</time>
      </trkpt>
      <trkpt lat="45.87978" lon="4.66141">
        <ele>348</ele>
        <time>2018-07-15T09:38:16Z</time>
      </trkpt>
      <trkpt lat="45.87986" lon="4.66142">
        <ele>348</ele>
        <time>2018-07-15T09:38:17Z</time>
      </trkpt>
      <trkpt lat="45.87993" lon="4.66142">
        <ele>348</ele>
        <time>2018-07-15T09:38:19Z</time>
      </trkpt>
      <trkpt lat="45.87996" lon="4.66141">
        <ele>348</ele>
        <time>2018-07-15T09:38:20Z</time>
      </trkpt>
      <trkpt lat="45.88003" lon="4.66141">
        <ele>348</ele>
        <time>2018-07-15T09:38:23Z</time>
      </trkpt>
      <trkpt lat="45.88006" lon="4.6614">
        <ele>348</ele>
        <time>2018-07-15T09:38:24Z</time>
      </trkpt>
      <trkpt lat="45.88012" lon="4.66139">
        <ele>348</ele>
        <time>2018-07-15T09:38:26Z</time>
      </trkpt>
      <trkpt lat="45.88015" lon="4.66139">
        <ele>348</ele>
        <time>2018-07-15T09:38:27Z</time>
      </trkpt>
      <trkpt lat="45.88021" lon="4.66137">
        <ele>347</ele>
        <time>2018-07-15T09:38:29Z</time>
      </trkpt>
      <trkpt lat="45.88024" lon="4.66137">
        <ele>347</ele>
        <time>2018-07-15T09:38:30Z</time>
      </trkpt>
      <trkpt lat="45.8803" lon="4.66136">
        <ele>347</ele>
        <time>2018-07-15T09:38:32Z</time>
      </trkpt>
      <trkpt lat="45.88033" lon="4.66136">
        <ele>347</ele>
        <time>2018-07-15T09:38:33Z</time>
      </trkpt>
      <trkpt lat="45.88039" lon="4.66135">
        <ele>347</ele>
        <time>2018-07-15T09:38:35Z</time>
      </trkpt>
      <trkpt lat="45.88042" lon="4.66135">
        <ele>347</ele>
        <time>2018-07-15T09:38:36Z</time>
      </trkpt>
      <trkpt lat="45.88046" lon="4.66134">
        <ele>347</ele>
        <time>2018-07-15T09:38:37Z</time>
      </trkpt>
      <trkpt lat="45.88055" lon="4.66133">
        <ele>347</ele>
        <time>2018-07-15T09:38:38Z</time>
      </trkpt>
      <trkpt lat="45.88064" lon="4.66133">
        <ele>347</ele>
        <time>2018-07-15T09:38:40Z</time>
      </trkpt>
      <trkpt lat="45.88068" lon="4.66133">
        <ele>347</ele>
        <time>2018-07-15T09:38:41Z</time>
      </trkpt>
      <trkpt lat="45.88076" lon="4.66133">
        <ele>348</ele>
        <time>2018-07-15T09:38:44Z</time>
      </trkpt>
      <trkpt lat="45.88079" lon="4.66133">
        <ele>348</ele>
        <time>2018-07-15T09:38:45Z</time>
      </trkpt>
      <trkpt lat="45.88084" lon="4.66133">
        <ele>348</ele>
        <time>2018-07-15T09:38:47Z</time>
      </trkpt>
      <trkpt lat="45.88093" lon="4.66133">
        <ele>348</ele>
        <time>2018-07-15T09:38:48Z</time>
      </trkpt>
      <trkpt lat="45.88101" lon="4.66137">
        <ele>349</ele>
        <time>2018-07-15T09:38:50Z</time>
      </trkpt>
      <trkpt lat="45.88106" lon="4.66136">
        <ele>349</ele>
        <time>2018-07-15T09:38:51Z</time>
      </trkpt>
      <trkpt lat="45.88115" lon="4.66135">
        <ele>349</ele>
        <time>2018-07-15T09:38:53Z</time>
      </trkpt>
      <trkpt lat="45.88119" lon="4.66135">
        <ele>349</ele>
        <time>2018-07-15T09:38:54Z</time>
      </trkpt>
      <trkpt lat="45.88127" lon="4.66133">
        <ele>349</ele>
        <time>2018-07-15T09:38:56Z</time>
      </trkpt>
      <trkpt lat="45.88134" lon="4.66132">
        <ele>349</ele>
        <time>2018-07-15T09:38:57Z</time>
      </trkpt>
      <trkpt lat="45.8814" lon="4.66133">
        <ele>349</ele>
        <time>2018-07-15T09:38:58Z</time>
      </trkpt>
      <trkpt lat="45.88144" lon="4.66132">
        <ele>349</ele>
        <time>2018-07-15T09:38:59Z</time>
      </trkpt>
      <trkpt lat="45.88149" lon="4.6613">
        <ele>349</ele>
        <time>2018-07-15T09:39:00Z</time>
      </trkpt>
      <trkpt lat="45.88154" lon="4.66128">
        <ele>349</ele>
        <time>2018-07-15T09:39:01Z</time>
      </trkpt>
      <trkpt lat="45.88159" lon="4.66128">
        <ele>349</ele>
        <time>2018-07-15T09:39:02Z</time>
      </trkpt>
      <trkpt lat="45.88163" lon="4.66127">
        <ele>349</ele>
        <time>2018-07-15T09:39:03Z</time>
      </trkpt>
      <trkpt lat="45.88172" lon="4.66127">
        <ele>349</ele>
        <time>2018-07-15T09:39:05Z</time>
      </trkpt>
      <trkpt lat="45.88176" lon="4.66128">
        <ele>350</ele>
        <time>2018-07-15T09:39:06Z</time>
      </trkpt>
      <trkpt lat="45.88185" lon="4.66127">
        <ele>349</ele>
        <time>2018-07-15T09:39:09Z</time>
      </trkpt>
      <trkpt lat="45.88189" lon="4.66127">
        <ele>349</ele>
        <time>2018-07-15T09:39:10Z</time>
      </trkpt>
      <trkpt lat="45.88192" lon="4.66127">
        <ele>349</ele>
        <time>2018-07-15T09:39:12Z</time>
      </trkpt>
      <trkpt lat="45.88198" lon="4.66128">
        <ele>349</ele>
        <time>2018-07-15T09:39:13Z</time>
      </trkpt>
      <trkpt lat="45.88202" lon="4.66128">
        <ele>349</ele>
        <time>2018-07-15T09:39:15Z</time>
      </trkpt>
      <trkpt lat="45.88209" lon="4.66129">
        <ele>350</ele>
        <time>2018-07-15T09:39:16Z</time>
      </trkpt>
      <trkpt lat="45.88214" lon="4.66131">
        <ele>350</ele>
        <time>2018-07-15T09:39:18Z</time>
      </trkpt>
      <trkpt lat="45.88219" lon="4.66131">
        <ele>350</ele>
        <time>2018-07-15T09:39:19Z</time>
      </trkpt>
      <trkpt lat="45.88227" lon="4.66131">
        <ele>350</ele>
        <time>2018-07-15T09:39:21Z</time>
      </trkpt>
      <trkpt lat="45.88229" lon="4.66131">
        <ele>350</ele>
        <time>2018-07-15T09:39:22Z</time>
      </trkpt>
      <trkpt lat="45.88237" lon="4.66131">
        <ele>350</ele>
        <time>2018-07-15T09:39:24Z</time>
      </trkpt>
      <trkpt lat="45.88239" lon="4.66132">
        <ele>350</ele>
        <time>2018-07-15T09:39:25Z</time>
      </trkpt>
      <trkpt lat="45.88245" lon="4.66132">
        <ele>350</ele>
        <time>2018-07-15T09:39:28Z</time>
      </trkpt>
      <trkpt lat="45.88248" lon="4.66132">
        <ele>350</ele>
        <time>2018-07-15T09:39:29Z</time>
      </trkpt>
      <trkpt lat="45.88257" lon="4.66133">
        <ele>351</ele>
        <time>2018-07-15T09:39:32Z</time>
      </trkpt>
      <trkpt lat="45.8826" lon="4.66133">
        <ele>351</ele>
        <time>2018-07-15T09:39:33Z</time>
      </trkpt>
      <trkpt lat="45.88267" lon="4.66134">
        <ele>352</ele>
        <time>2018-07-15T09:39:35Z</time>
      </trkpt>
      <trkpt lat="45.8827" lon="4.66134">
        <ele>352</ele>
        <time>2018-07-15T09:39:36Z</time>
      </trkpt>
      <trkpt lat="45.88276" lon="4.66135">
        <ele>352</ele>
        <time>2018-07-15T09:39:38Z</time>
      </trkpt>
      <trkpt lat="45.88279" lon="4.66135">
        <ele>352</ele>
        <time>2018-07-15T09:39:39Z</time>
      </trkpt>
      <trkpt lat="45.88285" lon="4.66136">
        <ele>352</ele>
        <time>2018-07-15T09:39:41Z</time>
      </trkpt>
      <trkpt lat="45.88289" lon="4.66136">
        <ele>352</ele>
        <time>2018-07-15T09:39:42Z</time>
      </trkpt>
      <trkpt lat="45.88297" lon="4.66136">
        <ele>352</ele>
        <time>2018-07-15T09:39:45Z</time>
      </trkpt>
      <trkpt lat="45.883" lon="4.66136">
        <ele>353</ele>
        <time>2018-07-15T09:39:46Z</time>
      </trkpt>
      <trkpt lat="45.88309" lon="4.66136">
        <ele>353</ele>
        <time>2018-07-15T09:39:49Z</time>
      </trkpt>
      <trkpt lat="45.88311" lon="4.66135">
        <ele>353</ele>
        <time>2018-07-15T09:39:50Z</time>
      </trkpt>
      <trkpt lat="45.88317" lon="4.66135">
        <ele>353</ele>
        <time>2018-07-15T09:39:52Z</time>
      </trkpt>
      <trkpt lat="45.88321" lon="4.66136">
        <ele>353</ele>
        <time>2018-07-15T09:39:53Z</time>
      </trkpt>
      <trkpt lat="45.88329" lon="4.66137">
        <ele>354</ele>
        <time>2018-07-15T09:39:56Z</time>
      </trkpt>
      <trkpt lat="45.88331" lon="4.66138">
        <ele>354</ele>
        <time>2018-07-15T09:39:57Z</time>
      </trkpt>
      <trkpt lat="45.88338" lon="4.66138">
        <ele>356</ele>
        <time>2018-07-15T09:40:00Z</time>
      </trkpt>
      <trkpt lat="45.88341" lon="4.66138">
        <ele>356</ele>
        <time>2018-07-15T09:40:01Z</time>
      </trkpt>
      <trkpt lat="45.88349" lon="4.66138">
        <ele>356</ele>
        <time>2018-07-15T09:40:04Z</time>
      </trkpt>
      <trkpt lat="45.88351" lon="4.66139">
        <ele>357</ele>
        <time>2018-07-15T09:40:05Z</time>
      </trkpt>
      <trkpt lat="45.88359" lon="4.6614">
        <ele>357</ele>
        <time>2018-07-15T09:40:08Z</time>
      </trkpt>
      <trkpt lat="45.88362" lon="4.6614">
        <ele>357</ele>
        <time>2018-07-15T09:40:09Z</time>
      </trkpt>
      <trkpt lat="45.88369" lon="4.6614">
        <ele>357</ele>
        <time>2018-07-15T09:40:12Z</time>
      </trkpt>
      <trkpt lat="45.88372" lon="4.6614">
        <ele>357</ele>
        <time>2018-07-15T09:40:13Z</time>
      </trkpt>
      <trkpt lat="45.8838" lon="4.66142">
        <ele>357</ele>
        <time>2018-07-15T09:40:17Z</time>
      </trkpt>
      <trkpt lat="45.88383" lon="4.66142">
        <ele>357</ele>
        <time>2018-07-15T09:40:18Z</time>
      </trkpt>
      <trkpt lat="45.8839" lon="4.66142">
        <ele>358</ele>
        <time>2018-07-15T09:40:21Z</time>
      </trkpt>
      <trkpt lat="45.88392" lon="4.66142">
        <ele>358</ele>
        <time>2018-07-15T09:40:22Z</time>
      </trkpt>
      <trkpt lat="45.884" lon="4.66141">
        <ele>358</ele>
        <time>2018-07-15T09:40:26Z</time>
      </trkpt>
      <trkpt lat="45.88402" lon="4.66141">
        <ele>358</ele>
        <time>2018-07-15T09:40:27Z</time>
      </trkpt>
      <trkpt lat="45.88409" lon="4.66141">
        <ele>358</ele>
        <time>2018-07-15T09:40:30Z</time>
      </trkpt>
      <trkpt lat="45.88411" lon="4.66141">
        <ele>358</ele>
        <time>2018-07-15T09:40:31Z</time>
      </trkpt>
      <trkpt lat="45.88418" lon="4.66143">
        <ele>361</ele>
        <time>2018-07-15T09:40:34Z</time>
      </trkpt>
      <trkpt lat="45.88421" lon="4.66143">
        <ele>361</ele>
        <time>2018-07-15T09:40:35Z</time>
      </trkpt>
      <trkpt lat="45.88429" lon="4.66145">
        <ele>361</ele>
        <time>2018-07-15T09:40:39Z</time>
      </trkpt>
      <trkpt lat="45.88431" lon="4.66146">
        <ele>361</ele>
        <time>2018-07-15T09:40:40Z</time>
      </trkpt>
      <trkpt lat="45.8844" lon="4.66146">
        <ele>361</ele>
        <time>2018-07-15T09:40:44Z</time>
      </trkpt>
      <trkpt lat="45.88442" lon="4.66145">
        <ele>361</ele>
        <time>2018-07-15T09:40:45Z</time>
      </trkpt>
      <trkpt lat="45.88449" lon="4.66145">
        <ele>361</ele>
        <time>2018-07-15T09:40:49Z</time>
      </trkpt>
      <trkpt lat="45.88451" lon="4.66145">
        <ele>361</ele>
        <time>2018-07-15T09:40:50Z</time>
      </trkpt>
      <trkpt lat="45.88459" lon="4.66147">
        <ele>361</ele>
        <time>2018-07-15T09:40:55Z</time>
      </trkpt>
      <trkpt lat="45.88461" lon="4.66148">
        <ele>361</ele>
        <time>2018-07-15T09:40:56Z</time>
      </trkpt>
      <trkpt lat="45.88468" lon="4.66149">
        <ele>362</ele>
        <time>2018-07-15T09:41:00Z</time>
      </trkpt>
      <trkpt lat="45.8847" lon="4.6615">
        <ele>362</ele>
        <time>2018-07-15T09:41:01Z</time>
      </trkpt>
      <trkpt lat="45.88478" lon="4.66155">
        <ele>363</ele>
        <time>2018-07-15T09:41:06Z</time>
      </trkpt>
      <trkpt lat="45.8848" lon="4.66156">
        <ele>363</ele>
        <time>2018-07-15T09:41:07Z</time>
      </trkpt>
      <trkpt lat="45.88488" lon="4.66162">
        <ele>364</ele>
        <time>2018-07-15T09:41:11Z</time>
      </trkpt>
      <trkpt lat="45.8849" lon="4.66163">
        <ele>365</ele>
        <time>2018-07-15T09:41:12Z</time>
      </trkpt>
      <trkpt lat="45.88496" lon="4.66168">
        <ele>368</ele>
        <time>2018-07-15T09:41:15Z</time>
      </trkpt>
      <trkpt lat="45.88498" lon="4.6617">
        <ele>368</ele>
        <time>2018-07-15T09:41:16Z</time>
      </trkpt>
      <trkpt lat="45.88505" lon="4.66175">
        <ele>368</ele>
        <time>2018-07-15T09:41:19Z</time>
      </trkpt>
      <trkpt lat="45.88507" lon="4.66176">
        <ele>368</ele>
        <time>2018-07-15T09:41:20Z</time>
      </trkpt>
      <trkpt lat="45.88513" lon="4.66181">
        <ele>369</ele>
        <time>2018-07-15T09:41:24Z</time>
      </trkpt>
      <trkpt lat="45.88515" lon="4.66183">
        <ele>369</ele>
        <time>2018-07-15T09:41:25Z</time>
      </trkpt>
      <trkpt lat="45.88522" lon="4.6619">
        <ele>369</ele>
        <time>2018-07-15T09:41:29Z</time>
      </trkpt>
      <trkpt lat="45.88523" lon="4.66191">
        <ele>369</ele>
        <time>2018-07-15T09:41:30Z</time>
      </trkpt>
      <trkpt lat="45.88531" lon="4.66195">
        <ele>370</ele>
        <time>2018-07-15T09:41:34Z</time>
      </trkpt>
      <trkpt lat="45.88533" lon="4.66196">
        <ele>370</ele>
        <time>2018-07-15T09:41:35Z</time>
      </trkpt>
      <trkpt lat="45.8854" lon="4.66202">
        <ele>370</ele>
        <time>2018-07-15T09:41:39Z</time>
      </trkpt>
      <trkpt lat="45.88541" lon="4.66203">
        <ele>370</ele>
        <time>2018-07-15T09:41:40Z</time>
      </trkpt>
      <trkpt lat="45.88548" lon="4.66211">
        <ele>370</ele>
        <time>2018-07-15T09:41:44Z</time>
      </trkpt>
      <trkpt lat="45.88549" lon="4.66213">
        <ele>370</ele>
        <time>2018-07-15T09:41:45Z</time>
      </trkpt>
      <trkpt lat="45.88555" lon="4.6622">
        <ele>370</ele>
        <time>2018-07-15T09:41:49Z</time>
      </trkpt>
      <trkpt lat="45.88557" lon="4.66221">
        <ele>370</ele>
        <time>2018-07-15T09:41:50Z</time>
      </trkpt>
      <trkpt lat="45.88563" lon="4.66229">
        <ele>370</ele>
        <time>2018-07-15T09:41:54Z</time>
      </trkpt>
      <trkpt lat="45.88565" lon="4.66231">
        <ele>370</ele>
        <time>2018-07-15T09:41:55Z</time>
      </trkpt>
      <trkpt lat="45.88571" lon="4.66236">
        <ele>371</ele>
        <time>2018-07-15T09:41:58Z</time>
      </trkpt>
      <trkpt lat="45.88572" lon="4.66238">
        <ele>371</ele>
        <time>2018-07-15T09:41:59Z</time>
      </trkpt>
      <trkpt lat="45.88577" lon="4.66245">
        <ele>371</ele>
        <time>2018-07-15T09:42:02Z</time>
      </trkpt>
      <trkpt lat="45.88579" lon="4.66248">
        <ele>371</ele>
        <time>2018-07-15T09:42:03Z</time>
      </trkpt>
      <trkpt lat="45.88584" lon="4.66257">
        <ele>371</ele>
        <time>2018-07-15T09:42:06Z</time>
      </trkpt>
      <trkpt lat="45.88586" lon="4.6626">
        <ele>371</ele>
        <time>2018-07-15T09:42:07Z</time>
      </trkpt>
      <trkpt lat="45.8859" lon="4.66268">
        <ele>372</ele>
        <time>2018-07-15T09:42:10Z</time>
      </trkpt>
      <trkpt lat="45.88592" lon="4.66271">
        <ele>372</ele>
        <time>2018-07-15T09:42:11Z</time>
      </trkpt>
      <trkpt lat="45.88597" lon="4.66279">
        <ele>372</ele>
        <time>2018-07-15T09:42:14Z</time>
      </trkpt>
      <trkpt lat="45.88599" lon="4.66281">
        <ele>372</ele>
        <time>2018-07-15T09:42:15Z</time>
      </trkpt>
      <trkpt lat="45.88605" lon="4.66291">
        <ele>373</ele>
        <time>2018-07-15T09:42:18Z</time>
      </trkpt>
      <trkpt lat="45.88606" lon="4.66294">
        <ele>373</ele>
        <time>2018-07-15T09:42:19Z</time>
      </trkpt>
      <trkpt lat="45.8861" lon="4.66302">
        <ele>374</ele>
        <time>2018-07-15T09:42:22Z</time>
      </trkpt>
      <trkpt lat="45.88612" lon="4.66305">
        <ele>374</ele>
        <time>2018-07-15T09:42:23Z</time>
      </trkpt>
      <trkpt lat="45.88618" lon="4.66315">
        <ele>374</ele>
        <time>2018-07-15T09:42:26Z</time>
      </trkpt>
      <trkpt lat="45.8862" lon="4.66318">
        <ele>374</ele>
        <time>2018-07-15T09:42:27Z</time>
      </trkpt>
      <trkpt lat="45.88626" lon="4.66327">
        <ele>374</ele>
        <time>2018-07-15T09:42:30Z</time>
      </trkpt>
      <trkpt lat="45.88628" lon="4.6633">
        <ele>374</ele>
        <time>2018-07-15T09:42:31Z</time>
      </trkpt>
      <trkpt lat="45.88633" lon="4.66338">
        <ele>380</ele>
        <time>2018-07-15T09:42:34Z</time>
      </trkpt>
      <trkpt lat="45.88635" lon="4.66341">
        <ele>379</ele>
        <time>2018-07-15T09:42:35Z</time>
      </trkpt>
      <trkpt lat="45.88639" lon="4.66349">
        <ele>380</ele>
        <time>2018-07-15T09:42:38Z</time>
      </trkpt>
      <trkpt lat="45.8864" lon="4.66352">
        <ele>380</ele>
        <time>2018-07-15T09:42:39Z</time>
      </trkpt>
      <trkpt lat="45.88645" lon="4.66361">
        <ele>380</ele>
        <time>2018-07-15T09:42:42Z</time>
      </trkpt>
      <trkpt lat="45.88646" lon="4.66364">
        <ele>380</ele>
        <time>2018-07-15T09:42:43Z</time>
      </trkpt>
      <trkpt lat="45.88652" lon="4.66372">
        <ele>381</ele>
        <time>2018-07-15T09:42:46Z</time>
      </trkpt>
      <trkpt lat="45.88654" lon="4.66374">
        <ele>381</ele>
        <time>2018-07-15T09:42:47Z</time>
      </trkpt>
      <trkpt lat="45.8866" lon="4.6638">
        <ele>381</ele>
        <time>2018-07-15T09:42:50Z</time>
      </trkpt>
      <trkpt lat="45.88663" lon="4.66383">
        <ele>381</ele>
        <time>2018-07-15T09:42:51Z</time>
      </trkpt>
      <trkpt lat="45.88668" lon="4.66389">
        <ele>378</ele>
        <time>2018-07-15T09:42:54Z</time>
      </trkpt>
      <trkpt lat="45.88671" lon="4.66391">
        <ele>378</ele>
        <time>2018-07-15T09:42:55Z</time>
      </trkpt>
      <trkpt lat="45.88677" lon="4.66397">
        <ele>379</ele>
        <time>2018-07-15T09:42:58Z</time>
      </trkpt>
      <trkpt lat="45.88679" lon="4.66399">
        <ele>379</ele>
        <time>2018-07-15T09:42:59Z</time>
      </trkpt>
      <trkpt lat="45.88686" lon="4.66405">
        <ele>379</ele>
        <time>2018-07-15T09:43:02Z</time>
      </trkpt>
      <trkpt lat="45.88688" lon="4.66407">
        <ele>379</ele>
        <time>2018-07-15T09:43:03Z</time>
      </trkpt>
      <trkpt lat="45.88694" lon="4.66412">
        <ele>378</ele>
        <time>2018-07-15T09:43:06Z</time>
      </trkpt>
      <trkpt lat="45.88695" lon="4.66414">
        <ele>378</ele>
        <time>2018-07-15T09:43:07Z</time>
      </trkpt>
      <trkpt lat="45.88701" lon="4.6642">
        <ele>383</ele>
        <time>2018-07-15T09:43:10Z</time>
      </trkpt>
      <trkpt lat="45.88703" lon="4.66422">
        <ele>383</ele>
        <time>2018-07-15T09:43:11Z</time>
      </trkpt>
      <trkpt lat="45.88709" lon="4.66429">
        <ele>383</ele>
        <time>2018-07-15T09:43:15Z</time>
      </trkpt>
      <trkpt lat="45.88711" lon="4.66431">
        <ele>383</ele>
        <time>2018-07-15T09:43:16Z</time>
      </trkpt>
      <trkpt lat="45.88717" lon="4.6644">
        <ele>384</ele>
        <time>2018-07-15T09:43:20Z</time>
      </trkpt>
      <trkpt lat="45.88718" lon="4.66442">
        <ele>384</ele>
        <time>2018-07-15T09:43:21Z</time>
      </trkpt>
      <trkpt lat="45.88724" lon="4.66448">
        <ele>384</ele>
        <time>2018-07-15T09:43:24Z</time>
      </trkpt>
      <trkpt lat="45.88726" lon="4.6645">
        <ele>384</ele>
        <time>2018-07-15T09:43:25Z</time>
      </trkpt>
      <trkpt lat="45.88732" lon="4.66457">
        <ele>384</ele>
        <time>2018-07-15T09:43:28Z</time>
      </trkpt>
      <trkpt lat="45.88734" lon="4.66459">
        <ele>384</ele>
        <time>2018-07-15T09:43:29Z</time>
      </trkpt>
      <trkpt lat="45.88739" lon="4.66467">
        <ele>385</ele>
        <time>2018-07-15T09:43:32Z</time>
      </trkpt>
      <trkpt lat="45.88741" lon="4.66469">
        <ele>385</ele>
        <time>2018-07-15T09:43:33Z</time>
      </trkpt>
      <trkpt lat="45.88746" lon="4.66476">
        <ele>385</ele>
        <time>2018-07-15T09:43:36Z</time>
      </trkpt>
      <trkpt lat="45.88748" lon="4.66478">
        <ele>385</ele>
        <time>2018-07-15T09:43:37Z</time>
      </trkpt>
      <trkpt lat="45.88753" lon="4.66486">
        <ele>384</ele>
        <time>2018-07-15T09:43:41Z</time>
      </trkpt>
      <trkpt lat="45.88754" lon="4.66488">
        <ele>385</ele>
        <time>2018-07-15T09:43:42Z</time>
      </trkpt>
      <trkpt lat="45.8876" lon="4.66496">
        <ele>385</ele>
        <time>2018-07-15T09:43:46Z</time>
      </trkpt>
      <trkpt lat="45.88761" lon="4.66498">
        <ele>385</ele>
        <time>2018-07-15T09:43:47Z</time>
      </trkpt>
      <trkpt lat="45.88768" lon="4.66506">
        <ele>389</ele>
        <time>2018-07-15T09:43:51Z</time>
      </trkpt>
      <trkpt lat="45.88769" lon="4.66508">
        <ele>389</ele>
        <time>2018-07-15T09:43:52Z</time>
      </trkpt>
      <trkpt lat="45.88777" lon="4.66515">
        <ele>390</ele>
        <time>2018-07-15T09:43:56Z</time>
      </trkpt>
      <trkpt lat="45.88778" lon="4.66516">
        <ele>390</ele>
        <time>2018-07-15T09:43:57Z</time>
      </trkpt>
      <trkpt lat="45.88786" lon="4.66522">
        <ele>390</ele>
        <time>2018-07-15T09:44:01Z</time>
      </trkpt>
      <trkpt lat="45.88787" lon="4.66524">
        <ele>390</ele>
        <time>2018-07-15T09:44:02Z</time>
      </trkpt>
      <trkpt lat="45.88794" lon="4.66529">
        <ele>391</ele>
        <time>2018-07-15T09:44:07Z</time>
      </trkpt>
      <trkpt lat="45.88796" lon="4.6653">
        <ele>391</ele>
        <time>2018-07-15T09:44:08Z</time>
      </trkpt>
      <trkpt lat="45.88803" lon="4.66535">
        <ele>391</ele>
        <time>2018-07-15T09:44:12Z</time>
      </trkpt>
      <trkpt lat="45.88804" lon="4.66537">
        <ele>391</ele>
        <time>2018-07-15T09:44:13Z</time>
      </trkpt>
      <trkpt lat="45.88811" lon="4.66543">
        <ele>391</ele>
        <time>2018-07-15T09:44:17Z</time>
      </trkpt>
      <trkpt lat="45.88813" lon="4.66544">
        <ele>392</ele>
        <time>2018-07-15T09:44:18Z</time>
      </trkpt>
      <trkpt lat="45.8882" lon="4.66549">
        <ele>392</ele>
        <time>2018-07-15T09:44:22Z</time>
      </trkpt>
      <trkpt lat="45.88822" lon="4.6655">
        <ele>392</ele>
        <time>2018-07-15T09:44:23Z</time>
      </trkpt>
      <trkpt lat="45.88829" lon="4.66553">
        <ele>393</ele>
        <time>2018-07-15T09:44:27Z</time>
      </trkpt>
      <trkpt lat="45.88831" lon="4.66554">
        <ele>393</ele>
        <time>2018-07-15T09:44:28Z</time>
      </trkpt>
      <trkpt lat="45.88838" lon="4.66559">
        <ele>392</ele>
        <time>2018-07-15T09:44:32Z</time>
      </trkpt>
      <trkpt lat="45.8884" lon="4.6656">
        <ele>392</ele>
        <time>2018-07-15T09:44:33Z</time>
      </trkpt>
      <trkpt lat="45.88848" lon="4.66564">
        <ele>392</ele>
        <time>2018-07-15T09:44:38Z</time>
      </trkpt>
      <trkpt lat="45.8885" lon="4.66566">
        <ele>392</ele>
        <time>2018-07-15T09:44:39Z</time>
      </trkpt>
      <trkpt lat="45.88856" lon="4.66571">
        <ele>392</ele>
        <time>2018-07-15T09:44:44Z</time>
      </trkpt>
      <trkpt lat="45.88858" lon="4.66573">
        <ele>392</ele>
        <time>2018-07-15T09:44:45Z</time>
      </trkpt>
      <trkpt lat="45.88864" lon="4.6658">
        <ele>392</ele>
        <time>2018-07-15T09:44:50Z</time>
      </trkpt>
      <trkpt lat="45.88865" lon="4.66582">
        <ele>392</ele>
        <time>2018-07-15T09:44:51Z</time>
      </trkpt>
      <trkpt lat="45.8887" lon="4.66589">
        <ele>399</ele>
        <time>2018-07-15T09:44:55Z</time>
      </trkpt>
      <trkpt lat="45.88872" lon="4.66591">
        <ele>399</ele>
        <time>2018-07-15T09:44:56Z</time>
      </trkpt>
      <trkpt lat="45.88877" lon="4.66601">
        <ele>400</ele>
        <time>2018-07-15T09:45:01Z</time>
      </trkpt>
      <trkpt lat="45.88878" lon="4.66603">
        <ele>400</ele>
        <time>2018-07-15T09:45:02Z</time>
      </trkpt>
      <trkpt lat="45.88883" lon="4.66611">
        <ele>400</ele>
        <time>2018-07-15T09:45:06Z</time>
      </trkpt>
      <trkpt lat="45.88884" lon="4.66613">
        <ele>400</ele>
        <time>2018-07-15T09:45:07Z</time>
      </trkpt>
      <trkpt lat="45.88888" lon="4.66622">
        <ele>401</ele>
        <time>2018-07-15T09:45:12Z</time>
      </trkpt>
      <trkpt lat="45.88889" lon="4.66623">
        <ele>401</ele>
        <time>2018-07-15T09:45:13Z</time>
      </trkpt>
      <trkpt lat="45.88895" lon="4.66632">
        <ele>401</ele>
        <time>2018-07-15T09:45:18Z</time>
      </trkpt>
      <trkpt lat="45.88896" lon="4.66633">
        <ele>402</ele>
        <time>2018-07-15T09:45:19Z</time>
      </trkpt>
      <trkpt lat="45.88902" lon="4.66643">
        <ele>402</ele>
        <time>2018-07-15T09:45:24Z</time>
      </trkpt>
      <trkpt lat="45.88903" lon="4.66645">
        <ele>403</ele>
        <time>2018-07-15T09:45:25Z</time>
      </trkpt>
      <trkpt lat="45.88908" lon="4.66651">
        <ele>403</ele>
        <time>2018-07-15T09:45:28Z</time>
      </trkpt>
      <trkpt lat="45.8891" lon="4.66654">
        <ele>404</ele>
        <time>2018-07-15T09:45:29Z</time>
      </trkpt>
      <trkpt lat="45.88916" lon="4.66659">
        <ele>405</ele>
        <time>2018-07-15T09:45:32Z</time>
      </trkpt>
      <trkpt lat="45.88917" lon="4.66661">
        <ele>405</ele>
        <time>2018-07-15T09:45:33Z</time>
      </trkpt>
      <trkpt lat="45.88924" lon="4.66666">
        <ele>404</ele>
        <time>2018-07-15T09:45:36Z</time>
      </trkpt>
      <trkpt lat="45.88926" lon="4.66668">
        <ele>407</ele>
        <time>2018-07-15T09:45:37Z</time>
      </trkpt>
      <trkpt lat="45.88932" lon="4.66673">
        <ele>408</ele>
        <time>2018-07-15T09:45:40Z</time>
      </trkpt>
      <trkpt lat="45.88934" lon="4.66675">
        <ele>408</ele>
        <time>2018-07-15T09:45:41Z</time>
      </trkpt>
      <trkpt lat="45.88941" lon="4.6668">
        <ele>408</ele>
        <time>2018-07-15T09:45:44Z</time>
      </trkpt>
      <trkpt lat="45.88943" lon="4.66682">
        <ele>408</ele>
        <time>2018-07-15T09:45:45Z</time>
      </trkpt>
      <trkpt lat="45.8895" lon="4.66687">
        <ele>409</ele>
        <time>2018-07-15T09:45:48Z</time>
      </trkpt>
      <trkpt lat="45.88953" lon="4.66688">
        <ele>409</ele>
        <time>2018-07-15T09:45:49Z</time>
      </trkpt>
      <trkpt lat="45.8896" lon="4.66692">
        <ele>409</ele>
        <time>2018-07-15T09:45:52Z</time>
      </trkpt>
      <trkpt lat="45.88963" lon="4.66693">
        <ele>409</ele>
        <time>2018-07-15T09:45:53Z</time>
      </trkpt>
      <trkpt lat="45.8897" lon="4.66696">
        <ele>409</ele>
        <time>2018-07-15T09:45:56Z</time>
      </trkpt>
      <trkpt lat="45.88973" lon="4.66698">
        <ele>409</ele>
        <time>2018-07-15T09:45:57Z</time>
      </trkpt>
      <trkpt lat="45.88979" lon="4.667">
        <ele>409</ele>
        <time>2018-07-15T09:45:59Z</time>
      </trkpt>
      <trkpt lat="45.88982" lon="4.66701">
        <ele>409</ele>
        <time>2018-07-15T09:46:00Z</time>
      </trkpt>
      <trkpt lat="45.88991" lon="4.66704">
        <ele>409</ele>
        <time>2018-07-15T09:46:03Z</time>
      </trkpt>
      <trkpt lat="45.88993" lon="4.66706">
        <ele>409</ele>
        <time>2018-07-15T09:46:04Z</time>
      </trkpt>
      <trkpt lat="45.88999" lon="4.66709">
        <ele>409</ele>
        <time>2018-07-15T09:46:06Z</time>
      </trkpt>
      <trkpt lat="45.89002" lon="4.6671">
        <ele>407</ele>
        <time>2018-07-15T09:46:07Z</time>
      </trkpt>
      <trkpt lat="45.89008" lon="4.66714">
        <ele>407</ele>
        <time>2018-07-15T09:46:09Z</time>
      </trkpt>
      <trkpt lat="45.89011" lon="4.66716">
        <ele>407</ele>
        <time>2018-07-15T09:46:10Z</time>
      </trkpt>
      <trkpt lat="45.89018" lon="4.66722">
        <ele>407</ele>
        <time>2018-07-15T09:46:13Z</time>
      </trkpt>
      <trkpt lat="45.8902" lon="4.66723">
        <ele>408</ele>
        <time>2018-07-15T09:46:14Z</time>
      </trkpt>
      <trkpt lat="45.89026" lon="4.66728">
        <ele>408</ele>
        <time>2018-07-15T09:46:17Z</time>
      </trkpt>
      <trkpt lat="45.8904" lon="4.66738">
        <ele>407</ele>
        <time>2018-07-15T09:46:18Z</time>
      </trkpt>
      <trkpt lat="45.89049" lon="4.66739">
        <ele>407</ele>
        <time>2018-07-15T09:46:23Z</time>
      </trkpt>
      <trkpt lat="45.89051" lon="4.66739">
        <ele>407</ele>
        <time>2018-07-15T09:46:24Z</time>
      </trkpt>
      <trkpt lat="45.89057" lon="4.66743">
        <ele>407</ele>
        <time>2018-07-15T09:46:27Z</time>
      </trkpt>
      <trkpt lat="45.8906" lon="4.66745">
        <ele>407</ele>
        <time>2018-07-15T09:46:28Z</time>
      </trkpt>
      <trkpt lat="45.89067" lon="4.66754">
        <ele>411</ele>
        <time>2018-07-15T09:46:31Z</time>
      </trkpt>
      <trkpt lat="45.89068" lon="4.66756">
        <ele>411</ele>
        <time>2018-07-15T09:46:32Z</time>
      </trkpt>
      <trkpt lat="45.89073" lon="4.66763">
        <ele>411</ele>
        <time>2018-07-15T09:46:35Z</time>
      </trkpt>
      <trkpt lat="45.89075" lon="4.66765">
        <ele>412</ele>
        <time>2018-07-15T09:46:36Z</time>
      </trkpt>
      <trkpt lat="45.89081" lon="4.66769">
        <ele>412</ele>
        <time>2018-07-15T09:46:39Z</time>
      </trkpt>
      <trkpt lat="45.89084" lon="4.66769">
        <ele>410</ele>
        <time>2018-07-15T09:46:40Z</time>
      </trkpt>
      <trkpt lat="45.89089" lon="4.66772">
        <ele>410</ele>
        <time>2018-07-15T09:46:42Z</time>
      </trkpt>
      <trkpt lat="45.89092" lon="4.66774">
        <ele>410</ele>
        <time>2018-07-15T09:46:43Z</time>
      </trkpt>
      <trkpt lat="45.89098" lon="4.66779">
        <ele>410</ele>
        <time>2018-07-15T09:46:45Z</time>
      </trkpt>
      <trkpt lat="45.891" lon="4.66782">
        <ele>410</ele>
        <time>2018-07-15T09:46:46Z</time>
      </trkpt>
      <trkpt lat="45.89105" lon="4.66788">
        <ele>410</ele>
        <time>2018-07-15T09:46:48Z</time>
      </trkpt>
      <trkpt lat="45.89108" lon="4.6679">
        <ele>410</ele>
        <time>2018-07-15T09:46:49Z</time>
      </trkpt>
      <trkpt lat="45.89115" lon="4.66796">
        <ele>410</ele>
        <time>2018-07-15T09:46:52Z</time>
      </trkpt>
      <trkpt lat="45.89117" lon="4.66798">
        <ele>410</ele>
        <time>2018-07-15T09:46:53Z</time>
      </trkpt>
      <trkpt lat="45.89124" lon="4.66802">
        <ele>410</ele>
        <time>2018-07-15T09:46:56Z</time>
      </trkpt>
      <trkpt lat="45.89125" lon="4.66805">
        <ele>410</ele>
        <time>2018-07-15T09:46:57Z</time>
      </trkpt>
      <trkpt lat="45.89125" lon="4.66817">
        <ele>411</ele>
        <time>2018-07-15T09:47:02Z</time>
      </trkpt>
      <trkpt lat="45.89125" lon="4.66818">
        <ele>411</ele>
        <time>2018-07-15T09:47:03Z</time>
      </trkpt>
      <trkpt lat="45.89124" lon="4.6682">
        <ele>411</ele>
        <time>2018-07-15T09:47:11Z</time>
      </trkpt>
      <trkpt lat="45.89124" lon="4.66819">
        <ele>411</ele>
        <time>2018-07-15T09:47:12Z</time>
      </trkpt>
      <trkpt lat="45.89124" lon="4.66819">
        <ele>411</ele>
        <time>2018-07-15T09:47:13Z</time>
      </trkpt>
      <trkpt lat="45.89118" lon="4.66823">
        <ele>411</ele>
        <time>2018-07-15T09:53:40Z</time>
      </trkpt>
      <trkpt lat="45.89116" lon="4.66813">
        <ele>411</ele>
        <time>2018-07-15T09:53:44.849Z</time>
      </trkpt>
      <trkpt lat="45.89118" lon="4.66823">
        <ele>411</ele>
        <time>2018-07-15T09:54:15Z</time>
      </trkpt>
      <trkpt lat="45.89118" lon="4.66823">
        <ele>411</ele>
        <time>2018-07-15T09:54:16Z</time>
      </trkpt>
      <trkpt lat="45.89119" lon="4.66823">
        <ele>411</ele>
        <time>2018-07-15T09:54:17Z</time>
      </trkpt>
      <trkpt lat="45.89128" lon="4.66821">
        <ele>411</ele>
        <time>2018-07-15T09:54:30.117Z</time>
      </trkpt>
      <trkpt lat="45.89128" lon="4.66818">
        <ele>411</ele>
        <time>2018-07-15T09:54:31Z</time>
      </trkpt>
      <trkpt lat="45.89131" lon="4.66807">
        <ele>411</ele>
        <time>2018-07-15T09:54:35Z</time>
      </trkpt>
      <trkpt lat="45.89133" lon="4.66806">
        <ele>410</ele>
        <time>2018-07-15T09:54:36Z</time>
      </trkpt>
      <trkpt lat="45.89136" lon="4.66806">
        <ele>410</ele>
        <time>2018-07-15T09:54:37Z</time>
      </trkpt>
      <trkpt lat="45.89145" lon="4.66811">
        <ele>411</ele>
        <time>2018-07-15T09:54:38Z</time>
      </trkpt>
      <trkpt lat="45.8915" lon="4.66819">
        <ele>411</ele>
        <time>2018-07-15T09:54:41Z</time>
      </trkpt>
      <trkpt lat="45.8915" lon="4.66823">
        <ele>412</ele>
        <time>2018-07-15T09:54:42Z</time>
      </trkpt>
      <trkpt lat="45.89152" lon="4.66832">
        <ele>412</ele>
        <time>2018-07-15T09:54:44Z</time>
      </trkpt>
      <trkpt lat="45.89154" lon="4.6685">
        <ele>414</ele>
        <time>2018-07-15T09:54:45Z</time>
      </trkpt>
      <trkpt lat="45.89154" lon="4.6686">
        <ele>414</ele>
        <time>2018-07-15T09:54:48Z</time>
      </trkpt>
      <trkpt lat="45.89153" lon="4.66865">
        <ele>414</ele>
        <time>2018-07-15T09:54:49Z</time>
      </trkpt>
      <trkpt lat="45.89153" lon="4.66868">
        <ele>414</ele>
        <time>2018-07-15T09:54:50Z</time>
      </trkpt>
      <trkpt lat="45.89152" lon="4.6688">
        <ele>414</ele>
        <time>2018-07-15T09:54:51Z</time>
      </trkpt>
      <trkpt lat="45.89153" lon="4.66892">
        <ele>414</ele>
        <time>2018-07-15T09:54:53Z</time>
      </trkpt>
      <trkpt lat="45.89154" lon="4.66897">
        <ele>414</ele>
        <time>2018-07-15T09:54:54Z</time>
      </trkpt>
      <trkpt lat="45.89156" lon="4.66906">
        <ele>415</ele>
        <time>2018-07-15T09:54:57Z</time>
      </trkpt>
      <trkpt lat="45.89157" lon="4.6691">
        <ele>415</ele>
        <time>2018-07-15T09:54:58Z</time>
      </trkpt>
      <trkpt lat="45.8916" lon="4.66918">
        <ele>414</ele>
        <time>2018-07-15T09:55:00Z</time>
      </trkpt>
      <trkpt lat="45.89164" lon="4.66931">
        <ele>413</ele>
        <time>2018-07-15T09:55:01Z</time>
      </trkpt>
      <trkpt lat="45.89167" lon="4.66942">
        <ele>415</ele>
        <time>2018-07-15T09:55:03Z</time>
      </trkpt>
      <trkpt lat="45.89167" lon="4.66944">
        <ele>415</ele>
        <time>2018-07-15T09:55:04Z</time>
      </trkpt>
      <trkpt lat="45.89169" lon="4.66951">
        <ele>415</ele>
        <time>2018-07-15T09:55:06Z</time>
      </trkpt>
      <trkpt lat="45.89172" lon="4.66962">
        <ele>415</ele>
        <time>2018-07-15T09:55:07Z</time>
      </trkpt>
      <trkpt lat="45.89175" lon="4.66972">
        <ele>415</ele>
        <time>2018-07-15T09:55:10Z</time>
      </trkpt>
      <trkpt lat="45.89177" lon="4.66982">
        <ele>414</ele>
        <time>2018-07-15T09:55:11Z</time>
      </trkpt>
      <trkpt lat="45.89179" lon="4.66988">
        <ele>414</ele>
        <time>2018-07-15T09:55:12Z</time>
      </trkpt>
      <trkpt lat="45.89187" lon="4.66996">
        <ele>414</ele>
        <time>2018-07-15T09:55:13Z</time>
      </trkpt>
      <trkpt lat="45.89186" lon="4.67005">
        <ele>412</ele>
        <time>2018-07-15T09:55:15Z</time>
      </trkpt>
      <trkpt lat="45.89185" lon="4.67009">
        <ele>412</ele>
        <time>2018-07-15T09:55:16Z</time>
      </trkpt>
      <trkpt lat="45.89189" lon="4.67021">
        <ele>413</ele>
        <time>2018-07-15T09:55:18Z</time>
      </trkpt>
      <trkpt lat="45.8919" lon="4.67028">
        <ele>413</ele>
        <time>2018-07-15T09:55:19Z</time>
      </trkpt>
      <trkpt lat="45.89192" lon="4.67033">
        <ele>413</ele>
        <time>2018-07-15T09:55:20Z</time>
      </trkpt>
      <trkpt lat="45.89193" lon="4.6704">
        <ele>412</ele>
        <time>2018-07-15T09:55:21Z</time>
      </trkpt>
      <trkpt lat="45.89196" lon="4.6705">
        <ele>412</ele>
        <time>2018-07-15T09:55:23Z</time>
      </trkpt>
      <trkpt lat="45.89199" lon="4.67055">
        <ele>412</ele>
        <time>2018-07-15T09:55:24Z</time>
      </trkpt>
      <trkpt lat="45.89203" lon="4.67065">
        <ele>412</ele>
        <time>2018-07-15T09:55:26Z</time>
      </trkpt>
      <trkpt lat="45.89205" lon="4.67071">
        <ele>412</ele>
        <time>2018-07-15T09:55:27Z</time>
      </trkpt>
      <trkpt lat="45.89207" lon="4.67078">
        <ele>412</ele>
        <time>2018-07-15T09:55:28Z</time>
      </trkpt>
      <trkpt lat="45.89209" lon="4.67085">
        <ele>410</ele>
        <time>2018-07-15T09:55:29Z</time>
      </trkpt>
      <trkpt lat="45.89211" lon="4.6709">
        <ele>410</ele>
        <time>2018-07-15T09:55:30Z</time>
      </trkpt>
      <trkpt lat="45.89214" lon="4.67096">
        <ele>410</ele>
        <time>2018-07-15T09:55:31Z</time>
      </trkpt>
      <trkpt lat="45.89217" lon="4.67103">
        <ele>411</ele>
        <time>2018-07-15T09:55:32Z</time>
      </trkpt>
      <trkpt lat="45.8922" lon="4.67109">
        <ele>411</ele>
        <time>2018-07-15T09:55:33Z</time>
      </trkpt>
      <trkpt lat="45.89223" lon="4.67115">
        <ele>411</ele>
        <time>2018-07-15T09:55:34Z</time>
      </trkpt>
      <trkpt lat="45.89225" lon="4.6712">
        <ele>411</ele>
        <time>2018-07-15T09:55:35Z</time>
      </trkpt>
      <trkpt lat="45.89228" lon="4.67126">
        <ele>411</ele>
        <time>2018-07-15T09:55:36Z</time>
      </trkpt>
      <trkpt lat="45.89232" lon="4.67132">
        <ele>411</ele>
        <time>2018-07-15T09:55:37Z</time>
      </trkpt>
      <trkpt lat="45.89235" lon="4.67138">
        <ele>411</ele>
        <time>2018-07-15T09:55:38Z</time>
      </trkpt>
      <trkpt lat="45.89238" lon="4.67143">
        <ele>411</ele>
        <time>2018-07-15T09:55:39Z</time>
      </trkpt>
      <trkpt lat="45.89242" lon="4.67149">
        <ele>411</ele>
        <time>2018-07-15T09:55:40Z</time>
      </trkpt>
      <trkpt lat="45.89246" lon="4.67154">
        <ele>412</ele>
        <time>2018-07-15T09:55:41Z</time>
      </trkpt>
      <trkpt lat="45.89251" lon="4.6716">
        <ele>414</ele>
        <time>2018-07-15T09:55:42Z</time>
      </trkpt>
      <trkpt lat="45.89254" lon="4.67166">
        <ele>414</ele>
        <time>2018-07-15T09:55:43Z</time>
      </trkpt>
      <trkpt lat="45.89259" lon="4.67171">
        <ele>412</ele>
        <time>2018-07-15T09:55:44Z</time>
      </trkpt>
      <trkpt lat="45.89263" lon="4.67176">
        <ele>412</ele>
        <time>2018-07-15T09:55:45Z</time>
      </trkpt>
      <trkpt lat="45.89268" lon="4.6718">
        <ele>412</ele>
        <time>2018-07-15T09:55:46Z</time>
      </trkpt>
      <trkpt lat="45.89273" lon="4.67183">
        <ele>412</ele>
        <time>2018-07-15T09:55:47Z</time>
      </trkpt>
      <trkpt lat="45.89278" lon="4.67186">
        <ele>412</ele>
        <time>2018-07-15T09:55:48Z</time>
      </trkpt>
      <trkpt lat="45.89284" lon="4.6719">
        <ele>412</ele>
        <time>2018-07-15T09:55:49Z</time>
      </trkpt>
      <trkpt lat="45.8929" lon="4.67194">
        <ele>412</ele>
        <time>2018-07-15T09:55:50Z</time>
      </trkpt>
      <trkpt lat="45.89295" lon="4.67197">
        <ele>412</ele>
        <time>2018-07-15T09:55:51Z</time>
      </trkpt>
      <trkpt lat="45.89301" lon="4.672">
        <ele>412</ele>
        <time>2018-07-15T09:55:52Z</time>
      </trkpt>
      <trkpt lat="45.89306" lon="4.67202">
        <ele>412</ele>
        <time>2018-07-15T09:55:53Z</time>
      </trkpt>
      <trkpt lat="45.89311" lon="4.67206">
        <ele>412</ele>
        <time>2018-07-15T09:55:54Z</time>
      </trkpt>
      <trkpt lat="45.89316" lon="4.67208">
        <ele>412</ele>
        <time>2018-07-15T09:55:55Z</time>
      </trkpt>
      <trkpt lat="45.89322" lon="4.6721">
        <ele>412</ele>
        <time>2018-07-15T09:55:56Z</time>
      </trkpt>
      <trkpt lat="45.89327" lon="4.67213">
        <ele>411</ele>
        <time>2018-07-15T09:55:57Z</time>
      </trkpt>
      <trkpt lat="45.89333" lon="4.67216">
        <ele>411</ele>
        <time>2018-07-15T09:55:58Z</time>
      </trkpt>
      <trkpt lat="45.89338" lon="4.67218">
        <ele>415</ele>
        <time>2018-07-15T09:55:59Z</time>
      </trkpt>
      <trkpt lat="45.89343" lon="4.67222">
        <ele>415</ele>
        <time>2018-07-15T09:56:00Z</time>
      </trkpt>
      <trkpt lat="45.89348" lon="4.67227">
        <ele>415</ele>
        <time>2018-07-15T09:56:01Z</time>
      </trkpt>
      <trkpt lat="45.89352" lon="4.6723">
        <ele>415</ele>
        <time>2018-07-15T09:56:02Z</time>
      </trkpt>
      <trkpt lat="45.89356" lon="4.67235">
        <ele>415</ele>
        <time>2018-07-15T09:56:03Z</time>
      </trkpt>
      <trkpt lat="45.8936" lon="4.6724">
        <ele>415</ele>
        <time>2018-07-15T09:56:04Z</time>
      </trkpt>
      <trkpt lat="45.89364" lon="4.67247">
        <ele>415</ele>
        <time>2018-07-15T09:56:05Z</time>
      </trkpt>
      <trkpt lat="45.89367" lon="4.67253">
        <ele>409</ele>
        <time>2018-07-15T09:56:06Z</time>
      </trkpt>
      <trkpt lat="45.89371" lon="4.6726">
        <ele>409</ele>
        <time>2018-07-15T09:56:07Z</time>
      </trkpt>
      <trkpt lat="45.89373" lon="4.67267">
        <ele>409</ele>
        <time>2018-07-15T09:56:08Z</time>
      </trkpt>
      <trkpt lat="45.89376" lon="4.67275">
        <ele>408</ele>
        <time>2018-07-15T09:56:09Z</time>
      </trkpt>
      <trkpt lat="45.8938" lon="4.67281">
        <ele>408</ele>
        <time>2018-07-15T09:56:10Z</time>
      </trkpt>
      <trkpt lat="45.89383" lon="4.67286">
        <ele>408</ele>
        <time>2018-07-15T09:56:11Z</time>
      </trkpt>
      <trkpt lat="45.89387" lon="4.67293">
        <ele>408</ele>
        <time>2018-07-15T09:56:12Z</time>
      </trkpt>
      <trkpt lat="45.8939" lon="4.67299">
        <ele>408</ele>
        <time>2018-07-15T09:56:13Z</time>
      </trkpt>
      <trkpt lat="45.89394" lon="4.67304">
        <ele>408</ele>
        <time>2018-07-15T09:56:14Z</time>
      </trkpt>
      <trkpt lat="45.89401" lon="4.6731">
        <ele>408</ele>
        <time>2018-07-15T09:56:15Z</time>
      </trkpt>
      <trkpt lat="45.89406" lon="4.67315">
        <ele>407</ele>
        <time>2018-07-15T09:56:16Z</time>
      </trkpt>
      <trkpt lat="45.89413" lon="4.67321">
        <ele>407</ele>
        <time>2018-07-15T09:56:17Z</time>
      </trkpt>
      <trkpt lat="45.89419" lon="4.67328">
        <ele>409</ele>
        <time>2018-07-15T09:56:18Z</time>
      </trkpt>
      <trkpt lat="45.89423" lon="4.67334">
        <ele>407</ele>
        <time>2018-07-15T09:56:19Z</time>
      </trkpt>
      <trkpt lat="45.8943" lon="4.67341">
        <ele>407</ele>
        <time>2018-07-15T09:56:20Z</time>
      </trkpt>
      <trkpt lat="45.89435" lon="4.67348">
        <ele>407</ele>
        <time>2018-07-15T09:56:21Z</time>
      </trkpt>
      <trkpt lat="45.8944" lon="4.67354">
        <ele>407</ele>
        <time>2018-07-15T09:56:22Z</time>
      </trkpt>
      <trkpt lat="45.89446" lon="4.67359">
        <ele>407</ele>
        <time>2018-07-15T09:56:23Z</time>
      </trkpt>
      <trkpt lat="45.89452" lon="4.67364">
        <ele>407</ele>
        <time>2018-07-15T09:56:24Z</time>
      </trkpt>
      <trkpt lat="45.89457" lon="4.67369">
        <ele>407</ele>
        <time>2018-07-15T09:56:25Z</time>
      </trkpt>
      <trkpt lat="45.89463" lon="4.67375">
        <ele>407</ele>
        <time>2018-07-15T09:56:26Z</time>
      </trkpt>
      <trkpt lat="45.8947" lon="4.6738">
        <ele>407</ele>
        <time>2018-07-15T09:56:27Z</time>
      </trkpt>
      <trkpt lat="45.89476" lon="4.67385">
        <ele>407</ele>
        <time>2018-07-15T09:56:28Z</time>
      </trkpt>
      <trkpt lat="45.89481" lon="4.67392">
        <ele>407</ele>
        <time>2018-07-15T09:56:29Z</time>
      </trkpt>
      <trkpt lat="45.89488" lon="4.67396">
        <ele>406</ele>
        <time>2018-07-15T09:56:30Z</time>
      </trkpt>
      <trkpt lat="45.89493" lon="4.67401">
        <ele>406</ele>
        <time>2018-07-15T09:56:31Z</time>
      </trkpt>
      <trkpt lat="45.895" lon="4.67406">
        <ele>405</ele>
        <time>2018-07-15T09:56:32Z</time>
      </trkpt>
      <trkpt lat="45.89505" lon="4.6741">
        <ele>407</ele>
        <time>2018-07-15T09:56:33Z</time>
      </trkpt>
      <trkpt lat="45.89512" lon="4.67413">
        <ele>408</ele>
        <time>2018-07-15T09:56:34Z</time>
      </trkpt>
      <trkpt lat="45.89518" lon="4.67418">
        <ele>402</ele>
        <time>2018-07-15T09:56:35Z</time>
      </trkpt>
      <trkpt lat="45.89525" lon="4.67422">
        <ele>402</ele>
        <time>2018-07-15T09:56:36Z</time>
      </trkpt>
      <trkpt lat="45.89531" lon="4.67427">
        <ele>402</ele>
        <time>2018-07-15T09:56:37Z</time>
      </trkpt>
      <trkpt lat="45.89537" lon="4.67428">
        <ele>402</ele>
        <time>2018-07-15T09:56:38Z</time>
      </trkpt>
      <trkpt lat="45.89545" lon="4.67432">
        <ele>402</ele>
        <time>2018-07-15T09:56:39Z</time>
      </trkpt>
      <trkpt lat="45.89553" lon="4.67435">
        <ele>402</ele>
        <time>2018-07-15T09:56:40Z</time>
      </trkpt>
      <trkpt lat="45.89559" lon="4.67439">
        <ele>402</ele>
        <time>2018-07-15T09:56:41Z</time>
      </trkpt>
      <trkpt lat="45.89564" lon="4.6744">
        <ele>402</ele>
        <time>2018-07-15T09:56:42Z</time>
      </trkpt>
      <trkpt lat="45.89571" lon="4.67443">
        <ele>402</ele>
        <time>2018-07-15T09:56:43Z</time>
      </trkpt>
      <trkpt lat="45.89577" lon="4.67447">
        <ele>402</ele>
        <time>2018-07-15T09:56:44Z</time>
      </trkpt>
      <trkpt lat="45.89585" lon="4.67449">
        <ele>404</ele>
        <time>2018-07-15T09:56:45Z</time>
      </trkpt>
      <trkpt lat="45.89592" lon="4.67451">
        <ele>404</ele>
        <time>2018-07-15T09:56:46Z</time>
      </trkpt>
      <trkpt lat="45.89599" lon="4.67453">
        <ele>403</ele>
        <time>2018-07-15T09:56:47Z</time>
      </trkpt>
      <trkpt lat="45.89606" lon="4.67455">
        <ele>403</ele>
        <time>2018-07-15T09:56:48Z</time>
      </trkpt>
      <trkpt lat="45.89613" lon="4.67455">
        <ele>403</ele>
        <time>2018-07-15T09:56:49Z</time>
      </trkpt>
      <trkpt lat="45.89621" lon="4.67458">
        <ele>403</ele>
        <time>2018-07-15T09:56:50Z</time>
      </trkpt>
      <trkpt lat="45.89627" lon="4.6746">
        <ele>403</ele>
        <time>2018-07-15T09:56:51Z</time>
      </trkpt>
      <trkpt lat="45.89635" lon="4.67462">
        <ele>403</ele>
        <time>2018-07-15T09:56:52Z</time>
      </trkpt>
      <trkpt lat="45.89642" lon="4.67464">
        <ele>403</ele>
        <time>2018-07-15T09:56:53Z</time>
      </trkpt>
      <trkpt lat="45.8965" lon="4.67466">
        <ele>403</ele>
        <time>2018-07-15T09:56:54Z</time>
      </trkpt>
      <trkpt lat="45.89655" lon="4.6747">
        <ele>403</ele>
        <time>2018-07-15T09:56:55Z</time>
      </trkpt>
      <trkpt lat="45.89663" lon="4.67473">
        <ele>402</ele>
        <time>2018-07-15T09:56:56Z</time>
      </trkpt>
      <trkpt lat="45.89669" lon="4.67476">
        <ele>402</ele>
        <time>2018-07-15T09:56:57Z</time>
      </trkpt>
      <trkpt lat="45.89677" lon="4.6748">
        <ele>402</ele>
        <time>2018-07-15T09:56:58Z</time>
      </trkpt>
      <trkpt lat="45.89685" lon="4.67481">
        <ele>402</ele>
        <time>2018-07-15T09:56:59Z</time>
      </trkpt>
      <trkpt lat="45.89691" lon="4.67485">
        <ele>402</ele>
        <time>2018-07-15T09:57:00Z</time>
      </trkpt>
      <trkpt lat="45.89699" lon="4.67487">
        <ele>402</ele>
        <time>2018-07-15T09:57:01Z</time>
      </trkpt>
      <trkpt lat="45.89705" lon="4.67491">
        <ele>402</ele>
        <time>2018-07-15T09:57:02Z</time>
      </trkpt>
      <trkpt lat="45.89714" lon="4.67493">
        <ele>402</ele>
        <time>2018-07-15T09:57:03Z</time>
      </trkpt>
      <trkpt lat="45.89721" lon="4.67495">
        <ele>402</ele>
        <time>2018-07-15T09:57:04Z</time>
      </trkpt>
      <trkpt lat="45.89729" lon="4.67495">
        <ele>401</ele>
        <time>2018-07-15T09:57:05Z</time>
      </trkpt>
      <trkpt lat="45.89737" lon="4.67496">
        <ele>401</ele>
        <time>2018-07-15T09:57:06Z</time>
      </trkpt>
      <trkpt lat="45.89745" lon="4.67497">
        <ele>400</ele>
        <time>2018-07-15T09:57:07Z</time>
      </trkpt>
      <trkpt lat="45.89752" lon="4.67497">
        <ele>399</ele>
        <time>2018-07-15T09:57:08Z</time>
      </trkpt>
      <trkpt lat="45.89759" lon="4.67496">
        <ele>399</ele>
        <time>2018-07-15T09:57:09Z</time>
      </trkpt>
      <trkpt lat="45.89766" lon="4.67495">
        <ele>399</ele>
        <time>2018-07-15T09:57:10Z</time>
      </trkpt>
      <trkpt lat="45.89774" lon="4.67495">
        <ele>399</ele>
        <time>2018-07-15T09:57:11Z</time>
      </trkpt>
      <trkpt lat="45.89782" lon="4.67491">
        <ele>399</ele>
        <time>2018-07-15T09:57:12Z</time>
      </trkpt>
      <trkpt lat="45.89789" lon="4.67488">
        <ele>399</ele>
        <time>2018-07-15T09:57:13Z</time>
      </trkpt>
      <trkpt lat="45.89796" lon="4.67482">
        <ele>399</ele>
        <time>2018-07-15T09:57:14Z</time>
      </trkpt>
      <trkpt lat="45.89803" lon="4.67474">
        <ele>399</ele>
        <time>2018-07-15T09:57:15Z</time>
      </trkpt>
      <trkpt lat="45.89807" lon="4.67462">
        <ele>399</ele>
        <time>2018-07-15T09:57:16Z</time>
      </trkpt>
      <trkpt lat="45.89812" lon="4.6745">
        <ele>399</ele>
        <time>2018-07-15T09:57:17Z</time>
      </trkpt>
      <trkpt lat="45.89815" lon="4.67439">
        <ele>399</ele>
        <time>2018-07-15T09:57:18Z</time>
      </trkpt>
      <trkpt lat="45.89817" lon="4.67427">
        <ele>399</ele>
        <time>2018-07-15T09:57:19Z</time>
      </trkpt>
      <trkpt lat="45.89819" lon="4.67413">
        <ele>401</ele>
        <time>2018-07-15T09:57:20Z</time>
      </trkpt>
      <trkpt lat="45.89823" lon="4.67399">
        <ele>402</ele>
        <time>2018-07-15T09:57:21Z</time>
      </trkpt>
      <trkpt lat="45.89827" lon="4.67388">
        <ele>403</ele>
        <time>2018-07-15T09:57:22Z</time>
      </trkpt>
      <trkpt lat="45.89831" lon="4.67379">
        <ele>404</ele>
        <time>2018-07-15T09:57:23Z</time>
      </trkpt>
      <trkpt lat="45.89838" lon="4.6737">
        <ele>399</ele>
        <time>2018-07-15T09:57:24Z</time>
      </trkpt>
      <trkpt lat="45.89843" lon="4.67363">
        <ele>399</ele>
        <time>2018-07-15T09:57:25Z</time>
      </trkpt>
      <trkpt lat="45.89851" lon="4.67357">
        <ele>399</ele>
        <time>2018-07-15T09:57:26Z</time>
      </trkpt>
      <trkpt lat="45.89858" lon="4.67352">
        <ele>399</ele>
        <time>2018-07-15T09:57:27Z</time>
      </trkpt>
      <trkpt lat="45.89867" lon="4.67349">
        <ele>399</ele>
        <time>2018-07-15T09:57:28Z</time>
      </trkpt>
      <trkpt lat="45.89875" lon="4.67347">
        <ele>399</ele>
        <time>2018-07-15T09:57:29Z</time>
      </trkpt>
      <trkpt lat="45.89883" lon="4.67346">
        <ele>398</ele>
        <time>2018-07-15T09:57:30Z</time>
      </trkpt>
      <trkpt lat="45.89893" lon="4.67347">
        <ele>398</ele>
        <time>2018-07-15T09:57:31Z</time>
      </trkpt>
      <trkpt lat="45.89902" lon="4.6735">
        <ele>398</ele>
        <time>2018-07-15T09:57:32Z</time>
      </trkpt>
      <trkpt lat="45.89911" lon="4.67354">
        <ele>398</ele>
        <time>2018-07-15T09:57:33Z</time>
      </trkpt>
      <trkpt lat="45.8992" lon="4.67357">
        <ele>396</ele>
        <time>2018-07-15T09:57:34Z</time>
      </trkpt>
      <trkpt lat="45.89928" lon="4.67359">
        <ele>396</ele>
        <time>2018-07-15T09:57:35Z</time>
      </trkpt>
      <trkpt lat="45.89938" lon="4.67361">
        <ele>395</ele>
        <time>2018-07-15T09:57:36Z</time>
      </trkpt>
      <trkpt lat="45.89946" lon="4.67364">
        <ele>395</ele>
        <time>2018-07-15T09:57:37Z</time>
      </trkpt>
      <trkpt lat="45.89955" lon="4.67366">
        <ele>394</ele>
        <time>2018-07-15T09:57:38Z</time>
      </trkpt>
      <trkpt lat="45.89963" lon="4.67368">
        <ele>394</ele>
        <time>2018-07-15T09:57:39Z</time>
      </trkpt>
      <trkpt lat="45.89972" lon="4.6737">
        <ele>394</ele>
        <time>2018-07-15T09:57:40Z</time>
      </trkpt>
      <trkpt lat="45.89981" lon="4.67373">
        <ele>394</ele>
        <time>2018-07-15T09:57:41Z</time>
      </trkpt>
      <trkpt lat="45.89988" lon="4.67378">
        <ele>393</ele>
        <time>2018-07-15T09:57:42Z</time>
      </trkpt>
      <trkpt lat="45.89998" lon="4.67382">
        <ele>393</ele>
        <time>2018-07-15T09:57:43Z</time>
      </trkpt>
      <trkpt lat="45.90005" lon="4.67389">
        <ele>394</ele>
        <time>2018-07-15T09:57:44Z</time>
      </trkpt>
      <trkpt lat="45.90013" lon="4.67396">
        <ele>394</ele>
        <time>2018-07-15T09:57:45Z</time>
      </trkpt>
      <trkpt lat="45.90022" lon="4.67401">
        <ele>394</ele>
        <time>2018-07-15T09:57:46Z</time>
      </trkpt>
      <trkpt lat="45.90031" lon="4.67404">
        <ele>395</ele>
        <time>2018-07-15T09:57:47Z</time>
      </trkpt>
      <trkpt lat="45.90039" lon="4.67411">
        <ele>395</ele>
        <time>2018-07-15T09:57:48Z</time>
      </trkpt>
      <trkpt lat="45.90046" lon="4.67419">
        <ele>385</ele>
        <time>2018-07-15T09:57:49Z</time>
      </trkpt>
      <trkpt lat="45.90053" lon="4.67427">
        <ele>386</ele>
        <time>2018-07-15T09:57:50Z</time>
      </trkpt>
      <trkpt lat="45.9006" lon="4.67437">
        <ele>385</ele>
        <time>2018-07-15T09:57:51Z</time>
      </trkpt>
      <trkpt lat="45.90067" lon="4.67445">
        <ele>385</ele>
        <time>2018-07-15T09:57:52Z</time>
      </trkpt>
      <trkpt lat="45.90075" lon="4.67454">
        <ele>384</ele>
        <time>2018-07-15T09:57:53Z</time>
      </trkpt>
      <trkpt lat="45.90083" lon="4.67463">
        <ele>382</ele>
        <time>2018-07-15T09:57:54Z</time>
      </trkpt>
      <trkpt lat="45.9009" lon="4.67471">
        <ele>386</ele>
        <time>2018-07-15T09:57:55Z</time>
      </trkpt>
      <trkpt lat="45.90097" lon="4.67479">
        <ele>385</ele>
        <time>2018-07-15T09:57:56Z</time>
      </trkpt>
      <trkpt lat="45.90104" lon="4.67487">
        <ele>385</ele>
        <time>2018-07-15T09:57:57Z</time>
      </trkpt>
      <trkpt lat="45.90111" lon="4.67497">
        <ele>385</ele>
        <time>2018-07-15T09:57:58Z</time>
      </trkpt>
      <trkpt lat="45.90118" lon="4.67507">
        <ele>378</ele>
        <time>2018-07-15T09:57:59Z</time>
      </trkpt>
      <trkpt lat="45.90123" lon="4.67518">
        <ele>378</ele>
        <time>2018-07-15T09:58:00Z</time>
      </trkpt>
      <trkpt lat="45.90129" lon="4.67529">
        <ele>378</ele>
        <time>2018-07-15T09:58:01Z</time>
      </trkpt>
      <trkpt lat="45.90134" lon="4.67541">
        <ele>377</ele>
        <time>2018-07-15T09:58:02Z</time>
      </trkpt>
      <trkpt lat="45.90139" lon="4.67551">
        <ele>377</ele>
        <time>2018-07-15T09:58:03Z</time>
      </trkpt>
      <trkpt lat="45.90144" lon="4.67562">
        <ele>376</ele>
        <time>2018-07-15T09:58:04Z</time>
      </trkpt>
      <trkpt lat="45.90151" lon="4.67572">
        <ele>376</ele>
        <time>2018-07-15T09:58:05Z</time>
      </trkpt>
      <trkpt lat="45.90157" lon="4.6758">
        <ele>376</ele>
        <time>2018-07-15T09:58:06Z</time>
      </trkpt>
      <trkpt lat="45.90165" lon="4.67589">
        <ele>374</ele>
        <time>2018-07-15T09:58:07Z</time>
      </trkpt>
      <trkpt lat="45.90172" lon="4.67598">
        <ele>376</ele>
        <time>2018-07-15T09:58:08Z</time>
      </trkpt>
      <trkpt lat="45.9018" lon="4.67606">
        <ele>376</ele>
        <time>2018-07-15T09:58:09Z</time>
      </trkpt>
      <trkpt lat="45.90187" lon="4.67615">
        <ele>376</ele>
        <time>2018-07-15T09:58:10Z</time>
      </trkpt>
      <trkpt lat="45.90195" lon="4.67624">
        <ele>376</ele>
        <time>2018-07-15T09:58:11Z</time>
      </trkpt>
      <trkpt lat="45.90203" lon="4.67632">
        <ele>375</ele>
        <time>2018-07-15T09:58:12Z</time>
      </trkpt>
      <trkpt lat="45.90209" lon="4.6764">
        <ele>375</ele>
        <time>2018-07-15T09:58:13Z</time>
      </trkpt>
      <trkpt lat="45.90217" lon="4.67648">
        <ele>375</ele>
        <time>2018-07-15T09:58:14Z</time>
      </trkpt>
      <trkpt lat="45.90224" lon="4.67655">
        <ele>375</ele>
        <time>2018-07-15T09:58:15Z</time>
      </trkpt>
      <trkpt lat="45.90232" lon="4.67662">
        <ele>375</ele>
        <time>2018-07-15T09:58:16Z</time>
      </trkpt>
      <trkpt lat="45.9024" lon="4.67669">
        <ele>373</ele>
        <time>2018-07-15T09:58:17Z</time>
      </trkpt>
      <trkpt lat="45.90247" lon="4.67674">
        <ele>373</ele>
        <time>2018-07-15T09:58:18Z</time>
      </trkpt>
      <trkpt lat="45.90255" lon="4.67679">
        <ele>374</ele>
        <time>2018-07-15T09:58:19Z</time>
      </trkpt>
      <trkpt lat="45.90263" lon="4.67683">
        <ele>374</ele>
        <time>2018-07-15T09:58:20Z</time>
      </trkpt>
      <trkpt lat="45.90269" lon="4.67686">
        <ele>374</ele>
        <time>2018-07-15T09:58:21Z</time>
      </trkpt>
      <trkpt lat="45.90277" lon="4.67689">
        <ele>374</ele>
        <time>2018-07-15T09:58:22Z</time>
      </trkpt>
      <trkpt lat="45.90285" lon="4.67693">
        <ele>374</ele>
        <time>2018-07-15T09:58:23Z</time>
      </trkpt>
      <trkpt lat="45.90293" lon="4.67697">
        <ele>374</ele>
        <time>2018-07-15T09:58:24Z</time>
      </trkpt>
      <trkpt lat="45.903" lon="4.67699">
        <ele>374</ele>
        <time>2018-07-15T09:58:25Z</time>
      </trkpt>
      <trkpt lat="45.90309" lon="4.677">
        <ele>374</ele>
        <time>2018-07-15T09:58:26Z</time>
      </trkpt>
      <trkpt lat="45.90317" lon="4.67701">
        <ele>374</ele>
        <time>2018-07-15T09:58:27Z</time>
      </trkpt>
      <trkpt lat="45.90325" lon="4.67705">
        <ele>374</ele>
        <time>2018-07-15T09:58:28Z</time>
      </trkpt>
      <trkpt lat="45.90334" lon="4.67709">
        <ele>372</ele>
        <time>2018-07-15T09:58:29Z</time>
      </trkpt>
      <trkpt lat="45.9034" lon="4.67715">
        <ele>372</ele>
        <time>2018-07-15T09:58:30Z</time>
      </trkpt>
      <trkpt lat="45.90349" lon="4.67719">
        <ele>371</ele>
        <time>2018-07-15T09:58:31Z</time>
      </trkpt>
      <trkpt lat="45.90358" lon="4.67721">
        <ele>371</ele>
        <time>2018-07-15T09:58:32Z</time>
      </trkpt>
      <trkpt lat="45.90366" lon="4.67725">
        <ele>371</ele>
        <time>2018-07-15T09:58:33Z</time>
      </trkpt>
      <trkpt lat="45.90375" lon="4.67727">
        <ele>370</ele>
        <time>2018-07-15T09:58:34Z</time>
      </trkpt>
      <trkpt lat="45.90383" lon="4.67731">
        <ele>370</ele>
        <time>2018-07-15T09:58:35Z</time>
      </trkpt>
      <trkpt lat="45.90392" lon="4.67734">
        <ele>369</ele>
        <time>2018-07-15T09:58:36Z</time>
      </trkpt>
      <trkpt lat="45.90401" lon="4.67738">
        <ele>368</ele>
        <time>2018-07-15T09:58:37Z</time>
      </trkpt>
      <trkpt lat="45.90409" lon="4.67739">
        <ele>367</ele>
        <time>2018-07-15T09:58:38Z</time>
      </trkpt>
      <trkpt lat="45.90418" lon="4.67742">
        <ele>366</ele>
        <time>2018-07-15T09:58:39Z</time>
      </trkpt>
      <trkpt lat="45.90427" lon="4.67746">
        <ele>366</ele>
        <time>2018-07-15T09:58:40Z</time>
      </trkpt>
      <trkpt lat="45.90437" lon="4.67748">
        <ele>366</ele>
        <time>2018-07-15T09:58:41Z</time>
      </trkpt>
      <trkpt lat="45.90445" lon="4.67751">
        <ele>364</ele>
        <time>2018-07-15T09:58:42Z</time>
      </trkpt>
      <trkpt lat="45.90455" lon="4.67755">
        <ele>364</ele>
        <time>2018-07-15T09:58:43Z</time>
      </trkpt>
      <trkpt lat="45.90464" lon="4.67758">
        <ele>364</ele>
        <time>2018-07-15T09:58:44Z</time>
      </trkpt>
      <trkpt lat="45.90474" lon="4.6776">
        <ele>364</ele>
        <time>2018-07-15T09:58:45Z</time>
      </trkpt>
      <trkpt lat="45.90483" lon="4.67764">
        <ele>364</ele>
        <time>2018-07-15T09:58:46Z</time>
      </trkpt>
      <trkpt lat="45.90491" lon="4.67767">
        <ele>364</ele>
        <time>2018-07-15T09:58:47Z</time>
      </trkpt>
      <trkpt lat="45.905" lon="4.6777">
        <ele>364</ele>
        <time>2018-07-15T09:58:48Z</time>
      </trkpt>
      <trkpt lat="45.90509" lon="4.67774">
        <ele>365</ele>
        <time>2018-07-15T09:58:49Z</time>
      </trkpt>
      <trkpt lat="45.90517" lon="4.67776">
        <ele>365</ele>
        <time>2018-07-15T09:58:50Z</time>
      </trkpt>
      <trkpt lat="45.90525" lon="4.67779">
        <ele>365</ele>
        <time>2018-07-15T09:58:51Z</time>
      </trkpt>
      <trkpt lat="45.90534" lon="4.67781">
        <ele>365</ele>
        <time>2018-07-15T09:58:52Z</time>
      </trkpt>
      <trkpt lat="45.90542" lon="4.67783">
        <ele>365</ele>
        <time>2018-07-15T09:58:53Z</time>
      </trkpt>
      <trkpt lat="45.90549" lon="4.67785">
        <ele>365</ele>
        <time>2018-07-15T09:58:54Z</time>
      </trkpt>
      <trkpt lat="45.90556" lon="4.67787">
        <ele>365</ele>
        <time>2018-07-15T09:58:55Z</time>
      </trkpt>
      <trkpt lat="45.90562" lon="4.67788">
        <ele>365</ele>
        <time>2018-07-15T09:58:56Z</time>
      </trkpt>
      <trkpt lat="45.90569" lon="4.6779">
        <ele>365</ele>
        <time>2018-07-15T09:58:57Z</time>
      </trkpt>
      <trkpt lat="45.90575" lon="4.6779">
        <ele>365</ele>
        <time>2018-07-15T09:58:58Z</time>
      </trkpt>
      <trkpt lat="45.90581" lon="4.67791">
        <ele>366</ele>
        <time>2018-07-15T09:58:59Z</time>
      </trkpt>
      <trkpt lat="45.90586" lon="4.67786">
        <ele>367</ele>
        <time>2018-07-15T09:59:00Z</time>
      </trkpt>
      <trkpt lat="45.90592" lon="4.67787">
        <ele>367</ele>
        <time>2018-07-15T09:59:01Z</time>
      </trkpt>
      <trkpt lat="45.90597" lon="4.67787">
        <ele>367</ele>
        <time>2018-07-15T09:59:02Z</time>
      </trkpt>
      <trkpt lat="45.90603" lon="4.67788">
        <ele>367</ele>
        <time>2018-07-15T09:59:03Z</time>
      </trkpt>
      <trkpt lat="45.90609" lon="4.67788">
        <ele>367</ele>
        <time>2018-07-15T09:59:04Z</time>
      </trkpt>
      <trkpt lat="45.90614" lon="4.67789">
        <ele>367</ele>
        <time>2018-07-15T09:59:05Z</time>
      </trkpt>
      <trkpt lat="45.9062" lon="4.6779">
        <ele>367</ele>
        <time>2018-07-15T09:59:06Z</time>
      </trkpt>
      <trkpt lat="45.90624" lon="4.67787">
        <ele>367</ele>
        <time>2018-07-15T09:59:07Z</time>
      </trkpt>
      <trkpt lat="45.9063" lon="4.67785">
        <ele>367</ele>
        <time>2018-07-15T09:59:08Z</time>
      </trkpt>
      <trkpt lat="45.90636" lon="4.67786">
        <ele>367</ele>
        <time>2018-07-15T09:59:09Z</time>
      </trkpt>
      <trkpt lat="45.90641" lon="4.67787">
        <ele>367</ele>
        <time>2018-07-15T09:59:10Z</time>
      </trkpt>
      <trkpt lat="45.90647" lon="4.67787">
        <ele>367</ele>
        <time>2018-07-15T09:59:11Z</time>
      </trkpt>
      <trkpt lat="45.90652" lon="4.67786">
        <ele>367</ele>
        <time>2018-07-15T09:59:12Z</time>
      </trkpt>
      <trkpt lat="45.90658" lon="4.67786">
        <ele>367</ele>
        <time>2018-07-15T09:59:13Z</time>
      </trkpt>
      <trkpt lat="45.90663" lon="4.67787">
        <ele>367</ele>
        <time>2018-07-15T09:59:14Z</time>
      </trkpt>
      <trkpt lat="45.90667" lon="4.67788">
        <ele>368</ele>
        <time>2018-07-15T09:59:15Z</time>
      </trkpt>
      <trkpt lat="45.90671" lon="4.67789">
        <ele>368</ele>
        <time>2018-07-15T09:59:16Z</time>
      </trkpt>
      <trkpt lat="45.90676" lon="4.67789">
        <ele>368</ele>
        <time>2018-07-15T09:59:17Z</time>
      </trkpt>
      <trkpt lat="45.90681" lon="4.67792">
        <ele>368</ele>
        <time>2018-07-15T09:59:18Z</time>
      </trkpt>
      <trkpt lat="45.90686" lon="4.67794">
        <ele>368</ele>
        <time>2018-07-15T09:59:19Z</time>
      </trkpt>
      <trkpt lat="45.90691" lon="4.67795">
        <ele>368</ele>
        <time>2018-07-15T09:59:20Z</time>
      </trkpt>
      <trkpt lat="45.90695" lon="4.67797">
        <ele>368</ele>
        <time>2018-07-15T09:59:21Z</time>
      </trkpt>
      <trkpt lat="45.90703" lon="4.67803">
        <ele>368</ele>
        <time>2018-07-15T09:59:23Z</time>
      </trkpt>
      <trkpt lat="45.90706" lon="4.67804">
        <ele>368</ele>
        <time>2018-07-15T09:59:24Z</time>
      </trkpt>
      <trkpt lat="45.90714" lon="4.67807">
        <ele>368</ele>
        <time>2018-07-15T09:59:26Z</time>
      </trkpt>
      <trkpt lat="45.9072" lon="4.67808">
        <ele>368</ele>
        <time>2018-07-15T09:59:27Z</time>
      </trkpt>
      <trkpt lat="45.90724" lon="4.6781">
        <ele>369</ele>
        <time>2018-07-15T09:59:28Z</time>
      </trkpt>
      <trkpt lat="45.90728" lon="4.67812">
        <ele>369</ele>
        <time>2018-07-15T09:59:29Z</time>
      </trkpt>
      <trkpt lat="45.90736" lon="4.67816">
        <ele>369</ele>
        <time>2018-07-15T09:59:31Z</time>
      </trkpt>
      <trkpt lat="45.9074" lon="4.67818">
        <ele>369</ele>
        <time>2018-07-15T09:59:32Z</time>
      </trkpt>
      <trkpt lat="45.90748" lon="4.67822">
        <ele>370</ele>
        <time>2018-07-15T09:59:34Z</time>
      </trkpt>
      <trkpt lat="45.90752" lon="4.67825">
        <ele>370</ele>
        <time>2018-07-15T09:59:35Z</time>
      </trkpt>
      <trkpt lat="45.9076" lon="4.67829">
        <ele>370</ele>
        <time>2018-07-15T09:59:37Z</time>
      </trkpt>
      <trkpt lat="45.90764" lon="4.67831">
        <ele>369</ele>
        <time>2018-07-15T09:59:38Z</time>
      </trkpt>
      <trkpt lat="45.90773" lon="4.67834">
        <ele>371</ele>
        <time>2018-07-15T09:59:40Z</time>
      </trkpt>
      <trkpt lat="45.90776" lon="4.67837">
        <ele>371</ele>
        <time>2018-07-15T09:59:41Z</time>
      </trkpt>
      <trkpt lat="45.90784" lon="4.6784">
        <ele>371</ele>
        <time>2018-07-15T09:59:43Z</time>
      </trkpt>
      <trkpt lat="45.90791" lon="4.67841">
        <ele>371</ele>
        <time>2018-07-15T09:59:44Z</time>
      </trkpt>
      <trkpt lat="45.90796" lon="4.67845">
        <ele>371</ele>
        <time>2018-07-15T09:59:45Z</time>
      </trkpt>
      <trkpt lat="45.90801" lon="4.67843">
        <ele>371</ele>
        <time>2018-07-15T09:59:46Z</time>
      </trkpt>
      <trkpt lat="45.90808" lon="4.67847">
        <ele>371</ele>
        <time>2018-07-15T09:59:48Z</time>
      </trkpt>
      <trkpt lat="45.90812" lon="4.67849">
        <ele>371</ele>
        <time>2018-07-15T09:59:49Z</time>
      </trkpt>
      <trkpt lat="45.90817" lon="4.67851">
        <ele>371</ele>
        <time>2018-07-15T09:59:50Z</time>
      </trkpt>
      <trkpt lat="45.90822" lon="4.67853">
        <ele>371</ele>
        <time>2018-07-15T09:59:51Z</time>
      </trkpt>
      <trkpt lat="45.9083" lon="4.67856">
        <ele>371</ele>
        <time>2018-07-15T09:59:53Z</time>
      </trkpt>
      <trkpt lat="45.90835" lon="4.67858">
        <ele>370</ele>
        <time>2018-07-15T09:59:54Z</time>
      </trkpt>
      <trkpt lat="45.90839" lon="4.67858">
        <ele>370</ele>
        <time>2018-07-15T09:59:55Z</time>
      </trkpt>
      <trkpt lat="45.90844" lon="4.67859">
        <ele>370</ele>
        <time>2018-07-15T09:59:56Z</time>
      </trkpt>
      <trkpt lat="45.90849" lon="4.6786">
        <ele>370</ele>
        <time>2018-07-15T09:59:57Z</time>
      </trkpt>
      <trkpt lat="45.90854" lon="4.67862">
        <ele>370</ele>
        <time>2018-07-15T09:59:58Z</time>
      </trkpt>
      <trkpt lat="45.90863" lon="4.67863">
        <ele>370</ele>
        <time>2018-07-15T10:00:00Z</time>
      </trkpt>
      <trkpt lat="45.90867" lon="4.67867">
        <ele>370</ele>
        <time>2018-07-15T10:00:01Z</time>
      </trkpt>
      <trkpt lat="45.90872" lon="4.6787">
        <ele>370</ele>
        <time>2018-07-15T10:00:02Z</time>
      </trkpt>
      <trkpt lat="45.90877" lon="4.67872">
        <ele>370</ele>
        <time>2018-07-15T10:00:03Z</time>
      </trkpt>
      <trkpt lat="45.90881" lon="4.67874">
        <ele>370</ele>
        <time>2018-07-15T10:00:04Z</time>
      </trkpt>
      <trkpt lat="45.90886" lon="4.67875">
        <ele>370</ele>
        <time>2018-07-15T10:00:05Z</time>
      </trkpt>
      <trkpt lat="45.90892" lon="4.67877">
        <ele>370</ele>
        <time>2018-07-15T10:00:06Z</time>
      </trkpt>
      <trkpt lat="45.90897" lon="4.67878">
        <ele>370</ele>
        <time>2018-07-15T10:00:07Z</time>
      </trkpt>
      <trkpt lat="45.90902" lon="4.67881">
        <ele>370</ele>
        <time>2018-07-15T10:00:08Z</time>
      </trkpt>
      <trkpt lat="45.90906" lon="4.67884">
        <ele>370</ele>
        <time>2018-07-15T10:00:09Z</time>
      </trkpt>
      <trkpt lat="45.90911" lon="4.67887">
        <ele>370</ele>
        <time>2018-07-15T10:00:10Z</time>
      </trkpt>
      <trkpt lat="45.90916" lon="4.6789">
        <ele>370</ele>
        <time>2018-07-15T10:00:11Z</time>
      </trkpt>
      <trkpt lat="45.90921" lon="4.67893">
        <ele>370</ele>
        <time>2018-07-15T10:00:12Z</time>
      </trkpt>
      <trkpt lat="45.90925" lon="4.67894">
        <ele>370</ele>
        <time>2018-07-15T10:00:13Z</time>
      </trkpt>
      <trkpt lat="45.9093" lon="4.67897">
        <ele>370</ele>
        <time>2018-07-15T10:00:14Z</time>
      </trkpt>
      <trkpt lat="45.90935" lon="4.67898">
        <ele>370</ele>
        <time>2018-07-15T10:00:15Z</time>
      </trkpt>
      <trkpt lat="45.9094" lon="4.679">
        <ele>370</ele>
        <time>2018-07-15T10:00:16Z</time>
      </trkpt>
      <trkpt lat="45.90944" lon="4.67902">
        <ele>370</ele>
        <time>2018-07-15T10:00:17Z</time>
      </trkpt>
      <trkpt lat="45.90948" lon="4.67901">
        <ele>370</ele>
        <time>2018-07-15T10:00:18Z</time>
      </trkpt>
      <trkpt lat="45.90954" lon="4.67902">
        <ele>370</ele>
        <time>2018-07-15T10:00:19Z</time>
      </trkpt>
      <trkpt lat="45.90959" lon="4.67905">
        <ele>370</ele>
        <time>2018-07-15T10:00:20Z</time>
      </trkpt>
      <trkpt lat="45.90963" lon="4.67908">
        <ele>370</ele>
        <time>2018-07-15T10:00:21Z</time>
      </trkpt>
      <trkpt lat="45.90967" lon="4.6791">
        <ele>370</ele>
        <time>2018-07-15T10:00:22Z</time>
      </trkpt>
      <trkpt lat="45.90971" lon="4.67913">
        <ele>370</ele>
        <time>2018-07-15T10:00:23Z</time>
      </trkpt>
      <trkpt lat="45.90976" lon="4.67916">
        <ele>370</ele>
        <time>2018-07-15T10:00:24Z</time>
      </trkpt>
      <trkpt lat="45.90981" lon="4.67919">
        <ele>372</ele>
        <time>2018-07-15T10:00:25Z</time>
      </trkpt>
      <trkpt lat="45.90988" lon="4.67922">
        <ele>372</ele>
        <time>2018-07-15T10:00:27Z</time>
      </trkpt>
      <trkpt lat="45.90992" lon="4.67924">
        <ele>372</ele>
        <time>2018-07-15T10:00:28Z</time>
      </trkpt>
      <trkpt lat="45.91" lon="4.67928">
        <ele>372</ele>
        <time>2018-07-15T10:00:30Z</time>
      </trkpt>
      <trkpt lat="45.91004" lon="4.67929">
        <ele>373</ele>
        <time>2018-07-15T10:00:31Z</time>
      </trkpt>
      <trkpt lat="45.91012" lon="4.67931">
        <ele>373</ele>
        <time>2018-07-15T10:00:33Z</time>
      </trkpt>
      <trkpt lat="45.91017" lon="4.67933">
        <ele>374</ele>
        <time>2018-07-15T10:00:34Z</time>
      </trkpt>
      <trkpt lat="45.91024" lon="4.67937">
        <ele>374</ele>
        <time>2018-07-15T10:00:36Z</time>
      </trkpt>
      <trkpt lat="45.91029" lon="4.67937">
        <ele>374</ele>
        <time>2018-07-15T10:00:37Z</time>
      </trkpt>
      <trkpt lat="45.91037" lon="4.67941">
        <ele>374</ele>
        <time>2018-07-15T10:00:39Z</time>
      </trkpt>
      <trkpt lat="45.9104" lon="4.67943">
        <ele>374</ele>
        <time>2018-07-15T10:00:40Z</time>
      </trkpt>
      <trkpt lat="45.91049" lon="4.67945">
        <ele>374</ele>
        <time>2018-07-15T10:00:43Z</time>
      </trkpt>
      <trkpt lat="45.91054" lon="4.67947">
        <ele>375</ele>
        <time>2018-07-15T10:00:44Z</time>
      </trkpt>
      <trkpt lat="45.91061" lon="4.67949">
        <ele>375</ele>
        <time>2018-07-15T10:00:46Z</time>
      </trkpt>
      <trkpt lat="45.91064" lon="4.6795">
        <ele>375</ele>
        <time>2018-07-15T10:00:47Z</time>
      </trkpt>
      <trkpt lat="45.91071" lon="4.67952">
        <ele>375</ele>
        <time>2018-07-15T10:00:49Z</time>
      </trkpt>
      <trkpt lat="45.91073" lon="4.67952">
        <ele>375</ele>
        <time>2018-07-15T10:00:50Z</time>
      </trkpt>
      <trkpt lat="45.91081" lon="4.67954">
        <ele>375</ele>
        <time>2018-07-15T10:00:53Z</time>
      </trkpt>
      <trkpt lat="45.91083" lon="4.67954">
        <ele>376</ele>
        <time>2018-07-15T10:00:54Z</time>
      </trkpt>
      <trkpt lat="45.9109" lon="4.67955">
        <ele>376</ele>
        <time>2018-07-15T10:00:56Z</time>
      </trkpt>
      <trkpt lat="45.91093" lon="4.67956">
        <ele>376</ele>
        <time>2018-07-15T10:00:57Z</time>
      </trkpt>
      <trkpt lat="45.911" lon="4.67957">
        <ele>377</ele>
        <time>2018-07-15T10:00:59Z</time>
      </trkpt>
      <trkpt lat="45.91103" lon="4.67958">
        <ele>377</ele>
        <time>2018-07-15T10:01:00Z</time>
      </trkpt>
      <trkpt lat="45.91109" lon="4.6796">
        <ele>377</ele>
        <time>2018-07-15T10:01:02Z</time>
      </trkpt>
      <trkpt lat="45.91112" lon="4.67961">
        <ele>377</ele>
        <time>2018-07-15T10:01:03Z</time>
      </trkpt>
      <trkpt lat="45.91119" lon="4.67962">
        <ele>377</ele>
        <time>2018-07-15T10:01:05Z</time>
      </trkpt>
      <trkpt lat="45.91122" lon="4.67963">
        <ele>377</ele>
        <time>2018-07-15T10:01:06Z</time>
      </trkpt>
      <trkpt lat="45.91129" lon="4.67965">
        <ele>377</ele>
        <time>2018-07-15T10:01:08Z</time>
      </trkpt>
      <trkpt lat="45.91132" lon="4.67966">
        <ele>377</ele>
        <time>2018-07-15T10:01:09Z</time>
      </trkpt>
      <trkpt lat="45.91139" lon="4.67968">
        <ele>377</ele>
        <time>2018-07-15T10:01:11Z</time>
      </trkpt>
      <trkpt lat="45.91142" lon="4.6797">
        <ele>377</ele>
        <time>2018-07-15T10:01:12Z</time>
      </trkpt>
      <trkpt lat="45.91148" lon="4.67973">
        <ele>378</ele>
        <time>2018-07-15T10:01:14Z</time>
      </trkpt>
      <trkpt lat="45.91151" lon="4.67974">
        <ele>378</ele>
        <time>2018-07-15T10:01:15Z</time>
      </trkpt>
      <trkpt lat="45.91157" lon="4.67977">
        <ele>378</ele>
        <time>2018-07-15T10:01:17Z</time>
      </trkpt>
      <trkpt lat="45.9116" lon="4.67979">
        <ele>378</ele>
        <time>2018-07-15T10:01:18Z</time>
      </trkpt>
      <trkpt lat="45.91166" lon="4.67982">
        <ele>379</ele>
        <time>2018-07-15T10:01:20Z</time>
      </trkpt>
      <trkpt lat="45.91169" lon="4.67984">
        <ele>380</ele>
        <time>2018-07-15T10:01:21Z</time>
      </trkpt>
      <trkpt lat="45.91176" lon="4.67987">
        <ele>380</ele>
        <time>2018-07-15T10:01:23Z</time>
      </trkpt>
      <trkpt lat="45.91179" lon="4.67989">
        <ele>380</ele>
        <time>2018-07-15T10:01:24Z</time>
      </trkpt>
      <trkpt lat="45.91185" lon="4.67992">
        <ele>380</ele>
        <time>2018-07-15T10:01:26Z</time>
      </trkpt>
      <trkpt lat="45.91189" lon="4.67994">
        <ele>380</ele>
        <time>2018-07-15T10:01:27Z</time>
      </trkpt>
      <trkpt lat="45.91195" lon="4.67997">
        <ele>380</ele>
        <time>2018-07-15T10:01:29Z</time>
      </trkpt>
      <trkpt lat="45.91198" lon="4.67999">
        <ele>380</ele>
        <time>2018-07-15T10:01:30Z</time>
      </trkpt>
      <trkpt lat="45.91204" lon="4.68002">
        <ele>383</ele>
        <time>2018-07-15T10:01:32Z</time>
      </trkpt>
      <trkpt lat="45.91207" lon="4.68004">
        <ele>383</ele>
        <time>2018-07-15T10:01:33Z</time>
      </trkpt>
      <trkpt lat="45.91213" lon="4.68007">
        <ele>383</ele>
        <time>2018-07-15T10:01:35Z</time>
      </trkpt>
      <trkpt lat="45.91216" lon="4.68009">
        <ele>383</ele>
        <time>2018-07-15T10:01:36Z</time>
      </trkpt>
      <trkpt lat="45.91225" lon="4.68014">
        <ele>384</ele>
        <time>2018-07-15T10:01:37Z</time>
      </trkpt>
      <trkpt lat="45.91231" lon="4.68017">
        <ele>384</ele>
        <time>2018-07-15T10:01:40Z</time>
      </trkpt>
      <trkpt lat="45.91234" lon="4.68018">
        <ele>384</ele>
        <time>2018-07-15T10:01:41Z</time>
      </trkpt>
      <trkpt lat="45.91242" lon="4.68024">
        <ele>384</ele>
        <time>2018-07-15T10:01:44Z</time>
      </trkpt>
      <trkpt lat="45.91245" lon="4.68026">
        <ele>384</ele>
        <time>2018-07-15T10:01:45Z</time>
      </trkpt>
      <trkpt lat="45.9125" lon="4.6803">
        <ele>385</ele>
        <time>2018-07-15T10:01:47Z</time>
      </trkpt>
      <trkpt lat="45.91253" lon="4.68032">
        <ele>385</ele>
        <time>2018-07-15T10:01:48Z</time>
      </trkpt>
      <trkpt lat="45.91259" lon="4.68035">
        <ele>385</ele>
        <time>2018-07-15T10:01:50Z</time>
      </trkpt>
      <trkpt lat="45.91262" lon="4.68037">
        <ele>385</ele>
        <time>2018-07-15T10:01:51Z</time>
      </trkpt>
      <trkpt lat="45.91271" lon="4.68042">
        <ele>385</ele>
        <time>2018-07-15T10:01:52Z</time>
      </trkpt>
      <trkpt lat="45.91277" lon="4.68045">
        <ele>385</ele>
        <time>2018-07-15T10:01:54Z</time>
      </trkpt>
      <trkpt lat="45.91281" lon="4.68047">
        <ele>385</ele>
        <time>2018-07-15T10:01:55Z</time>
      </trkpt>
      <trkpt lat="45.91289" lon="4.68051">
        <ele>385</ele>
        <time>2018-07-15T10:01:58Z</time>
      </trkpt>
      <trkpt lat="45.91294" lon="4.68054">
        <ele>385</ele>
        <time>2018-07-15T10:01:59Z</time>
      </trkpt>
      <trkpt lat="45.91301" lon="4.68057">
        <ele>385</ele>
        <time>2018-07-15T10:02:01Z</time>
      </trkpt>
      <trkpt lat="45.91303" lon="4.68058">
        <ele>385</ele>
        <time>2018-07-15T10:02:02Z</time>
      </trkpt>
      <trkpt lat="45.91307" lon="4.68061">
        <ele>385</ele>
        <time>2018-07-15T10:02:04Z</time>
      </trkpt>
      <trkpt lat="45.91314" lon="4.68064">
        <ele>385</ele>
        <time>2018-07-15T10:02:05Z</time>
      </trkpt>
      <trkpt lat="45.91322" lon="4.68067">
        <ele>385</ele>
        <time>2018-07-15T10:02:07Z</time>
      </trkpt>
      <trkpt lat="45.91325" lon="4.68069">
        <ele>385</ele>
        <time>2018-07-15T10:02:08Z</time>
      </trkpt>
      <trkpt lat="45.91333" lon="4.68074">
        <ele>385</ele>
        <time>2018-07-15T10:02:10Z</time>
      </trkpt>
      <trkpt lat="45.91337" lon="4.68075">
        <ele>385</ele>
        <time>2018-07-15T10:02:11Z</time>
      </trkpt>
      <trkpt lat="45.91344" lon="4.68079">
        <ele>385</ele>
        <time>2018-07-15T10:02:13Z</time>
      </trkpt>
      <trkpt lat="45.91348" lon="4.68081">
        <ele>385</ele>
        <time>2018-07-15T10:02:14Z</time>
      </trkpt>
      <trkpt lat="45.91356" lon="4.68084">
        <ele>386</ele>
        <time>2018-07-15T10:02:16Z</time>
      </trkpt>
      <trkpt lat="45.91359" lon="4.68085">
        <ele>386</ele>
        <time>2018-07-15T10:02:17Z</time>
      </trkpt>
      <trkpt lat="45.91367" lon="4.68087">
        <ele>386</ele>
        <time>2018-07-15T10:02:19Z</time>
      </trkpt>
      <trkpt lat="45.91371" lon="4.68088">
        <ele>386</ele>
        <time>2018-07-15T10:02:20Z</time>
      </trkpt>
      <trkpt lat="45.91375" lon="4.68088">
        <ele>386</ele>
        <time>2018-07-15T10:02:21Z</time>
      </trkpt>
      <trkpt lat="45.9138" lon="4.68087">
        <ele>386</ele>
        <time>2018-07-15T10:02:22Z</time>
      </trkpt>
      <trkpt lat="45.91389" lon="4.68089">
        <ele>386</ele>
        <time>2018-07-15T10:02:24Z</time>
      </trkpt>
      <trkpt lat="45.91392" lon="4.68091">
        <ele>386</ele>
        <time>2018-07-15T10:02:25Z</time>
      </trkpt>
      <trkpt lat="45.91401" lon="4.68091">
        <ele>386</ele>
        <time>2018-07-15T10:02:27Z</time>
      </trkpt>
      <trkpt lat="45.91407" lon="4.68089">
        <ele>386</ele>
        <time>2018-07-15T10:02:28Z</time>
      </trkpt>
      <trkpt lat="45.91412" lon="4.68089">
        <ele>386</ele>
        <time>2018-07-15T10:02:29Z</time>
      </trkpt>
      <trkpt lat="45.91416" lon="4.68088">
        <ele>386</ele>
        <time>2018-07-15T10:02:30Z</time>
      </trkpt>
      <trkpt lat="45.91425" lon="4.68088">
        <ele>385</ele>
        <time>2018-07-15T10:02:32Z</time>
      </trkpt>
      <trkpt lat="45.91428" lon="4.68089">
        <ele>385</ele>
        <time>2018-07-15T10:02:33Z</time>
      </trkpt>
      <trkpt lat="45.91434" lon="4.68088">
        <ele>385</ele>
        <time>2018-07-15T10:02:34Z</time>
      </trkpt>
      <trkpt lat="45.91439" lon="4.68089">
        <ele>385</ele>
        <time>2018-07-15T10:02:35Z</time>
      </trkpt>
      <trkpt lat="45.91448" lon="4.68093">
        <ele>384</ele>
        <time>2018-07-15T10:02:37Z</time>
      </trkpt>
      <trkpt lat="45.91453" lon="4.68095">
        <ele>384</ele>
        <time>2018-07-15T10:02:38Z</time>
      </trkpt>
      <trkpt lat="45.91458" lon="4.68098">
        <ele>384</ele>
        <time>2018-07-15T10:02:39Z</time>
      </trkpt>
      <trkpt lat="45.91464" lon="4.681">
        <ele>384</ele>
        <time>2018-07-15T10:02:40Z</time>
      </trkpt>
      <trkpt lat="45.91469" lon="4.68103">
        <ele>384</ele>
        <time>2018-07-15T10:02:41Z</time>
      </trkpt>
      <trkpt lat="45.91473" lon="4.68107">
        <ele>384</ele>
        <time>2018-07-15T10:02:42Z</time>
      </trkpt>
      <trkpt lat="45.91479" lon="4.68111">
        <ele>383</ele>
        <time>2018-07-15T10:02:43Z</time>
      </trkpt>
      <trkpt lat="45.91484" lon="4.68115">
        <ele>383</ele>
        <time>2018-07-15T10:02:44Z</time>
      </trkpt>
      <trkpt lat="45.91491" lon="4.68119">
        <ele>383</ele>
        <time>2018-07-15T10:02:45Z</time>
      </trkpt>
      <trkpt lat="45.91498" lon="4.68123">
        <ele>383</ele>
        <time>2018-07-15T10:02:46Z</time>
      </trkpt>
      <trkpt lat="45.91502" lon="4.68129">
        <ele>380</ele>
        <time>2018-07-15T10:02:47Z</time>
      </trkpt>
      <trkpt lat="45.91509" lon="4.68132">
        <ele>380</ele>
        <time>2018-07-15T10:02:48Z</time>
      </trkpt>
      <trkpt lat="45.91516" lon="4.68135">
        <ele>380</ele>
        <time>2018-07-15T10:02:49Z</time>
      </trkpt>
      <trkpt lat="45.91523" lon="4.68137">
        <ele>380</ele>
        <time>2018-07-15T10:02:50Z</time>
      </trkpt>
      <trkpt lat="45.91529" lon="4.6814">
        <ele>379</ele>
        <time>2018-07-15T10:02:51Z</time>
      </trkpt>
      <trkpt lat="45.91537" lon="4.68141">
        <ele>379</ele>
        <time>2018-07-15T10:02:52Z</time>
      </trkpt>
      <trkpt lat="45.91544" lon="4.68145">
        <ele>379</ele>
        <time>2018-07-15T10:02:53Z</time>
      </trkpt>
      <trkpt lat="45.91551" lon="4.6815">
        <ele>379</ele>
        <time>2018-07-15T10:02:54Z</time>
      </trkpt>
      <trkpt lat="45.91559" lon="4.68154">
        <ele>379</ele>
        <time>2018-07-15T10:02:55Z</time>
      </trkpt>
      <trkpt lat="45.91566" lon="4.68157">
        <ele>378</ele>
        <time>2018-07-15T10:02:56Z</time>
      </trkpt>
      <trkpt lat="45.91574" lon="4.68161">
        <ele>378</ele>
        <time>2018-07-15T10:02:57Z</time>
      </trkpt>
      <trkpt lat="45.91582" lon="4.68167">
        <ele>378</ele>
        <time>2018-07-15T10:02:58Z</time>
      </trkpt>
      <trkpt lat="45.9159" lon="4.68172">
        <ele>377</ele>
        <time>2018-07-15T10:02:59Z</time>
      </trkpt>
      <trkpt lat="45.91596" lon="4.68178">
        <ele>376</ele>
        <time>2018-07-15T10:03:00Z</time>
      </trkpt>
      <trkpt lat="45.91604" lon="4.68184">
        <ele>376</ele>
        <time>2018-07-15T10:03:01Z</time>
      </trkpt>
      <trkpt lat="45.91611" lon="4.6819">
        <ele>375</ele>
        <time>2018-07-15T10:03:02Z</time>
      </trkpt>
      <trkpt lat="45.9162" lon="4.68196">
        <ele>375</ele>
        <time>2018-07-15T10:03:03Z</time>
      </trkpt>
      <trkpt lat="45.91628" lon="4.68202">
        <ele>375</ele>
        <time>2018-07-15T10:03:04Z</time>
      </trkpt>
      <trkpt lat="45.91637" lon="4.68207">
        <ele>374</ele>
        <time>2018-07-15T10:03:05Z</time>
      </trkpt>
      <trkpt lat="45.91646" lon="4.68213">
        <ele>374</ele>
        <time>2018-07-15T10:03:06Z</time>
      </trkpt>
      <trkpt lat="45.91655" lon="4.68216">
        <ele>374</ele>
        <time>2018-07-15T10:03:07Z</time>
      </trkpt>
      <trkpt lat="45.91663" lon="4.68222">
        <ele>374</ele>
        <time>2018-07-15T10:03:08Z</time>
      </trkpt>
      <trkpt lat="45.91672" lon="4.68227">
        <ele>371</ele>
        <time>2018-07-15T10:03:09Z</time>
      </trkpt>
      <trkpt lat="45.91681" lon="4.68232">
        <ele>371</ele>
        <time>2018-07-15T10:03:10Z</time>
      </trkpt>
      <trkpt lat="45.9169" lon="4.68237">
        <ele>371</ele>
        <time>2018-07-15T10:03:11Z</time>
      </trkpt>
      <trkpt lat="45.91698" lon="4.68245">
        <ele>371</ele>
        <time>2018-07-15T10:03:12Z</time>
      </trkpt>
      <trkpt lat="45.91705" lon="4.6825">
        <ele>373</ele>
        <time>2018-07-15T10:03:13Z</time>
      </trkpt>
      <trkpt lat="45.91714" lon="4.68256">
        <ele>373</ele>
        <time>2018-07-15T10:03:14Z</time>
      </trkpt>
      <trkpt lat="45.91723" lon="4.68256">
        <ele>372</ele>
        <time>2018-07-15T10:03:15Z</time>
      </trkpt>
      <trkpt lat="45.91729" lon="4.68257">
        <ele>372</ele>
        <time>2018-07-15T10:03:16Z</time>
      </trkpt>
      <trkpt lat="45.91737" lon="4.68259">
        <ele>372</ele>
        <time>2018-07-15T10:03:17Z</time>
      </trkpt>
      <trkpt lat="45.91746" lon="4.68261">
        <ele>371</ele>
        <time>2018-07-15T10:03:18Z</time>
      </trkpt>
      <trkpt lat="45.91753" lon="4.68263">
        <ele>371</ele>
        <time>2018-07-15T10:03:19Z</time>
      </trkpt>
      <trkpt lat="45.9176" lon="4.68265">
        <ele>372</ele>
        <time>2018-07-15T10:03:20Z</time>
      </trkpt>
      <trkpt lat="45.91767" lon="4.68266">
        <ele>372</ele>
        <time>2018-07-15T10:03:21Z</time>
      </trkpt>
      <trkpt lat="45.91773" lon="4.68267">
        <ele>372</ele>
        <time>2018-07-15T10:03:22Z</time>
      </trkpt>
      <trkpt lat="45.9178" lon="4.68269">
        <ele>372</ele>
        <time>2018-07-15T10:03:23Z</time>
      </trkpt>
      <trkpt lat="45.91786" lon="4.68269">
        <ele>372</ele>
        <time>2018-07-15T10:03:24Z</time>
      </trkpt>
      <trkpt lat="45.91792" lon="4.68271">
        <ele>372</ele>
        <time>2018-07-15T10:03:25Z</time>
      </trkpt>
      <trkpt lat="45.91797" lon="4.68273">
        <ele>372</ele>
        <time>2018-07-15T10:03:26Z</time>
      </trkpt>
      <trkpt lat="45.91801" lon="4.68272">
        <ele>372</ele>
        <time>2018-07-15T10:03:27Z</time>
      </trkpt>
      <trkpt lat="45.91807" lon="4.68274">
        <ele>372</ele>
        <time>2018-07-15T10:03:28Z</time>
      </trkpt>
      <trkpt lat="45.91814" lon="4.68277">
        <ele>372</ele>
        <time>2018-07-15T10:03:30Z</time>
      </trkpt>
      <trkpt lat="45.91822" lon="4.68279">
        <ele>372</ele>
        <time>2018-07-15T10:03:31Z</time>
      </trkpt>
      <trkpt lat="45.91827" lon="4.68282">
        <ele>373</ele>
        <time>2018-07-15T10:03:32Z</time>
      </trkpt>
      <trkpt lat="45.91833" lon="4.68283">
        <ele>373</ele>
        <time>2018-07-15T10:03:33Z</time>
      </trkpt>
      <trkpt lat="45.91839" lon="4.68285">
        <ele>375</ele>
        <time>2018-07-15T10:03:34Z</time>
      </trkpt>
      <trkpt lat="45.91845" lon="4.68285">
        <ele>375</ele>
        <time>2018-07-15T10:03:35Z</time>
      </trkpt>
      <trkpt lat="45.9185" lon="4.68285">
        <ele>375</ele>
        <time>2018-07-15T10:03:36Z</time>
      </trkpt>
      <trkpt lat="45.91855" lon="4.68286">
        <ele>375</ele>
        <time>2018-07-15T10:03:37Z</time>
      </trkpt>
      <trkpt lat="45.91859" lon="4.68286">
        <ele>375</ele>
        <time>2018-07-15T10:03:38Z</time>
      </trkpt>
      <trkpt lat="45.91864" lon="4.68287">
        <ele>375</ele>
        <time>2018-07-15T10:03:39Z</time>
      </trkpt>
      <trkpt lat="45.91869" lon="4.68288">
        <ele>375</ele>
        <time>2018-07-15T10:03:40Z</time>
      </trkpt>
      <trkpt lat="45.91874" lon="4.68289">
        <ele>376</ele>
        <time>2018-07-15T10:03:41Z</time>
      </trkpt>
      <trkpt lat="45.91882" lon="4.6829">
        <ele>376</ele>
        <time>2018-07-15T10:03:43Z</time>
      </trkpt>
      <trkpt lat="45.91887" lon="4.6829">
        <ele>376</ele>
        <time>2018-07-15T10:03:44Z</time>
      </trkpt>
      <trkpt lat="45.91893" lon="4.68291">
        <ele>376</ele>
        <time>2018-07-15T10:03:45Z</time>
      </trkpt>
      <trkpt lat="45.91897" lon="4.68292">
        <ele>376</ele>
        <time>2018-07-15T10:03:46Z</time>
      </trkpt>
      <trkpt lat="45.91903" lon="4.68293">
        <ele>376</ele>
        <time>2018-07-15T10:03:47Z</time>
      </trkpt>
      <trkpt lat="45.91909" lon="4.68293">
        <ele>377</ele>
        <time>2018-07-15T10:03:48Z</time>
      </trkpt>
      <trkpt lat="45.91913" lon="4.68295">
        <ele>377</ele>
        <time>2018-07-15T10:03:49Z</time>
      </trkpt>
      <trkpt lat="45.91918" lon="4.68296">
        <ele>379</ele>
        <time>2018-07-15T10:03:50Z</time>
      </trkpt>
      <trkpt lat="45.91923" lon="4.68297">
        <ele>379</ele>
        <time>2018-07-15T10:03:51Z</time>
      </trkpt>
      <trkpt lat="45.91929" lon="4.68299">
        <ele>379</ele>
        <time>2018-07-15T10:03:52Z</time>
      </trkpt>
      <trkpt lat="45.91933" lon="4.68299">
        <ele>379</ele>
        <time>2018-07-15T10:03:53Z</time>
      </trkpt>
      <trkpt lat="45.91938" lon="4.68301">
        <ele>379</ele>
        <time>2018-07-15T10:03:54Z</time>
      </trkpt>
      <trkpt lat="45.91943" lon="4.683">
        <ele>379</ele>
        <time>2018-07-15T10:03:55Z</time>
      </trkpt>
      <trkpt lat="45.91948" lon="4.68302">
        <ele>379</ele>
        <time>2018-07-15T10:03:56Z</time>
      </trkpt>
      <trkpt lat="45.91956" lon="4.68305">
        <ele>379</ele>
        <time>2018-07-15T10:03:58Z</time>
      </trkpt>
      <trkpt lat="45.91959" lon="4.68306">
        <ele>379</ele>
        <time>2018-07-15T10:03:59Z</time>
      </trkpt>
      <trkpt lat="45.91967" lon="4.68307">
        <ele>380</ele>
        <time>2018-07-15T10:04:01Z</time>
      </trkpt>
      <trkpt lat="45.91972" lon="4.68306">
        <ele>380</ele>
        <time>2018-07-15T10:04:02Z</time>
      </trkpt>
      <trkpt lat="45.91979" lon="4.68309">
        <ele>380</ele>
        <time>2018-07-15T10:04:04Z</time>
      </trkpt>
      <trkpt lat="45.91983" lon="4.6831">
        <ele>380</ele>
        <time>2018-07-15T10:04:05Z</time>
      </trkpt>
      <trkpt lat="45.91991" lon="4.68313">
        <ele>381</ele>
        <time>2018-07-15T10:04:09Z</time>
      </trkpt>
      <trkpt lat="45.91999" lon="4.68317">
        <ele>381</ele>
        <time>2018-07-15T10:04:10Z</time>
      </trkpt>
      <trkpt lat="45.92005" lon="4.68319">
        <ele>381</ele>
        <time>2018-07-15T10:04:13Z</time>
      </trkpt>
      <trkpt lat="45.92013" lon="4.68319">
        <ele>381</ele>
        <time>2018-07-15T10:04:14Z</time>
      </trkpt>
      <trkpt lat="45.9202" lon="4.68318">
        <ele>380</ele>
        <time>2018-07-15T10:04:16Z</time>
      </trkpt>
      <trkpt lat="45.92024" lon="4.68318">
        <ele>380</ele>
        <time>2018-07-15T10:04:17Z</time>
      </trkpt>
      <trkpt lat="45.92033" lon="4.68318">
        <ele>380</ele>
        <time>2018-07-15T10:04:19Z</time>
      </trkpt>
      <trkpt lat="45.92037" lon="4.68318">
        <ele>380</ele>
        <time>2018-07-15T10:04:20Z</time>
      </trkpt>
      <trkpt lat="45.92041" lon="4.68318">
        <ele>379</ele>
        <time>2018-07-15T10:04:21Z</time>
      </trkpt>
      <trkpt lat="45.92047" lon="4.6832">
        <ele>379</ele>
        <time>2018-07-15T10:04:22Z</time>
      </trkpt>
      <trkpt lat="45.92051" lon="4.68321">
        <ele>380</ele>
        <time>2018-07-15T10:04:23Z</time>
      </trkpt>
      <trkpt lat="45.92056" lon="4.68322">
        <ele>380</ele>
        <time>2018-07-15T10:04:24Z</time>
      </trkpt>
      <trkpt lat="45.92061" lon="4.68324">
        <ele>380</ele>
        <time>2018-07-15T10:04:25Z</time>
      </trkpt>
      <trkpt lat="45.92065" lon="4.68327">
        <ele>380</ele>
        <time>2018-07-15T10:04:26Z</time>
      </trkpt>
      <trkpt lat="45.92069" lon="4.68329">
        <ele>380</ele>
        <time>2018-07-15T10:04:27Z</time>
      </trkpt>
      <trkpt lat="45.92074" lon="4.68329">
        <ele>381</ele>
        <time>2018-07-15T10:04:28Z</time>
      </trkpt>
      <trkpt lat="45.92082" lon="4.68332">
        <ele>382</ele>
        <time>2018-07-15T10:04:30Z</time>
      </trkpt>
      <trkpt lat="45.92086" lon="4.68334">
        <ele>382</ele>
        <time>2018-07-15T10:04:31Z</time>
      </trkpt>
      <trkpt lat="45.92095" lon="4.68337">
        <ele>383</ele>
        <time>2018-07-15T10:04:33Z</time>
      </trkpt>
      <trkpt lat="45.921" lon="4.68335">
        <ele>383</ele>
        <time>2018-07-15T10:04:34Z</time>
      </trkpt>
      <trkpt lat="45.92104" lon="4.68337">
        <ele>383</ele>
        <time>2018-07-15T10:04:35Z</time>
      </trkpt>
      <trkpt lat="45.92109" lon="4.6834">
        <ele>383</ele>
        <time>2018-07-15T10:04:36Z</time>
      </trkpt>
      <trkpt lat="45.92113" lon="4.68342">
        <ele>383</ele>
        <time>2018-07-15T10:04:37Z</time>
      </trkpt>
      <trkpt lat="45.92117" lon="4.68344">
        <ele>383</ele>
        <time>2018-07-15T10:04:38Z</time>
      </trkpt>
      <trkpt lat="45.9212" lon="4.68347">
        <ele>383</ele>
        <time>2018-07-15T10:04:39Z</time>
      </trkpt>
      <trkpt lat="45.92125" lon="4.68351">
        <ele>383</ele>
        <time>2018-07-15T10:04:40Z</time>
      </trkpt>
      <trkpt lat="45.92129" lon="4.68355">
        <ele>383</ele>
        <time>2018-07-15T10:04:41Z</time>
      </trkpt>
      <trkpt lat="45.92133" lon="4.6836">
        <ele>383</ele>
        <time>2018-07-15T10:04:42Z</time>
      </trkpt>
      <trkpt lat="45.92138" lon="4.68363">
        <ele>383</ele>
        <time>2018-07-15T10:04:43Z</time>
      </trkpt>
      <trkpt lat="45.92143" lon="4.68367">
        <ele>383</ele>
        <time>2018-07-15T10:04:44Z</time>
      </trkpt>
      <trkpt lat="45.92147" lon="4.6837">
        <ele>383</ele>
        <time>2018-07-15T10:04:45Z</time>
      </trkpt>
      <trkpt lat="45.92151" lon="4.68374">
        <ele>383</ele>
        <time>2018-07-15T10:04:46Z</time>
      </trkpt>
      <trkpt lat="45.92155" lon="4.68378">
        <ele>384</ele>
        <time>2018-07-15T10:04:47Z</time>
      </trkpt>
      <trkpt lat="45.92159" lon="4.68381">
        <ele>384</ele>
        <time>2018-07-15T10:04:48Z</time>
      </trkpt>
      <trkpt lat="45.92166" lon="4.68386">
        <ele>384</ele>
        <time>2018-07-15T10:04:50Z</time>
      </trkpt>
      <trkpt lat="45.92169" lon="4.68391">
        <ele>383</ele>
        <time>2018-07-15T10:04:51Z</time>
      </trkpt>
      <trkpt lat="45.92173" lon="4.68395">
        <ele>383</ele>
        <time>2018-07-15T10:04:52Z</time>
      </trkpt>
      <trkpt lat="45.92175" lon="4.684">
        <ele>384</ele>
        <time>2018-07-15T10:04:53Z</time>
      </trkpt>
      <trkpt lat="45.92179" lon="4.68405">
        <ele>384</ele>
        <time>2018-07-15T10:04:54Z</time>
      </trkpt>
      <trkpt lat="45.92182" lon="4.6841">
        <ele>384</ele>
        <time>2018-07-15T10:04:55Z</time>
      </trkpt>
      <trkpt lat="45.92186" lon="4.68413">
        <ele>384</ele>
        <time>2018-07-15T10:04:56Z</time>
      </trkpt>
      <trkpt lat="45.9219" lon="4.68416">
        <ele>383</ele>
        <time>2018-07-15T10:04:57Z</time>
      </trkpt>
      <trkpt lat="45.92194" lon="4.68419">
        <ele>386</ele>
        <time>2018-07-15T10:04:58Z</time>
      </trkpt>
      <trkpt lat="45.92198" lon="4.68422">
        <ele>386</ele>
        <time>2018-07-15T10:04:59Z</time>
      </trkpt>
      <trkpt lat="45.92202" lon="4.68424">
        <ele>386</ele>
        <time>2018-07-15T10:05:00Z</time>
      </trkpt>
      <trkpt lat="45.92207" lon="4.68427">
        <ele>386</ele>
        <time>2018-07-15T10:05:01Z</time>
      </trkpt>
      <trkpt lat="45.92211" lon="4.6843">
        <ele>386</ele>
        <time>2018-07-15T10:05:02Z</time>
      </trkpt>
      <trkpt lat="45.92215" lon="4.68433">
        <ele>386</ele>
        <time>2018-07-15T10:05:03Z</time>
      </trkpt>
      <trkpt lat="45.92218" lon="4.68437">
        <ele>386</ele>
        <time>2018-07-15T10:05:04Z</time>
      </trkpt>
      <trkpt lat="45.92222" lon="4.68441">
        <ele>386</ele>
        <time>2018-07-15T10:05:05Z</time>
      </trkpt>
      <trkpt lat="45.92226" lon="4.68446">
        <ele>386</ele>
        <time>2018-07-15T10:05:06Z</time>
      </trkpt>
      <trkpt lat="45.9223" lon="4.6845">
        <ele>386</ele>
        <time>2018-07-15T10:05:07Z</time>
      </trkpt>
      <trkpt lat="45.92234" lon="4.68454">
        <ele>386</ele>
        <time>2018-07-15T10:05:08Z</time>
      </trkpt>
      <trkpt lat="45.92238" lon="4.68459">
        <ele>386</ele>
        <time>2018-07-15T10:05:09Z</time>
      </trkpt>
      <trkpt lat="45.92243" lon="4.68463">
        <ele>386</ele>
        <time>2018-07-15T10:05:10Z</time>
      </trkpt>
      <trkpt lat="45.92247" lon="4.68466">
        <ele>386</ele>
        <time>2018-07-15T10:05:11Z</time>
      </trkpt>
      <trkpt lat="45.92251" lon="4.68472">
        <ele>384</ele>
        <time>2018-07-15T10:05:12Z</time>
      </trkpt>
      <trkpt lat="45.92254" lon="4.68477">
        <ele>384</ele>
        <time>2018-07-15T10:05:13Z</time>
      </trkpt>
      <trkpt lat="45.92261" lon="4.68484">
        <ele>384</ele>
        <time>2018-07-15T10:05:15Z</time>
      </trkpt>
      <trkpt lat="45.92265" lon="4.68487">
        <ele>384</ele>
        <time>2018-07-15T10:05:16Z</time>
      </trkpt>
      <trkpt lat="45.9227" lon="4.6849">
        <ele>384</ele>
        <time>2018-07-15T10:05:17Z</time>
      </trkpt>
      <trkpt lat="45.92275" lon="4.68495">
        <ele>384</ele>
        <time>2018-07-15T10:05:18Z</time>
      </trkpt>
      <trkpt lat="45.92278" lon="4.68499">
        <ele>384</ele>
        <time>2018-07-15T10:05:19Z</time>
      </trkpt>
      <trkpt lat="45.92281" lon="4.68503">
        <ele>387</ele>
        <time>2018-07-15T10:05:20Z</time>
      </trkpt>
      <trkpt lat="45.92288" lon="4.6851">
        <ele>387</ele>
        <time>2018-07-15T10:05:22Z</time>
      </trkpt>
      <trkpt lat="45.92292" lon="4.68514">
        <ele>387</ele>
        <time>2018-07-15T10:05:23Z</time>
      </trkpt>
      <trkpt lat="45.92299" lon="4.68521">
        <ele>387</ele>
        <time>2018-07-15T10:05:25Z</time>
      </trkpt>
      <trkpt lat="45.92303" lon="4.68525">
        <ele>387</ele>
        <time>2018-07-15T10:05:26Z</time>
      </trkpt>
      <trkpt lat="45.92306" lon="4.68531">
        <ele>388</ele>
        <time>2018-07-15T10:05:27Z</time>
      </trkpt>
      <trkpt lat="45.92311" lon="4.68534">
        <ele>388</ele>
        <time>2018-07-15T10:05:28Z</time>
      </trkpt>
      <trkpt lat="45.92315" lon="4.68538">
        <ele>388</ele>
        <time>2018-07-15T10:05:29Z</time>
      </trkpt>
      <trkpt lat="45.92319" lon="4.68542">
        <ele>388</ele>
        <time>2018-07-15T10:05:30Z</time>
      </trkpt>
      <trkpt lat="45.92324" lon="4.68544">
        <ele>388</ele>
        <time>2018-07-15T10:05:31Z</time>
      </trkpt>
      <trkpt lat="45.92328" lon="4.68549">
        <ele>388</ele>
        <time>2018-07-15T10:05:32Z</time>
      </trkpt>
      <trkpt lat="45.92334" lon="4.68553">
        <ele>385</ele>
        <time>2018-07-15T10:05:33Z</time>
      </trkpt>
      <trkpt lat="45.92338" lon="4.68558">
        <ele>386</ele>
        <time>2018-07-15T10:05:34Z</time>
      </trkpt>
      <trkpt lat="45.92342" lon="4.68561">
        <ele>386</ele>
        <time>2018-07-15T10:05:35Z</time>
      </trkpt>
      <trkpt lat="45.92347" lon="4.68565">
        <ele>386</ele>
        <time>2018-07-15T10:05:36Z</time>
      </trkpt>
      <trkpt lat="45.92352" lon="4.68568">
        <ele>386</ele>
        <time>2018-07-15T10:05:37Z</time>
      </trkpt>
      <trkpt lat="45.92357" lon="4.68572">
        <ele>386</ele>
        <time>2018-07-15T10:05:38Z</time>
      </trkpt>
      <trkpt lat="45.92362" lon="4.68574">
        <ele>385</ele>
        <time>2018-07-15T10:05:39Z</time>
      </trkpt>
      <trkpt lat="45.92367" lon="4.68578">
        <ele>385</ele>
        <time>2018-07-15T10:05:40Z</time>
      </trkpt>
      <trkpt lat="45.92372" lon="4.68581">
        <ele>384</ele>
        <time>2018-07-15T10:05:41Z</time>
      </trkpt>
      <trkpt lat="45.92377" lon="4.68584">
        <ele>387</ele>
        <time>2018-07-15T10:05:42Z</time>
      </trkpt>
      <trkpt lat="45.92383" lon="4.68588">
        <ele>387</ele>
        <time>2018-07-15T10:05:43Z</time>
      </trkpt>
      <trkpt lat="45.92387" lon="4.68591">
        <ele>387</ele>
        <time>2018-07-15T10:05:44Z</time>
      </trkpt>
      <trkpt lat="45.92391" lon="4.68594">
        <ele>386</ele>
        <time>2018-07-15T10:05:45Z</time>
      </trkpt>
      <trkpt lat="45.92396" lon="4.68596">
        <ele>386</ele>
        <time>2018-07-15T10:05:46Z</time>
      </trkpt>
      <trkpt lat="45.924" lon="4.68598">
        <ele>386</ele>
        <time>2018-07-15T10:05:47Z</time>
      </trkpt>
      <trkpt lat="45.92405" lon="4.68601">
        <ele>386</ele>
        <time>2018-07-15T10:05:48Z</time>
      </trkpt>
      <trkpt lat="45.9241" lon="4.68603">
        <ele>385</ele>
        <time>2018-07-15T10:05:49Z</time>
      </trkpt>
      <trkpt lat="45.92416" lon="4.68606">
        <ele>385</ele>
        <time>2018-07-15T10:05:50Z</time>
      </trkpt>
      <trkpt lat="45.92421" lon="4.68606">
        <ele>381</ele>
        <time>2018-07-15T10:05:51Z</time>
      </trkpt>
      <trkpt lat="45.92426" lon="4.6861">
        <ele>381</ele>
        <time>2018-07-15T10:05:52Z</time>
      </trkpt>
      <trkpt lat="45.92432" lon="4.68613">
        <ele>381</ele>
        <time>2018-07-15T10:05:53Z</time>
      </trkpt>
      <trkpt lat="45.92437" lon="4.68616">
        <ele>381</ele>
        <time>2018-07-15T10:05:54Z</time>
      </trkpt>
      <trkpt lat="45.92443" lon="4.68619">
        <ele>381</ele>
        <time>2018-07-15T10:05:55Z</time>
      </trkpt>
      <trkpt lat="45.9245" lon="4.68621">
        <ele>380</ele>
        <time>2018-07-15T10:05:56Z</time>
      </trkpt>
      <trkpt lat="45.92456" lon="4.68625">
        <ele>380</ele>
        <time>2018-07-15T10:05:57Z</time>
      </trkpt>
      <trkpt lat="45.92463" lon="4.68628">
        <ele>380</ele>
        <time>2018-07-15T10:05:58Z</time>
      </trkpt>
      <trkpt lat="45.92469" lon="4.68631">
        <ele>380</ele>
        <time>2018-07-15T10:05:59Z</time>
      </trkpt>
      <trkpt lat="45.92476" lon="4.68633">
        <ele>379</ele>
        <time>2018-07-15T10:06:00Z</time>
      </trkpt>
      <trkpt lat="45.92483" lon="4.68636">
        <ele>379</ele>
        <time>2018-07-15T10:06:01Z</time>
      </trkpt>
      <trkpt lat="45.9249" lon="4.68638">
        <ele>379</ele>
        <time>2018-07-15T10:06:02Z</time>
      </trkpt>
      <trkpt lat="45.92497" lon="4.6864">
        <ele>379</ele>
        <time>2018-07-15T10:06:03Z</time>
      </trkpt>
      <trkpt lat="45.92504" lon="4.68642">
        <ele>376</ele>
        <time>2018-07-15T10:06:04Z</time>
      </trkpt>
      <trkpt lat="45.9251" lon="4.68645">
        <ele>375</ele>
        <time>2018-07-15T10:06:05Z</time>
      </trkpt>
      <trkpt lat="45.92517" lon="4.68645">
        <ele>375</ele>
        <time>2018-07-15T10:06:06Z</time>
      </trkpt>
      <trkpt lat="45.92522" lon="4.68649">
        <ele>375</ele>
        <time>2018-07-15T10:06:07Z</time>
      </trkpt>
      <trkpt lat="45.92528" lon="4.68652">
        <ele>375</ele>
        <time>2018-07-15T10:06:08Z</time>
      </trkpt>
      <trkpt lat="45.92535" lon="4.68653">
        <ele>375</ele>
        <time>2018-07-15T10:06:09Z</time>
      </trkpt>
      <trkpt lat="45.9254" lon="4.68655">
        <ele>375</ele>
        <time>2018-07-15T10:06:10Z</time>
      </trkpt>
      <trkpt lat="45.92545" lon="4.68656">
        <ele>374</ele>
        <time>2018-07-15T10:06:11Z</time>
      </trkpt>
      <trkpt lat="45.92551" lon="4.68657">
        <ele>374</ele>
        <time>2018-07-15T10:06:12Z</time>
      </trkpt>
      <trkpt lat="45.92556" lon="4.68657">
        <ele>374</ele>
        <time>2018-07-15T10:06:13Z</time>
      </trkpt>
      <trkpt lat="45.92562" lon="4.68655">
        <ele>374</ele>
        <time>2018-07-15T10:06:14Z</time>
      </trkpt>
      <trkpt lat="45.92567" lon="4.68651">
        <ele>374</ele>
        <time>2018-07-15T10:06:15Z</time>
      </trkpt>
      <trkpt lat="45.92572" lon="4.68646">
        <ele>374</ele>
        <time>2018-07-15T10:06:16Z</time>
      </trkpt>
      <trkpt lat="45.9258" lon="4.68641">
        <ele>373</ele>
        <time>2018-07-15T10:06:18Z</time>
      </trkpt>
      <trkpt lat="45.92585" lon="4.68638">
        <ele>370</ele>
        <time>2018-07-15T10:06:19Z</time>
      </trkpt>
      <trkpt lat="45.92593" lon="4.68635">
        <ele>370</ele>
        <time>2018-07-15T10:06:23Z</time>
      </trkpt>
      <trkpt lat="45.92596" lon="4.68634">
        <ele>370</ele>
        <time>2018-07-15T10:06:24Z</time>
      </trkpt>
      <trkpt lat="45.92602" lon="4.68634">
        <ele>369</ele>
        <time>2018-07-15T10:06:26Z</time>
      </trkpt>
      <trkpt lat="45.92613" lon="4.68632">
        <ele>369</ele>
        <time>2018-07-15T10:06:27Z</time>
      </trkpt>
      <trkpt lat="45.92621" lon="4.68629">
        <ele>368</ele>
        <time>2018-07-15T10:06:29Z</time>
      </trkpt>
      <trkpt lat="45.92628" lon="4.68623">
        <ele>368</ele>
        <time>2018-07-15T10:06:30Z</time>
      </trkpt>
      <trkpt lat="45.92631" lon="4.6862">
        <ele>368</ele>
        <time>2018-07-15T10:06:31Z</time>
      </trkpt>
      <trkpt lat="45.92637" lon="4.68617">
        <ele>368</ele>
        <time>2018-07-15T10:06:32Z</time>
      </trkpt>
      <trkpt lat="45.92642" lon="4.68617">
        <ele>367</ele>
        <time>2018-07-15T10:06:33Z</time>
      </trkpt>
      <trkpt lat="45.92647" lon="4.68615">
        <ele>367</ele>
        <time>2018-07-15T10:06:34Z</time>
      </trkpt>
      <trkpt lat="45.92653" lon="4.68613">
        <ele>367</ele>
        <time>2018-07-15T10:06:35Z</time>
      </trkpt>
      <trkpt lat="45.92657" lon="4.68612">
        <ele>367</ele>
        <time>2018-07-15T10:06:36Z</time>
      </trkpt>
      <trkpt lat="45.92662" lon="4.68609">
        <ele>367</ele>
        <time>2018-07-15T10:06:37Z</time>
      </trkpt>
      <trkpt lat="45.92668" lon="4.68607">
        <ele>364</ele>
        <time>2018-07-15T10:06:38Z</time>
      </trkpt>
      <trkpt lat="45.92674" lon="4.68603">
        <ele>364</ele>
        <time>2018-07-15T10:06:39Z</time>
      </trkpt>
      <trkpt lat="45.9268" lon="4.68599">
        <ele>364</ele>
        <time>2018-07-15T10:06:40Z</time>
      </trkpt>
      <trkpt lat="45.92688" lon="4.68596">
        <ele>364</ele>
        <time>2018-07-15T10:06:42Z</time>
      </trkpt>
      <trkpt lat="45.92691" lon="4.68594">
        <ele>364</ele>
        <time>2018-07-15T10:06:43Z</time>
      </trkpt>
      <trkpt lat="45.927" lon="4.68591">
        <ele>364</ele>
        <time>2018-07-15T10:06:45Z</time>
      </trkpt>
      <trkpt lat="45.92705" lon="4.68589">
        <ele>364</ele>
        <time>2018-07-15T10:06:46Z</time>
      </trkpt>
      <trkpt lat="45.92711" lon="4.68586">
        <ele>364</ele>
        <time>2018-07-15T10:06:47Z</time>
      </trkpt>
      <trkpt lat="45.92717" lon="4.68582">
        <ele>366</ele>
        <time>2018-07-15T10:06:48Z</time>
      </trkpt>
      <trkpt lat="45.92725" lon="4.68577">
        <ele>366</ele>
        <time>2018-07-15T10:06:49Z</time>
      </trkpt>
      <trkpt lat="45.92731" lon="4.68575">
        <ele>366</ele>
        <time>2018-07-15T10:06:50Z</time>
      </trkpt>
      <trkpt lat="45.92737" lon="4.68572">
        <ele>366</ele>
        <time>2018-07-15T10:06:51Z</time>
      </trkpt>
      <trkpt lat="45.92743" lon="4.68568">
        <ele>366</ele>
        <time>2018-07-15T10:06:52Z</time>
      </trkpt>
      <trkpt lat="45.92749" lon="4.68568">
        <ele>366</ele>
        <time>2018-07-15T10:06:53Z</time>
      </trkpt>
      <trkpt lat="45.92755" lon="4.68566">
        <ele>366</ele>
        <time>2018-07-15T10:06:54Z</time>
      </trkpt>
      <trkpt lat="45.92762" lon="4.68564">
        <ele>365</ele>
        <time>2018-07-15T10:06:55Z</time>
      </trkpt>
      <trkpt lat="45.92768" lon="4.68564">
        <ele>365</ele>
        <time>2018-07-15T10:06:56Z</time>
      </trkpt>
      <trkpt lat="45.92776" lon="4.68565">
        <ele>365</ele>
        <time>2018-07-15T10:06:57Z</time>
      </trkpt>
      <trkpt lat="45.92782" lon="4.68567">
        <ele>365</ele>
        <time>2018-07-15T10:06:58Z</time>
      </trkpt>
      <trkpt lat="45.9279" lon="4.68569">
        <ele>364</ele>
        <time>2018-07-15T10:06:59Z</time>
      </trkpt>
      <trkpt lat="45.92798" lon="4.68571">
        <ele>364</ele>
        <time>2018-07-15T10:07:00Z</time>
      </trkpt>
      <trkpt lat="45.92806" lon="4.68572">
        <ele>364</ele>
        <time>2018-07-15T10:07:01Z</time>
      </trkpt>
      <trkpt lat="45.92814" lon="4.68574">
        <ele>363</ele>
        <time>2018-07-15T10:07:02Z</time>
      </trkpt>
      <trkpt lat="45.9282" lon="4.68576">
        <ele>363</ele>
        <time>2018-07-15T10:07:03Z</time>
      </trkpt>
      <trkpt lat="45.92828" lon="4.68577">
        <ele>362</ele>
        <time>2018-07-15T10:07:04Z</time>
      </trkpt>
      <trkpt lat="45.92835" lon="4.68579">
        <ele>361</ele>
        <time>2018-07-15T10:07:05Z</time>
      </trkpt>
      <trkpt lat="45.92843" lon="4.68579">
        <ele>361</ele>
        <time>2018-07-15T10:07:06Z</time>
      </trkpt>
      <trkpt lat="45.9285" lon="4.68579">
        <ele>361</ele>
        <time>2018-07-15T10:07:07Z</time>
      </trkpt>
      <trkpt lat="45.92856" lon="4.68581">
        <ele>361</ele>
        <time>2018-07-15T10:07:08Z</time>
      </trkpt>
      <trkpt lat="45.92864" lon="4.68582">
        <ele>360</ele>
        <time>2018-07-15T10:07:14Z</time>
      </trkpt>
      <trkpt lat="45.92872" lon="4.68582">
        <ele>360</ele>
        <time>2018-07-15T10:07:15Z</time>
      </trkpt>
      <trkpt lat="45.92879" lon="4.68586">
        <ele>359</ele>
        <time>2018-07-15T10:07:17Z</time>
      </trkpt>
      <trkpt lat="45.92883" lon="4.68588">
        <ele>358</ele>
        <time>2018-07-15T10:07:18Z</time>
      </trkpt>
      <trkpt lat="45.92887" lon="4.68589">
        <ele>358</ele>
        <time>2018-07-15T10:07:19Z</time>
      </trkpt>
      <trkpt lat="45.92894" lon="4.6859">
        <ele>358</ele>
        <time>2018-07-15T10:07:20Z</time>
      </trkpt>
      <trkpt lat="45.92899" lon="4.68592">
        <ele>358</ele>
        <time>2018-07-15T10:07:21Z</time>
      </trkpt>
      <trkpt lat="45.92904" lon="4.68594">
        <ele>358</ele>
        <time>2018-07-15T10:07:22Z</time>
      </trkpt>
      <trkpt lat="45.9291" lon="4.68596">
        <ele>358</ele>
        <time>2018-07-15T10:07:23Z</time>
      </trkpt>
      <trkpt lat="45.92917" lon="4.68597">
        <ele>359</ele>
        <time>2018-07-15T10:07:24Z</time>
      </trkpt>
      <trkpt lat="45.92924" lon="4.68599">
        <ele>359</ele>
        <time>2018-07-15T10:07:25Z</time>
      </trkpt>
      <trkpt lat="45.92931" lon="4.686">
        <ele>358</ele>
        <time>2018-07-15T10:07:26Z</time>
      </trkpt>
      <trkpt lat="45.92938" lon="4.68601">
        <ele>358</ele>
        <time>2018-07-15T10:07:27Z</time>
      </trkpt>
      <trkpt lat="45.92945" lon="4.68603">
        <ele>358</ele>
        <time>2018-07-15T10:07:28Z</time>
      </trkpt>
      <trkpt lat="45.92952" lon="4.68604">
        <ele>358</ele>
        <time>2018-07-15T10:07:29Z</time>
      </trkpt>
      <trkpt lat="45.92959" lon="4.68605">
        <ele>358</ele>
        <time>2018-07-15T10:07:30Z</time>
      </trkpt>
      <trkpt lat="45.92967" lon="4.68606">
        <ele>358</ele>
        <time>2018-07-15T10:07:31Z</time>
      </trkpt>
      <trkpt lat="45.92975" lon="4.68608">
        <ele>358</ele>
        <time>2018-07-15T10:07:32Z</time>
      </trkpt>
      <trkpt lat="45.92983" lon="4.68608">
        <ele>358</ele>
        <time>2018-07-15T10:07:33Z</time>
      </trkpt>
      <trkpt lat="45.9299" lon="4.68609">
        <ele>358</ele>
        <time>2018-07-15T10:07:34Z</time>
      </trkpt>
      <trkpt lat="45.92998" lon="4.68611">
        <ele>358</ele>
        <time>2018-07-15T10:07:35Z</time>
      </trkpt>
      <trkpt lat="45.93006" lon="4.68613">
        <ele>356</ele>
        <time>2018-07-15T10:07:36Z</time>
      </trkpt>
      <trkpt lat="45.93012" lon="4.68617">
        <ele>356</ele>
        <time>2018-07-15T10:07:37Z</time>
      </trkpt>
      <trkpt lat="45.93019" lon="4.68619">
        <ele>356</ele>
        <time>2018-07-15T10:07:38Z</time>
      </trkpt>
      <trkpt lat="45.93029" lon="4.68619">
        <ele>355</ele>
        <time>2018-07-15T10:07:39Z</time>
      </trkpt>
      <trkpt lat="45.93036" lon="4.68622">
        <ele>355</ele>
        <time>2018-07-15T10:07:40Z</time>
      </trkpt>
      <trkpt lat="45.93045" lon="4.68625">
        <ele>355</ele>
        <time>2018-07-15T10:07:41Z</time>
      </trkpt>
      <trkpt lat="45.93054" lon="4.68627">
        <ele>354</ele>
        <time>2018-07-15T10:07:42Z</time>
      </trkpt>
      <trkpt lat="45.93063" lon="4.68628">
        <ele>354</ele>
        <time>2018-07-15T10:07:43Z</time>
      </trkpt>
      <trkpt lat="45.93071" lon="4.68631">
        <ele>354</ele>
        <time>2018-07-15T10:07:44Z</time>
      </trkpt>
      <trkpt lat="45.93078" lon="4.68634">
        <ele>354</ele>
        <time>2018-07-15T10:07:45Z</time>
      </trkpt>
      <trkpt lat="45.93086" lon="4.68636">
        <ele>349</ele>
        <time>2018-07-15T10:07:46Z</time>
      </trkpt>
      <trkpt lat="45.93095" lon="4.68638">
        <ele>349</ele>
        <time>2018-07-15T10:07:47Z</time>
      </trkpt>
      <trkpt lat="45.93104" lon="4.68639">
        <ele>349</ele>
        <time>2018-07-15T10:07:48Z</time>
      </trkpt>
      <trkpt lat="45.93113" lon="4.6864">
        <ele>348</ele>
        <time>2018-07-15T10:07:49Z</time>
      </trkpt>
      <trkpt lat="45.93122" lon="4.68641">
        <ele>348</ele>
        <time>2018-07-15T10:07:50Z</time>
      </trkpt>
      <trkpt lat="45.93132" lon="4.68643">
        <ele>348</ele>
        <time>2018-07-15T10:07:51Z</time>
      </trkpt>
      <trkpt lat="45.93142" lon="4.68645">
        <ele>347</ele>
        <time>2018-07-15T10:07:52Z</time>
      </trkpt>
      <trkpt lat="45.93151" lon="4.68648">
        <ele>347</ele>
        <time>2018-07-15T10:07:53Z</time>
      </trkpt>
      <trkpt lat="45.9316" lon="4.68651">
        <ele>347</ele>
        <time>2018-07-15T10:07:54Z</time>
      </trkpt>
      <trkpt lat="45.9317" lon="4.68653">
        <ele>345</ele>
        <time>2018-07-15T10:07:55Z</time>
      </trkpt>
      <trkpt lat="45.93179" lon="4.68654">
        <ele>345</ele>
        <time>2018-07-15T10:07:56Z</time>
      </trkpt>
      <trkpt lat="45.93189" lon="4.68657">
        <ele>345</ele>
        <time>2018-07-15T10:07:57Z</time>
      </trkpt>
      <trkpt lat="45.93199" lon="4.6866">
        <ele>345</ele>
        <time>2018-07-15T10:07:58Z</time>
      </trkpt>
      <trkpt lat="45.93208" lon="4.68663">
        <ele>344</ele>
        <time>2018-07-15T10:07:59Z</time>
      </trkpt>
      <trkpt lat="45.93217" lon="4.68665">
        <ele>344</ele>
        <time>2018-07-15T10:08:00Z</time>
      </trkpt>
      <trkpt lat="45.93227" lon="4.68668">
        <ele>345</ele>
        <time>2018-07-15T10:08:01Z</time>
      </trkpt>
      <trkpt lat="45.93238" lon="4.68668">
        <ele>344</ele>
        <time>2018-07-15T10:08:02Z</time>
      </trkpt>
      <trkpt lat="45.93246" lon="4.6867">
        <ele>344</ele>
        <time>2018-07-15T10:08:03Z</time>
      </trkpt>
      <trkpt lat="45.93254" lon="4.68673">
        <ele>344</ele>
        <time>2018-07-15T10:08:04Z</time>
      </trkpt>
      <trkpt lat="45.93262" lon="4.68676">
        <ele>344</ele>
        <time>2018-07-15T10:08:05Z</time>
      </trkpt>
      <trkpt lat="45.93272" lon="4.68678">
        <ele>344</ele>
        <time>2018-07-15T10:08:06Z</time>
      </trkpt>
      <trkpt lat="45.9328" lon="4.6868">
        <ele>344</ele>
        <time>2018-07-15T10:08:07Z</time>
      </trkpt>
      <trkpt lat="45.93288" lon="4.68682">
        <ele>344</ele>
        <time>2018-07-15T10:08:08Z</time>
      </trkpt>
      <trkpt lat="45.93298" lon="4.68684">
        <ele>344</ele>
        <time>2018-07-15T10:08:09Z</time>
      </trkpt>
      <trkpt lat="45.93307" lon="4.68686">
        <ele>344</ele>
        <time>2018-07-15T10:08:10Z</time>
      </trkpt>
      <trkpt lat="45.93315" lon="4.68688">
        <ele>344</ele>
        <time>2018-07-15T10:08:11Z</time>
      </trkpt>
      <trkpt lat="45.93323" lon="4.68688">
        <ele>344</ele>
        <time>2018-07-15T10:08:12Z</time>
      </trkpt>
      <trkpt lat="45.93332" lon="4.6869">
        <ele>344</ele>
        <time>2018-07-15T10:08:13Z</time>
      </trkpt>
      <trkpt lat="45.93341" lon="4.68692">
        <ele>344</ele>
        <time>2018-07-15T10:08:14Z</time>
      </trkpt>
      <trkpt lat="45.93349" lon="4.68694">
        <ele>344</ele>
        <time>2018-07-15T10:08:15Z</time>
      </trkpt>
      <trkpt lat="45.93357" lon="4.68696">
        <ele>344</ele>
        <time>2018-07-15T10:08:16Z</time>
      </trkpt>
      <trkpt lat="45.93364" lon="4.68699">
        <ele>344</ele>
        <time>2018-07-15T10:08:17Z</time>
      </trkpt>
      <trkpt lat="45.93372" lon="4.68702">
        <ele>344</ele>
        <time>2018-07-15T10:08:18Z</time>
      </trkpt>
      <trkpt lat="45.93379" lon="4.68702">
        <ele>344</ele>
        <time>2018-07-15T10:08:19Z</time>
      </trkpt>
      <trkpt lat="45.93387" lon="4.68704">
        <ele>344</ele>
        <time>2018-07-15T10:08:20Z</time>
      </trkpt>
      <trkpt lat="45.93395" lon="4.68706">
        <ele>344</ele>
        <time>2018-07-15T10:08:21Z</time>
      </trkpt>
      <trkpt lat="45.93403" lon="4.68708">
        <ele>344</ele>
        <time>2018-07-15T10:08:22Z</time>
      </trkpt>
      <trkpt lat="45.9341" lon="4.68709">
        <ele>343</ele>
        <time>2018-07-15T10:08:23Z</time>
      </trkpt>
      <trkpt lat="45.93418" lon="4.68711">
        <ele>343</ele>
        <time>2018-07-15T10:08:24Z</time>
      </trkpt>
      <trkpt lat="45.93426" lon="4.68712">
        <ele>343</ele>
        <time>2018-07-15T10:08:25Z</time>
      </trkpt>
      <trkpt lat="45.93433" lon="4.68715">
        <ele>343</ele>
        <time>2018-07-15T10:08:26Z</time>
      </trkpt>
      <trkpt lat="45.93442" lon="4.68715">
        <ele>343</ele>
        <time>2018-07-15T10:08:27Z</time>
      </trkpt>
      <trkpt lat="45.93449" lon="4.68713">
        <ele>343</ele>
        <time>2018-07-15T10:08:28Z</time>
      </trkpt>
      <trkpt lat="45.93457" lon="4.68715">
        <ele>342</ele>
        <time>2018-07-15T10:08:29Z</time>
      </trkpt>
      <trkpt lat="45.93465" lon="4.68717">
        <ele>342</ele>
        <time>2018-07-15T10:08:30Z</time>
      </trkpt>
      <trkpt lat="45.93473" lon="4.68719">
        <ele>342</ele>
        <time>2018-07-15T10:08:31Z</time>
      </trkpt>
      <trkpt lat="45.9348" lon="4.68722">
        <ele>342</ele>
        <time>2018-07-15T10:08:32Z</time>
      </trkpt>
      <trkpt lat="45.93488" lon="4.68724">
        <ele>342</ele>
        <time>2018-07-15T10:08:33Z</time>
      </trkpt>
      <trkpt lat="45.93496" lon="4.68726">
        <ele>342</ele>
        <time>2018-07-15T10:08:34Z</time>
      </trkpt>
      <trkpt lat="45.93502" lon="4.68728">
        <ele>342</ele>
        <time>2018-07-15T10:08:35Z</time>
      </trkpt>
      <trkpt lat="45.93509" lon="4.6873">
        <ele>342</ele>
        <time>2018-07-15T10:08:36Z</time>
      </trkpt>
      <trkpt lat="45.93515" lon="4.68731">
        <ele>342</ele>
        <time>2018-07-15T10:08:37Z</time>
      </trkpt>
      <trkpt lat="45.9352" lon="4.68734">
        <ele>342</ele>
        <time>2018-07-15T10:08:38Z</time>
      </trkpt>
      <trkpt lat="45.93527" lon="4.68734">
        <ele>342</ele>
        <time>2018-07-15T10:08:39Z</time>
      </trkpt>
      <trkpt lat="45.93533" lon="4.68735">
        <ele>342</ele>
        <time>2018-07-15T10:08:40Z</time>
      </trkpt>
      <trkpt lat="45.93541" lon="4.68736">
        <ele>342</ele>
        <time>2018-07-15T10:08:41Z</time>
      </trkpt>
      <trkpt lat="45.93548" lon="4.68737">
        <ele>342</ele>
        <time>2018-07-15T10:08:42Z</time>
      </trkpt>
      <trkpt lat="45.93555" lon="4.68736">
        <ele>342</ele>
        <time>2018-07-15T10:08:43Z</time>
      </trkpt>
      <trkpt lat="45.93561" lon="4.68738">
        <ele>342</ele>
        <time>2018-07-15T10:08:44Z</time>
      </trkpt>
      <trkpt lat="45.93567" lon="4.6874">
        <ele>343</ele>
        <time>2018-07-15T10:08:45Z</time>
      </trkpt>
      <trkpt lat="45.93574" lon="4.68742">
        <ele>343</ele>
        <time>2018-07-15T10:08:46Z</time>
      </trkpt>
      <trkpt lat="45.9358" lon="4.68746">
        <ele>343</ele>
        <time>2018-07-15T10:08:47Z</time>
      </trkpt>
      <trkpt lat="45.93587" lon="4.68748">
        <ele>343</ele>
        <time>2018-07-15T10:08:48Z</time>
      </trkpt>
      <trkpt lat="45.93594" lon="4.68749">
        <ele>343</ele>
        <time>2018-07-15T10:08:49Z</time>
      </trkpt>
      <trkpt lat="45.936" lon="4.68751">
        <ele>344</ele>
        <time>2018-07-15T10:08:50Z</time>
      </trkpt>
      <trkpt lat="45.93607" lon="4.68753">
        <ele>344</ele>
        <time>2018-07-15T10:08:51Z</time>
      </trkpt>
      <trkpt lat="45.93614" lon="4.68755">
        <ele>343</ele>
        <time>2018-07-15T10:08:52Z</time>
      </trkpt>
      <trkpt lat="45.9362" lon="4.68756">
        <ele>343</ele>
        <time>2018-07-15T10:08:53Z</time>
      </trkpt>
      <trkpt lat="45.93625" lon="4.68759">
        <ele>343</ele>
        <time>2018-07-15T10:08:54Z</time>
      </trkpt>
      <trkpt lat="45.93632" lon="4.68762">
        <ele>343</ele>
        <time>2018-07-15T10:08:55Z</time>
      </trkpt>
      <trkpt lat="45.9364" lon="4.68763">
        <ele>343</ele>
        <time>2018-07-15T10:08:56Z</time>
      </trkpt>
      <trkpt lat="45.93646" lon="4.68767">
        <ele>343</ele>
        <time>2018-07-15T10:08:57Z</time>
      </trkpt>
      <trkpt lat="45.93652" lon="4.68769">
        <ele>343</ele>
        <time>2018-07-15T10:08:58Z</time>
      </trkpt>
      <trkpt lat="45.93658" lon="4.6877">
        <ele>343</ele>
        <time>2018-07-15T10:08:59Z</time>
      </trkpt>
      <trkpt lat="45.93665" lon="4.68769">
        <ele>343</ele>
        <time>2018-07-15T10:09:00Z</time>
      </trkpt>
      <trkpt lat="45.9367" lon="4.68771">
        <ele>342</ele>
        <time>2018-07-15T10:09:01Z</time>
      </trkpt>
      <trkpt lat="45.93676" lon="4.68773">
        <ele>342</ele>
        <time>2018-07-15T10:09:02Z</time>
      </trkpt>
      <trkpt lat="45.93682" lon="4.68774">
        <ele>342</ele>
        <time>2018-07-15T10:09:03Z</time>
      </trkpt>
      <trkpt lat="45.93687" lon="4.68776">
        <ele>342</ele>
        <time>2018-07-15T10:09:04Z</time>
      </trkpt>
      <trkpt lat="45.93694" lon="4.68778">
        <ele>342</ele>
        <time>2018-07-15T10:09:05Z</time>
      </trkpt>
      <trkpt lat="45.937" lon="4.68781">
        <ele>342</ele>
        <time>2018-07-15T10:09:06Z</time>
      </trkpt>
      <trkpt lat="45.93706" lon="4.68782">
        <ele>342</ele>
        <time>2018-07-15T10:09:07Z</time>
      </trkpt>
      <trkpt lat="45.93712" lon="4.68782">
        <ele>342</ele>
        <time>2018-07-15T10:09:08Z</time>
      </trkpt>
      <trkpt lat="45.9372" lon="4.68788">
        <ele>342</ele>
        <time>2018-07-15T10:09:09Z</time>
      </trkpt>
      <trkpt lat="45.93726" lon="4.6879">
        <ele>342</ele>
        <time>2018-07-15T10:09:10Z</time>
      </trkpt>
      <trkpt lat="45.9373" lon="4.68799">
        <ele>342</ele>
        <time>2018-07-15T10:09:11Z</time>
      </trkpt>
      <trkpt lat="45.93738" lon="4.68798">
        <ele>342</ele>
        <time>2018-07-15T10:09:12Z</time>
      </trkpt>
      <trkpt lat="45.93746" lon="4.68797">
        <ele>342</ele>
        <time>2018-07-15T10:09:13Z</time>
      </trkpt>
      <trkpt lat="45.93752" lon="4.68798">
        <ele>341</ele>
        <time>2018-07-15T10:09:14Z</time>
      </trkpt>
      <trkpt lat="45.93758" lon="4.688">
        <ele>341</ele>
        <time>2018-07-15T10:09:15Z</time>
      </trkpt>
      <trkpt lat="45.93766" lon="4.68803">
        <ele>341</ele>
        <time>2018-07-15T10:09:16Z</time>
      </trkpt>
      <trkpt lat="45.93771" lon="4.68805">
        <ele>341</ele>
        <time>2018-07-15T10:09:17Z</time>
      </trkpt>
      <trkpt lat="45.93777" lon="4.68809">
        <ele>341</ele>
        <time>2018-07-15T10:09:18Z</time>
      </trkpt>
      <trkpt lat="45.93786" lon="4.68812">
        <ele>341</ele>
        <time>2018-07-15T10:09:19Z</time>
      </trkpt>
      <trkpt lat="45.93793" lon="4.68815">
        <ele>341</ele>
        <time>2018-07-15T10:09:20Z</time>
      </trkpt>
      <trkpt lat="45.93799" lon="4.68819">
        <ele>341</ele>
        <time>2018-07-15T10:09:21Z</time>
      </trkpt>
      <trkpt lat="45.93807" lon="4.68823">
        <ele>341</ele>
        <time>2018-07-15T10:09:22Z</time>
      </trkpt>
      <trkpt lat="45.93813" lon="4.68827">
        <ele>341</ele>
        <time>2018-07-15T10:09:23Z</time>
      </trkpt>
      <trkpt lat="45.9382" lon="4.6883">
        <ele>341</ele>
        <time>2018-07-15T10:09:24Z</time>
      </trkpt>
      <trkpt lat="45.93825" lon="4.68831">
        <ele>342</ele>
        <time>2018-07-15T10:09:25Z</time>
      </trkpt>
      <trkpt lat="45.9383" lon="4.68835">
        <ele>342</ele>
        <time>2018-07-15T10:09:26Z</time>
      </trkpt>
      <trkpt lat="45.93836" lon="4.68839">
        <ele>342</ele>
        <time>2018-07-15T10:09:27Z</time>
      </trkpt>
      <trkpt lat="45.93843" lon="4.68842">
        <ele>342</ele>
        <time>2018-07-15T10:09:28Z</time>
      </trkpt>
      <trkpt lat="45.93848" lon="4.68846">
        <ele>342</ele>
        <time>2018-07-15T10:09:29Z</time>
      </trkpt>
      <trkpt lat="45.93855" lon="4.68849">
        <ele>342</ele>
        <time>2018-07-15T10:09:30Z</time>
      </trkpt>
      <trkpt lat="45.93861" lon="4.68854">
        <ele>342</ele>
        <time>2018-07-15T10:09:31Z</time>
      </trkpt>
      <trkpt lat="45.93867" lon="4.68856">
        <ele>342</ele>
        <time>2018-07-15T10:09:32Z</time>
      </trkpt>
      <trkpt lat="45.93873" lon="4.6886">
        <ele>342</ele>
        <time>2018-07-15T10:09:33Z</time>
      </trkpt>
      <trkpt lat="45.93878" lon="4.68863">
        <ele>343</ele>
        <time>2018-07-15T10:09:34Z</time>
      </trkpt>
      <trkpt lat="45.93884" lon="4.68867">
        <ele>343</ele>
        <time>2018-07-15T10:09:35Z</time>
      </trkpt>
      <trkpt lat="45.93889" lon="4.6887">
        <ele>343</ele>
        <time>2018-07-15T10:09:36Z</time>
      </trkpt>
      <trkpt lat="45.93895" lon="4.68874">
        <ele>343</ele>
        <time>2018-07-15T10:09:37Z</time>
      </trkpt>
      <trkpt lat="45.939" lon="4.68878">
        <ele>342</ele>
        <time>2018-07-15T10:09:38Z</time>
      </trkpt>
      <trkpt lat="45.93906" lon="4.6888">
        <ele>342</ele>
        <time>2018-07-15T10:09:39Z</time>
      </trkpt>
      <trkpt lat="45.93912" lon="4.68882">
        <ele>342</ele>
        <time>2018-07-15T10:09:40Z</time>
      </trkpt>
      <trkpt lat="45.93917" lon="4.68884">
        <ele>342</ele>
        <time>2018-07-15T10:09:41Z</time>
      </trkpt>
      <trkpt lat="45.93923" lon="4.68887">
        <ele>342</ele>
        <time>2018-07-15T10:09:42Z</time>
      </trkpt>
      <trkpt lat="45.9393" lon="4.68888">
        <ele>342</ele>
        <time>2018-07-15T10:09:43Z</time>
      </trkpt>
      <trkpt lat="45.93935" lon="4.68888">
        <ele>342</ele>
        <time>2018-07-15T10:09:44Z</time>
      </trkpt>
      <trkpt lat="45.9394" lon="4.68891">
        <ele>342</ele>
        <time>2018-07-15T10:09:45Z</time>
      </trkpt>
      <trkpt lat="45.93945" lon="4.68893">
        <ele>342</ele>
        <time>2018-07-15T10:09:46Z</time>
      </trkpt>
      <trkpt lat="45.93949" lon="4.68896">
        <ele>342</ele>
        <time>2018-07-15T10:09:47Z</time>
      </trkpt>
      <trkpt lat="45.93955" lon="4.68897">
        <ele>342</ele>
        <time>2018-07-15T10:09:48Z</time>
      </trkpt>
      <trkpt lat="45.9396" lon="4.68899">
        <ele>342</ele>
        <time>2018-07-15T10:09:49Z</time>
      </trkpt>
      <trkpt lat="45.93966" lon="4.68902">
        <ele>342</ele>
        <time>2018-07-15T10:09:50Z</time>
      </trkpt>
      <trkpt lat="45.93972" lon="4.68905">
        <ele>342</ele>
        <time>2018-07-15T10:09:51Z</time>
      </trkpt>
      <trkpt lat="45.93978" lon="4.68908">
        <ele>342</ele>
        <time>2018-07-15T10:09:52Z</time>
      </trkpt>
      <trkpt lat="45.93984" lon="4.68911">
        <ele>342</ele>
        <time>2018-07-15T10:09:53Z</time>
      </trkpt>
      <trkpt lat="45.9399" lon="4.68913">
        <ele>342</ele>
        <time>2018-07-15T10:09:54Z</time>
      </trkpt>
      <trkpt lat="45.93996" lon="4.68916">
        <ele>342</ele>
        <time>2018-07-15T10:09:55Z</time>
      </trkpt>
      <trkpt lat="45.94003" lon="4.68917">
        <ele>342</ele>
        <time>2018-07-15T10:09:56Z</time>
      </trkpt>
      <trkpt lat="45.94008" lon="4.68919">
        <ele>342</ele>
        <time>2018-07-15T10:09:57Z</time>
      </trkpt>
      <trkpt lat="45.94015" lon="4.68921">
        <ele>342</ele>
        <time>2018-07-15T10:09:58Z</time>
      </trkpt>
      <trkpt lat="45.94021" lon="4.68924">
        <ele>341</ele>
        <time>2018-07-15T10:09:59Z</time>
      </trkpt>
      <trkpt lat="45.94027" lon="4.68927">
        <ele>341</ele>
        <time>2018-07-15T10:10:00Z</time>
      </trkpt>
      <trkpt lat="45.94033" lon="4.6893">
        <ele>341</ele>
        <time>2018-07-15T10:10:01Z</time>
      </trkpt>
      <trkpt lat="45.94039" lon="4.68932">
        <ele>341</ele>
        <time>2018-07-15T10:10:02Z</time>
      </trkpt>
      <trkpt lat="45.94045" lon="4.68935">
        <ele>341</ele>
        <time>2018-07-15T10:10:03Z</time>
      </trkpt>
      <trkpt lat="45.94051" lon="4.68939">
        <ele>341</ele>
        <time>2018-07-15T10:10:04Z</time>
      </trkpt>
      <trkpt lat="45.94057" lon="4.68943">
        <ele>341</ele>
        <time>2018-07-15T10:10:05Z</time>
      </trkpt>
      <trkpt lat="45.94063" lon="4.68947">
        <ele>341</ele>
        <time>2018-07-15T10:10:06Z</time>
      </trkpt>
      <trkpt lat="45.9407" lon="4.68948">
        <ele>341</ele>
        <time>2018-07-15T10:10:07Z</time>
      </trkpt>
      <trkpt lat="45.94076" lon="4.6895">
        <ele>341</ele>
        <time>2018-07-15T10:10:08Z</time>
      </trkpt>
      <trkpt lat="45.94083" lon="4.68951">
        <ele>341</ele>
        <time>2018-07-15T10:10:09Z</time>
      </trkpt>
      <trkpt lat="45.9409" lon="4.68952">
        <ele>340</ele>
        <time>2018-07-15T10:10:10Z</time>
      </trkpt>
      <trkpt lat="45.94097" lon="4.68953">
        <ele>340</ele>
        <time>2018-07-15T10:10:11Z</time>
      </trkpt>
      <trkpt lat="45.94103" lon="4.68956">
        <ele>340</ele>
        <time>2018-07-15T10:10:12Z</time>
      </trkpt>
      <trkpt lat="45.9411" lon="4.68958">
        <ele>340</ele>
        <time>2018-07-15T10:10:13Z</time>
      </trkpt>
      <trkpt lat="45.94116" lon="4.6896">
        <ele>340</ele>
        <time>2018-07-15T10:10:14Z</time>
      </trkpt>
      <trkpt lat="45.94123" lon="4.68962">
        <ele>340</ele>
        <time>2018-07-15T10:10:15Z</time>
      </trkpt>
      <trkpt lat="45.9413" lon="4.68964">
        <ele>340</ele>
        <time>2018-07-15T10:10:16Z</time>
      </trkpt>
      <trkpt lat="45.94136" lon="4.68966">
        <ele>340</ele>
        <time>2018-07-15T10:10:17Z</time>
      </trkpt>
      <trkpt lat="45.94143" lon="4.68969">
        <ele>340</ele>
        <time>2018-07-15T10:10:18Z</time>
      </trkpt>
      <trkpt lat="45.9415" lon="4.68971">
        <ele>340</ele>
        <time>2018-07-15T10:10:19Z</time>
      </trkpt>
      <trkpt lat="45.94156" lon="4.6897">
        <ele>340</ele>
        <time>2018-07-15T10:10:20Z</time>
      </trkpt>
      <trkpt lat="45.94163" lon="4.68973">
        <ele>340</ele>
        <time>2018-07-15T10:10:21Z</time>
      </trkpt>
      <trkpt lat="45.94169" lon="4.68976">
        <ele>339</ele>
        <time>2018-07-15T10:10:22Z</time>
      </trkpt>
      <trkpt lat="45.94176" lon="4.68977">
        <ele>339</ele>
        <time>2018-07-15T10:10:23Z</time>
      </trkpt>
      <trkpt lat="45.94183" lon="4.68978">
        <ele>338</ele>
        <time>2018-07-15T10:10:24Z</time>
      </trkpt>
      <trkpt lat="45.94191" lon="4.68979">
        <ele>338</ele>
        <time>2018-07-15T10:10:25Z</time>
      </trkpt>
      <trkpt lat="45.94198" lon="4.68981">
        <ele>338</ele>
        <time>2018-07-15T10:10:26Z</time>
      </trkpt>
      <trkpt lat="45.94205" lon="4.68983">
        <ele>338</ele>
        <time>2018-07-15T10:10:27Z</time>
      </trkpt>
      <trkpt lat="45.94213" lon="4.68986">
        <ele>338</ele>
        <time>2018-07-15T10:10:28Z</time>
      </trkpt>
      <trkpt lat="45.9422" lon="4.68986">
        <ele>338</ele>
        <time>2018-07-15T10:10:29Z</time>
      </trkpt>
      <trkpt lat="45.94228" lon="4.68989">
        <ele>338</ele>
        <time>2018-07-15T10:10:30Z</time>
      </trkpt>
      <trkpt lat="45.94235" lon="4.68992">
        <ele>338</ele>
        <time>2018-07-15T10:10:31Z</time>
      </trkpt>
      <trkpt lat="45.94242" lon="4.68994">
        <ele>338</ele>
        <time>2018-07-15T10:10:32Z</time>
      </trkpt>
      <trkpt lat="45.94251" lon="4.68994">
        <ele>338</ele>
        <time>2018-07-15T10:10:33Z</time>
      </trkpt>
      <trkpt lat="45.94259" lon="4.68995">
        <ele>337</ele>
        <time>2018-07-15T10:10:34Z</time>
      </trkpt>
      <trkpt lat="45.94266" lon="4.68996">
        <ele>337</ele>
        <time>2018-07-15T10:10:35Z</time>
      </trkpt>
      <trkpt lat="45.94273" lon="4.68996">
        <ele>337</ele>
        <time>2018-07-15T10:10:36Z</time>
      </trkpt>
      <trkpt lat="45.94281" lon="4.68998">
        <ele>337</ele>
        <time>2018-07-15T10:10:37Z</time>
      </trkpt>
      <trkpt lat="45.94288" lon="4.68999">
        <ele>336</ele>
        <time>2018-07-15T10:10:38Z</time>
      </trkpt>
      <trkpt lat="45.94293" lon="4.69">
        <ele>336</ele>
        <time>2018-07-15T10:10:39Z</time>
      </trkpt>
      <trkpt lat="45.943" lon="4.69001">
        <ele>337</ele>
        <time>2018-07-15T10:10:40Z</time>
      </trkpt>
      <trkpt lat="45.9431" lon="4.69001">
        <ele>337</ele>
        <time>2018-07-15T10:10:41Z</time>
      </trkpt>
      <trkpt lat="45.94316" lon="4.69002">
        <ele>337</ele>
        <time>2018-07-15T10:10:42Z</time>
      </trkpt>
      <trkpt lat="45.94323" lon="4.69003">
        <ele>337</ele>
        <time>2018-07-15T10:10:43Z</time>
      </trkpt>
      <trkpt lat="45.9433" lon="4.69003">
        <ele>337</ele>
        <time>2018-07-15T10:10:44Z</time>
      </trkpt>
      <trkpt lat="45.94336" lon="4.69004">
        <ele>337</ele>
        <time>2018-07-15T10:10:45Z</time>
      </trkpt>
      <trkpt lat="45.94344" lon="4.69003">
        <ele>337</ele>
        <time>2018-07-15T10:10:46Z</time>
      </trkpt>
      <trkpt lat="45.9435" lon="4.69004">
        <ele>338</ele>
        <time>2018-07-15T10:10:47Z</time>
      </trkpt>
      <trkpt lat="45.94355" lon="4.69003">
        <ele>338</ele>
        <time>2018-07-15T10:10:48Z</time>
      </trkpt>
      <trkpt lat="45.94362" lon="4.69003">
        <ele>338</ele>
        <time>2018-07-15T10:10:49Z</time>
      </trkpt>
      <trkpt lat="45.94366" lon="4.69002">
        <ele>338</ele>
        <time>2018-07-15T10:10:50Z</time>
      </trkpt>
      <trkpt lat="45.94372" lon="4.69003">
        <ele>338</ele>
        <time>2018-07-15T10:10:51Z</time>
      </trkpt>
      <trkpt lat="45.94378" lon="4.69002">
        <ele>338</ele>
        <time>2018-07-15T10:10:52Z</time>
      </trkpt>
      <trkpt lat="45.94384" lon="4.69003">
        <ele>338</ele>
        <time>2018-07-15T10:10:53Z</time>
      </trkpt>
      <trkpt lat="45.94391" lon="4.69005">
        <ele>338</ele>
        <time>2018-07-15T10:10:54Z</time>
      </trkpt>
      <trkpt lat="45.94396" lon="4.69006">
        <ele>339</ele>
        <time>2018-07-15T10:10:55Z</time>
      </trkpt>
      <trkpt lat="45.94403" lon="4.69003">
        <ele>339</ele>
        <time>2018-07-15T10:10:56Z</time>
      </trkpt>
      <trkpt lat="45.94411" lon="4.69001">
        <ele>339</ele>
        <time>2018-07-15T10:10:57Z</time>
      </trkpt>
      <trkpt lat="45.94415" lon="4.69001">
        <ele>339</ele>
        <time>2018-07-15T10:10:58Z</time>
      </trkpt>
      <trkpt lat="45.94421" lon="4.69001">
        <ele>339</ele>
        <time>2018-07-15T10:10:59Z</time>
      </trkpt>
      <trkpt lat="45.94427" lon="4.69001">
        <ele>340</ele>
        <time>2018-07-15T10:11:00Z</time>
      </trkpt>
      <trkpt lat="45.94433" lon="4.69002">
        <ele>340</ele>
        <time>2018-07-15T10:11:01Z</time>
      </trkpt>
      <trkpt lat="45.9444" lon="4.69002">
        <ele>340</ele>
        <time>2018-07-15T10:11:02Z</time>
      </trkpt>
      <trkpt lat="45.94445" lon="4.69001">
        <ele>340</ele>
        <time>2018-07-15T10:11:03Z</time>
      </trkpt>
      <trkpt lat="45.9445" lon="4.69002">
        <ele>340</ele>
        <time>2018-07-15T10:11:04Z</time>
      </trkpt>
      <trkpt lat="45.94456" lon="4.69001">
        <ele>340</ele>
        <time>2018-07-15T10:11:05Z</time>
      </trkpt>
      <trkpt lat="45.94462" lon="4.69002">
        <ele>341</ele>
        <time>2018-07-15T10:11:06Z</time>
      </trkpt>
      <trkpt lat="45.94468" lon="4.69003">
        <ele>341</ele>
        <time>2018-07-15T10:11:07Z</time>
      </trkpt>
      <trkpt lat="45.94474" lon="4.69003">
        <ele>341</ele>
        <time>2018-07-15T10:11:08Z</time>
      </trkpt>
      <trkpt lat="45.94479" lon="4.69003">
        <ele>341</ele>
        <time>2018-07-15T10:11:09Z</time>
      </trkpt>
      <trkpt lat="45.94485" lon="4.69004">
        <ele>341</ele>
        <time>2018-07-15T10:11:10Z</time>
      </trkpt>
      <trkpt lat="45.94491" lon="4.69005">
        <ele>341</ele>
        <time>2018-07-15T10:11:11Z</time>
      </trkpt>
      <trkpt lat="45.94496" lon="4.69006">
        <ele>341</ele>
        <time>2018-07-15T10:11:12Z</time>
      </trkpt>
      <trkpt lat="45.94502" lon="4.69008">
        <ele>341</ele>
        <time>2018-07-15T10:11:13Z</time>
      </trkpt>
      <trkpt lat="45.94507" lon="4.69011">
        <ele>341</ele>
        <time>2018-07-15T10:11:14Z</time>
      </trkpt>
      <trkpt lat="45.94511" lon="4.69012">
        <ele>341</ele>
        <time>2018-07-15T10:11:15Z</time>
      </trkpt>
      <trkpt lat="45.94517" lon="4.69011">
        <ele>342</ele>
        <time>2018-07-15T10:11:16Z</time>
      </trkpt>
      <trkpt lat="45.94523" lon="4.69012">
        <ele>342</ele>
        <time>2018-07-15T10:11:17Z</time>
      </trkpt>
      <trkpt lat="45.94527" lon="4.69015">
        <ele>342</ele>
        <time>2018-07-15T10:11:18Z</time>
      </trkpt>
      <trkpt lat="45.94533" lon="4.69012">
        <ele>342</ele>
        <time>2018-07-15T10:11:19Z</time>
      </trkpt>
      <trkpt lat="45.94537" lon="4.69013">
        <ele>342</ele>
        <time>2018-07-15T10:11:20Z</time>
      </trkpt>
      <trkpt lat="45.94543" lon="4.69013">
        <ele>342</ele>
        <time>2018-07-15T10:11:21Z</time>
      </trkpt>
      <trkpt lat="45.94548" lon="4.69015">
        <ele>342</ele>
        <time>2018-07-15T10:11:22Z</time>
      </trkpt>
      <trkpt lat="45.94553" lon="4.69017">
        <ele>342</ele>
        <time>2018-07-15T10:11:23Z</time>
      </trkpt>
      <trkpt lat="45.94557" lon="4.69019">
        <ele>342</ele>
        <time>2018-07-15T10:11:24Z</time>
      </trkpt>
      <trkpt lat="45.94562" lon="4.69021">
        <ele>342</ele>
        <time>2018-07-15T10:11:25Z</time>
      </trkpt>
      <trkpt lat="45.94566" lon="4.69023">
        <ele>342</ele>
        <time>2018-07-15T10:11:26Z</time>
      </trkpt>
      <trkpt lat="45.94571" lon="4.69024">
        <ele>342</ele>
        <time>2018-07-15T10:11:27Z</time>
      </trkpt>
      <trkpt lat="45.94575" lon="4.69028">
        <ele>342</ele>
        <time>2018-07-15T10:11:28Z</time>
      </trkpt>
      <trkpt lat="45.9458" lon="4.69029">
        <ele>342</ele>
        <time>2018-07-15T10:11:29Z</time>
      </trkpt>
      <trkpt lat="45.94585" lon="4.69032">
        <ele>342</ele>
        <time>2018-07-15T10:11:30Z</time>
      </trkpt>
      <trkpt lat="45.9459" lon="4.69033">
        <ele>342</ele>
        <time>2018-07-15T10:11:31Z</time>
      </trkpt>
      <trkpt lat="45.94595" lon="4.69035">
        <ele>342</ele>
        <time>2018-07-15T10:11:32Z</time>
      </trkpt>
      <trkpt lat="45.946" lon="4.69037">
        <ele>342</ele>
        <time>2018-07-15T10:11:33Z</time>
      </trkpt>
      <trkpt lat="45.94605" lon="4.69038">
        <ele>342</ele>
        <time>2018-07-15T10:11:34Z</time>
      </trkpt>
      <trkpt lat="45.9461" lon="4.6904">
        <ele>342</ele>
        <time>2018-07-15T10:11:35Z</time>
      </trkpt>
      <trkpt lat="45.94616" lon="4.69042">
        <ele>342</ele>
        <time>2018-07-15T10:11:36Z</time>
      </trkpt>
      <trkpt lat="45.94621" lon="4.69043">
        <ele>342</ele>
        <time>2018-07-15T10:11:37Z</time>
      </trkpt>
      <trkpt lat="45.94627" lon="4.69045">
        <ele>342</ele>
        <time>2018-07-15T10:11:38Z</time>
      </trkpt>
      <trkpt lat="45.94631" lon="4.69048">
        <ele>342</ele>
        <time>2018-07-15T10:11:39Z</time>
      </trkpt>
      <trkpt lat="45.94637" lon="4.6905">
        <ele>342</ele>
        <time>2018-07-15T10:11:40Z</time>
      </trkpt>
      <trkpt lat="45.94642" lon="4.69052">
        <ele>342</ele>
        <time>2018-07-15T10:11:41Z</time>
      </trkpt>
      <trkpt lat="45.94646" lon="4.69052">
        <ele>342</ele>
        <time>2018-07-15T10:11:42Z</time>
      </trkpt>
      <trkpt lat="45.94653" lon="4.69055">
        <ele>342</ele>
        <time>2018-07-15T10:11:43Z</time>
      </trkpt>
      <trkpt lat="45.94658" lon="4.69057">
        <ele>342</ele>
        <time>2018-07-15T10:11:44Z</time>
      </trkpt>
      <trkpt lat="45.94664" lon="4.69057">
        <ele>342</ele>
        <time>2018-07-15T10:11:45Z</time>
      </trkpt>
      <trkpt lat="45.94669" lon="4.69059">
        <ele>342</ele>
        <time>2018-07-15T10:11:46Z</time>
      </trkpt>
      <trkpt lat="45.94675" lon="4.6906">
        <ele>342</ele>
        <time>2018-07-15T10:11:47Z</time>
      </trkpt>
      <trkpt lat="45.9468" lon="4.69064">
        <ele>342</ele>
        <time>2018-07-15T10:11:48Z</time>
      </trkpt>
      <trkpt lat="45.94686" lon="4.69067">
        <ele>342</ele>
        <time>2018-07-15T10:11:49Z</time>
      </trkpt>
      <trkpt lat="45.94692" lon="4.69067">
        <ele>342</ele>
        <time>2018-07-15T10:11:50Z</time>
      </trkpt>
      <trkpt lat="45.94697" lon="4.69069">
        <ele>342</ele>
        <time>2018-07-15T10:11:51Z</time>
      </trkpt>
      <trkpt lat="45.94703" lon="4.69073">
        <ele>342</ele>
        <time>2018-07-15T10:11:52Z</time>
      </trkpt>
      <trkpt lat="45.94709" lon="4.69073">
        <ele>342</ele>
        <time>2018-07-15T10:11:53Z</time>
      </trkpt>
      <trkpt lat="45.94714" lon="4.69075">
        <ele>343</ele>
        <time>2018-07-15T10:11:54Z</time>
      </trkpt>
      <trkpt lat="45.94721" lon="4.69078">
        <ele>343</ele>
        <time>2018-07-15T10:11:55Z</time>
      </trkpt>
      <trkpt lat="45.94727" lon="4.69081">
        <ele>343</ele>
        <time>2018-07-15T10:11:56Z</time>
      </trkpt>
      <trkpt lat="45.94733" lon="4.69083">
        <ele>344</ele>
        <time>2018-07-15T10:11:57Z</time>
      </trkpt>
      <trkpt lat="45.94737" lon="4.69082">
        <ele>344</ele>
        <time>2018-07-15T10:11:58Z</time>
      </trkpt>
      <trkpt lat="45.94743" lon="4.69084">
        <ele>345</ele>
        <time>2018-07-15T10:11:59Z</time>
      </trkpt>
      <trkpt lat="45.94749" lon="4.69086">
        <ele>345</ele>
        <time>2018-07-15T10:12:00Z</time>
      </trkpt>
      <trkpt lat="45.94754" lon="4.69089">
        <ele>345</ele>
        <time>2018-07-15T10:12:01Z</time>
      </trkpt>
      <trkpt lat="45.94759" lon="4.69091">
        <ele>345</ele>
        <time>2018-07-15T10:12:02Z</time>
      </trkpt>
      <trkpt lat="45.94764" lon="4.69093">
        <ele>344</ele>
        <time>2018-07-15T10:12:03Z</time>
      </trkpt>
      <trkpt lat="45.94769" lon="4.69095">
        <ele>344</ele>
        <time>2018-07-15T10:12:04Z</time>
      </trkpt>
      <trkpt lat="45.94773" lon="4.69097">
        <ele>344</ele>
        <time>2018-07-15T10:12:05Z</time>
      </trkpt>
      <trkpt lat="45.94779" lon="4.69101">
        <ele>344</ele>
        <time>2018-07-15T10:12:06Z</time>
      </trkpt>
      <trkpt lat="45.94784" lon="4.69103">
        <ele>344</ele>
        <time>2018-07-15T10:12:07Z</time>
      </trkpt>
      <trkpt lat="45.94789" lon="4.69106">
        <ele>344</ele>
        <time>2018-07-15T10:12:08Z</time>
      </trkpt>
      <trkpt lat="45.94794" lon="4.69108">
        <ele>344</ele>
        <time>2018-07-15T10:12:09Z</time>
      </trkpt>
      <trkpt lat="45.948" lon="4.6911">
        <ele>344</ele>
        <time>2018-07-15T10:12:10Z</time>
      </trkpt>
      <trkpt lat="45.94807" lon="4.69112">
        <ele>344</ele>
        <time>2018-07-15T10:12:11Z</time>
      </trkpt>
      <trkpt lat="45.94812" lon="4.69114">
        <ele>344</ele>
        <time>2018-07-15T10:12:12Z</time>
      </trkpt>
      <trkpt lat="45.94818" lon="4.69118">
        <ele>344</ele>
        <time>2018-07-15T10:12:13Z</time>
      </trkpt>
      <trkpt lat="45.94824" lon="4.6912">
        <ele>344</ele>
        <time>2018-07-15T10:12:14Z</time>
      </trkpt>
      <trkpt lat="45.9483" lon="4.69121">
        <ele>344</ele>
        <time>2018-07-15T10:12:15Z</time>
      </trkpt>
      <trkpt lat="45.94837" lon="4.69123">
        <ele>342</ele>
        <time>2018-07-15T10:12:16Z</time>
      </trkpt>
      <trkpt lat="45.94843" lon="4.69125">
        <ele>342</ele>
        <time>2018-07-15T10:12:17Z</time>
      </trkpt>
      <trkpt lat="45.94848" lon="4.69127">
        <ele>342</ele>
        <time>2018-07-15T10:12:18Z</time>
      </trkpt>
      <trkpt lat="45.94854" lon="4.69128">
        <ele>342</ele>
        <time>2018-07-15T10:12:19Z</time>
      </trkpt>
      <trkpt lat="45.94859" lon="4.6913">
        <ele>342</ele>
        <time>2018-07-15T10:12:20Z</time>
      </trkpt>
      <trkpt lat="45.94864" lon="4.69132">
        <ele>342</ele>
        <time>2018-07-15T10:12:21Z</time>
      </trkpt>
      <trkpt lat="45.94869" lon="4.69134">
        <ele>342</ele>
        <time>2018-07-15T10:12:22Z</time>
      </trkpt>
      <trkpt lat="45.94874" lon="4.69137">
        <ele>342</ele>
        <time>2018-07-15T10:12:23Z</time>
      </trkpt>
      <trkpt lat="45.94879" lon="4.69139">
        <ele>342</ele>
        <time>2018-07-15T10:12:24Z</time>
      </trkpt>
      <trkpt lat="45.94885" lon="4.69141">
        <ele>342</ele>
        <time>2018-07-15T10:12:25Z</time>
      </trkpt>
      <trkpt lat="45.9489" lon="4.69147">
        <ele>342</ele>
        <time>2018-07-15T10:12:26Z</time>
      </trkpt>
      <trkpt lat="45.94897" lon="4.69149">
        <ele>342</ele>
        <time>2018-07-15T10:12:27Z</time>
      </trkpt>
      <trkpt lat="45.94902" lon="4.69152">
        <ele>342</ele>
        <time>2018-07-15T10:12:28Z</time>
      </trkpt>
      <trkpt lat="45.94908" lon="4.69156">
        <ele>342</ele>
        <time>2018-07-15T10:12:29Z</time>
      </trkpt>
      <trkpt lat="45.94914" lon="4.69159">
        <ele>342</ele>
        <time>2018-07-15T10:12:30Z</time>
      </trkpt>
      <trkpt lat="45.9492" lon="4.69163">
        <ele>341</ele>
        <time>2018-07-15T10:12:31Z</time>
      </trkpt>
      <trkpt lat="45.94926" lon="4.69167">
        <ele>341</ele>
        <time>2018-07-15T10:12:32Z</time>
      </trkpt>
      <trkpt lat="45.94933" lon="4.6917">
        <ele>341</ele>
        <time>2018-07-15T10:12:33Z</time>
      </trkpt>
      <trkpt lat="45.9494" lon="4.69174">
        <ele>341</ele>
        <time>2018-07-15T10:12:34Z</time>
      </trkpt>
      <trkpt lat="45.94946" lon="4.69179">
        <ele>340</ele>
        <time>2018-07-15T10:12:35Z</time>
      </trkpt>
      <trkpt lat="45.94953" lon="4.69184">
        <ele>340</ele>
        <time>2018-07-15T10:12:36Z</time>
      </trkpt>
      <trkpt lat="45.9496" lon="4.69187">
        <ele>340</ele>
        <time>2018-07-15T10:12:37Z</time>
      </trkpt>
      <trkpt lat="45.94967" lon="4.69194">
        <ele>340</ele>
        <time>2018-07-15T10:12:38Z</time>
      </trkpt>
      <trkpt lat="45.94974" lon="4.69201">
        <ele>340</ele>
        <time>2018-07-15T10:12:39Z</time>
      </trkpt>
      <trkpt lat="45.94982" lon="4.69206">
        <ele>340</ele>
        <time>2018-07-15T10:12:40Z</time>
      </trkpt>
      <trkpt lat="45.94989" lon="4.69211">
        <ele>340</ele>
        <time>2018-07-15T10:12:41Z</time>
      </trkpt>
      <trkpt lat="45.94997" lon="4.69214">
        <ele>340</ele>
        <time>2018-07-15T10:12:42Z</time>
      </trkpt>
      <trkpt lat="45.95005" lon="4.69219">
        <ele>337</ele>
        <time>2018-07-15T10:12:43Z</time>
      </trkpt>
      <trkpt lat="45.95013" lon="4.69223">
        <ele>337</ele>
        <time>2018-07-15T10:12:44Z</time>
      </trkpt>
      <trkpt lat="45.9502" lon="4.69229">
        <ele>337</ele>
        <time>2018-07-15T10:12:45Z</time>
      </trkpt>
      <trkpt lat="45.95028" lon="4.69236">
        <ele>337</ele>
        <time>2018-07-15T10:12:46Z</time>
      </trkpt>
      <trkpt lat="45.95036" lon="4.69242">
        <ele>336</ele>
        <time>2018-07-15T10:12:47Z</time>
      </trkpt>
      <trkpt lat="45.95043" lon="4.69249">
        <ele>336</ele>
        <time>2018-07-15T10:12:48Z</time>
      </trkpt>
      <trkpt lat="45.9505" lon="4.69257">
        <ele>337</ele>
        <time>2018-07-15T10:12:49Z</time>
      </trkpt>
      <trkpt lat="45.95058" lon="4.69264">
        <ele>336</ele>
        <time>2018-07-15T10:12:50Z</time>
      </trkpt>
      <trkpt lat="45.95066" lon="4.69272">
        <ele>336</ele>
        <time>2018-07-15T10:12:51Z</time>
      </trkpt>
      <trkpt lat="45.95074" lon="4.69281">
        <ele>336</ele>
        <time>2018-07-15T10:12:52Z</time>
      </trkpt>
      <trkpt lat="45.95082" lon="4.69288">
        <ele>336</ele>
        <time>2018-07-15T10:12:53Z</time>
      </trkpt>
      <trkpt lat="45.95089" lon="4.69297">
        <ele>334</ele>
        <time>2018-07-15T10:12:54Z</time>
      </trkpt>
      <trkpt lat="45.95097" lon="4.69305">
        <ele>334</ele>
        <time>2018-07-15T10:12:55Z</time>
      </trkpt>
      <trkpt lat="45.95104" lon="4.69313">
        <ele>334</ele>
        <time>2018-07-15T10:12:56Z</time>
      </trkpt>
      <trkpt lat="45.95111" lon="4.69322">
        <ele>334</ele>
        <time>2018-07-15T10:12:57Z</time>
      </trkpt>
      <trkpt lat="45.95118" lon="4.6933">
        <ele>334</ele>
        <time>2018-07-15T10:12:58Z</time>
      </trkpt>
      <trkpt lat="45.95126" lon="4.69335">
        <ele>336</ele>
        <time>2018-07-15T10:12:59Z</time>
      </trkpt>
      <trkpt lat="45.95132" lon="4.69343">
        <ele>337</ele>
        <time>2018-07-15T10:13:00Z</time>
      </trkpt>
      <trkpt lat="45.95138" lon="4.69349">
        <ele>337</ele>
        <time>2018-07-15T10:13:01Z</time>
      </trkpt>
      <trkpt lat="45.95144" lon="4.69355">
        <ele>337</ele>
        <time>2018-07-15T10:13:02Z</time>
      </trkpt>
      <trkpt lat="45.9515" lon="4.69361">
        <ele>337</ele>
        <time>2018-07-15T10:13:03Z</time>
      </trkpt>
      <trkpt lat="45.95155" lon="4.69368">
        <ele>337</ele>
        <time>2018-07-15T10:13:04Z</time>
      </trkpt>
      <trkpt lat="45.95161" lon="4.69373">
        <ele>337</ele>
        <time>2018-07-15T10:13:05Z</time>
      </trkpt>
      <trkpt lat="45.95166" lon="4.69377">
        <ele>337</ele>
        <time>2018-07-15T10:13:06Z</time>
      </trkpt>
      <trkpt lat="45.95171" lon="4.69382">
        <ele>337</ele>
        <time>2018-07-15T10:13:07Z</time>
      </trkpt>
      <trkpt lat="45.95176" lon="4.69388">
        <ele>337</ele>
        <time>2018-07-15T10:13:08Z</time>
      </trkpt>
      <trkpt lat="45.95181" lon="4.69392">
        <ele>337</ele>
        <time>2018-07-15T10:13:09Z</time>
      </trkpt>
      <trkpt lat="45.95187" lon="4.69396">
        <ele>337</ele>
        <time>2018-07-15T10:13:10Z</time>
      </trkpt>
      <trkpt lat="45.95192" lon="4.694">
        <ele>337</ele>
        <time>2018-07-15T10:13:11Z</time>
      </trkpt>
      <trkpt lat="45.95197" lon="4.69405">
        <ele>337</ele>
        <time>2018-07-15T10:13:12Z</time>
      </trkpt>
      <trkpt lat="45.95204" lon="4.69407">
        <ele>337</ele>
        <time>2018-07-15T10:13:13Z</time>
      </trkpt>
      <trkpt lat="45.95209" lon="4.69411">
        <ele>337</ele>
        <time>2018-07-15T10:13:14Z</time>
      </trkpt>
      <trkpt lat="45.95216" lon="4.69415">
        <ele>337</ele>
        <time>2018-07-15T10:13:15Z</time>
      </trkpt>
      <trkpt lat="45.95223" lon="4.69417">
        <ele>340</ele>
        <time>2018-07-15T10:13:16Z</time>
      </trkpt>
      <trkpt lat="45.95229" lon="4.6942">
        <ele>340</ele>
        <time>2018-07-15T10:13:17Z</time>
      </trkpt>
      <trkpt lat="45.95236" lon="4.69421">
        <ele>339</ele>
        <time>2018-07-15T10:13:18Z</time>
      </trkpt>
      <trkpt lat="45.95242" lon="4.69426">
        <ele>339</ele>
        <time>2018-07-15T10:13:19Z</time>
      </trkpt>
      <trkpt lat="45.95249" lon="4.69428">
        <ele>339</ele>
        <time>2018-07-15T10:13:20Z</time>
      </trkpt>
      <trkpt lat="45.95254" lon="4.69431">
        <ele>338</ele>
        <time>2018-07-15T10:13:21Z</time>
      </trkpt>
      <trkpt lat="45.9526" lon="4.69433">
        <ele>338</ele>
        <time>2018-07-15T10:13:22Z</time>
      </trkpt>
      <trkpt lat="45.95265" lon="4.69435">
        <ele>338</ele>
        <time>2018-07-15T10:13:23Z</time>
      </trkpt>
      <trkpt lat="45.95271" lon="4.69437">
        <ele>338</ele>
        <time>2018-07-15T10:13:24Z</time>
      </trkpt>
      <trkpt lat="45.95277" lon="4.69441">
        <ele>338</ele>
        <time>2018-07-15T10:13:25Z</time>
      </trkpt>
      <trkpt lat="45.95283" lon="4.69443">
        <ele>338</ele>
        <time>2018-07-15T10:13:26Z</time>
      </trkpt>
      <trkpt lat="45.95288" lon="4.69445">
        <ele>338</ele>
        <time>2018-07-15T10:13:27Z</time>
      </trkpt>
      <trkpt lat="45.95295" lon="4.69448">
        <ele>338</ele>
        <time>2018-07-15T10:13:28Z</time>
      </trkpt>
      <trkpt lat="45.95301" lon="4.69451">
        <ele>338</ele>
        <time>2018-07-15T10:13:29Z</time>
      </trkpt>
      <trkpt lat="45.95307" lon="4.69455">
        <ele>338</ele>
        <time>2018-07-15T10:13:30Z</time>
      </trkpt>
      <trkpt lat="45.95313" lon="4.69458">
        <ele>338</ele>
        <time>2018-07-15T10:13:31Z</time>
      </trkpt>
      <trkpt lat="45.95318" lon="4.69462">
        <ele>338</ele>
        <time>2018-07-15T10:13:32Z</time>
      </trkpt>
      <trkpt lat="45.95324" lon="4.69465">
        <ele>339</ele>
        <time>2018-07-15T10:13:33Z</time>
      </trkpt>
      <trkpt lat="45.9533" lon="4.69468">
        <ele>339</ele>
        <time>2018-07-15T10:13:34Z</time>
      </trkpt>
      <trkpt lat="45.95336" lon="4.69472">
        <ele>337</ele>
        <time>2018-07-15T10:13:35Z</time>
      </trkpt>
      <trkpt lat="45.95342" lon="4.69476">
        <ele>337</ele>
        <time>2018-07-15T10:13:36Z</time>
      </trkpt>
      <trkpt lat="45.95347" lon="4.69479">
        <ele>337</ele>
        <time>2018-07-15T10:13:37Z</time>
      </trkpt>
      <trkpt lat="45.95353" lon="4.69484">
        <ele>337</ele>
        <time>2018-07-15T10:13:38Z</time>
      </trkpt>
      <trkpt lat="45.95358" lon="4.69487">
        <ele>337</ele>
        <time>2018-07-15T10:13:39Z</time>
      </trkpt>
      <trkpt lat="45.95364" lon="4.69492">
        <ele>337</ele>
        <time>2018-07-15T10:13:40Z</time>
      </trkpt>
      <trkpt lat="45.9537" lon="4.69496">
        <ele>337</ele>
        <time>2018-07-15T10:13:41Z</time>
      </trkpt>
      <trkpt lat="45.95376" lon="4.695">
        <ele>337</ele>
        <time>2018-07-15T10:13:42Z</time>
      </trkpt>
      <trkpt lat="45.95383" lon="4.69504">
        <ele>340</ele>
        <time>2018-07-15T10:13:43Z</time>
      </trkpt>
      <trkpt lat="45.95389" lon="4.69509">
        <ele>340</ele>
        <time>2018-07-15T10:13:44Z</time>
      </trkpt>
      <trkpt lat="45.95395" lon="4.69512">
        <ele>339</ele>
        <time>2018-07-15T10:13:45Z</time>
      </trkpt>
      <trkpt lat="45.95401" lon="4.69516">
        <ele>339</ele>
        <time>2018-07-15T10:13:46Z</time>
      </trkpt>
      <trkpt lat="45.95405" lon="4.69519">
        <ele>339</ele>
        <time>2018-07-15T10:13:47Z</time>
      </trkpt>
      <trkpt lat="45.95411" lon="4.69524">
        <ele>339</ele>
        <time>2018-07-15T10:13:48Z</time>
      </trkpt>
      <trkpt lat="45.95418" lon="4.69527">
        <ele>337</ele>
        <time>2018-07-15T10:13:49Z</time>
      </trkpt>
      <trkpt lat="45.95424" lon="4.69531">
        <ele>337</ele>
        <time>2018-07-15T10:13:50Z</time>
      </trkpt>
      <trkpt lat="45.9543" lon="4.69535">
        <ele>337</ele>
        <time>2018-07-15T10:13:51Z</time>
      </trkpt>
      <trkpt lat="45.95438" lon="4.69538">
        <ele>337</ele>
        <time>2018-07-15T10:13:52Z</time>
      </trkpt>
      <trkpt lat="45.95445" lon="4.69541">
        <ele>337</ele>
        <time>2018-07-15T10:13:53Z</time>
      </trkpt>
      <trkpt lat="45.95453" lon="4.69545">
        <ele>337</ele>
        <time>2018-07-15T10:13:54Z</time>
      </trkpt>
      <trkpt lat="45.95461" lon="4.69549">
        <ele>337</ele>
        <time>2018-07-15T10:13:55Z</time>
      </trkpt>
      <trkpt lat="45.95468" lon="4.69552">
        <ele>336</ele>
        <time>2018-07-15T10:13:56Z</time>
      </trkpt>
      <trkpt lat="45.95476" lon="4.69556">
        <ele>336</ele>
        <time>2018-07-15T10:13:57Z</time>
      </trkpt>
      <trkpt lat="45.95484" lon="4.6956">
        <ele>336</ele>
        <time>2018-07-15T10:13:58Z</time>
      </trkpt>
      <trkpt lat="45.95491" lon="4.69563">
        <ele>336</ele>
        <time>2018-07-15T10:13:59Z</time>
      </trkpt>
      <trkpt lat="45.95499" lon="4.69568">
        <ele>337</ele>
        <time>2018-07-15T10:14:00Z</time>
      </trkpt>
      <trkpt lat="45.95507" lon="4.69571">
        <ele>334</ele>
        <time>2018-07-15T10:14:01Z</time>
      </trkpt>
      <trkpt lat="45.95515" lon="4.69572">
        <ele>334</ele>
        <time>2018-07-15T10:14:02Z</time>
      </trkpt>
      <trkpt lat="45.95524" lon="4.69573">
        <ele>333</ele>
        <time>2018-07-15T10:14:03Z</time>
      </trkpt>
      <trkpt lat="45.95531" lon="4.69577">
        <ele>332</ele>
        <time>2018-07-15T10:14:04Z</time>
      </trkpt>
      <trkpt lat="45.95542" lon="4.6958">
        <ele>332</ele>
        <time>2018-07-15T10:14:05Z</time>
      </trkpt>
      <trkpt lat="45.9555" lon="4.69584">
        <ele>331</ele>
        <time>2018-07-15T10:14:06Z</time>
      </trkpt>
      <trkpt lat="45.95558" lon="4.69588">
        <ele>330</ele>
        <time>2018-07-15T10:14:07Z</time>
      </trkpt>
      <trkpt lat="45.95566" lon="4.69592">
        <ele>330</ele>
        <time>2018-07-15T10:14:08Z</time>
      </trkpt>
      <trkpt lat="45.95575" lon="4.69597">
        <ele>330</ele>
        <time>2018-07-15T10:14:09Z</time>
      </trkpt>
      <trkpt lat="45.95583" lon="4.696">
        <ele>329</ele>
        <time>2018-07-15T10:14:10Z</time>
      </trkpt>
      <trkpt lat="45.95592" lon="4.69604">
        <ele>328</ele>
        <time>2018-07-15T10:14:11Z</time>
      </trkpt>
      <trkpt lat="45.95601" lon="4.69608">
        <ele>328</ele>
        <time>2018-07-15T10:14:12Z</time>
      </trkpt>
      <trkpt lat="45.9561" lon="4.69612">
        <ele>328</ele>
        <time>2018-07-15T10:14:13Z</time>
      </trkpt>
      <trkpt lat="45.95619" lon="4.69616">
        <ele>328</ele>
        <time>2018-07-15T10:14:14Z</time>
      </trkpt>
      <trkpt lat="45.95628" lon="4.6962">
        <ele>328</ele>
        <time>2018-07-15T10:14:15Z</time>
      </trkpt>
      <trkpt lat="45.95635" lon="4.69627">
        <ele>328</ele>
        <time>2018-07-15T10:14:16Z</time>
      </trkpt>
      <trkpt lat="45.95643" lon="4.69631">
        <ele>328</ele>
        <time>2018-07-15T10:14:17Z</time>
      </trkpt>
      <trkpt lat="45.95651" lon="4.69636">
        <ele>328</ele>
        <time>2018-07-15T10:14:18Z</time>
      </trkpt>
      <trkpt lat="45.95659" lon="4.6964">
        <ele>327</ele>
        <time>2018-07-15T10:14:19Z</time>
      </trkpt>
      <trkpt lat="45.95668" lon="4.6964">
        <ele>326</ele>
        <time>2018-07-15T10:14:20Z</time>
      </trkpt>
      <trkpt lat="45.95677" lon="4.69643">
        <ele>326</ele>
        <time>2018-07-15T10:14:21Z</time>
      </trkpt>
      <trkpt lat="45.95685" lon="4.69645">
        <ele>326</ele>
        <time>2018-07-15T10:14:22Z</time>
      </trkpt>
      <trkpt lat="45.95693" lon="4.69649">
        <ele>326</ele>
        <time>2018-07-15T10:14:23Z</time>
      </trkpt>
      <trkpt lat="45.95701" lon="4.69653">
        <ele>326</ele>
        <time>2018-07-15T10:14:24Z</time>
      </trkpt>
      <trkpt lat="45.95712" lon="4.69654">
        <ele>326</ele>
        <time>2018-07-15T10:14:25Z</time>
      </trkpt>
      <trkpt lat="45.9572" lon="4.69657">
        <ele>326</ele>
        <time>2018-07-15T10:14:26Z</time>
      </trkpt>
      <trkpt lat="45.95727" lon="4.6966">
        <ele>326</ele>
        <time>2018-07-15T10:14:27Z</time>
      </trkpt>
      <trkpt lat="45.95734" lon="4.69665">
        <ele>326</ele>
        <time>2018-07-15T10:14:28Z</time>
      </trkpt>
      <trkpt lat="45.95741" lon="4.6967">
        <ele>326</ele>
        <time>2018-07-15T10:14:29Z</time>
      </trkpt>
      <trkpt lat="45.95748" lon="4.69674">
        <ele>326</ele>
        <time>2018-07-15T10:14:30Z</time>
      </trkpt>
      <trkpt lat="45.95754" lon="4.69679">
        <ele>326</ele>
        <time>2018-07-15T10:14:31Z</time>
      </trkpt>
      <trkpt lat="45.95763" lon="4.69682">
        <ele>326</ele>
        <time>2018-07-15T10:14:32Z</time>
      </trkpt>
      <trkpt lat="45.95768" lon="4.69683">
        <ele>326</ele>
        <time>2018-07-15T10:14:33Z</time>
      </trkpt>
      <trkpt lat="45.95774" lon="4.69686">
        <ele>326</ele>
        <time>2018-07-15T10:14:34Z</time>
      </trkpt>
      <trkpt lat="45.9578" lon="4.69692">
        <ele>326</ele>
        <time>2018-07-15T10:14:35Z</time>
      </trkpt>
      <trkpt lat="45.95784" lon="4.69698">
        <ele>326</ele>
        <time>2018-07-15T10:14:36Z</time>
      </trkpt>
      <trkpt lat="45.9579" lon="4.69703">
        <ele>326</ele>
        <time>2018-07-15T10:14:37Z</time>
      </trkpt>
      <trkpt lat="45.95795" lon="4.6971">
        <ele>326</ele>
        <time>2018-07-15T10:14:38Z</time>
      </trkpt>
      <trkpt lat="45.95799" lon="4.69717">
        <ele>326</ele>
        <time>2018-07-15T10:14:39Z</time>
      </trkpt>
      <trkpt lat="45.95804" lon="4.69724">
        <ele>326</ele>
        <time>2018-07-15T10:14:40Z</time>
      </trkpt>
      <trkpt lat="45.95809" lon="4.69731">
        <ele>326</ele>
        <time>2018-07-15T10:14:41Z</time>
      </trkpt>
      <trkpt lat="45.95812" lon="4.69738">
        <ele>327</ele>
        <time>2018-07-15T10:14:42Z</time>
      </trkpt>
      <trkpt lat="45.95816" lon="4.69743">
        <ele>327</ele>
        <time>2018-07-15T10:14:43Z</time>
      </trkpt>
      <trkpt lat="45.95821" lon="4.69749">
        <ele>327</ele>
        <time>2018-07-15T10:14:44Z</time>
      </trkpt>
      <trkpt lat="45.95825" lon="4.69754">
        <ele>327</ele>
        <time>2018-07-15T10:14:45Z</time>
      </trkpt>
      <trkpt lat="45.95828" lon="4.69761">
        <ele>328</ele>
        <time>2018-07-15T10:14:46Z</time>
      </trkpt>
      <trkpt lat="45.95832" lon="4.69766">
        <ele>328</ele>
        <time>2018-07-15T10:14:47Z</time>
      </trkpt>
      <trkpt lat="45.95835" lon="4.69773">
        <ele>327</ele>
        <time>2018-07-15T10:14:48Z</time>
      </trkpt>
      <trkpt lat="45.95838" lon="4.69779">
        <ele>327</ele>
        <time>2018-07-15T10:14:49Z</time>
      </trkpt>
      <trkpt lat="45.95842" lon="4.69786">
        <ele>327</ele>
        <time>2018-07-15T10:14:50Z</time>
      </trkpt>
      <trkpt lat="45.95846" lon="4.69792">
        <ele>327</ele>
        <time>2018-07-15T10:14:51Z</time>
      </trkpt>
      <trkpt lat="45.95849" lon="4.69799">
        <ele>327</ele>
        <time>2018-07-15T10:14:52Z</time>
      </trkpt>
      <trkpt lat="45.95851" lon="4.69805">
        <ele>327</ele>
        <time>2018-07-15T10:14:53Z</time>
      </trkpt>
      <trkpt lat="45.95855" lon="4.6981">
        <ele>328</ele>
        <time>2018-07-15T10:14:54Z</time>
      </trkpt>
      <trkpt lat="45.95857" lon="4.69817">
        <ele>328</ele>
        <time>2018-07-15T10:14:55Z</time>
      </trkpt>
      <trkpt lat="45.9586" lon="4.69824">
        <ele>328</ele>
        <time>2018-07-15T10:14:56Z</time>
      </trkpt>
      <trkpt lat="45.95863" lon="4.6983">
        <ele>328</ele>
        <time>2018-07-15T10:14:57Z</time>
      </trkpt>
      <trkpt lat="45.95865" lon="4.69836">
        <ele>329</ele>
        <time>2018-07-15T10:14:58Z</time>
      </trkpt>
      <trkpt lat="45.95866" lon="4.69843">
        <ele>329</ele>
        <time>2018-07-15T10:14:59Z</time>
      </trkpt>
      <trkpt lat="45.95869" lon="4.6985">
        <ele>329</ele>
        <time>2018-07-15T10:15:00Z</time>
      </trkpt>
      <trkpt lat="45.95871" lon="4.69856">
        <ele>329</ele>
        <time>2018-07-15T10:15:01Z</time>
      </trkpt>
      <trkpt lat="45.95873" lon="4.69864">
        <ele>329</ele>
        <time>2018-07-15T10:15:02Z</time>
      </trkpt>
      <trkpt lat="45.95875" lon="4.69871">
        <ele>329</ele>
        <time>2018-07-15T10:15:03Z</time>
      </trkpt>
      <trkpt lat="45.95877" lon="4.69878">
        <ele>329</ele>
        <time>2018-07-15T10:15:04Z</time>
      </trkpt>
      <trkpt lat="45.95878" lon="4.69885">
        <ele>329</ele>
        <time>2018-07-15T10:15:05Z</time>
      </trkpt>
      <trkpt lat="45.95881" lon="4.69892">
        <ele>329</ele>
        <time>2018-07-15T10:15:06Z</time>
      </trkpt>
      <trkpt lat="45.95883" lon="4.69899">
        <ele>329</ele>
        <time>2018-07-15T10:15:07Z</time>
      </trkpt>
      <trkpt lat="45.95884" lon="4.69906">
        <ele>329</ele>
        <time>2018-07-15T10:15:08Z</time>
      </trkpt>
      <trkpt lat="45.95885" lon="4.69913">
        <ele>329</ele>
        <time>2018-07-15T10:15:09Z</time>
      </trkpt>
      <trkpt lat="45.95886" lon="4.6992">
        <ele>328</ele>
        <time>2018-07-15T10:15:10Z</time>
      </trkpt>
      <trkpt lat="45.95888" lon="4.69928">
        <ele>328</ele>
        <time>2018-07-15T10:15:11Z</time>
      </trkpt>
      <trkpt lat="45.9589" lon="4.69936">
        <ele>328</ele>
        <time>2018-07-15T10:15:12Z</time>
      </trkpt>
      <trkpt lat="45.95891" lon="4.69945">
        <ele>328</ele>
        <time>2018-07-15T10:15:13Z</time>
      </trkpt>
      <trkpt lat="45.95894" lon="4.69953">
        <ele>328</ele>
        <time>2018-07-15T10:15:14Z</time>
      </trkpt>
      <trkpt lat="45.95896" lon="4.69961">
        <ele>328</ele>
        <time>2018-07-15T10:15:15Z</time>
      </trkpt>
      <trkpt lat="45.95898" lon="4.69968">
        <ele>328</ele>
        <time>2018-07-15T10:15:16Z</time>
      </trkpt>
      <trkpt lat="45.959" lon="4.69975">
        <ele>328</ele>
        <time>2018-07-15T10:15:17Z</time>
      </trkpt>
      <trkpt lat="45.95902" lon="4.69982">
        <ele>328</ele>
        <time>2018-07-15T10:15:18Z</time>
      </trkpt>
      <trkpt lat="45.95904" lon="4.69989">
        <ele>328</ele>
        <time>2018-07-15T10:15:19Z</time>
      </trkpt>
      <trkpt lat="45.95905" lon="4.69995">
        <ele>328</ele>
        <time>2018-07-15T10:15:20Z</time>
      </trkpt>
      <trkpt lat="45.9591" lon="4.70001">
        <ele>328</ele>
        <time>2018-07-15T10:15:21Z</time>
      </trkpt>
      <trkpt lat="45.95913" lon="4.70007">
        <ele>328</ele>
        <time>2018-07-15T10:15:22Z</time>
      </trkpt>
      <trkpt lat="45.95917" lon="4.70013">
        <ele>328</ele>
        <time>2018-07-15T10:15:23Z</time>
      </trkpt>
      <trkpt lat="45.95919" lon="4.7002">
        <ele>328</ele>
        <time>2018-07-15T10:15:24Z</time>
      </trkpt>
      <trkpt lat="45.95923" lon="4.70028">
        <ele>328</ele>
        <time>2018-07-15T10:15:26Z</time>
      </trkpt>
      <trkpt lat="45.95927" lon="4.70034">
        <ele>328</ele>
        <time>2018-07-15T10:15:27Z</time>
      </trkpt>
      <trkpt lat="45.95931" lon="4.7004">
        <ele>328</ele>
        <time>2018-07-15T10:15:28Z</time>
      </trkpt>
      <trkpt lat="45.95935" lon="4.70046">
        <ele>328</ele>
        <time>2018-07-15T10:15:29Z</time>
      </trkpt>
      <trkpt lat="45.95939" lon="4.70052">
        <ele>328</ele>
        <time>2018-07-15T10:15:30Z</time>
      </trkpt>
      <trkpt lat="45.95943" lon="4.70058">
        <ele>328</ele>
        <time>2018-07-15T10:15:31Z</time>
      </trkpt>
      <trkpt lat="45.95946" lon="4.70063">
        <ele>328</ele>
        <time>2018-07-15T10:15:32Z</time>
      </trkpt>
      <trkpt lat="45.9595" lon="4.70069">
        <ele>328</ele>
        <time>2018-07-15T10:15:33Z</time>
      </trkpt>
      <trkpt lat="45.95955" lon="4.70073">
        <ele>328</ele>
        <time>2018-07-15T10:15:34Z</time>
      </trkpt>
      <trkpt lat="45.95959" lon="4.70078">
        <ele>328</ele>
        <time>2018-07-15T10:15:35Z</time>
      </trkpt>
      <trkpt lat="45.95964" lon="4.70083">
        <ele>327</ele>
        <time>2018-07-15T10:15:36Z</time>
      </trkpt>
      <trkpt lat="45.95967" lon="4.70089">
        <ele>328</ele>
        <time>2018-07-15T10:15:37Z</time>
      </trkpt>
      <trkpt lat="45.95971" lon="4.70093">
        <ele>328</ele>
        <time>2018-07-15T10:15:38Z</time>
      </trkpt>
      <trkpt lat="45.95976" lon="4.70097">
        <ele>328</ele>
        <time>2018-07-15T10:15:39Z</time>
      </trkpt>
      <trkpt lat="45.9598" lon="4.70102">
        <ele>328</ele>
        <time>2018-07-15T10:15:40Z</time>
      </trkpt>
      <trkpt lat="45.95984" lon="4.70107">
        <ele>328</ele>
        <time>2018-07-15T10:15:41Z</time>
      </trkpt>
      <trkpt lat="45.95988" lon="4.70112">
        <ele>328</ele>
        <time>2018-07-15T10:15:42Z</time>
      </trkpt>
      <trkpt lat="45.95993" lon="4.70115">
        <ele>328</ele>
        <time>2018-07-15T10:15:43Z</time>
      </trkpt>
      <trkpt lat="45.95998" lon="4.70119">
        <ele>328</ele>
        <time>2018-07-15T10:15:44Z</time>
      </trkpt>
      <trkpt lat="45.96002" lon="4.70124">
        <ele>328</ele>
        <time>2018-07-15T10:15:45Z</time>
      </trkpt>
      <trkpt lat="45.96006" lon="4.70129">
        <ele>328</ele>
        <time>2018-07-15T10:15:46Z</time>
      </trkpt>
      <trkpt lat="45.9601" lon="4.70134">
        <ele>328</ele>
        <time>2018-07-15T10:15:47Z</time>
      </trkpt>
      <trkpt lat="45.96014" lon="4.70139">
        <ele>328</ele>
        <time>2018-07-15T10:15:48Z</time>
      </trkpt>
      <trkpt lat="45.96019" lon="4.70143">
        <ele>329</ele>
        <time>2018-07-15T10:15:49Z</time>
      </trkpt>
      <trkpt lat="45.96024" lon="4.70147">
        <ele>329</ele>
        <time>2018-07-15T10:15:50Z</time>
      </trkpt>
      <trkpt lat="45.9603" lon="4.70152">
        <ele>329</ele>
        <time>2018-07-15T10:15:51Z</time>
      </trkpt>
      <trkpt lat="45.96035" lon="4.70157">
        <ele>329</ele>
        <time>2018-07-15T10:15:52Z</time>
      </trkpt>
      <trkpt lat="45.96041" lon="4.70163">
        <ele>329</ele>
        <time>2018-07-15T10:15:53Z</time>
      </trkpt>
      <trkpt lat="45.96046" lon="4.70168">
        <ele>327</ele>
        <time>2018-07-15T10:15:54Z</time>
      </trkpt>
      <trkpt lat="45.96052" lon="4.70173">
        <ele>327</ele>
        <time>2018-07-15T10:15:55Z</time>
      </trkpt>
      <trkpt lat="45.96057" lon="4.70179">
        <ele>327</ele>
        <time>2018-07-15T10:15:56Z</time>
      </trkpt>
      <trkpt lat="45.96062" lon="4.70183">
        <ele>327</ele>
        <time>2018-07-15T10:15:57Z</time>
      </trkpt>
      <trkpt lat="45.96067" lon="4.70189">
        <ele>327</ele>
        <time>2018-07-15T10:15:58Z</time>
      </trkpt>
      <trkpt lat="45.96073" lon="4.70193">
        <ele>327</ele>
        <time>2018-07-15T10:15:59Z</time>
      </trkpt>
      <trkpt lat="45.96078" lon="4.70198">
        <ele>327</ele>
        <time>2018-07-15T10:16:00Z</time>
      </trkpt>
      <trkpt lat="45.96083" lon="4.70202">
        <ele>327</ele>
        <time>2018-07-15T10:16:01Z</time>
      </trkpt>
      <trkpt lat="45.9609" lon="4.70206">
        <ele>327</ele>
        <time>2018-07-15T10:16:02Z</time>
      </trkpt>
      <trkpt lat="45.96096" lon="4.7021">
        <ele>327</ele>
        <time>2018-07-15T10:16:03Z</time>
      </trkpt>
      <trkpt lat="45.96101" lon="4.70214">
        <ele>327</ele>
        <time>2018-07-15T10:16:04Z</time>
      </trkpt>
      <trkpt lat="45.96107" lon="4.70219">
        <ele>327</ele>
        <time>2018-07-15T10:16:05Z</time>
      </trkpt>
      <trkpt lat="45.96113" lon="4.70225">
        <ele>327</ele>
        <time>2018-07-15T10:16:06Z</time>
      </trkpt>
      <trkpt lat="45.96119" lon="4.70228">
        <ele>327</ele>
        <time>2018-07-15T10:16:07Z</time>
      </trkpt>
      <trkpt lat="45.96123" lon="4.70235">
        <ele>327</ele>
        <time>2018-07-15T10:16:08Z</time>
      </trkpt>
      <trkpt lat="45.96129" lon="4.70241">
        <ele>327</ele>
        <time>2018-07-15T10:16:09Z</time>
      </trkpt>
      <trkpt lat="45.96134" lon="4.70246">
        <ele>327</ele>
        <time>2018-07-15T10:16:10Z</time>
      </trkpt>
      <trkpt lat="45.96139" lon="4.70254">
        <ele>324</ele>
        <time>2018-07-15T10:16:11Z</time>
      </trkpt>
      <trkpt lat="45.96146" lon="4.70258">
        <ele>324</ele>
        <time>2018-07-15T10:16:12Z</time>
      </trkpt>
      <trkpt lat="45.96152" lon="4.70264">
        <ele>324</ele>
        <time>2018-07-15T10:16:13Z</time>
      </trkpt>
      <trkpt lat="45.96159" lon="4.70272">
        <ele>324</ele>
        <time>2018-07-15T10:16:14Z</time>
      </trkpt>
      <trkpt lat="45.96164" lon="4.70278">
        <ele>323</ele>
        <time>2018-07-15T10:16:15Z</time>
      </trkpt>
      <trkpt lat="45.9617" lon="4.70285">
        <ele>326</ele>
        <time>2018-07-15T10:16:16Z</time>
      </trkpt>
      <trkpt lat="45.96175" lon="4.70291">
        <ele>326</ele>
        <time>2018-07-15T10:16:17Z</time>
      </trkpt>
      <trkpt lat="45.96181" lon="4.70297">
        <ele>326</ele>
        <time>2018-07-15T10:16:18Z</time>
      </trkpt>
      <trkpt lat="45.96186" lon="4.70305">
        <ele>325</ele>
        <time>2018-07-15T10:16:19Z</time>
      </trkpt>
      <trkpt lat="45.96191" lon="4.70312">
        <ele>325</ele>
        <time>2018-07-15T10:16:20Z</time>
      </trkpt>
      <trkpt lat="45.96195" lon="4.70319">
        <ele>325</ele>
        <time>2018-07-15T10:16:21Z</time>
      </trkpt>
      <trkpt lat="45.962" lon="4.70326">
        <ele>325</ele>
        <time>2018-07-15T10:16:22Z</time>
      </trkpt>
      <trkpt lat="45.96204" lon="4.70333">
        <ele>326</ele>
        <time>2018-07-15T10:16:23Z</time>
      </trkpt>
      <trkpt lat="45.96209" lon="4.7034">
        <ele>321</ele>
        <time>2018-07-15T10:16:24Z</time>
      </trkpt>
      <trkpt lat="45.96213" lon="4.70348">
        <ele>321</ele>
        <time>2018-07-15T10:16:25Z</time>
      </trkpt>
      <trkpt lat="45.96219" lon="4.70355">
        <ele>321</ele>
        <time>2018-07-15T10:16:26Z</time>
      </trkpt>
      <trkpt lat="45.96224" lon="4.70362">
        <ele>321</ele>
        <time>2018-07-15T10:16:27Z</time>
      </trkpt>
      <trkpt lat="45.96229" lon="4.70369">
        <ele>321</ele>
        <time>2018-07-15T10:16:28Z</time>
      </trkpt>
      <trkpt lat="45.96235" lon="4.70376">
        <ele>321</ele>
        <time>2018-07-15T10:16:29Z</time>
      </trkpt>
      <trkpt lat="45.9624" lon="4.70384">
        <ele>320</ele>
        <time>2018-07-15T10:16:30Z</time>
      </trkpt>
      <trkpt lat="45.96244" lon="4.70392">
        <ele>320</ele>
        <time>2018-07-15T10:16:31Z</time>
      </trkpt>
      <trkpt lat="45.96249" lon="4.70399">
        <ele>320</ele>
        <time>2018-07-15T10:16:32Z</time>
      </trkpt>
      <trkpt lat="45.96254" lon="4.70408">
        <ele>323</ele>
        <time>2018-07-15T10:16:33Z</time>
      </trkpt>
      <trkpt lat="45.96259" lon="4.70416">
        <ele>323</ele>
        <time>2018-07-15T10:16:34Z</time>
      </trkpt>
      <trkpt lat="45.96263" lon="4.70421">
        <ele>320</ele>
        <time>2018-07-15T10:16:35Z</time>
      </trkpt>
      <trkpt lat="45.96267" lon="4.70428">
        <ele>321</ele>
        <time>2018-07-15T10:16:36Z</time>
      </trkpt>
      <trkpt lat="45.96272" lon="4.70436">
        <ele>321</ele>
        <time>2018-07-15T10:16:37Z</time>
      </trkpt>
      <trkpt lat="45.96276" lon="4.70443">
        <ele>321</ele>
        <time>2018-07-15T10:16:38Z</time>
      </trkpt>
      <trkpt lat="45.96282" lon="4.70449">
        <ele>321</ele>
        <time>2018-07-15T10:16:39Z</time>
      </trkpt>
      <trkpt lat="45.96286" lon="4.70457">
        <ele>321</ele>
        <time>2018-07-15T10:16:40Z</time>
      </trkpt>
      <trkpt lat="45.96291" lon="4.70464">
        <ele>320</ele>
        <time>2018-07-15T10:16:41Z</time>
      </trkpt>
      <trkpt lat="45.96296" lon="4.70473">
        <ele>320</ele>
        <time>2018-07-15T10:16:42Z</time>
      </trkpt>
      <trkpt lat="45.96301" lon="4.7048">
        <ele>320</ele>
        <time>2018-07-15T10:16:43Z</time>
      </trkpt>
      <trkpt lat="45.96306" lon="4.70488">
        <ele>320</ele>
        <time>2018-07-15T10:16:44Z</time>
      </trkpt>
      <trkpt lat="45.96311" lon="4.70497">
        <ele>320</ele>
        <time>2018-07-15T10:16:45Z</time>
      </trkpt>
      <trkpt lat="45.96317" lon="4.70502">
        <ele>316</ele>
        <time>2018-07-15T10:16:46Z</time>
      </trkpt>
      <trkpt lat="45.96322" lon="4.70509">
        <ele>317</ele>
        <time>2018-07-15T10:16:47Z</time>
      </trkpt>
      <trkpt lat="45.96327" lon="4.70516">
        <ele>316</ele>
        <time>2018-07-15T10:16:48Z</time>
      </trkpt>
      <trkpt lat="45.96333" lon="4.70522">
        <ele>316</ele>
        <time>2018-07-15T10:16:49Z</time>
      </trkpt>
      <trkpt lat="45.96339" lon="4.70529">
        <ele>319</ele>
        <time>2018-07-15T10:16:50Z</time>
      </trkpt>
      <trkpt lat="45.96344" lon="4.70537">
        <ele>319</ele>
        <time>2018-07-15T10:16:51Z</time>
      </trkpt>
      <trkpt lat="45.9635" lon="4.70544">
        <ele>318</ele>
        <time>2018-07-15T10:16:52Z</time>
      </trkpt>
      <trkpt lat="45.96355" lon="4.70553">
        <ele>318</ele>
        <time>2018-07-15T10:16:53Z</time>
      </trkpt>
      <trkpt lat="45.96361" lon="4.70561">
        <ele>318</ele>
        <time>2018-07-15T10:16:54Z</time>
      </trkpt>
      <trkpt lat="45.96366" lon="4.70568">
        <ele>317</ele>
        <time>2018-07-15T10:16:55Z</time>
      </trkpt>
      <trkpt lat="45.96373" lon="4.70576">
        <ele>318</ele>
        <time>2018-07-15T10:16:56Z</time>
      </trkpt>
      <trkpt lat="45.96379" lon="4.70584">
        <ele>312</ele>
        <time>2018-07-15T10:16:57Z</time>
      </trkpt>
      <trkpt lat="45.96386" lon="4.70592">
        <ele>312</ele>
        <time>2018-07-15T10:16:58Z</time>
      </trkpt>
      <trkpt lat="45.96393" lon="4.70599">
        <ele>312</ele>
        <time>2018-07-15T10:16:59Z</time>
      </trkpt>
      <trkpt lat="45.96399" lon="4.70608">
        <ele>312</ele>
        <time>2018-07-15T10:17:00Z</time>
      </trkpt>
      <trkpt lat="45.96406" lon="4.70617">
        <ele>311</ele>
        <time>2018-07-15T10:17:01Z</time>
      </trkpt>
      <trkpt lat="45.96415" lon="4.70624">
        <ele>311</ele>
        <time>2018-07-15T10:17:02Z</time>
      </trkpt>
      <trkpt lat="45.96422" lon="4.70633">
        <ele>313</ele>
        <time>2018-07-15T10:17:03Z</time>
      </trkpt>
      <trkpt lat="45.96429" lon="4.7064">
        <ele>312</ele>
        <time>2018-07-15T10:17:04Z</time>
      </trkpt>
      <trkpt lat="45.96438" lon="4.70646">
        <ele>312</ele>
        <time>2018-07-15T10:17:05Z</time>
      </trkpt>
      <trkpt lat="45.96446" lon="4.70654">
        <ele>312</ele>
        <time>2018-07-15T10:17:06Z</time>
      </trkpt>
      <trkpt lat="45.96454" lon="4.70662">
        <ele>312</ele>
        <time>2018-07-15T10:17:07Z</time>
      </trkpt>
      <trkpt lat="45.96461" lon="4.70669">
        <ele>305</ele>
        <time>2018-07-15T10:17:08Z</time>
      </trkpt>
      <trkpt lat="45.96469" lon="4.70677">
        <ele>305</ele>
        <time>2018-07-15T10:17:09Z</time>
      </trkpt>
      <trkpt lat="45.96478" lon="4.70685">
        <ele>306</ele>
        <time>2018-07-15T10:17:10Z</time>
      </trkpt>
      <trkpt lat="45.96486" lon="4.70693">
        <ele>305</ele>
        <time>2018-07-15T10:17:11Z</time>
      </trkpt>
      <trkpt lat="45.96495" lon="4.70702">
        <ele>305</ele>
        <time>2018-07-15T10:17:12Z</time>
      </trkpt>
      <trkpt lat="45.96504" lon="4.7071">
        <ele>306</ele>
        <time>2018-07-15T10:17:13Z</time>
      </trkpt>
      <trkpt lat="45.96514" lon="4.70719">
        <ele>305</ele>
        <time>2018-07-15T10:17:14Z</time>
      </trkpt>
      <trkpt lat="45.96523" lon="4.70727">
        <ele>305</ele>
        <time>2018-07-15T10:17:15Z</time>
      </trkpt>
      <trkpt lat="45.96532" lon="4.70735">
        <ele>305</ele>
        <time>2018-07-15T10:17:16Z</time>
      </trkpt>
      <trkpt lat="45.96542" lon="4.70744">
        <ele>305</ele>
        <time>2018-07-15T10:17:17Z</time>
      </trkpt>
      <trkpt lat="45.96552" lon="4.70751">
        <ele>298</ele>
        <time>2018-07-15T10:17:18Z</time>
      </trkpt>
      <trkpt lat="45.96562" lon="4.70757">
        <ele>299</ele>
        <time>2018-07-15T10:17:19Z</time>
      </trkpt>
      <trkpt lat="45.96572" lon="4.70764">
        <ele>299</ele>
        <time>2018-07-15T10:17:20Z</time>
      </trkpt>
      <trkpt lat="45.96584" lon="4.70773">
        <ele>300</ele>
        <time>2018-07-15T10:17:21Z</time>
      </trkpt>
      <trkpt lat="45.96594" lon="4.70781">
        <ele>299</ele>
        <time>2018-07-15T10:17:22Z</time>
      </trkpt>
      <trkpt lat="45.96605" lon="4.70789">
        <ele>298</ele>
        <time>2018-07-15T10:17:23Z</time>
      </trkpt>
      <trkpt lat="45.96615" lon="4.70794">
        <ele>298</ele>
        <time>2018-07-15T10:17:24Z</time>
      </trkpt>
      <trkpt lat="45.96626" lon="4.70801">
        <ele>298</ele>
        <time>2018-07-15T10:17:25Z</time>
      </trkpt>
      <trkpt lat="45.96637" lon="4.70805">
        <ele>298</ele>
        <time>2018-07-15T10:17:26Z</time>
      </trkpt>
      <trkpt lat="45.96647" lon="4.70811">
        <ele>297</ele>
        <time>2018-07-15T10:17:27Z</time>
      </trkpt>
      <trkpt lat="45.96659" lon="4.70818">
        <ele>297</ele>
        <time>2018-07-15T10:17:28Z</time>
      </trkpt>
      <trkpt lat="45.96669" lon="4.70826">
        <ele>296</ele>
        <time>2018-07-15T10:17:29Z</time>
      </trkpt>
      <trkpt lat="45.9668" lon="4.70834">
        <ele>292</ele>
        <time>2018-07-15T10:17:30Z</time>
      </trkpt>
      <trkpt lat="45.96691" lon="4.70842">
        <ele>291</ele>
        <time>2018-07-15T10:17:31Z</time>
      </trkpt>
      <trkpt lat="45.96702" lon="4.70848">
        <ele>290</ele>
        <time>2018-07-15T10:17:32Z</time>
      </trkpt>
      <trkpt lat="45.96713" lon="4.70856">
        <ele>290</ele>
        <time>2018-07-15T10:17:33Z</time>
      </trkpt>
      <trkpt lat="45.96723" lon="4.70864">
        <ele>289</ele>
        <time>2018-07-15T10:17:34Z</time>
      </trkpt>
      <trkpt lat="45.96733" lon="4.70872">
        <ele>289</ele>
        <time>2018-07-15T10:17:35Z</time>
      </trkpt>
      <trkpt lat="45.96745" lon="4.70879">
        <ele>288</ele>
        <time>2018-07-15T10:17:36Z</time>
      </trkpt>
      <trkpt lat="45.96756" lon="4.70887">
        <ele>288</ele>
        <time>2018-07-15T10:17:37Z</time>
      </trkpt>
      <trkpt lat="45.96767" lon="4.70894">
        <ele>288</ele>
        <time>2018-07-15T10:17:38Z</time>
      </trkpt>
      <trkpt lat="45.96778" lon="4.70901">
        <ele>288</ele>
        <time>2018-07-15T10:17:39Z</time>
      </trkpt>
      <trkpt lat="45.96788" lon="4.7091">
        <ele>288</ele>
        <time>2018-07-15T10:17:40Z</time>
      </trkpt>
      <trkpt lat="45.96798" lon="4.70918">
        <ele>280</ele>
        <time>2018-07-15T10:17:41Z</time>
      </trkpt>
      <trkpt lat="45.96811" lon="4.70923">
        <ele>281</ele>
        <time>2018-07-15T10:17:42Z</time>
      </trkpt>
      <trkpt lat="45.96823" lon="4.70929">
        <ele>282</ele>
        <time>2018-07-15T10:17:43Z</time>
      </trkpt>
      <trkpt lat="45.96833" lon="4.70936">
        <ele>281</ele>
        <time>2018-07-15T10:17:44Z</time>
      </trkpt>
      <trkpt lat="45.96844" lon="4.70942">
        <ele>281</ele>
        <time>2018-07-15T10:17:45Z</time>
      </trkpt>
      <trkpt lat="45.96854" lon="4.7095">
        <ele>280</ele>
        <time>2018-07-15T10:17:46Z</time>
      </trkpt>
      <trkpt lat="45.96865" lon="4.70957">
        <ele>279</ele>
        <time>2018-07-15T10:17:47Z</time>
      </trkpt>
      <trkpt lat="45.96877" lon="4.70963">
        <ele>279</ele>
        <time>2018-07-15T10:17:48Z</time>
      </trkpt>
      <trkpt lat="45.96889" lon="4.70968">
        <ele>278</ele>
        <time>2018-07-15T10:17:49Z</time>
      </trkpt>
      <trkpt lat="45.969" lon="4.70969">
        <ele>278</ele>
        <time>2018-07-15T10:17:50Z</time>
      </trkpt>
      <trkpt lat="45.96913" lon="4.70972">
        <ele>278</ele>
        <time>2018-07-15T10:17:51Z</time>
      </trkpt>
      <trkpt lat="45.96925" lon="4.70975">
        <ele>276</ele>
        <time>2018-07-15T10:17:52Z</time>
      </trkpt>
      <trkpt lat="45.96937" lon="4.70977">
        <ele>275</ele>
        <time>2018-07-15T10:17:53Z</time>
      </trkpt>
      <trkpt lat="45.9695" lon="4.7098">
        <ele>275</ele>
        <time>2018-07-15T10:17:54Z</time>
      </trkpt>
      <trkpt lat="45.96963" lon="4.70982">
        <ele>275</ele>
        <time>2018-07-15T10:17:55Z</time>
      </trkpt>
      <trkpt lat="45.96975" lon="4.70985">
        <ele>274</ele>
        <time>2018-07-15T10:17:56Z</time>
      </trkpt>
      <trkpt lat="45.96987" lon="4.70987">
        <ele>272</ele>
        <time>2018-07-15T10:17:57Z</time>
      </trkpt>
      <trkpt lat="45.97" lon="4.70987">
        <ele>271</ele>
        <time>2018-07-15T10:17:58Z</time>
      </trkpt>
      <trkpt lat="45.97013" lon="4.70987">
        <ele>269</ele>
        <time>2018-07-15T10:17:59Z</time>
      </trkpt>
      <trkpt lat="45.97025" lon="4.70986">
        <ele>269</ele>
        <time>2018-07-15T10:18:00Z</time>
      </trkpt>
      <trkpt lat="45.97038" lon="4.70985">
        <ele>269</ele>
        <time>2018-07-15T10:18:01Z</time>
      </trkpt>
      <trkpt lat="45.9705" lon="4.70983">
        <ele>269</ele>
        <time>2018-07-15T10:18:02Z</time>
      </trkpt>
      <trkpt lat="45.97063" lon="4.70982">
        <ele>268</ele>
        <time>2018-07-15T10:18:03Z</time>
      </trkpt>
      <trkpt lat="45.97075" lon="4.70979">
        <ele>268</ele>
        <time>2018-07-15T10:18:04Z</time>
      </trkpt>
      <trkpt lat="45.97086" lon="4.70975">
        <ele>265</ele>
        <time>2018-07-15T10:18:05Z</time>
      </trkpt>
      <trkpt lat="45.97099" lon="4.7097">
        <ele>264</ele>
        <time>2018-07-15T10:18:06Z</time>
      </trkpt>
      <trkpt lat="45.97111" lon="4.70966">
        <ele>264</ele>
        <time>2018-07-15T10:18:07Z</time>
      </trkpt>
      <trkpt lat="45.97122" lon="4.70963">
        <ele>264</ele>
        <time>2018-07-15T10:18:08Z</time>
      </trkpt>
      <trkpt lat="45.97133" lon="4.70959">
        <ele>264</ele>
        <time>2018-07-15T10:18:09Z</time>
      </trkpt>
      <trkpt lat="45.97143" lon="4.70956">
        <ele>263</ele>
        <time>2018-07-15T10:18:10Z</time>
      </trkpt>
      <trkpt lat="45.97152" lon="4.70958">
        <ele>263</ele>
        <time>2018-07-15T10:18:11Z</time>
      </trkpt>
      <trkpt lat="45.9716" lon="4.70947">
        <ele>263</ele>
        <time>2018-07-15T10:18:12Z</time>
      </trkpt>
      <trkpt lat="45.97169" lon="4.70943">
        <ele>258</ele>
        <time>2018-07-15T10:18:13Z</time>
      </trkpt>
      <trkpt lat="45.97176" lon="4.7094">
        <ele>258</ele>
        <time>2018-07-15T10:18:14Z</time>
      </trkpt>
      <trkpt lat="45.97184" lon="4.70933">
        <ele>258</ele>
        <time>2018-07-15T10:18:15Z</time>
      </trkpt>
      <trkpt lat="45.97193" lon="4.70929">
        <ele>258</ele>
        <time>2018-07-15T10:18:16Z</time>
      </trkpt>
      <trkpt lat="45.97202" lon="4.70923">
        <ele>257</ele>
        <time>2018-07-15T10:18:17Z</time>
      </trkpt>
      <trkpt lat="45.9721" lon="4.70917">
        <ele>260</ele>
        <time>2018-07-15T10:18:18Z</time>
      </trkpt>
      <trkpt lat="45.97217" lon="4.7091">
        <ele>259</ele>
        <time>2018-07-15T10:18:19Z</time>
      </trkpt>
      <trkpt lat="45.97225" lon="4.70901">
        <ele>259</ele>
        <time>2018-07-15T10:18:20Z</time>
      </trkpt>
      <trkpt lat="45.97234" lon="4.70889">
        <ele>259</ele>
        <time>2018-07-15T10:18:21Z</time>
      </trkpt>
      <trkpt lat="45.97241" lon="4.70878">
        <ele>259</ele>
        <time>2018-07-15T10:18:22Z</time>
      </trkpt>
      <trkpt lat="45.97249" lon="4.70868">
        <ele>259</ele>
        <time>2018-07-15T10:18:23Z</time>
      </trkpt>
      <trkpt lat="45.97256" lon="4.70859">
        <ele>253</ele>
        <time>2018-07-15T10:18:24Z</time>
      </trkpt>
      <trkpt lat="45.97263" lon="4.70845">
        <ele>254</ele>
        <time>2018-07-15T10:18:25Z</time>
      </trkpt>
      <trkpt lat="45.9727" lon="4.70834">
        <ele>253</ele>
        <time>2018-07-15T10:18:26Z</time>
      </trkpt>
      <trkpt lat="45.97277" lon="4.70825">
        <ele>255</ele>
        <time>2018-07-15T10:18:27Z</time>
      </trkpt>
      <trkpt lat="45.97283" lon="4.70816">
        <ele>254</ele>
        <time>2018-07-15T10:18:28Z</time>
      </trkpt>
      <trkpt lat="45.97291" lon="4.70806">
        <ele>254</ele>
        <time>2018-07-15T10:18:29Z</time>
      </trkpt>
      <trkpt lat="45.97298" lon="4.70797">
        <ele>253</ele>
        <time>2018-07-15T10:18:30Z</time>
      </trkpt>
      <trkpt lat="45.97303" lon="4.70788">
        <ele>253</ele>
        <time>2018-07-15T10:18:31Z</time>
      </trkpt>
      <trkpt lat="45.97309" lon="4.70782">
        <ele>253</ele>
        <time>2018-07-15T10:18:32Z</time>
      </trkpt>
      <trkpt lat="45.97314" lon="4.70775">
        <ele>252</ele>
        <time>2018-07-15T10:18:33Z</time>
      </trkpt>
      <trkpt lat="45.97321" lon="4.70766">
        <ele>252</ele>
        <time>2018-07-15T10:18:34Z</time>
      </trkpt>
      <trkpt lat="45.97329" lon="4.70763">
        <ele>251</ele>
        <time>2018-07-15T10:18:35Z</time>
      </trkpt>
      <trkpt lat="45.97336" lon="4.70759">
        <ele>247</ele>
        <time>2018-07-15T10:18:36Z</time>
      </trkpt>
      <trkpt lat="45.97344" lon="4.70756">
        <ele>247</ele>
        <time>2018-07-15T10:18:37Z</time>
      </trkpt>
      <trkpt lat="45.97353" lon="4.70752">
        <ele>246</ele>
        <time>2018-07-15T10:18:38Z</time>
      </trkpt>
      <trkpt lat="45.9736" lon="4.7075">
        <ele>245</ele>
        <time>2018-07-15T10:18:39Z</time>
      </trkpt>
      <trkpt lat="45.97368" lon="4.70747">
        <ele>245</ele>
        <time>2018-07-15T10:18:40Z</time>
      </trkpt>
      <trkpt lat="45.97376" lon="4.70745">
        <ele>244</ele>
        <time>2018-07-15T10:18:41Z</time>
      </trkpt>
      <trkpt lat="45.97382" lon="4.70746">
        <ele>244</ele>
        <time>2018-07-15T10:18:42Z</time>
      </trkpt>
      <trkpt lat="45.9739" lon="4.70746">
        <ele>243</ele>
        <time>2018-07-15T10:18:43Z</time>
      </trkpt>
      <trkpt lat="45.97397" lon="4.70746">
        <ele>242</ele>
        <time>2018-07-15T10:18:44Z</time>
      </trkpt>
      <trkpt lat="45.97405" lon="4.70747">
        <ele>242</ele>
        <time>2018-07-15T10:18:45Z</time>
      </trkpt>
      <trkpt lat="45.97413" lon="4.70747">
        <ele>241</ele>
        <time>2018-07-15T10:18:46Z</time>
      </trkpt>
      <trkpt lat="45.97424" lon="4.70747">
        <ele>239</ele>
        <time>2018-07-15T10:18:47Z</time>
      </trkpt>
      <trkpt lat="45.97433" lon="4.70747">
        <ele>239</ele>
        <time>2018-07-15T10:18:48Z</time>
      </trkpt>
      <trkpt lat="45.97441" lon="4.70747">
        <ele>239</ele>
        <time>2018-07-15T10:18:49Z</time>
      </trkpt>
      <trkpt lat="45.97448" lon="4.7075">
        <ele>238</ele>
        <time>2018-07-15T10:18:50Z</time>
      </trkpt>
      <trkpt lat="45.97456" lon="4.7075">
        <ele>238</ele>
        <time>2018-07-15T10:18:51Z</time>
      </trkpt>
      <trkpt lat="45.97465" lon="4.70748">
        <ele>238</ele>
        <time>2018-07-15T10:18:52Z</time>
      </trkpt>
      <trkpt lat="45.97473" lon="4.70746">
        <ele>237</ele>
        <time>2018-07-15T10:18:53Z</time>
      </trkpt>
      <trkpt lat="45.97482" lon="4.70745">
        <ele>237</ele>
        <time>2018-07-15T10:18:54Z</time>
      </trkpt>
      <trkpt lat="45.9749" lon="4.70742">
        <ele>237</ele>
        <time>2018-07-15T10:18:55Z</time>
      </trkpt>
      <trkpt lat="45.97498" lon="4.70738">
        <ele>237</ele>
        <time>2018-07-15T10:18:56Z</time>
      </trkpt>
      <trkpt lat="45.97505" lon="4.70737">
        <ele>235</ele>
        <time>2018-07-15T10:18:57Z</time>
      </trkpt>
      <trkpt lat="45.97512" lon="4.70735">
        <ele>235</ele>
        <time>2018-07-15T10:18:58Z</time>
      </trkpt>
      <trkpt lat="45.97517" lon="4.70736">
        <ele>235</ele>
        <time>2018-07-15T10:18:59Z</time>
      </trkpt>
      <trkpt lat="45.97524" lon="4.70733">
        <ele>234</ele>
        <time>2018-07-15T10:19:00Z</time>
      </trkpt>
      <trkpt lat="45.9753" lon="4.70732">
        <ele>234</ele>
        <time>2018-07-15T10:19:01Z</time>
      </trkpt>
      <trkpt lat="45.97537" lon="4.70732">
        <ele>234</ele>
        <time>2018-07-15T10:19:02Z</time>
      </trkpt>
      <trkpt lat="45.97544" lon="4.70731">
        <ele>233</ele>
        <time>2018-07-15T10:19:03Z</time>
      </trkpt>
      <trkpt lat="45.97552" lon="4.7073">
        <ele>233</ele>
        <time>2018-07-15T10:19:04Z</time>
      </trkpt>
      <trkpt lat="45.97559" lon="4.7073">
        <ele>233</ele>
        <time>2018-07-15T10:19:05Z</time>
      </trkpt>
      <trkpt lat="45.97566" lon="4.70729">
        <ele>233</ele>
        <time>2018-07-15T10:19:06Z</time>
      </trkpt>
      <trkpt lat="45.97574" lon="4.70731">
        <ele>232</ele>
        <time>2018-07-15T10:19:07Z</time>
      </trkpt>
      <trkpt lat="45.97581" lon="4.70731">
        <ele>232</ele>
        <time>2018-07-15T10:19:08Z</time>
      </trkpt>
      <trkpt lat="45.97589" lon="4.70732">
        <ele>229</ele>
        <time>2018-07-15T10:19:09Z</time>
      </trkpt>
      <trkpt lat="45.97596" lon="4.70732">
        <ele>229</ele>
        <time>2018-07-15T10:19:10Z</time>
      </trkpt>
      <trkpt lat="45.97604" lon="4.70735">
        <ele>229</ele>
        <time>2018-07-15T10:19:11Z</time>
      </trkpt>
      <trkpt lat="45.97612" lon="4.70737">
        <ele>229</ele>
        <time>2018-07-15T10:19:12Z</time>
      </trkpt>
      <trkpt lat="45.9762" lon="4.7074">
        <ele>228</ele>
        <time>2018-07-15T10:19:13Z</time>
      </trkpt>
      <trkpt lat="45.97629" lon="4.70743">
        <ele>228</ele>
        <time>2018-07-15T10:19:14Z</time>
      </trkpt>
      <trkpt lat="45.97638" lon="4.70746">
        <ele>227</ele>
        <time>2018-07-15T10:19:15Z</time>
      </trkpt>
      <trkpt lat="45.97645" lon="4.70749">
        <ele>226</ele>
        <time>2018-07-15T10:19:16Z</time>
      </trkpt>
      <trkpt lat="45.97653" lon="4.70752">
        <ele>225</ele>
        <time>2018-07-15T10:19:17Z</time>
      </trkpt>
      <trkpt lat="45.97664" lon="4.70756">
        <ele>225</ele>
        <time>2018-07-15T10:19:18Z</time>
      </trkpt>
      <trkpt lat="45.97673" lon="4.70759">
        <ele>223</ele>
        <time>2018-07-15T10:19:19Z</time>
      </trkpt>
      <trkpt lat="45.97682" lon="4.70764">
        <ele>223</ele>
        <time>2018-07-15T10:19:20Z</time>
      </trkpt>
      <trkpt lat="45.97691" lon="4.70768">
        <ele>223</ele>
        <time>2018-07-15T10:19:21Z</time>
      </trkpt>
      <trkpt lat="45.977" lon="4.7077">
        <ele>223</ele>
        <time>2018-07-15T10:19:22Z</time>
      </trkpt>
      <trkpt lat="45.9771" lon="4.70772">
        <ele>223</ele>
        <time>2018-07-15T10:19:23Z</time>
      </trkpt>
      <trkpt lat="45.9772" lon="4.70774">
        <ele>222</ele>
        <time>2018-07-15T10:19:24Z</time>
      </trkpt>
      <trkpt lat="45.97729" lon="4.70777">
        <ele>222</ele>
        <time>2018-07-15T10:19:25Z</time>
      </trkpt>
      <trkpt lat="45.97737" lon="4.70781">
        <ele>222</ele>
        <time>2018-07-15T10:19:26Z</time>
      </trkpt>
      <trkpt lat="45.97744" lon="4.70784">
        <ele>222</ele>
        <time>2018-07-15T10:19:27Z</time>
      </trkpt>
      <trkpt lat="45.97751" lon="4.70787">
        <ele>221</ele>
        <time>2018-07-15T10:19:28Z</time>
      </trkpt>
      <trkpt lat="45.97762" lon="4.70787">
        <ele>221</ele>
        <time>2018-07-15T10:19:29Z</time>
      </trkpt>
      <trkpt lat="45.9777" lon="4.70787">
        <ele>221</ele>
        <time>2018-07-15T10:19:30Z</time>
      </trkpt>
      <trkpt lat="45.97773" lon="4.70793">
        <ele>221</ele>
        <time>2018-07-15T10:19:31Z</time>
      </trkpt>
      <trkpt lat="45.97778" lon="4.70796">
        <ele>221</ele>
        <time>2018-07-15T10:19:32Z</time>
      </trkpt>
      <trkpt lat="45.97783" lon="4.708">
        <ele>221</ele>
        <time>2018-07-15T10:19:33Z</time>
      </trkpt>
      <trkpt lat="45.97791" lon="4.70805">
        <ele>221</ele>
        <time>2018-07-15T10:19:35Z</time>
      </trkpt>
      <trkpt lat="45.97796" lon="4.70808">
        <ele>221</ele>
        <time>2018-07-15T10:19:36Z</time>
      </trkpt>
      <trkpt lat="45.97799" lon="4.70813">
        <ele>221</ele>
        <time>2018-07-15T10:19:37Z</time>
      </trkpt>
      <trkpt lat="45.97803" lon="4.7082">
        <ele>221</ele>
        <time>2018-07-15T10:19:38Z</time>
      </trkpt>
      <trkpt lat="45.97806" lon="4.70826">
        <ele>221</ele>
        <time>2018-07-15T10:19:39Z</time>
      </trkpt>
      <trkpt lat="45.97808" lon="4.70835">
        <ele>220</ele>
        <time>2018-07-15T10:19:40Z</time>
      </trkpt>
      <trkpt lat="45.97812" lon="4.70842">
        <ele>220</ele>
        <time>2018-07-15T10:19:41Z</time>
      </trkpt>
      <trkpt lat="45.97815" lon="4.70848">
        <ele>220</ele>
        <time>2018-07-15T10:19:42Z</time>
      </trkpt>
      <trkpt lat="45.97815" lon="4.70858">
        <ele>220</ele>
        <time>2018-07-15T10:19:43Z</time>
      </trkpt>
      <trkpt lat="45.97817" lon="4.70862">
        <ele>220</ele>
        <time>2018-07-15T10:19:44Z</time>
      </trkpt>
      <trkpt lat="45.97818" lon="4.70872">
        <ele>220</ele>
        <time>2018-07-15T10:19:45Z</time>
      </trkpt>
      <trkpt lat="45.97819" lon="4.70883">
        <ele>220</ele>
        <time>2018-07-15T10:19:46Z</time>
      </trkpt>
      <trkpt lat="45.97819" lon="4.70892">
        <ele>220</ele>
        <time>2018-07-15T10:19:47Z</time>
      </trkpt>
      <trkpt lat="45.97819" lon="4.70902">
        <ele>220</ele>
        <time>2018-07-15T10:19:48Z</time>
      </trkpt>
      <trkpt lat="45.97819" lon="4.70912">
        <ele>219</ele>
        <time>2018-07-15T10:19:49Z</time>
      </trkpt>
      <trkpt lat="45.97818" lon="4.70923">
        <ele>219</ele>
        <time>2018-07-15T10:19:50Z</time>
      </trkpt>
      <trkpt lat="45.97818" lon="4.70932">
        <ele>218</ele>
        <time>2018-07-15T10:19:51Z</time>
      </trkpt>
      <trkpt lat="45.97821" lon="4.70943">
        <ele>218</ele>
        <time>2018-07-15T10:19:52Z</time>
      </trkpt>
      <trkpt lat="45.97824" lon="4.70949">
        <ele>218</ele>
        <time>2018-07-15T10:19:53Z</time>
      </trkpt>
      <trkpt lat="45.97826" lon="4.70957">
        <ele>218</ele>
        <time>2018-07-15T10:19:54Z</time>
      </trkpt>
      <trkpt lat="45.97828" lon="4.70968">
        <ele>218</ele>
        <time>2018-07-15T10:19:55Z</time>
      </trkpt>
      <trkpt lat="45.97827" lon="4.70981">
        <ele>217</ele>
        <time>2018-07-15T10:19:56Z</time>
      </trkpt>
      <trkpt lat="45.9783" lon="4.70992">
        <ele>217</ele>
        <time>2018-07-15T10:19:57Z</time>
      </trkpt>
      <trkpt lat="45.97833" lon="4.71006">
        <ele>216</ele>
        <time>2018-07-15T10:19:58Z</time>
      </trkpt>
      <trkpt lat="45.97834" lon="4.71017">
        <ele>216</ele>
        <time>2018-07-15T10:19:59Z</time>
      </trkpt>
      <trkpt lat="45.97836" lon="4.71029">
        <ele>216</ele>
        <time>2018-07-15T10:20:00Z</time>
      </trkpt>
      <trkpt lat="45.97839" lon="4.7104">
        <ele>216</ele>
        <time>2018-07-15T10:20:01Z</time>
      </trkpt>
      <trkpt lat="45.97841" lon="4.71052">
        <ele>215</ele>
        <time>2018-07-15T10:20:02Z</time>
      </trkpt>
      <trkpt lat="45.97843" lon="4.71065">
        <ele>215</ele>
        <time>2018-07-15T10:20:03Z</time>
      </trkpt>
      <trkpt lat="45.97845" lon="4.71078">
        <ele>215</ele>
        <time>2018-07-15T10:20:04Z</time>
      </trkpt>
      <trkpt lat="45.97846" lon="4.71091">
        <ele>213</ele>
        <time>2018-07-15T10:20:05Z</time>
      </trkpt>
      <trkpt lat="45.97849" lon="4.71103">
        <ele>213</ele>
        <time>2018-07-15T10:20:06Z</time>
      </trkpt>
      <trkpt lat="45.97851" lon="4.71115">
        <ele>213</ele>
        <time>2018-07-15T10:20:07Z</time>
      </trkpt>
      <trkpt lat="45.97852" lon="4.71126">
        <ele>212</ele>
        <time>2018-07-15T10:20:08Z</time>
      </trkpt>
      <trkpt lat="45.97854" lon="4.71137">
        <ele>212</ele>
        <time>2018-07-15T10:20:09Z</time>
      </trkpt>
      <trkpt lat="45.97855" lon="4.71146">
        <ele>212</ele>
        <time>2018-07-15T10:20:10Z</time>
      </trkpt>
      <trkpt lat="45.97854" lon="4.71155">
        <ele>212</ele>
        <time>2018-07-15T10:20:11Z</time>
      </trkpt>
      <trkpt lat="45.97856" lon="4.71164">
        <ele>212</ele>
        <time>2018-07-15T10:20:12Z</time>
      </trkpt>
      <trkpt lat="45.97855" lon="4.71171">
        <ele>209</ele>
        <time>2018-07-15T10:20:13Z</time>
      </trkpt>
      <trkpt lat="45.97855" lon="4.7118">
        <ele>209</ele>
        <time>2018-07-15T10:20:14Z</time>
      </trkpt>
      <trkpt lat="45.97852" lon="4.7119">
        <ele>209</ele>
        <time>2018-07-15T10:20:15Z</time>
      </trkpt>
      <trkpt lat="45.97852" lon="4.712">
        <ele>209</ele>
        <time>2018-07-15T10:20:16Z</time>
      </trkpt>
      <trkpt lat="45.97851" lon="4.71211">
        <ele>209</ele>
        <time>2018-07-15T10:20:17Z</time>
      </trkpt>
      <trkpt lat="45.97851" lon="4.71223">
        <ele>208</ele>
        <time>2018-07-15T10:20:18Z</time>
      </trkpt>
      <trkpt lat="45.97852" lon="4.71233">
        <ele>208</ele>
        <time>2018-07-15T10:20:19Z</time>
      </trkpt>
      <trkpt lat="45.97852" lon="4.71245">
        <ele>208</ele>
        <time>2018-07-15T10:20:20Z</time>
      </trkpt>
      <trkpt lat="45.97852" lon="4.71257">
        <ele>207</ele>
        <time>2018-07-15T10:20:21Z</time>
      </trkpt>
      <trkpt lat="45.97852" lon="4.71269">
        <ele>206</ele>
        <time>2018-07-15T10:20:22Z</time>
      </trkpt>
      <trkpt lat="45.97851" lon="4.71281">
        <ele>206</ele>
        <time>2018-07-15T10:20:23Z</time>
      </trkpt>
      <trkpt lat="45.97852" lon="4.71294">
        <ele>206</ele>
        <time>2018-07-15T10:20:24Z</time>
      </trkpt>
      <trkpt lat="45.97852" lon="4.71305">
        <ele>206</ele>
        <time>2018-07-15T10:20:25Z</time>
      </trkpt>
      <trkpt lat="45.97853" lon="4.71318">
        <ele>205</ele>
        <time>2018-07-15T10:20:26Z</time>
      </trkpt>
      <trkpt lat="45.97852" lon="4.71329">
        <ele>205</ele>
        <time>2018-07-15T10:20:27Z</time>
      </trkpt>
      <trkpt lat="45.97852" lon="4.71341">
        <ele>204</ele>
        <time>2018-07-15T10:20:28Z</time>
      </trkpt>
      <trkpt lat="45.97852" lon="4.71353">
        <ele>204</ele>
        <time>2018-07-15T10:20:29Z</time>
      </trkpt>
      <trkpt lat="45.97851" lon="4.71364">
        <ele>204</ele>
        <time>2018-07-15T10:20:30Z</time>
      </trkpt>
      <trkpt lat="45.97851" lon="4.71375">
        <ele>203</ele>
        <time>2018-07-15T10:20:31Z</time>
      </trkpt>
      <trkpt lat="45.97852" lon="4.71387">
        <ele>203</ele>
        <time>2018-07-15T10:20:32Z</time>
      </trkpt>
      <trkpt lat="45.97852" lon="4.71398">
        <ele>203</ele>
        <time>2018-07-15T10:20:33Z</time>
      </trkpt>
      <trkpt lat="45.97853" lon="4.71409">
        <ele>203</ele>
        <time>2018-07-15T10:20:34Z</time>
      </trkpt>
      <trkpt lat="45.97855" lon="4.71419">
        <ele>202</ele>
        <time>2018-07-15T10:20:35Z</time>
      </trkpt>
      <trkpt lat="45.97856" lon="4.71428">
        <ele>201</ele>
        <time>2018-07-15T10:20:36Z</time>
      </trkpt>
      <trkpt lat="45.97858" lon="4.7144">
        <ele>201</ele>
        <time>2018-07-15T10:20:37Z</time>
      </trkpt>
      <trkpt lat="45.9786" lon="4.71451">
        <ele>201</ele>
        <time>2018-07-15T10:20:38Z</time>
      </trkpt>
      <trkpt lat="45.97862" lon="4.71461">
        <ele>201</ele>
        <time>2018-07-15T10:20:39Z</time>
      </trkpt>
      <trkpt lat="45.97863" lon="4.7147">
        <ele>201</ele>
        <time>2018-07-15T10:20:40Z</time>
      </trkpt>
      <trkpt lat="45.97864" lon="4.71478">
        <ele>201</ele>
        <time>2018-07-15T10:20:41Z</time>
      </trkpt>
      <trkpt lat="45.97866" lon="4.71488">
        <ele>201</ele>
        <time>2018-07-15T10:20:42Z</time>
      </trkpt>
      <trkpt lat="45.97867" lon="4.71501">
        <ele>200</ele>
        <time>2018-07-15T10:20:43Z</time>
      </trkpt>
      <trkpt lat="45.97869" lon="4.71512">
        <ele>199</ele>
        <time>2018-07-15T10:20:44Z</time>
      </trkpt>
      <trkpt lat="45.97871" lon="4.71523">
        <ele>199</ele>
        <time>2018-07-15T10:20:45Z</time>
      </trkpt>
      <trkpt lat="45.97873" lon="4.71534">
        <ele>199</ele>
        <time>2018-07-15T10:20:46Z</time>
      </trkpt>
      <trkpt lat="45.97875" lon="4.71544">
        <ele>199</ele>
        <time>2018-07-15T10:20:47Z</time>
      </trkpt>
      <trkpt lat="45.97878" lon="4.71554">
        <ele>199</ele>
        <time>2018-07-15T10:20:48Z</time>
      </trkpt>
      <trkpt lat="45.97879" lon="4.71564">
        <ele>198</ele>
        <time>2018-07-15T10:20:49Z</time>
      </trkpt>
      <trkpt lat="45.97882" lon="4.71574">
        <ele>198</ele>
        <time>2018-07-15T10:20:50Z</time>
      </trkpt>
      <trkpt lat="45.97883" lon="4.71585">
        <ele>197</ele>
        <time>2018-07-15T10:20:51Z</time>
      </trkpt>
      <trkpt lat="45.97882" lon="4.71597">
        <ele>197</ele>
        <time>2018-07-15T10:20:52Z</time>
      </trkpt>
      <trkpt lat="45.97883" lon="4.71608">
        <ele>197</ele>
        <time>2018-07-15T10:20:53Z</time>
      </trkpt>
      <trkpt lat="45.97882" lon="4.71617">
        <ele>197</ele>
        <time>2018-07-15T10:20:54Z</time>
      </trkpt>
      <trkpt lat="45.97882" lon="4.71626">
        <ele>197</ele>
        <time>2018-07-15T10:20:55Z</time>
      </trkpt>
      <trkpt lat="45.97882" lon="4.71639">
        <ele>197</ele>
        <time>2018-07-15T10:20:56Z</time>
      </trkpt>
      <trkpt lat="45.97881" lon="4.71649">
        <ele>197</ele>
        <time>2018-07-15T10:20:57Z</time>
      </trkpt>
      <trkpt lat="45.97881" lon="4.71659">
        <ele>197</ele>
        <time>2018-07-15T10:20:58Z</time>
      </trkpt>
      <trkpt lat="45.97876" lon="4.71665">
        <ele>197</ele>
        <time>2018-07-15T10:20:59Z</time>
      </trkpt>
      <trkpt lat="45.97874" lon="4.71677">
        <ele>196</ele>
        <time>2018-07-15T10:21:00Z</time>
      </trkpt>
      <trkpt lat="45.97871" lon="4.71687">
        <ele>196</ele>
        <time>2018-07-15T10:21:01Z</time>
      </trkpt>
      <trkpt lat="45.9787" lon="4.71696">
        <ele>196</ele>
        <time>2018-07-15T10:21:02Z</time>
      </trkpt>
      <trkpt lat="45.97868" lon="4.71705">
        <ele>196</ele>
        <time>2018-07-15T10:21:03Z</time>
      </trkpt>
      <trkpt lat="45.97862" lon="4.71709">
        <ele>196</ele>
        <time>2018-07-15T10:21:04Z</time>
      </trkpt>
      <trkpt lat="45.97859" lon="4.71716">
        <ele>196</ele>
        <time>2018-07-15T10:21:05Z</time>
      </trkpt>
      <trkpt lat="45.97856" lon="4.71722">
        <ele>196</ele>
        <time>2018-07-15T10:21:06Z</time>
      </trkpt>
      <trkpt lat="45.97852" lon="4.71729">
        <ele>196</ele>
        <time>2018-07-15T10:21:07Z</time>
      </trkpt>
      <trkpt lat="45.97849" lon="4.71737">
        <ele>196</ele>
        <time>2018-07-15T10:21:08Z</time>
      </trkpt>
      <trkpt lat="45.97844" lon="4.7174">
        <ele>195</ele>
        <time>2018-07-15T10:21:09Z</time>
      </trkpt>
      <trkpt lat="45.97838" lon="4.71741">
        <ele>195</ele>
        <time>2018-07-15T10:21:10Z</time>
      </trkpt>
      <trkpt lat="45.97832" lon="4.71742">
        <ele>195</ele>
        <time>2018-07-15T10:21:11Z</time>
      </trkpt>
      <trkpt lat="45.97827" lon="4.71743">
        <ele>195</ele>
        <time>2018-07-15T10:21:12Z</time>
      </trkpt>
      <trkpt lat="45.97822" lon="4.71743">
        <ele>196</ele>
        <time>2018-07-15T10:21:13Z</time>
      </trkpt>
      <trkpt lat="45.97816" lon="4.71743">
        <ele>196</ele>
        <time>2018-07-15T10:21:14Z</time>
      </trkpt>
      <trkpt lat="45.9781" lon="4.71743">
        <ele>196</ele>
        <time>2018-07-15T10:21:15Z</time>
      </trkpt>
      <trkpt lat="45.97804" lon="4.71744">
        <ele>196</ele>
        <time>2018-07-15T10:21:16Z</time>
      </trkpt>
      <trkpt lat="45.97798" lon="4.71744">
        <ele>196</ele>
        <time>2018-07-15T10:21:17Z</time>
      </trkpt>
      <trkpt lat="45.97792" lon="4.71743">
        <ele>196</ele>
        <time>2018-07-15T10:21:18Z</time>
      </trkpt>
      <trkpt lat="45.97786" lon="4.71742">
        <ele>196</ele>
        <time>2018-07-15T10:21:19Z</time>
      </trkpt>
      <trkpt lat="45.9778" lon="4.71741">
        <ele>196</ele>
        <time>2018-07-15T10:21:20Z</time>
      </trkpt>
      <trkpt lat="45.97773" lon="4.71738">
        <ele>196</ele>
        <time>2018-07-15T10:21:21Z</time>
      </trkpt>
      <trkpt lat="45.97767" lon="4.71738">
        <ele>196</ele>
        <time>2018-07-15T10:21:22Z</time>
      </trkpt>
      <trkpt lat="45.97763" lon="4.71734">
        <ele>196</ele>
        <time>2018-07-15T10:21:23Z</time>
      </trkpt>
      <trkpt lat="45.97757" lon="4.71733">
        <ele>196</ele>
        <time>2018-07-15T10:21:24Z</time>
      </trkpt>
      <trkpt lat="45.9775" lon="4.71733">
        <ele>196</ele>
        <time>2018-07-15T10:21:25Z</time>
      </trkpt>
      <trkpt lat="45.97743" lon="4.71733">
        <ele>196</ele>
        <time>2018-07-15T10:21:26Z</time>
      </trkpt>
      <trkpt lat="45.97737" lon="4.71733">
        <ele>196</ele>
        <time>2018-07-15T10:21:27Z</time>
      </trkpt>
      <trkpt lat="45.97729" lon="4.71733">
        <ele>196</ele>
        <time>2018-07-15T10:21:28Z</time>
      </trkpt>
      <trkpt lat="45.97722" lon="4.71734">
        <ele>196</ele>
        <time>2018-07-15T10:21:29Z</time>
      </trkpt>
      <trkpt lat="45.97716" lon="4.71733">
        <ele>196</ele>
        <time>2018-07-15T10:21:30Z</time>
      </trkpt>
      <trkpt lat="45.9771" lon="4.71733">
        <ele>196</ele>
        <time>2018-07-15T10:21:31Z</time>
      </trkpt>
      <trkpt lat="45.97705" lon="4.71732">
        <ele>196</ele>
        <time>2018-07-15T10:21:32Z</time>
      </trkpt>
      <trkpt lat="45.977" lon="4.71731">
        <ele>196</ele>
        <time>2018-07-15T10:21:33Z</time>
      </trkpt>
      <trkpt lat="45.97694" lon="4.71731">
        <ele>196</ele>
        <time>2018-07-15T10:21:34Z</time>
      </trkpt>
      <trkpt lat="45.97688" lon="4.71732">
        <ele>196</ele>
        <time>2018-07-15T10:21:35Z</time>
      </trkpt>
      <trkpt lat="45.97684" lon="4.71729">
        <ele>196</ele>
        <time>2018-07-15T10:21:36Z</time>
      </trkpt>
      <trkpt lat="45.97678" lon="4.71732">
        <ele>196</ele>
        <time>2018-07-15T10:21:37Z</time>
      </trkpt>
      <trkpt lat="45.97672" lon="4.71732">
        <ele>196</ele>
        <time>2018-07-15T10:21:38Z</time>
      </trkpt>
      <trkpt lat="45.97666" lon="4.71731">
        <ele>196</ele>
        <time>2018-07-15T10:21:39Z</time>
      </trkpt>
      <trkpt lat="45.9766" lon="4.7173">
        <ele>196</ele>
        <time>2018-07-15T10:21:40Z</time>
      </trkpt>
      <trkpt lat="45.97654" lon="4.71729">
        <ele>196</ele>
        <time>2018-07-15T10:21:41Z</time>
      </trkpt>
      <trkpt lat="45.97649" lon="4.71728">
        <ele>196</ele>
        <time>2018-07-15T10:21:42Z</time>
      </trkpt>
      <trkpt lat="45.97643" lon="4.71729">
        <ele>196</ele>
        <time>2018-07-15T10:21:43Z</time>
      </trkpt>
      <trkpt lat="45.97638" lon="4.71729">
        <ele>196</ele>
        <time>2018-07-15T10:21:44Z</time>
      </trkpt>
      <trkpt lat="45.97632" lon="4.71719">
        <ele>197</ele>
        <time>2018-07-15T10:21:46Z</time>
      </trkpt>
      <trkpt lat="45.97631" lon="4.71718">
        <ele>197</ele>
        <time>2018-07-15T10:21:47Z</time>
      </trkpt>
      <trkpt lat="45.97624" lon="4.71713">
        <ele>197</ele>
        <time>2018-07-15T10:21:48Z</time>
      </trkpt>
      <trkpt lat="45.9762" lon="4.71713">
        <ele>197</ele>
        <time>2018-07-15T10:21:49Z</time>
      </trkpt>
      <trkpt lat="45.97615" lon="4.71713">
        <ele>197</ele>
        <time>2018-07-15T10:21:50Z</time>
      </trkpt>
      <trkpt lat="45.9761" lon="4.71713">
        <ele>197</ele>
        <time>2018-07-15T10:21:51Z</time>
      </trkpt>
      <trkpt lat="45.97605" lon="4.71717">
        <ele>197</ele>
        <time>2018-07-15T10:21:52Z</time>
      </trkpt>
      <trkpt lat="45.976" lon="4.71719">
        <ele>197</ele>
        <time>2018-07-15T10:21:53Z</time>
      </trkpt>
      <trkpt lat="45.97596" lon="4.71722">
        <ele>197</ele>
        <time>2018-07-15T10:21:54Z</time>
      </trkpt>
      <trkpt lat="45.97592" lon="4.71723">
        <ele>197</ele>
        <time>2018-07-15T10:21:55Z</time>
      </trkpt>
      <trkpt lat="45.97587" lon="4.7172">
        <ele>197</ele>
        <time>2018-07-15T10:21:56Z</time>
      </trkpt>
      <trkpt lat="45.97581" lon="4.71719">
        <ele>198</ele>
        <time>2018-07-15T10:21:57Z</time>
      </trkpt>
      <trkpt lat="45.97574" lon="4.7172">
        <ele>198</ele>
        <time>2018-07-15T10:21:58Z</time>
      </trkpt>
      <trkpt lat="45.97569" lon="4.7172">
        <ele>198</ele>
        <time>2018-07-15T10:21:59Z</time>
      </trkpt>
      <trkpt lat="45.97561" lon="4.7172">
        <ele>198</ele>
        <time>2018-07-15T10:22:00Z</time>
      </trkpt>
      <trkpt lat="45.97556" lon="4.7172">
        <ele>198</ele>
        <time>2018-07-15T10:22:01Z</time>
      </trkpt>
      <trkpt lat="45.9755" lon="4.71719">
        <ele>198</ele>
        <time>2018-07-15T10:22:02Z</time>
      </trkpt>
      <trkpt lat="45.97541" lon="4.7172">
        <ele>198</ele>
        <time>2018-07-15T10:22:03Z</time>
      </trkpt>
      <trkpt lat="45.97536" lon="4.7172">
        <ele>198</ele>
        <time>2018-07-15T10:22:04Z</time>
      </trkpt>
      <trkpt lat="45.97529" lon="4.71722">
        <ele>198</ele>
        <time>2018-07-15T10:22:05Z</time>
      </trkpt>
      <trkpt lat="45.97523" lon="4.7172">
        <ele>198</ele>
        <time>2018-07-15T10:22:06Z</time>
      </trkpt>
      <trkpt lat="45.97517" lon="4.7172">
        <ele>198</ele>
        <time>2018-07-15T10:22:07Z</time>
      </trkpt>
      <trkpt lat="45.97511" lon="4.7172">
        <ele>198</ele>
        <time>2018-07-15T10:22:08Z</time>
      </trkpt>
      <trkpt lat="45.97506" lon="4.7172">
        <ele>198</ele>
        <time>2018-07-15T10:22:09Z</time>
      </trkpt>
      <trkpt lat="45.97499" lon="4.71718">
        <ele>198</ele>
        <time>2018-07-15T10:22:10Z</time>
      </trkpt>
      <trkpt lat="45.97494" lon="4.71718">
        <ele>197</ele>
        <time>2018-07-15T10:22:11Z</time>
      </trkpt>
      <trkpt lat="45.97488" lon="4.71718">
        <ele>197</ele>
        <time>2018-07-15T10:22:12Z</time>
      </trkpt>
      <trkpt lat="45.97483" lon="4.71718">
        <ele>197</ele>
        <time>2018-07-15T10:22:13Z</time>
      </trkpt>
      <trkpt lat="45.97477" lon="4.71717">
        <ele>197</ele>
        <time>2018-07-15T10:22:14Z</time>
      </trkpt>
      <trkpt lat="45.97471" lon="4.71716">
        <ele>197</ele>
        <time>2018-07-15T10:22:15Z</time>
      </trkpt>
      <trkpt lat="45.97465" lon="4.71717">
        <ele>197</ele>
        <time>2018-07-15T10:22:16Z</time>
      </trkpt>
      <trkpt lat="45.9746" lon="4.71717">
        <ele>197</ele>
        <time>2018-07-15T10:22:17Z</time>
      </trkpt>
      <trkpt lat="45.97455" lon="4.71717">
        <ele>197</ele>
        <time>2018-07-15T10:22:18Z</time>
      </trkpt>
      <trkpt lat="45.9745" lon="4.71717">
        <ele>197</ele>
        <time>2018-07-15T10:22:19Z</time>
      </trkpt>
      <trkpt lat="45.97445" lon="4.71714">
        <ele>197</ele>
        <time>2018-07-15T10:22:20Z</time>
      </trkpt>
      <trkpt lat="45.97439" lon="4.71715">
        <ele>197</ele>
        <time>2018-07-15T10:22:21Z</time>
      </trkpt>
      <trkpt lat="45.97434" lon="4.71714">
        <ele>196</ele>
        <time>2018-07-15T10:22:22Z</time>
      </trkpt>
      <trkpt lat="45.97429" lon="4.71713">
        <ele>196</ele>
        <time>2018-07-15T10:22:23Z</time>
      </trkpt>
      <trkpt lat="45.97424" lon="4.71713">
        <ele>196</ele>
        <time>2018-07-15T10:22:24Z</time>
      </trkpt>
      <trkpt lat="45.97418" lon="4.71713">
        <ele>196</ele>
        <time>2018-07-15T10:22:25Z</time>
      </trkpt>
      <trkpt lat="45.97413" lon="4.71713">
        <ele>195</ele>
        <time>2018-07-15T10:22:26Z</time>
      </trkpt>
      <trkpt lat="45.97406" lon="4.71712">
        <ele>195</ele>
        <time>2018-07-15T10:22:27Z</time>
      </trkpt>
      <trkpt lat="45.974" lon="4.71712">
        <ele>195</ele>
        <time>2018-07-15T10:22:28Z</time>
      </trkpt>
      <trkpt lat="45.97394" lon="4.71712">
        <ele>195</ele>
        <time>2018-07-15T10:22:29Z</time>
      </trkpt>
      <trkpt lat="45.97387" lon="4.71711">
        <ele>195</ele>
        <time>2018-07-15T10:22:30Z</time>
      </trkpt>
      <trkpt lat="45.9738" lon="4.71711">
        <ele>195</ele>
        <time>2018-07-15T10:22:31Z</time>
      </trkpt>
      <trkpt lat="45.97374" lon="4.7171">
        <ele>195</ele>
        <time>2018-07-15T10:22:32Z</time>
      </trkpt>
      <trkpt lat="45.97368" lon="4.71709">
        <ele>195</ele>
        <time>2018-07-15T10:22:33Z</time>
      </trkpt>
      <trkpt lat="45.97359" lon="4.71708">
        <ele>195</ele>
        <time>2018-07-15T10:22:35Z</time>
      </trkpt>
      <trkpt lat="45.97354" lon="4.71708">
        <ele>195</ele>
        <time>2018-07-15T10:22:36Z</time>
      </trkpt>
      <trkpt lat="45.97348" lon="4.71706">
        <ele>195</ele>
        <time>2018-07-15T10:22:37Z</time>
      </trkpt>
      <trkpt lat="45.97344" lon="4.71706">
        <ele>195</ele>
        <time>2018-07-15T10:22:38Z</time>
      </trkpt>
      <trkpt lat="45.97338" lon="4.71706">
        <ele>195</ele>
        <time>2018-07-15T10:22:39Z</time>
      </trkpt>
      <trkpt lat="45.97333" lon="4.71705">
        <ele>196</ele>
        <time>2018-07-15T10:22:40Z</time>
      </trkpt>
      <trkpt lat="45.97327" lon="4.71704">
        <ele>196</ele>
        <time>2018-07-15T10:22:41Z</time>
      </trkpt>
      <trkpt lat="45.97322" lon="4.71702">
        <ele>196</ele>
        <time>2018-07-15T10:22:42Z</time>
      </trkpt>
      <trkpt lat="45.97316" lon="4.717">
        <ele>196</ele>
        <time>2018-07-15T10:22:43Z</time>
      </trkpt>
      <trkpt lat="45.97311" lon="4.71696">
        <ele>196</ele>
        <time>2018-07-15T10:22:44Z</time>
      </trkpt>
      <trkpt lat="45.97305" lon="4.71695">
        <ele>196</ele>
        <time>2018-07-15T10:22:45Z</time>
      </trkpt>
      <trkpt lat="45.97298" lon="4.71696">
        <ele>196</ele>
        <time>2018-07-15T10:22:46Z</time>
      </trkpt>
      <trkpt lat="45.97291" lon="4.71699">
        <ele>196</ele>
        <time>2018-07-15T10:22:47Z</time>
      </trkpt>
      <trkpt lat="45.97287" lon="4.717">
        <ele>196</ele>
        <time>2018-07-15T10:22:48Z</time>
      </trkpt>
      <trkpt lat="45.9728" lon="4.71699">
        <ele>197</ele>
        <time>2018-07-15T10:22:49Z</time>
      </trkpt>
      <trkpt lat="45.97276" lon="4.71699">
        <ele>197</ele>
        <time>2018-07-15T10:22:50Z</time>
      </trkpt>
      <trkpt lat="45.97269" lon="4.71697">
        <ele>197</ele>
        <time>2018-07-15T10:22:51Z</time>
      </trkpt>
      <trkpt lat="45.97262" lon="4.71696">
        <ele>197</ele>
        <time>2018-07-15T10:22:52Z</time>
      </trkpt>
      <trkpt lat="45.97256" lon="4.71695">
        <ele>197</ele>
        <time>2018-07-15T10:22:53Z</time>
      </trkpt>
      <trkpt lat="45.97246" lon="4.71695">
        <ele>197</ele>
        <time>2018-07-15T10:22:54Z</time>
      </trkpt>
      <trkpt lat="45.9724" lon="4.71694">
        <ele>197</ele>
        <time>2018-07-15T10:22:55Z</time>
      </trkpt>
      <trkpt lat="45.97233" lon="4.71692">
        <ele>197</ele>
        <time>2018-07-15T10:22:56Z</time>
      </trkpt>
      <trkpt lat="45.97222" lon="4.71693">
        <ele>197</ele>
        <time>2018-07-15T10:22:57Z</time>
      </trkpt>
      <trkpt lat="45.97215" lon="4.71692">
        <ele>197</ele>
        <time>2018-07-15T10:22:58Z</time>
      </trkpt>
      <trkpt lat="45.9721" lon="4.71693">
        <ele>197</ele>
        <time>2018-07-15T10:22:59Z</time>
      </trkpt>
      <trkpt lat="45.97205" lon="4.71692">
        <ele>197</ele>
        <time>2018-07-15T10:23:00Z</time>
      </trkpt>
      <trkpt lat="45.972" lon="4.71693">
        <ele>197</ele>
        <time>2018-07-15T10:23:01Z</time>
      </trkpt>
      <trkpt lat="45.97194" lon="4.71692">
        <ele>197</ele>
        <time>2018-07-15T10:23:02Z</time>
      </trkpt>
      <trkpt lat="45.97188" lon="4.71693">
        <ele>197</ele>
        <time>2018-07-15T10:23:03Z</time>
      </trkpt>
      <trkpt lat="45.97182" lon="4.71691">
        <ele>197</ele>
        <time>2018-07-15T10:23:04Z</time>
      </trkpt>
      <trkpt lat="45.97175" lon="4.71689">
        <ele>197</ele>
        <time>2018-07-15T10:23:05Z</time>
      </trkpt>
      <trkpt lat="45.9717" lon="4.71687">
        <ele>197</ele>
        <time>2018-07-15T10:23:06Z</time>
      </trkpt>
      <trkpt lat="45.97164" lon="4.71687">
        <ele>196</ele>
        <time>2018-07-15T10:23:07Z</time>
      </trkpt>
      <trkpt lat="45.97158" lon="4.71687">
        <ele>196</ele>
        <time>2018-07-15T10:23:08Z</time>
      </trkpt>
      <trkpt lat="45.97152" lon="4.71686">
        <ele>196</ele>
        <time>2018-07-15T10:23:09Z</time>
      </trkpt>
      <trkpt lat="45.97147" lon="4.71685">
        <ele>195</ele>
        <time>2018-07-15T10:23:10Z</time>
      </trkpt>
      <trkpt lat="45.97141" lon="4.71684">
        <ele>195</ele>
        <time>2018-07-15T10:23:11Z</time>
      </trkpt>
      <trkpt lat="45.97135" lon="4.71683">
        <ele>195</ele>
        <time>2018-07-15T10:23:12Z</time>
      </trkpt>
      <trkpt lat="45.97128" lon="4.71684">
        <ele>195</ele>
        <time>2018-07-15T10:23:13Z</time>
      </trkpt>
      <trkpt lat="45.97122" lon="4.71683">
        <ele>195</ele>
        <time>2018-07-15T10:23:14Z</time>
      </trkpt>
      <trkpt lat="45.97115" lon="4.71683">
        <ele>195</ele>
        <time>2018-07-15T10:23:15Z</time>
      </trkpt>
      <trkpt lat="45.97109" lon="4.71683">
        <ele>194</ele>
        <time>2018-07-15T10:23:16Z</time>
      </trkpt>
      <trkpt lat="45.97103" lon="4.71684">
        <ele>194</ele>
        <time>2018-07-15T10:23:17Z</time>
      </trkpt>
      <trkpt lat="45.97096" lon="4.71683">
        <ele>194</ele>
        <time>2018-07-15T10:23:18Z</time>
      </trkpt>
      <trkpt lat="45.97089" lon="4.71682">
        <ele>194</ele>
        <time>2018-07-15T10:23:19Z</time>
      </trkpt>
      <trkpt lat="45.97083" lon="4.7168">
        <ele>194</ele>
        <time>2018-07-15T10:23:20Z</time>
      </trkpt>
      <trkpt lat="45.97077" lon="4.71679">
        <ele>194</ele>
        <time>2018-07-15T10:23:21Z</time>
      </trkpt>
      <trkpt lat="45.97071" lon="4.71678">
        <ele>194</ele>
        <time>2018-07-15T10:23:22Z</time>
      </trkpt>
      <trkpt lat="45.97064" lon="4.71676">
        <ele>193</ele>
        <time>2018-07-15T10:23:23Z</time>
      </trkpt>
      <trkpt lat="45.97056" lon="4.71676">
        <ele>193</ele>
        <time>2018-07-15T10:23:24Z</time>
      </trkpt>
      <trkpt lat="45.9705" lon="4.71674">
        <ele>193</ele>
        <time>2018-07-15T10:23:25Z</time>
      </trkpt>
      <trkpt lat="45.97044" lon="4.71673">
        <ele>193</ele>
        <time>2018-07-15T10:23:26Z</time>
      </trkpt>
      <trkpt lat="45.97038" lon="4.71672">
        <ele>193</ele>
        <time>2018-07-15T10:23:27Z</time>
      </trkpt>
      <trkpt lat="45.97032" lon="4.71671">
        <ele>193</ele>
        <time>2018-07-15T10:23:28Z</time>
      </trkpt>
      <trkpt lat="45.97025" lon="4.7167">
        <ele>193</ele>
        <time>2018-07-15T10:23:29Z</time>
      </trkpt>
      <trkpt lat="45.97019" lon="4.7167">
        <ele>193</ele>
        <time>2018-07-15T10:23:30Z</time>
      </trkpt>
      <trkpt lat="45.97012" lon="4.7167">
        <ele>193</ele>
        <time>2018-07-15T10:23:31Z</time>
      </trkpt>
      <trkpt lat="45.97004" lon="4.71671">
        <ele>194</ele>
        <time>2018-07-15T10:23:32Z</time>
      </trkpt>
      <trkpt lat="45.96997" lon="4.71673">
        <ele>193</ele>
        <time>2018-07-15T10:23:33Z</time>
      </trkpt>
      <trkpt lat="45.9699" lon="4.71673">
        <ele>193</ele>
        <time>2018-07-15T10:23:34Z</time>
      </trkpt>
      <trkpt lat="45.96983" lon="4.71674">
        <ele>192</ele>
        <time>2018-07-15T10:23:35Z</time>
      </trkpt>
      <trkpt lat="45.96978" lon="4.71673">
        <ele>192</ele>
        <time>2018-07-15T10:23:36Z</time>
      </trkpt>
      <trkpt lat="45.96969" lon="4.71675">
        <ele>192</ele>
        <time>2018-07-15T10:23:37Z</time>
      </trkpt>
      <trkpt lat="45.96964" lon="4.71676">
        <ele>192</ele>
        <time>2018-07-15T10:23:38Z</time>
      </trkpt>
      <trkpt lat="45.96957" lon="4.71676">
        <ele>192</ele>
        <time>2018-07-15T10:23:39Z</time>
      </trkpt>
      <trkpt lat="45.96951" lon="4.71676">
        <ele>192</ele>
        <time>2018-07-15T10:23:40Z</time>
      </trkpt>
      <trkpt lat="45.96944" lon="4.71676">
        <ele>192</ele>
        <time>2018-07-15T10:23:41Z</time>
      </trkpt>
      <trkpt lat="45.96941" lon="4.71672">
        <ele>192</ele>
        <time>2018-07-15T10:23:42Z</time>
      </trkpt>
      <trkpt lat="45.96934" lon="4.7167">
        <ele>193</ele>
        <time>2018-07-15T10:23:43Z</time>
      </trkpt>
      <trkpt lat="45.96927" lon="4.7167">
        <ele>193</ele>
        <time>2018-07-15T10:23:44Z</time>
      </trkpt>
      <trkpt lat="45.9692" lon="4.71667">
        <ele>194</ele>
        <time>2018-07-15T10:23:45Z</time>
      </trkpt>
      <trkpt lat="45.96913" lon="4.71665">
        <ele>195</ele>
        <time>2018-07-15T10:23:46Z</time>
      </trkpt>
      <trkpt lat="45.96907" lon="4.71665">
        <ele>195</ele>
        <time>2018-07-15T10:23:47Z</time>
      </trkpt>
      <trkpt lat="45.96901" lon="4.71664">
        <ele>195</ele>
        <time>2018-07-15T10:23:48Z</time>
      </trkpt>
      <trkpt lat="45.96895" lon="4.71664">
        <ele>195</ele>
        <time>2018-07-15T10:23:49Z</time>
      </trkpt>
      <trkpt lat="45.96887" lon="4.71663">
        <ele>195</ele>
        <time>2018-07-15T10:23:50Z</time>
      </trkpt>
      <trkpt lat="45.96881" lon="4.71663">
        <ele>195</ele>
        <time>2018-07-15T10:23:51Z</time>
      </trkpt>
      <trkpt lat="45.96874" lon="4.71663">
        <ele>195</ele>
        <time>2018-07-15T10:23:52Z</time>
      </trkpt>
      <trkpt lat="45.96868" lon="4.71662">
        <ele>195</ele>
        <time>2018-07-15T10:23:53Z</time>
      </trkpt>
      <trkpt lat="45.9686" lon="4.71662">
        <ele>194</ele>
        <time>2018-07-15T10:23:54Z</time>
      </trkpt>
      <trkpt lat="45.96853" lon="4.71659">
        <ele>194</ele>
        <time>2018-07-15T10:23:55Z</time>
      </trkpt>
      <trkpt lat="45.96848" lon="4.71658">
        <ele>194</ele>
        <time>2018-07-15T10:23:56Z</time>
      </trkpt>
      <trkpt lat="45.96841" lon="4.71656">
        <ele>194</ele>
        <time>2018-07-15T10:23:57Z</time>
      </trkpt>
      <trkpt lat="45.96834" lon="4.71655">
        <ele>193</ele>
        <time>2018-07-15T10:23:58Z</time>
      </trkpt>
      <trkpt lat="45.96828" lon="4.71655">
        <ele>193</ele>
        <time>2018-07-15T10:23:59Z</time>
      </trkpt>
      <trkpt lat="45.9682" lon="4.71655">
        <ele>193</ele>
        <time>2018-07-15T10:24:00Z</time>
      </trkpt>
      <trkpt lat="45.96814" lon="4.71654">
        <ele>193</ele>
        <time>2018-07-15T10:24:01Z</time>
      </trkpt>
      <trkpt lat="45.96807" lon="4.71655">
        <ele>193</ele>
        <time>2018-07-15T10:24:02Z</time>
      </trkpt>
      <trkpt lat="45.96801" lon="4.71653">
        <ele>193</ele>
        <time>2018-07-15T10:24:03Z</time>
      </trkpt>
      <trkpt lat="45.96797" lon="4.71652">
        <ele>193</ele>
        <time>2018-07-15T10:24:04Z</time>
      </trkpt>
      <trkpt lat="45.96791" lon="4.71652">
        <ele>192</ele>
        <time>2018-07-15T10:24:05Z</time>
      </trkpt>
      <trkpt lat="45.96785" lon="4.71651">
        <ele>192</ele>
        <time>2018-07-15T10:24:06Z</time>
      </trkpt>
      <trkpt lat="45.96779" lon="4.7165">
        <ele>192</ele>
        <time>2018-07-15T10:24:07Z</time>
      </trkpt>
      <trkpt lat="45.96774" lon="4.71649">
        <ele>192</ele>
        <time>2018-07-15T10:24:08Z</time>
      </trkpt>
      <trkpt lat="45.96768" lon="4.71648">
        <ele>192</ele>
        <time>2018-07-15T10:24:09Z</time>
      </trkpt>
      <trkpt lat="45.96763" lon="4.71648">
        <ele>192</ele>
        <time>2018-07-15T10:24:10Z</time>
      </trkpt>
      <trkpt lat="45.96757" lon="4.71647">
        <ele>191</ele>
        <time>2018-07-15T10:24:11Z</time>
      </trkpt>
      <trkpt lat="45.96751" lon="4.71647">
        <ele>191</ele>
        <time>2018-07-15T10:24:12Z</time>
      </trkpt>
      <trkpt lat="45.96744" lon="4.71646">
        <ele>190</ele>
        <time>2018-07-15T10:24:13Z</time>
      </trkpt>
      <trkpt lat="45.96737" lon="4.71646">
        <ele>190</ele>
        <time>2018-07-15T10:24:14Z</time>
      </trkpt>
      <trkpt lat="45.9673" lon="4.71645">
        <ele>190</ele>
        <time>2018-07-15T10:24:15Z</time>
      </trkpt>
      <trkpt lat="45.96722" lon="4.71643">
        <ele>190</ele>
        <time>2018-07-15T10:24:16Z</time>
      </trkpt>
      <trkpt lat="45.96715" lon="4.71643">
        <ele>190</ele>
        <time>2018-07-15T10:24:17Z</time>
      </trkpt>
      <trkpt lat="45.96707" lon="4.71642">
        <ele>190</ele>
        <time>2018-07-15T10:24:18Z</time>
      </trkpt>
      <trkpt lat="45.96701" lon="4.7164">
        <ele>190</ele>
        <time>2018-07-15T10:24:19Z</time>
      </trkpt>
      <trkpt lat="45.96694" lon="4.71639">
        <ele>190</ele>
        <time>2018-07-15T10:24:20Z</time>
      </trkpt>
      <trkpt lat="45.96688" lon="4.71638">
        <ele>190</ele>
        <time>2018-07-15T10:24:21Z</time>
      </trkpt>
      <trkpt lat="45.96683" lon="4.71638">
        <ele>190</ele>
        <time>2018-07-15T10:24:22Z</time>
      </trkpt>
      <trkpt lat="45.96676" lon="4.71637">
        <ele>190</ele>
        <time>2018-07-15T10:24:23Z</time>
      </trkpt>
      <trkpt lat="45.96671" lon="4.71636">
        <ele>190</ele>
        <time>2018-07-15T10:24:24Z</time>
      </trkpt>
      <trkpt lat="45.96664" lon="4.71636">
        <ele>188</ele>
        <time>2018-07-15T10:24:25Z</time>
      </trkpt>
      <trkpt lat="45.96658" lon="4.71634">
        <ele>188</ele>
        <time>2018-07-15T10:24:26Z</time>
      </trkpt>
      <trkpt lat="45.96651" lon="4.71633">
        <ele>188</ele>
        <time>2018-07-15T10:24:27Z</time>
      </trkpt>
      <trkpt lat="45.96644" lon="4.71631">
        <ele>188</ele>
        <time>2018-07-15T10:24:28Z</time>
      </trkpt>
      <trkpt lat="45.96638" lon="4.7163">
        <ele>188</ele>
        <time>2018-07-15T10:24:29Z</time>
      </trkpt>
      <trkpt lat="45.96631" lon="4.71628">
        <ele>188</ele>
        <time>2018-07-15T10:24:30Z</time>
      </trkpt>
      <trkpt lat="45.96624" lon="4.71625">
        <ele>188</ele>
        <time>2018-07-15T10:24:31Z</time>
      </trkpt>
      <trkpt lat="45.96617" lon="4.71623">
        <ele>188</ele>
        <time>2018-07-15T10:24:32Z</time>
      </trkpt>
      <trkpt lat="45.9661" lon="4.71625">
        <ele>187</ele>
        <time>2018-07-15T10:24:33Z</time>
      </trkpt>
      <trkpt lat="45.96604" lon="4.71624">
        <ele>187</ele>
        <time>2018-07-15T10:24:34Z</time>
      </trkpt>
      <trkpt lat="45.96599" lon="4.71623">
        <ele>187</ele>
        <time>2018-07-15T10:24:35Z</time>
      </trkpt>
      <trkpt lat="45.96591" lon="4.71623">
        <ele>187</ele>
        <time>2018-07-15T10:24:36Z</time>
      </trkpt>
      <trkpt lat="45.96585" lon="4.71621">
        <ele>187</ele>
        <time>2018-07-15T10:24:37Z</time>
      </trkpt>
      <trkpt lat="45.9658" lon="4.7162">
        <ele>185</ele>
        <time>2018-07-15T10:24:38Z</time>
      </trkpt>
      <trkpt lat="45.96575" lon="4.7162">
        <ele>185</ele>
        <time>2018-07-15T10:24:39Z</time>
      </trkpt>
      <trkpt lat="45.96569" lon="4.71619">
        <ele>185</ele>
        <time>2018-07-15T10:24:40Z</time>
      </trkpt>
      <trkpt lat="45.96562" lon="4.71617">
        <ele>185</ele>
        <time>2018-07-15T10:24:41Z</time>
      </trkpt>
      <trkpt lat="45.96555" lon="4.71615">
        <ele>185</ele>
        <time>2018-07-15T10:24:42Z</time>
      </trkpt>
      <trkpt lat="45.9655" lon="4.71612">
        <ele>185</ele>
        <time>2018-07-15T10:24:43Z</time>
      </trkpt>
      <trkpt lat="45.96545" lon="4.71606">
        <ele>185</ele>
        <time>2018-07-15T10:24:44Z</time>
      </trkpt>
      <trkpt lat="45.96539" lon="4.71599">
        <ele>185</ele>
        <time>2018-07-15T10:24:45Z</time>
      </trkpt>
      <trkpt lat="45.96533" lon="4.71593">
        <ele>185</ele>
        <time>2018-07-15T10:24:46Z</time>
      </trkpt>
      <trkpt lat="45.96527" lon="4.71591">
        <ele>185</ele>
        <time>2018-07-15T10:24:47Z</time>
      </trkpt>
      <trkpt lat="45.96521" lon="4.7159">
        <ele>185</ele>
        <time>2018-07-15T10:24:48Z</time>
      </trkpt>
      <trkpt lat="45.96513" lon="4.71586">
        <ele>185</ele>
        <time>2018-07-15T10:24:49Z</time>
      </trkpt>
      <trkpt lat="45.96506" lon="4.71586">
        <ele>185</ele>
        <time>2018-07-15T10:24:50Z</time>
      </trkpt>
      <trkpt lat="45.96501" lon="4.71587">
        <ele>185</ele>
        <time>2018-07-15T10:24:51Z</time>
      </trkpt>
      <trkpt lat="45.96494" lon="4.71587">
        <ele>184</ele>
        <time>2018-07-15T10:24:52Z</time>
      </trkpt>
      <trkpt lat="45.96488" lon="4.71584">
        <ele>184</ele>
        <time>2018-07-15T10:24:53Z</time>
      </trkpt>
      <trkpt lat="45.96481" lon="4.71587">
        <ele>184</ele>
        <time>2018-07-15T10:24:54Z</time>
      </trkpt>
      <trkpt lat="45.96475" lon="4.71586">
        <ele>184</ele>
        <time>2018-07-15T10:24:55Z</time>
      </trkpt>
      <trkpt lat="45.96466" lon="4.71587">
        <ele>183</ele>
        <time>2018-07-15T10:24:56Z</time>
      </trkpt>
      <trkpt lat="45.96461" lon="4.71587">
        <ele>183</ele>
        <time>2018-07-15T10:24:57Z</time>
      </trkpt>
      <trkpt lat="45.96454" lon="4.71587">
        <ele>183</ele>
        <time>2018-07-15T10:24:58Z</time>
      </trkpt>
      <trkpt lat="45.96448" lon="4.71589">
        <ele>183</ele>
        <time>2018-07-15T10:24:59Z</time>
      </trkpt>
      <trkpt lat="45.96441" lon="4.71587">
        <ele>184</ele>
        <time>2018-07-15T10:25:00Z</time>
      </trkpt>
      <trkpt lat="45.96435" lon="4.71585">
        <ele>184</ele>
        <time>2018-07-15T10:25:01Z</time>
      </trkpt>
      <trkpt lat="45.96429" lon="4.71585">
        <ele>184</ele>
        <time>2018-07-15T10:25:02Z</time>
      </trkpt>
      <trkpt lat="45.96423" lon="4.71584">
        <ele>184</ele>
        <time>2018-07-15T10:25:03Z</time>
      </trkpt>
      <trkpt lat="45.96416" lon="4.71583">
        <ele>185</ele>
        <time>2018-07-15T10:25:04Z</time>
      </trkpt>
      <trkpt lat="45.9641" lon="4.71583">
        <ele>184</ele>
        <time>2018-07-15T10:25:05Z</time>
      </trkpt>
      <trkpt lat="45.96403" lon="4.71582">
        <ele>186</ele>
        <time>2018-07-15T10:25:06Z</time>
      </trkpt>
      <trkpt lat="45.96396" lon="4.71584">
        <ele>183</ele>
        <time>2018-07-15T10:25:07Z</time>
      </trkpt>
      <trkpt lat="45.96389" lon="4.71583">
        <ele>183</ele>
        <time>2018-07-15T10:25:08Z</time>
      </trkpt>
      <trkpt lat="45.96382" lon="4.71583">
        <ele>186</ele>
        <time>2018-07-15T10:25:09Z</time>
      </trkpt>
      <trkpt lat="45.96377" lon="4.71583">
        <ele>186</ele>
        <time>2018-07-15T10:25:10Z</time>
      </trkpt>
      <trkpt lat="45.9637" lon="4.71583">
        <ele>186</ele>
        <time>2018-07-15T10:25:11Z</time>
      </trkpt>
      <trkpt lat="45.96363" lon="4.71582">
        <ele>185</ele>
        <time>2018-07-15T10:25:12Z</time>
      </trkpt>
      <trkpt lat="45.96357" lon="4.71581">
        <ele>185</ele>
        <time>2018-07-15T10:25:13Z</time>
      </trkpt>
      <trkpt lat="45.96351" lon="4.71579">
        <ele>185</ele>
        <time>2018-07-15T10:25:14Z</time>
      </trkpt>
      <trkpt lat="45.96344" lon="4.71578">
        <ele>184</ele>
        <time>2018-07-15T10:25:15Z</time>
      </trkpt>
      <trkpt lat="45.96337" lon="4.71577">
        <ele>184</ele>
        <time>2018-07-15T10:25:16Z</time>
      </trkpt>
      <trkpt lat="45.96329" lon="4.71577">
        <ele>184</ele>
        <time>2018-07-15T10:25:17Z</time>
      </trkpt>
      <trkpt lat="45.96324" lon="4.71577">
        <ele>184</ele>
        <time>2018-07-15T10:25:18Z</time>
      </trkpt>
      <trkpt lat="45.96318" lon="4.71574">
        <ele>184</ele>
        <time>2018-07-15T10:25:19Z</time>
      </trkpt>
      <trkpt lat="45.96311" lon="4.71573">
        <ele>184</ele>
        <time>2018-07-15T10:25:20Z</time>
      </trkpt>
      <trkpt lat="45.96305" lon="4.71572">
        <ele>184</ele>
        <time>2018-07-15T10:25:21Z</time>
      </trkpt>
      <trkpt lat="45.96298" lon="4.71571">
        <ele>184</ele>
        <time>2018-07-15T10:25:22Z</time>
      </trkpt>
      <trkpt lat="45.96292" lon="4.71569">
        <ele>184</ele>
        <time>2018-07-15T10:25:23Z</time>
      </trkpt>
      <trkpt lat="45.96286" lon="4.71569">
        <ele>184</ele>
        <time>2018-07-15T10:25:24Z</time>
      </trkpt>
      <trkpt lat="45.96278" lon="4.71568">
        <ele>184</ele>
        <time>2018-07-15T10:25:25Z</time>
      </trkpt>
      <trkpt lat="45.96272" lon="4.71568">
        <ele>184</ele>
        <time>2018-07-15T10:25:26Z</time>
      </trkpt>
      <trkpt lat="45.96266" lon="4.71567">
        <ele>184</ele>
        <time>2018-07-15T10:25:27Z</time>
      </trkpt>
      <trkpt lat="45.9626" lon="4.71566">
        <ele>183</ele>
        <time>2018-07-15T10:25:28Z</time>
      </trkpt>
      <trkpt lat="45.96254" lon="4.71566">
        <ele>183</ele>
        <time>2018-07-15T10:25:29Z</time>
      </trkpt>
      <trkpt lat="45.96248" lon="4.71566">
        <ele>183</ele>
        <time>2018-07-15T10:25:30Z</time>
      </trkpt>
      <trkpt lat="45.9624" lon="4.71567">
        <ele>183</ele>
        <time>2018-07-15T10:25:31Z</time>
      </trkpt>
      <trkpt lat="45.96234" lon="4.71566">
        <ele>183</ele>
        <time>2018-07-15T10:25:32Z</time>
      </trkpt>
      <trkpt lat="45.96228" lon="4.71564">
        <ele>183</ele>
        <time>2018-07-15T10:25:33Z</time>
      </trkpt>
      <trkpt lat="45.96222" lon="4.71562">
        <ele>183</ele>
        <time>2018-07-15T10:25:34Z</time>
      </trkpt>
      <trkpt lat="45.96217" lon="4.71561">
        <ele>183</ele>
        <time>2018-07-15T10:25:35Z</time>
      </trkpt>
      <trkpt lat="45.96211" lon="4.71561">
        <ele>183</ele>
        <time>2018-07-15T10:25:36Z</time>
      </trkpt>
      <trkpt lat="45.96205" lon="4.7156">
        <ele>183</ele>
        <time>2018-07-15T10:25:37Z</time>
      </trkpt>
      <trkpt lat="45.962" lon="4.71559">
        <ele>183</ele>
        <time>2018-07-15T10:25:38Z</time>
      </trkpt>
      <trkpt lat="45.96195" lon="4.71558">
        <ele>183</ele>
        <time>2018-07-15T10:25:39Z</time>
      </trkpt>
      <trkpt lat="45.9619" lon="4.71556">
        <ele>183</ele>
        <time>2018-07-15T10:25:40Z</time>
      </trkpt>
      <trkpt lat="45.96185" lon="4.71555">
        <ele>183</ele>
        <time>2018-07-15T10:25:41Z</time>
      </trkpt>
      <trkpt lat="45.96179" lon="4.71554">
        <ele>183</ele>
        <time>2018-07-15T10:25:42Z</time>
      </trkpt>
      <trkpt lat="45.96174" lon="4.71553">
        <ele>183</ele>
        <time>2018-07-15T10:25:43Z</time>
      </trkpt>
      <trkpt lat="45.96168" lon="4.71551">
        <ele>183</ele>
        <time>2018-07-15T10:25:44Z</time>
      </trkpt>
      <trkpt lat="45.96162" lon="4.71551">
        <ele>184</ele>
        <time>2018-07-15T10:25:45Z</time>
      </trkpt>
      <trkpt lat="45.96156" lon="4.7155">
        <ele>184</ele>
        <time>2018-07-15T10:25:46Z</time>
      </trkpt>
      <trkpt lat="45.96149" lon="4.71549">
        <ele>184</ele>
        <time>2018-07-15T10:25:47Z</time>
      </trkpt>
      <trkpt lat="45.96143" lon="4.71548">
        <ele>184</ele>
        <time>2018-07-15T10:25:48Z</time>
      </trkpt>
      <trkpt lat="45.96137" lon="4.71546">
        <ele>184</ele>
        <time>2018-07-15T10:25:49Z</time>
      </trkpt>
      <trkpt lat="45.9613" lon="4.71545">
        <ele>185</ele>
        <time>2018-07-15T10:25:50Z</time>
      </trkpt>
      <trkpt lat="45.96125" lon="4.71544">
        <ele>185</ele>
        <time>2018-07-15T10:25:51Z</time>
      </trkpt>
      <trkpt lat="45.96121" lon="4.71541">
        <ele>185</ele>
        <time>2018-07-15T10:25:52Z</time>
      </trkpt>
      <trkpt lat="45.96116" lon="4.7154">
        <ele>185</ele>
        <time>2018-07-15T10:25:53Z</time>
      </trkpt>
      <trkpt lat="45.9611" lon="4.71539">
        <ele>185</ele>
        <time>2018-07-15T10:25:54Z</time>
      </trkpt>
      <trkpt lat="45.96103" lon="4.71537">
        <ele>185</ele>
        <time>2018-07-15T10:25:55Z</time>
      </trkpt>
      <trkpt lat="45.96097" lon="4.71536">
        <ele>185</ele>
        <time>2018-07-15T10:25:56Z</time>
      </trkpt>
      <trkpt lat="45.9609" lon="4.71535">
        <ele>185</ele>
        <time>2018-07-15T10:25:57Z</time>
      </trkpt>
      <trkpt lat="45.96085" lon="4.71534">
        <ele>185</ele>
        <time>2018-07-15T10:25:58Z</time>
      </trkpt>
      <trkpt lat="45.96078" lon="4.71534">
        <ele>186</ele>
        <time>2018-07-15T10:25:59Z</time>
      </trkpt>
      <trkpt lat="45.96073" lon="4.71533">
        <ele>186</ele>
        <time>2018-07-15T10:26:00Z</time>
      </trkpt>
      <trkpt lat="45.96067" lon="4.71531">
        <ele>186</ele>
        <time>2018-07-15T10:26:01Z</time>
      </trkpt>
      <trkpt lat="45.96061" lon="4.7153">
        <ele>186</ele>
        <time>2018-07-15T10:26:02Z</time>
      </trkpt>
      <trkpt lat="45.96056" lon="4.71529">
        <ele>186</ele>
        <time>2018-07-15T10:26:03Z</time>
      </trkpt>
      <trkpt lat="45.96049" lon="4.71528">
        <ele>186</ele>
        <time>2018-07-15T10:26:04Z</time>
      </trkpt>
      <trkpt lat="45.96044" lon="4.71527">
        <ele>186</ele>
        <time>2018-07-15T10:26:05Z</time>
      </trkpt>
      <trkpt lat="45.96038" lon="4.71526">
        <ele>186</ele>
        <time>2018-07-15T10:26:06Z</time>
      </trkpt>
      <trkpt lat="45.96031" lon="4.71524">
        <ele>186</ele>
        <time>2018-07-15T10:26:07Z</time>
      </trkpt>
      <trkpt lat="45.96025" lon="4.71523">
        <ele>186</ele>
        <time>2018-07-15T10:26:08Z</time>
      </trkpt>
      <trkpt lat="45.9602" lon="4.71522">
        <ele>186</ele>
        <time>2018-07-15T10:26:09Z</time>
      </trkpt>
      <trkpt lat="45.96014" lon="4.71522">
        <ele>186</ele>
        <time>2018-07-15T10:26:10Z</time>
      </trkpt>
      <trkpt lat="45.9601" lon="4.71522">
        <ele>186</ele>
        <time>2018-07-15T10:26:11Z</time>
      </trkpt>
      <trkpt lat="45.96005" lon="4.71521">
        <ele>186</ele>
        <time>2018-07-15T10:26:12Z</time>
      </trkpt>
      <trkpt lat="45.96001" lon="4.71517">
        <ele>187</ele>
        <time>2018-07-15T10:26:13Z</time>
      </trkpt>
      <trkpt lat="45.95996" lon="4.71515">
        <ele>186</ele>
        <time>2018-07-15T10:26:14Z</time>
      </trkpt>
      <trkpt lat="45.9599" lon="4.71512">
        <ele>186</ele>
        <time>2018-07-15T10:26:15Z</time>
      </trkpt>
      <trkpt lat="45.95984" lon="4.7151">
        <ele>186</ele>
        <time>2018-07-15T10:26:16Z</time>
      </trkpt>
      <trkpt lat="45.95979" lon="4.71508">
        <ele>185</ele>
        <time>2018-07-15T10:26:17Z</time>
      </trkpt>
      <trkpt lat="45.95973" lon="4.7151">
        <ele>185</ele>
        <time>2018-07-15T10:26:18Z</time>
      </trkpt>
      <trkpt lat="45.95968" lon="4.71513">
        <ele>185</ele>
        <time>2018-07-15T10:26:19Z</time>
      </trkpt>
      <trkpt lat="45.95963" lon="4.71514">
        <ele>184</ele>
        <time>2018-07-15T10:26:20Z</time>
      </trkpt>
      <trkpt lat="45.95957" lon="4.71517">
        <ele>184</ele>
        <time>2018-07-15T10:26:21Z</time>
      </trkpt>
      <trkpt lat="45.95952" lon="4.7152">
        <ele>184</ele>
        <time>2018-07-15T10:26:22Z</time>
      </trkpt>
      <trkpt lat="45.95946" lon="4.7152">
        <ele>184</ele>
        <time>2018-07-15T10:26:23Z</time>
      </trkpt>
      <trkpt lat="45.95939" lon="4.7152">
        <ele>184</ele>
        <time>2018-07-15T10:26:24Z</time>
      </trkpt>
      <trkpt lat="45.95933" lon="4.71522">
        <ele>184</ele>
        <time>2018-07-15T10:26:25Z</time>
      </trkpt>
      <trkpt lat="45.95926" lon="4.71523">
        <ele>184</ele>
        <time>2018-07-15T10:26:26Z</time>
      </trkpt>
      <trkpt lat="45.95918" lon="4.71522">
        <ele>184</ele>
        <time>2018-07-15T10:26:27Z</time>
      </trkpt>
      <trkpt lat="45.95911" lon="4.71522">
        <ele>183</ele>
        <time>2018-07-15T10:26:28Z</time>
      </trkpt>
      <trkpt lat="45.95905" lon="4.7152">
        <ele>183</ele>
        <time>2018-07-15T10:26:29Z</time>
      </trkpt>
      <trkpt lat="45.95897" lon="4.7152">
        <ele>182</ele>
        <time>2018-07-15T10:26:30Z</time>
      </trkpt>
      <trkpt lat="45.95889" lon="4.71519">
        <ele>182</ele>
        <time>2018-07-15T10:26:31Z</time>
      </trkpt>
      <trkpt lat="45.95884" lon="4.71516">
        <ele>182</ele>
        <time>2018-07-15T10:26:32Z</time>
      </trkpt>
      <trkpt lat="45.95876" lon="4.71519">
        <ele>182</ele>
        <time>2018-07-15T10:26:33Z</time>
      </trkpt>
      <trkpt lat="45.95869" lon="4.7152">
        <ele>182</ele>
        <time>2018-07-15T10:26:34Z</time>
      </trkpt>
      <trkpt lat="45.95862" lon="4.71519">
        <ele>182</ele>
        <time>2018-07-15T10:26:35Z</time>
      </trkpt>
      <trkpt lat="45.95854" lon="4.7152">
        <ele>182</ele>
        <time>2018-07-15T10:26:36Z</time>
      </trkpt>
      <trkpt lat="45.95846" lon="4.7152">
        <ele>182</ele>
        <time>2018-07-15T10:26:37Z</time>
      </trkpt>
      <trkpt lat="45.9584" lon="4.71521">
        <ele>182</ele>
        <time>2018-07-15T10:26:38Z</time>
      </trkpt>
      <trkpt lat="45.95834" lon="4.71523">
        <ele>182</ele>
        <time>2018-07-15T10:26:39Z</time>
      </trkpt>
      <trkpt lat="45.95828" lon="4.71524">
        <ele>182</ele>
        <time>2018-07-15T10:26:40Z</time>
      </trkpt>
      <trkpt lat="45.95821" lon="4.71523">
        <ele>181</ele>
        <time>2018-07-15T10:26:41Z</time>
      </trkpt>
      <trkpt lat="45.95815" lon="4.71524">
        <ele>181</ele>
        <time>2018-07-15T10:26:42Z</time>
      </trkpt>
      <trkpt lat="45.95808" lon="4.71524">
        <ele>181</ele>
        <time>2018-07-15T10:26:43Z</time>
      </trkpt>
      <trkpt lat="45.95802" lon="4.71522">
        <ele>181</ele>
        <time>2018-07-15T10:26:44Z</time>
      </trkpt>
      <trkpt lat="45.95796" lon="4.71522">
        <ele>181</ele>
        <time>2018-07-15T10:26:45Z</time>
      </trkpt>
      <trkpt lat="45.9579" lon="4.71522">
        <ele>181</ele>
        <time>2018-07-15T10:26:46Z</time>
      </trkpt>
      <trkpt lat="45.95783" lon="4.71521">
        <ele>181</ele>
        <time>2018-07-15T10:26:47Z</time>
      </trkpt>
      <trkpt lat="45.95776" lon="4.71519">
        <ele>181</ele>
        <time>2018-07-15T10:26:48Z</time>
      </trkpt>
      <trkpt lat="45.95768" lon="4.71518">
        <ele>181</ele>
        <time>2018-07-15T10:26:49Z</time>
      </trkpt>
      <trkpt lat="45.9576" lon="4.71516">
        <ele>181</ele>
        <time>2018-07-15T10:26:50Z</time>
      </trkpt>
      <trkpt lat="45.95753" lon="4.71518">
        <ele>181</ele>
        <time>2018-07-15T10:26:51Z</time>
      </trkpt>
      <trkpt lat="45.95745" lon="4.71517">
        <ele>181</ele>
        <time>2018-07-15T10:26:52Z</time>
      </trkpt>
      <trkpt lat="45.95737" lon="4.71516">
        <ele>181</ele>
        <time>2018-07-15T10:26:53Z</time>
      </trkpt>
      <trkpt lat="45.95729" lon="4.71517">
        <ele>180</ele>
        <time>2018-07-15T10:26:54Z</time>
      </trkpt>
      <trkpt lat="45.95722" lon="4.71516">
        <ele>180</ele>
        <time>2018-07-15T10:26:55Z</time>
      </trkpt>
      <trkpt lat="45.95714" lon="4.71514">
        <ele>180</ele>
        <time>2018-07-15T10:26:56Z</time>
      </trkpt>
      <trkpt lat="45.95706" lon="4.71513">
        <ele>180</ele>
        <time>2018-07-15T10:26:57Z</time>
      </trkpt>
      <trkpt lat="45.95699" lon="4.71513">
        <ele>180</ele>
        <time>2018-07-15T10:26:58Z</time>
      </trkpt>
      <trkpt lat="45.95691" lon="4.71512">
        <ele>180</ele>
        <time>2018-07-15T10:26:59Z</time>
      </trkpt>
      <trkpt lat="45.95684" lon="4.71512">
        <ele>181</ele>
        <time>2018-07-15T10:27:00Z</time>
      </trkpt>
      <trkpt lat="45.95677" lon="4.71511">
        <ele>181</ele>
        <time>2018-07-15T10:27:01Z</time>
      </trkpt>
      <trkpt lat="45.95669" lon="4.7151">
        <ele>181</ele>
        <time>2018-07-15T10:27:02Z</time>
      </trkpt>
      <trkpt lat="45.95661" lon="4.71512">
        <ele>181</ele>
        <time>2018-07-15T10:27:03Z</time>
      </trkpt>
      <trkpt lat="45.95654" lon="4.71511">
        <ele>180</ele>
        <time>2018-07-15T10:27:04Z</time>
      </trkpt>
      <trkpt lat="45.95647" lon="4.7151">
        <ele>180</ele>
        <time>2018-07-15T10:27:05Z</time>
      </trkpt>
      <trkpt lat="45.95641" lon="4.71509">
        <ele>180</ele>
        <time>2018-07-15T10:27:06Z</time>
      </trkpt>
      <trkpt lat="45.95632" lon="4.71509">
        <ele>180</ele>
        <time>2018-07-15T10:27:07Z</time>
      </trkpt>
      <trkpt lat="45.95625" lon="4.71509">
        <ele>179</ele>
        <time>2018-07-15T10:27:08Z</time>
      </trkpt>
      <trkpt lat="45.95618" lon="4.71507">
        <ele>179</ele>
        <time>2018-07-15T10:27:09Z</time>
      </trkpt>
      <trkpt lat="45.95611" lon="4.71506">
        <ele>179</ele>
        <time>2018-07-15T10:27:10Z</time>
      </trkpt>
      <trkpt lat="45.95603" lon="4.71506">
        <ele>179</ele>
        <time>2018-07-15T10:27:11Z</time>
      </trkpt>
      <trkpt lat="45.95596" lon="4.71505">
        <ele>180</ele>
        <time>2018-07-15T10:27:12Z</time>
      </trkpt>
      <trkpt lat="45.95589" lon="4.71504">
        <ele>180</ele>
        <time>2018-07-15T10:27:13Z</time>
      </trkpt>
      <trkpt lat="45.95582" lon="4.71503">
        <ele>180</ele>
        <time>2018-07-15T10:27:14Z</time>
      </trkpt>
      <trkpt lat="45.95574" lon="4.71502">
        <ele>179</ele>
        <time>2018-07-15T10:27:15Z</time>
      </trkpt>
      <trkpt lat="45.95567" lon="4.71501">
        <ele>179</ele>
        <time>2018-07-15T10:27:16Z</time>
      </trkpt>
      <trkpt lat="45.95561" lon="4.715">
        <ele>179</ele>
        <time>2018-07-15T10:27:17Z</time>
      </trkpt>
      <trkpt lat="45.95553" lon="4.71501">
        <ele>178</ele>
        <time>2018-07-15T10:27:18Z</time>
      </trkpt>
      <trkpt lat="45.95545" lon="4.71501">
        <ele>178</ele>
        <time>2018-07-15T10:27:19Z</time>
      </trkpt>
      <trkpt lat="45.95538" lon="4.715">
        <ele>179</ele>
        <time>2018-07-15T10:27:20Z</time>
      </trkpt>
      <trkpt lat="45.95532" lon="4.71501">
        <ele>177</ele>
        <time>2018-07-15T10:27:21Z</time>
      </trkpt>
      <trkpt lat="45.95525" lon="4.71501">
        <ele>177</ele>
        <time>2018-07-15T10:27:22Z</time>
      </trkpt>
      <trkpt lat="45.95518" lon="4.71499">
        <ele>178</ele>
        <time>2018-07-15T10:27:23Z</time>
      </trkpt>
      <trkpt lat="45.95511" lon="4.71498">
        <ele>178</ele>
        <time>2018-07-15T10:27:24Z</time>
      </trkpt>
      <trkpt lat="45.95504" lon="4.71498">
        <ele>177</ele>
        <time>2018-07-15T10:27:25Z</time>
      </trkpt>
      <trkpt lat="45.95497" lon="4.71498">
        <ele>177</ele>
        <time>2018-07-15T10:27:26Z</time>
      </trkpt>
      <trkpt lat="45.95489" lon="4.71496">
        <ele>177</ele>
        <time>2018-07-15T10:27:27Z</time>
      </trkpt>
      <trkpt lat="45.95481" lon="4.71494">
        <ele>176</ele>
        <time>2018-07-15T10:27:28Z</time>
      </trkpt>
      <trkpt lat="45.95473" lon="4.71495">
        <ele>176</ele>
        <time>2018-07-15T10:27:29Z</time>
      </trkpt>
      <trkpt lat="45.95465" lon="4.71494">
        <ele>176</ele>
        <time>2018-07-15T10:27:30Z</time>
      </trkpt>
      <trkpt lat="45.95458" lon="4.71494">
        <ele>176</ele>
        <time>2018-07-15T10:27:31Z</time>
      </trkpt>
      <trkpt lat="45.9545" lon="4.71493">
        <ele>176</ele>
        <time>2018-07-15T10:27:32Z</time>
      </trkpt>
      <trkpt lat="45.9544" lon="4.71491">
        <ele>175</ele>
        <time>2018-07-15T10:27:33Z</time>
      </trkpt>
      <trkpt lat="45.95432" lon="4.71492">
        <ele>175</ele>
        <time>2018-07-15T10:27:34Z</time>
      </trkpt>
      <trkpt lat="45.95424" lon="4.71493">
        <ele>175</ele>
        <time>2018-07-15T10:27:35Z</time>
      </trkpt>
      <trkpt lat="45.95417" lon="4.71494">
        <ele>175</ele>
        <time>2018-07-15T10:27:36Z</time>
      </trkpt>
      <trkpt lat="45.95409" lon="4.71494">
        <ele>174</ele>
        <time>2018-07-15T10:27:37Z</time>
      </trkpt>
      <trkpt lat="45.95401" lon="4.71494">
        <ele>175</ele>
        <time>2018-07-15T10:27:38Z</time>
      </trkpt>
      <trkpt lat="45.95395" lon="4.71493">
        <ele>175</ele>
        <time>2018-07-15T10:27:39Z</time>
      </trkpt>
      <trkpt lat="45.95387" lon="4.71492">
        <ele>175</ele>
        <time>2018-07-15T10:27:40Z</time>
      </trkpt>
      <trkpt lat="45.9538" lon="4.7149">
        <ele>175</ele>
        <time>2018-07-15T10:27:41Z</time>
      </trkpt>
      <trkpt lat="45.95373" lon="4.71489">
        <ele>175</ele>
        <time>2018-07-15T10:27:42Z</time>
      </trkpt>
      <trkpt lat="45.95366" lon="4.71487">
        <ele>175</ele>
        <time>2018-07-15T10:27:43Z</time>
      </trkpt>
      <trkpt lat="45.95359" lon="4.71486">
        <ele>175</ele>
        <time>2018-07-15T10:27:44Z</time>
      </trkpt>
      <trkpt lat="45.95353" lon="4.71486">
        <ele>175</ele>
        <time>2018-07-15T10:27:45Z</time>
      </trkpt>
      <trkpt lat="45.95347" lon="4.71486">
        <ele>175</ele>
        <time>2018-07-15T10:27:46Z</time>
      </trkpt>
      <trkpt lat="45.9534" lon="4.71485">
        <ele>175</ele>
        <time>2018-07-15T10:27:47Z</time>
      </trkpt>
      <trkpt lat="45.95333" lon="4.71484">
        <ele>175</ele>
        <time>2018-07-15T10:27:48Z</time>
      </trkpt>
      <trkpt lat="45.95326" lon="4.71484">
        <ele>175</ele>
        <time>2018-07-15T10:27:49Z</time>
      </trkpt>
      <trkpt lat="45.95318" lon="4.71483">
        <ele>175</ele>
        <time>2018-07-15T10:27:50Z</time>
      </trkpt>
      <trkpt lat="45.95311" lon="4.71483">
        <ele>175</ele>
        <time>2018-07-15T10:27:51Z</time>
      </trkpt>
      <trkpt lat="45.95303" lon="4.71483">
        <ele>175</ele>
        <time>2018-07-15T10:27:52Z</time>
      </trkpt>
      <trkpt lat="45.95295" lon="4.71483">
        <ele>176</ele>
        <time>2018-07-15T10:27:53Z</time>
      </trkpt>
      <trkpt lat="45.95288" lon="4.71483">
        <ele>176</ele>
        <time>2018-07-15T10:27:54Z</time>
      </trkpt>
      <trkpt lat="45.95281" lon="4.71482">
        <ele>176</ele>
        <time>2018-07-15T10:27:55Z</time>
      </trkpt>
      <trkpt lat="45.95274" lon="4.71481">
        <ele>176</ele>
        <time>2018-07-15T10:27:56Z</time>
      </trkpt>
      <trkpt lat="45.95268" lon="4.7148">
        <ele>176</ele>
        <time>2018-07-15T10:27:57Z</time>
      </trkpt>
      <trkpt lat="45.95261" lon="4.71479">
        <ele>176</ele>
        <time>2018-07-15T10:27:58Z</time>
      </trkpt>
      <trkpt lat="45.95256" lon="4.71478">
        <ele>176</ele>
        <time>2018-07-15T10:27:59Z</time>
      </trkpt>
      <trkpt lat="45.9525" lon="4.71479">
        <ele>176</ele>
        <time>2018-07-15T10:28:00Z</time>
      </trkpt>
      <trkpt lat="45.95244" lon="4.71477">
        <ele>177</ele>
        <time>2018-07-15T10:28:01Z</time>
      </trkpt>
      <trkpt lat="45.95238" lon="4.71477">
        <ele>177</ele>
        <time>2018-07-15T10:28:02Z</time>
      </trkpt>
      <trkpt lat="45.95232" lon="4.71476">
        <ele>177</ele>
        <time>2018-07-15T10:28:03Z</time>
      </trkpt>
      <trkpt lat="45.95226" lon="4.71476">
        <ele>177</ele>
        <time>2018-07-15T10:28:04Z</time>
      </trkpt>
      <trkpt lat="45.95219" lon="4.71476">
        <ele>177</ele>
        <time>2018-07-15T10:28:05Z</time>
      </trkpt>
      <trkpt lat="45.95213" lon="4.71475">
        <ele>177</ele>
        <time>2018-07-15T10:28:06Z</time>
      </trkpt>
      <trkpt lat="45.95207" lon="4.71476">
        <ele>177</ele>
        <time>2018-07-15T10:28:07Z</time>
      </trkpt>
      <trkpt lat="45.95201" lon="4.71475">
        <ele>177</ele>
        <time>2018-07-15T10:28:08Z</time>
      </trkpt>
      <trkpt lat="45.95194" lon="4.71476">
        <ele>177</ele>
        <time>2018-07-15T10:28:09Z</time>
      </trkpt>
      <trkpt lat="45.95188" lon="4.71477">
        <ele>177</ele>
        <time>2018-07-15T10:28:10Z</time>
      </trkpt>
      <trkpt lat="45.95182" lon="4.71478">
        <ele>177</ele>
        <time>2018-07-15T10:28:11Z</time>
      </trkpt>
      <trkpt lat="45.95176" lon="4.71479">
        <ele>177</ele>
        <time>2018-07-15T10:28:12Z</time>
      </trkpt>
      <trkpt lat="45.95171" lon="4.71477">
        <ele>177</ele>
        <time>2018-07-15T10:28:13Z</time>
      </trkpt>
      <trkpt lat="45.95166" lon="4.71477">
        <ele>178</ele>
        <time>2018-07-15T10:28:14Z</time>
      </trkpt>
      <trkpt lat="45.95161" lon="4.71477">
        <ele>178</ele>
        <time>2018-07-15T10:28:15Z</time>
      </trkpt>
      <trkpt lat="45.95155" lon="4.71477">
        <ele>178</ele>
        <time>2018-07-15T10:28:16Z</time>
      </trkpt>
      <trkpt lat="45.95149" lon="4.71475">
        <ele>178</ele>
        <time>2018-07-15T10:28:17Z</time>
      </trkpt>
      <trkpt lat="45.95144" lon="4.71475">
        <ele>178</ele>
        <time>2018-07-15T10:28:18Z</time>
      </trkpt>
      <trkpt lat="45.95141" lon="4.71469">
        <ele>178</ele>
        <time>2018-07-15T10:28:19Z</time>
      </trkpt>
      <trkpt lat="45.95132" lon="4.71467">
        <ele>178</ele>
        <time>2018-07-15T10:28:21Z</time>
      </trkpt>
      <trkpt lat="45.95127" lon="4.71467">
        <ele>178</ele>
        <time>2018-07-15T10:28:22Z</time>
      </trkpt>
      <trkpt lat="45.9512" lon="4.71467">
        <ele>179</ele>
        <time>2018-07-15T10:28:23Z</time>
      </trkpt>
      <trkpt lat="45.95114" lon="4.71465">
        <ele>179</ele>
        <time>2018-07-15T10:28:24Z</time>
      </trkpt>
      <trkpt lat="45.9511" lon="4.71465">
        <ele>179</ele>
        <time>2018-07-15T10:28:25Z</time>
      </trkpt>
      <trkpt lat="45.95105" lon="4.71465">
        <ele>179</ele>
        <time>2018-07-15T10:28:26Z</time>
      </trkpt>
      <trkpt lat="45.951" lon="4.71465">
        <ele>179</ele>
        <time>2018-07-15T10:28:27Z</time>
      </trkpt>
      <trkpt lat="45.95095" lon="4.71466">
        <ele>179</ele>
        <time>2018-07-15T10:28:28Z</time>
      </trkpt>
      <trkpt lat="45.9509" lon="4.71465">
        <ele>179</ele>
        <time>2018-07-15T10:28:29Z</time>
      </trkpt>
      <trkpt lat="45.95085" lon="4.71465">
        <ele>179</ele>
        <time>2018-07-15T10:28:30Z</time>
      </trkpt>
      <trkpt lat="45.95079" lon="4.71465">
        <ele>181</ele>
        <time>2018-07-15T10:28:31Z</time>
      </trkpt>
      <trkpt lat="45.95075" lon="4.71465">
        <ele>181</ele>
        <time>2018-07-15T10:28:32Z</time>
      </trkpt>
      <trkpt lat="45.95071" lon="4.71464">
        <ele>181</ele>
        <time>2018-07-15T10:28:33Z</time>
      </trkpt>
      <trkpt lat="45.95065" lon="4.71463">
        <ele>181</ele>
        <time>2018-07-15T10:28:34Z</time>
      </trkpt>
      <trkpt lat="45.95059" lon="4.71464">
        <ele>181</ele>
        <time>2018-07-15T10:28:35Z</time>
      </trkpt>
      <trkpt lat="45.95055" lon="4.71464">
        <ele>181</ele>
        <time>2018-07-15T10:28:36Z</time>
      </trkpt>
      <trkpt lat="45.95047" lon="4.71464">
        <ele>182</ele>
        <time>2018-07-15T10:28:38Z</time>
      </trkpt>
      <trkpt lat="45.95043" lon="4.71464">
        <ele>182</ele>
        <time>2018-07-15T10:28:39Z</time>
      </trkpt>
      <trkpt lat="45.95036" lon="4.71461">
        <ele>182</ele>
        <time>2018-07-15T10:28:41Z</time>
      </trkpt>
      <trkpt lat="45.95029" lon="4.71461">
        <ele>182</ele>
        <time>2018-07-15T10:28:42Z</time>
      </trkpt>
      <trkpt lat="45.95021" lon="4.71459">
        <ele>182</ele>
        <time>2018-07-15T10:28:44Z</time>
      </trkpt>
      <trkpt lat="45.95019" lon="4.71459">
        <ele>182</ele>
        <time>2018-07-15T10:28:45Z</time>
      </trkpt>
      <trkpt lat="45.9501" lon="4.71457">
        <ele>182</ele>
        <time>2018-07-15T10:28:47Z</time>
      </trkpt>
      <trkpt lat="45.95009" lon="4.71457">
        <ele>182</ele>
        <time>2018-07-15T10:28:48Z</time>
      </trkpt>
      <trkpt lat="45.95" lon="4.71457">
        <ele>183</ele>
        <time>2018-07-15T10:28:50Z</time>
      </trkpt>
      <trkpt lat="45.94997" lon="4.71455">
        <ele>184</ele>
        <time>2018-07-15T10:28:51Z</time>
      </trkpt>
      <trkpt lat="45.9499" lon="4.71448">
        <ele>184</ele>
        <time>2018-07-15T10:28:53Z</time>
      </trkpt>
      <trkpt lat="45.94987" lon="4.71444">
        <ele>184</ele>
        <time>2018-07-15T10:28:54Z</time>
      </trkpt>
      <trkpt lat="45.9498" lon="4.71436">
        <ele>185</ele>
        <time>2018-07-15T10:28:56Z</time>
      </trkpt>
      <trkpt lat="45.94976" lon="4.71434">
        <ele>185</ele>
        <time>2018-07-15T10:28:57Z</time>
      </trkpt>
      <trkpt lat="45.94968" lon="4.71431">
        <ele>185</ele>
        <time>2018-07-15T10:28:59Z</time>
      </trkpt>
      <trkpt lat="45.94963" lon="4.71432">
        <ele>185</ele>
        <time>2018-07-15T10:29:00Z</time>
      </trkpt>
      <trkpt lat="45.9496" lon="4.71435">
        <ele>184</ele>
        <time>2018-07-15T10:29:01Z</time>
      </trkpt>
      <trkpt lat="45.94953" lon="4.71439">
        <ele>184</ele>
        <time>2018-07-15T10:29:02Z</time>
      </trkpt>
      <trkpt lat="45.94946" lon="4.71444">
        <ele>184</ele>
        <time>2018-07-15T10:29:04Z</time>
      </trkpt>
      <trkpt lat="45.94941" lon="4.7145">
        <ele>184</ele>
        <time>2018-07-15T10:29:05Z</time>
      </trkpt>
      <trkpt lat="45.94936" lon="4.71454">
        <ele>184</ele>
        <time>2018-07-15T10:29:06Z</time>
      </trkpt>
      <trkpt lat="45.94932" lon="4.71458">
        <ele>184</ele>
        <time>2018-07-15T10:29:07Z</time>
      </trkpt>
      <trkpt lat="45.94926" lon="4.71458">
        <ele>184</ele>
        <time>2018-07-15T10:29:08Z</time>
      </trkpt>
      <trkpt lat="45.94921" lon="4.71457">
        <ele>184</ele>
        <time>2018-07-15T10:29:09Z</time>
      </trkpt>
      <trkpt lat="45.94915" lon="4.71456">
        <ele>184</ele>
        <time>2018-07-15T10:29:10Z</time>
      </trkpt>
      <trkpt lat="45.9491" lon="4.71455">
        <ele>184</ele>
        <time>2018-07-15T10:29:11Z</time>
      </trkpt>
      <trkpt lat="45.94904" lon="4.71457">
        <ele>184</ele>
        <time>2018-07-15T10:29:12Z</time>
      </trkpt>
      <trkpt lat="45.94899" lon="4.71453">
        <ele>184</ele>
        <time>2018-07-15T10:29:13Z</time>
      </trkpt>
      <trkpt lat="45.94894" lon="4.71452">
        <ele>184</ele>
        <time>2018-07-15T10:29:14Z</time>
      </trkpt>
      <trkpt lat="45.94888" lon="4.71452">
        <ele>184</ele>
        <time>2018-07-15T10:29:15Z</time>
      </trkpt>
      <trkpt lat="45.94881" lon="4.71452">
        <ele>184</ele>
        <time>2018-07-15T10:29:16Z</time>
      </trkpt>
      <trkpt lat="45.94876" lon="4.71451">
        <ele>184</ele>
        <time>2018-07-15T10:29:17Z</time>
      </trkpt>
      <trkpt lat="45.9487" lon="4.71453">
        <ele>184</ele>
        <time>2018-07-15T10:29:18Z</time>
      </trkpt>
      <trkpt lat="45.94865" lon="4.71453">
        <ele>184</ele>
        <time>2018-07-15T10:29:19Z</time>
      </trkpt>
      <trkpt lat="45.94859" lon="4.71453">
        <ele>184</ele>
        <time>2018-07-15T10:29:20Z</time>
      </trkpt>
      <trkpt lat="45.94853" lon="4.7145">
        <ele>184</ele>
        <time>2018-07-15T10:29:21Z</time>
      </trkpt>
      <trkpt lat="45.94849" lon="4.71448">
        <ele>184</ele>
        <time>2018-07-15T10:29:22Z</time>
      </trkpt>
      <trkpt lat="45.94842" lon="4.7145">
        <ele>184</ele>
        <time>2018-07-15T10:29:23Z</time>
      </trkpt>
      <trkpt lat="45.94837" lon="4.71448">
        <ele>184</ele>
        <time>2018-07-15T10:29:24Z</time>
      </trkpt>
      <trkpt lat="45.94832" lon="4.71451">
        <ele>184</ele>
        <time>2018-07-15T10:29:25Z</time>
      </trkpt>
      <trkpt lat="45.94823" lon="4.71451">
        <ele>183</ele>
        <time>2018-07-15T10:29:27Z</time>
      </trkpt>
      <trkpt lat="45.94818" lon="4.71449">
        <ele>184</ele>
        <time>2018-07-15T10:29:28Z</time>
      </trkpt>
      <trkpt lat="45.94813" lon="4.71448">
        <ele>184</ele>
        <time>2018-07-15T10:29:29Z</time>
      </trkpt>
      <trkpt lat="45.94807" lon="4.71448">
        <ele>183</ele>
        <time>2018-07-15T10:29:30Z</time>
      </trkpt>
      <trkpt lat="45.94801" lon="4.71448">
        <ele>183</ele>
        <time>2018-07-15T10:29:31Z</time>
      </trkpt>
      <trkpt lat="45.94796" lon="4.71447">
        <ele>183</ele>
        <time>2018-07-15T10:29:32Z</time>
      </trkpt>
      <trkpt lat="45.94791" lon="4.71445">
        <ele>183</ele>
        <time>2018-07-15T10:29:33Z</time>
      </trkpt>
      <trkpt lat="45.94785" lon="4.71444">
        <ele>183</ele>
        <time>2018-07-15T10:29:34Z</time>
      </trkpt>
      <trkpt lat="45.9478" lon="4.71444">
        <ele>183</ele>
        <time>2018-07-15T10:29:35Z</time>
      </trkpt>
      <trkpt lat="45.94775" lon="4.71444">
        <ele>184</ele>
        <time>2018-07-15T10:29:36Z</time>
      </trkpt>
      <trkpt lat="45.9477" lon="4.71444">
        <ele>184</ele>
        <time>2018-07-15T10:29:37Z</time>
      </trkpt>
      <trkpt lat="45.94765" lon="4.71443">
        <ele>184</ele>
        <time>2018-07-15T10:29:38Z</time>
      </trkpt>
      <trkpt lat="45.94761" lon="4.71443">
        <ele>184</ele>
        <time>2018-07-15T10:29:39Z</time>
      </trkpt>
      <trkpt lat="45.94754" lon="4.71444">
        <ele>184</ele>
        <time>2018-07-15T10:29:40Z</time>
      </trkpt>
      <trkpt lat="45.94748" lon="4.71443">
        <ele>183</ele>
        <time>2018-07-15T10:29:41Z</time>
      </trkpt>
      <trkpt lat="45.94743" lon="4.71444">
        <ele>183</ele>
        <time>2018-07-15T10:29:42Z</time>
      </trkpt>
      <trkpt lat="45.94738" lon="4.71444">
        <ele>183</ele>
        <time>2018-07-15T10:29:43Z</time>
      </trkpt>
      <trkpt lat="45.94732" lon="4.71444">
        <ele>183</ele>
        <time>2018-07-15T10:29:44Z</time>
      </trkpt>
      <trkpt lat="45.94726" lon="4.71444">
        <ele>182</ele>
        <time>2018-07-15T10:29:45Z</time>
      </trkpt>
      <trkpt lat="45.94721" lon="4.71444">
        <ele>182</ele>
        <time>2018-07-15T10:29:46Z</time>
      </trkpt>
      <trkpt lat="45.94715" lon="4.71443">
        <ele>182</ele>
        <time>2018-07-15T10:29:47Z</time>
      </trkpt>
      <trkpt lat="45.94709" lon="4.71445">
        <ele>182</ele>
        <time>2018-07-15T10:29:48Z</time>
      </trkpt>
      <trkpt lat="45.94704" lon="4.71446">
        <ele>182</ele>
        <time>2018-07-15T10:29:49Z</time>
      </trkpt>
      <trkpt lat="45.94698" lon="4.71446">
        <ele>182</ele>
        <time>2018-07-15T10:29:50Z</time>
      </trkpt>
      <trkpt lat="45.94691" lon="4.71445">
        <ele>182</ele>
        <time>2018-07-15T10:29:51Z</time>
      </trkpt>
      <trkpt lat="45.94684" lon="4.71445">
        <ele>182</ele>
        <time>2018-07-15T10:29:52Z</time>
      </trkpt>
      <trkpt lat="45.94679" lon="4.71444">
        <ele>182</ele>
        <time>2018-07-15T10:29:53Z</time>
      </trkpt>
      <trkpt lat="45.94672" lon="4.71444">
        <ele>182</ele>
        <time>2018-07-15T10:29:54Z</time>
      </trkpt>
      <trkpt lat="45.94666" lon="4.71443">
        <ele>182</ele>
        <time>2018-07-15T10:29:55Z</time>
      </trkpt>
      <trkpt lat="45.9466" lon="4.71443">
        <ele>181</ele>
        <time>2018-07-15T10:29:56Z</time>
      </trkpt>
      <trkpt lat="45.94653" lon="4.71443">
        <ele>181</ele>
        <time>2018-07-15T10:29:57Z</time>
      </trkpt>
      <trkpt lat="45.94647" lon="4.71443">
        <ele>181</ele>
        <time>2018-07-15T10:29:58Z</time>
      </trkpt>
      <trkpt lat="45.94641" lon="4.7144">
        <ele>181</ele>
        <time>2018-07-15T10:29:59Z</time>
      </trkpt>
      <trkpt lat="45.94635" lon="4.7144">
        <ele>181</ele>
        <time>2018-07-15T10:30:00Z</time>
      </trkpt>
      <trkpt lat="45.94628" lon="4.71439">
        <ele>181</ele>
        <time>2018-07-15T10:30:01Z</time>
      </trkpt>
      <trkpt lat="45.94622" lon="4.71437">
        <ele>181</ele>
        <time>2018-07-15T10:30:02Z</time>
      </trkpt>
      <trkpt lat="45.94615" lon="4.71437">
        <ele>182</ele>
        <time>2018-07-15T10:30:03Z</time>
      </trkpt>
      <trkpt lat="45.94608" lon="4.71436">
        <ele>182</ele>
        <time>2018-07-15T10:30:04Z</time>
      </trkpt>
      <trkpt lat="45.94602" lon="4.71435">
        <ele>182</ele>
        <time>2018-07-15T10:30:05Z</time>
      </trkpt>
      <trkpt lat="45.94596" lon="4.71434">
        <ele>182</ele>
        <time>2018-07-15T10:30:06Z</time>
      </trkpt>
      <trkpt lat="45.9459" lon="4.71433">
        <ele>183</ele>
        <time>2018-07-15T10:30:07Z</time>
      </trkpt>
      <trkpt lat="45.94584" lon="4.71433">
        <ele>183</ele>
        <time>2018-07-15T10:30:08Z</time>
      </trkpt>
      <trkpt lat="45.94578" lon="4.71433">
        <ele>182</ele>
        <time>2018-07-15T10:30:09Z</time>
      </trkpt>
      <trkpt lat="45.94572" lon="4.71433">
        <ele>182</ele>
        <time>2018-07-15T10:30:10Z</time>
      </trkpt>
      <trkpt lat="45.94564" lon="4.71435">
        <ele>182</ele>
        <time>2018-07-15T10:30:11Z</time>
      </trkpt>
      <trkpt lat="45.94558" lon="4.71436">
        <ele>181</ele>
        <time>2018-07-15T10:30:12Z</time>
      </trkpt>
      <trkpt lat="45.94552" lon="4.71437">
        <ele>181</ele>
        <time>2018-07-15T10:30:13Z</time>
      </trkpt>
      <trkpt lat="45.94546" lon="4.71439">
        <ele>181</ele>
        <time>2018-07-15T10:30:14Z</time>
      </trkpt>
      <trkpt lat="45.9454" lon="4.7144">
        <ele>181</ele>
        <time>2018-07-15T10:30:15Z</time>
      </trkpt>
      <trkpt lat="45.94533" lon="4.71444">
        <ele>181</ele>
        <time>2018-07-15T10:30:16Z</time>
      </trkpt>
      <trkpt lat="45.94526" lon="4.71447">
        <ele>180</ele>
        <time>2018-07-15T10:30:17Z</time>
      </trkpt>
      <trkpt lat="45.94519" lon="4.7145">
        <ele>180</ele>
        <time>2018-07-15T10:30:18Z</time>
      </trkpt>
      <trkpt lat="45.94511" lon="4.71453">
        <ele>180</ele>
        <time>2018-07-15T10:30:19Z</time>
      </trkpt>
      <trkpt lat="45.94504" lon="4.71456">
        <ele>180</ele>
        <time>2018-07-15T10:30:20Z</time>
      </trkpt>
      <trkpt lat="45.94497" lon="4.71458">
        <ele>179</ele>
        <time>2018-07-15T10:30:21Z</time>
      </trkpt>
      <trkpt lat="45.94492" lon="4.7146">
        <ele>179</ele>
        <time>2018-07-15T10:30:22Z</time>
      </trkpt>
      <trkpt lat="45.94486" lon="4.71464">
        <ele>179</ele>
        <time>2018-07-15T10:30:23Z</time>
      </trkpt>
      <trkpt lat="45.94479" lon="4.71466">
        <ele>179</ele>
        <time>2018-07-15T10:30:24Z</time>
      </trkpt>
      <trkpt lat="45.94472" lon="4.71467">
        <ele>179</ele>
        <time>2018-07-15T10:30:25Z</time>
      </trkpt>
      <trkpt lat="45.94465" lon="4.71467">
        <ele>179</ele>
        <time>2018-07-15T10:30:26Z</time>
      </trkpt>
      <trkpt lat="45.94457" lon="4.71471">
        <ele>179</ele>
        <time>2018-07-15T10:30:27Z</time>
      </trkpt>
      <trkpt lat="45.94448" lon="4.71475">
        <ele>179</ele>
        <time>2018-07-15T10:30:28Z</time>
      </trkpt>
      <trkpt lat="45.9444" lon="4.71478">
        <ele>179</ele>
        <time>2018-07-15T10:30:29Z</time>
      </trkpt>
      <trkpt lat="45.94433" lon="4.71481">
        <ele>179</ele>
        <time>2018-07-15T10:30:30Z</time>
      </trkpt>
      <trkpt lat="45.94426" lon="4.71485">
        <ele>178</ele>
        <time>2018-07-15T10:30:31Z</time>
      </trkpt>
      <trkpt lat="45.9442" lon="4.71488">
        <ele>178</ele>
        <time>2018-07-15T10:30:32Z</time>
      </trkpt>
      <trkpt lat="45.94412" lon="4.71491">
        <ele>178</ele>
        <time>2018-07-15T10:30:33Z</time>
      </trkpt>
      <trkpt lat="45.94404" lon="4.71495">
        <ele>178</ele>
        <time>2018-07-15T10:30:34Z</time>
      </trkpt>
      <trkpt lat="45.94397" lon="4.71498">
        <ele>178</ele>
        <time>2018-07-15T10:30:35Z</time>
      </trkpt>
      <trkpt lat="45.9439" lon="4.71502">
        <ele>177</ele>
        <time>2018-07-15T10:30:36Z</time>
      </trkpt>
      <trkpt lat="45.94383" lon="4.71505">
        <ele>177</ele>
        <time>2018-07-15T10:30:37Z</time>
      </trkpt>
      <trkpt lat="45.94373" lon="4.71509">
        <ele>176</ele>
        <time>2018-07-15T10:30:38Z</time>
      </trkpt>
      <trkpt lat="45.94365" lon="4.7151">
        <ele>176</ele>
        <time>2018-07-15T10:30:39Z</time>
      </trkpt>
      <trkpt lat="45.94357" lon="4.71513">
        <ele>176</ele>
        <time>2018-07-15T10:30:40Z</time>
      </trkpt>
      <trkpt lat="45.94349" lon="4.71516">
        <ele>176</ele>
        <time>2018-07-15T10:30:41Z</time>
      </trkpt>
      <trkpt lat="45.94342" lon="4.71518">
        <ele>176</ele>
        <time>2018-07-15T10:30:42Z</time>
      </trkpt>
      <trkpt lat="45.94335" lon="4.7152">
        <ele>176</ele>
        <time>2018-07-15T10:30:43Z</time>
      </trkpt>
      <trkpt lat="45.94327" lon="4.71523">
        <ele>176</ele>
        <time>2018-07-15T10:30:44Z</time>
      </trkpt>
      <trkpt lat="45.9432" lon="4.71525">
        <ele>176</ele>
        <time>2018-07-15T10:30:45Z</time>
      </trkpt>
      <trkpt lat="45.94312" lon="4.71528">
        <ele>175</ele>
        <time>2018-07-15T10:30:46Z</time>
      </trkpt>
      <trkpt lat="45.94306" lon="4.7153">
        <ele>175</ele>
        <time>2018-07-15T10:30:47Z</time>
      </trkpt>
      <trkpt lat="45.94297" lon="4.71535">
        <ele>175</ele>
        <time>2018-07-15T10:30:48Z</time>
      </trkpt>
      <trkpt lat="45.9429" lon="4.71538">
        <ele>175</ele>
        <time>2018-07-15T10:30:49Z</time>
      </trkpt>
      <trkpt lat="45.94283" lon="4.71541">
        <ele>175</ele>
        <time>2018-07-15T10:30:50Z</time>
      </trkpt>
      <trkpt lat="45.94276" lon="4.71543">
        <ele>175</ele>
        <time>2018-07-15T10:30:51Z</time>
      </trkpt>
      <trkpt lat="45.94269" lon="4.71547">
        <ele>175</ele>
        <time>2018-07-15T10:30:52Z</time>
      </trkpt>
      <trkpt lat="45.94261" lon="4.71549">
        <ele>175</ele>
        <time>2018-07-15T10:30:53Z</time>
      </trkpt>
      <trkpt lat="45.94253" lon="4.71552">
        <ele>175</ele>
        <time>2018-07-15T10:30:54Z</time>
      </trkpt>
      <trkpt lat="45.94246" lon="4.71554">
        <ele>174</ele>
        <time>2018-07-15T10:30:55Z</time>
      </trkpt>
      <trkpt lat="45.9424" lon="4.71556">
        <ele>174</ele>
        <time>2018-07-15T10:30:56Z</time>
      </trkpt>
      <trkpt lat="45.94233" lon="4.71559">
        <ele>174</ele>
        <time>2018-07-15T10:30:57Z</time>
      </trkpt>
      <trkpt lat="45.94227" lon="4.71563">
        <ele>174</ele>
        <time>2018-07-15T10:30:58Z</time>
      </trkpt>
      <trkpt lat="45.94219" lon="4.71566">
        <ele>174</ele>
        <time>2018-07-15T10:30:59Z</time>
      </trkpt>
      <trkpt lat="45.94214" lon="4.71569">
        <ele>174</ele>
        <time>2018-07-15T10:31:00Z</time>
      </trkpt>
      <trkpt lat="45.94208" lon="4.71572">
        <ele>174</ele>
        <time>2018-07-15T10:31:01Z</time>
      </trkpt>
      <trkpt lat="45.94202" lon="4.71575">
        <ele>174</ele>
        <time>2018-07-15T10:31:02Z</time>
      </trkpt>
      <trkpt lat="45.94195" lon="4.71578">
        <ele>174</ele>
        <time>2018-07-15T10:31:03Z</time>
      </trkpt>
      <trkpt lat="45.94189" lon="4.71581">
        <ele>174</ele>
        <time>2018-07-15T10:31:04Z</time>
      </trkpt>
      <trkpt lat="45.94183" lon="4.71585">
        <ele>173</ele>
        <time>2018-07-15T10:31:05Z</time>
      </trkpt>
      <trkpt lat="45.94177" lon="4.71587">
        <ele>174</ele>
        <time>2018-07-15T10:31:06Z</time>
      </trkpt>
      <trkpt lat="45.94169" lon="4.71588">
        <ele>174</ele>
        <time>2018-07-15T10:31:07Z</time>
      </trkpt>
      <trkpt lat="45.94163" lon="4.71588">
        <ele>174</ele>
        <time>2018-07-15T10:31:08Z</time>
      </trkpt>
      <trkpt lat="45.94155" lon="4.71591">
        <ele>173</ele>
        <time>2018-07-15T10:31:09Z</time>
      </trkpt>
      <trkpt lat="45.94147" lon="4.71595">
        <ele>173</ele>
        <time>2018-07-15T10:31:10Z</time>
      </trkpt>
      <trkpt lat="45.9414" lon="4.71598">
        <ele>173</ele>
        <time>2018-07-15T10:31:11Z</time>
      </trkpt>
      <trkpt lat="45.94133" lon="4.716">
        <ele>173</ele>
        <time>2018-07-15T10:31:12Z</time>
      </trkpt>
      <trkpt lat="45.94126" lon="4.71604">
        <ele>173</ele>
        <time>2018-07-15T10:31:13Z</time>
      </trkpt>
      <trkpt lat="45.94119" lon="4.71607">
        <ele>173</ele>
        <time>2018-07-15T10:31:14Z</time>
      </trkpt>
      <trkpt lat="45.94112" lon="4.71609">
        <ele>173</ele>
        <time>2018-07-15T10:31:15Z</time>
      </trkpt>
      <trkpt lat="45.94106" lon="4.7161">
        <ele>173</ele>
        <time>2018-07-15T10:31:16Z</time>
      </trkpt>
      <trkpt lat="45.941" lon="4.71613">
        <ele>173</ele>
        <time>2018-07-15T10:31:17Z</time>
      </trkpt>
      <trkpt lat="45.94094" lon="4.71615">
        <ele>173</ele>
        <time>2018-07-15T10:31:18Z</time>
      </trkpt>
      <trkpt lat="45.94087" lon="4.71617">
        <ele>173</ele>
        <time>2018-07-15T10:31:19Z</time>
      </trkpt>
      <trkpt lat="45.94082" lon="4.71619">
        <ele>174</ele>
        <time>2018-07-15T10:31:20Z</time>
      </trkpt>
      <trkpt lat="45.94075" lon="4.71621">
        <ele>174</ele>
        <time>2018-07-15T10:31:21Z</time>
      </trkpt>
      <trkpt lat="45.9407" lon="4.71624">
        <ele>174</ele>
        <time>2018-07-15T10:31:22Z</time>
      </trkpt>
      <trkpt lat="45.94063" lon="4.71626">
        <ele>174</ele>
        <time>2018-07-15T10:31:23Z</time>
      </trkpt>
      <trkpt lat="45.94056" lon="4.71628">
        <ele>174</ele>
        <time>2018-07-15T10:31:24Z</time>
      </trkpt>
      <trkpt lat="45.94051" lon="4.71634">
        <ele>175</ele>
        <time>2018-07-15T10:31:25Z</time>
      </trkpt>
      <trkpt lat="45.94045" lon="4.71636">
        <ele>175</ele>
        <time>2018-07-15T10:31:26Z</time>
      </trkpt>
      <trkpt lat="45.94038" lon="4.71638">
        <ele>175</ele>
        <time>2018-07-15T10:31:27Z</time>
      </trkpt>
      <trkpt lat="45.94032" lon="4.71641">
        <ele>175</ele>
        <time>2018-07-15T10:31:28Z</time>
      </trkpt>
      <trkpt lat="45.94025" lon="4.71642">
        <ele>175</ele>
        <time>2018-07-15T10:31:29Z</time>
      </trkpt>
      <trkpt lat="45.94019" lon="4.71646">
        <ele>175</ele>
        <time>2018-07-15T10:31:30Z</time>
      </trkpt>
      <trkpt lat="45.94012" lon="4.71651">
        <ele>176</ele>
        <time>2018-07-15T10:31:31Z</time>
      </trkpt>
      <trkpt lat="45.94007" lon="4.71653">
        <ele>176</ele>
        <time>2018-07-15T10:31:32Z</time>
      </trkpt>
      <trkpt lat="45.94" lon="4.71657">
        <ele>176</ele>
        <time>2018-07-15T10:31:33Z</time>
      </trkpt>
      <trkpt lat="45.93994" lon="4.71658">
        <ele>177</ele>
        <time>2018-07-15T10:31:34Z</time>
      </trkpt>
      <trkpt lat="45.93988" lon="4.71661">
        <ele>177</ele>
        <time>2018-07-15T10:31:35Z</time>
      </trkpt>
      <trkpt lat="45.93981" lon="4.71662">
        <ele>177</ele>
        <time>2018-07-15T10:31:36Z</time>
      </trkpt>
      <trkpt lat="45.93974" lon="4.71664">
        <ele>177</ele>
        <time>2018-07-15T10:31:37Z</time>
      </trkpt>
      <trkpt lat="45.93966" lon="4.71666">
        <ele>177</ele>
        <time>2018-07-15T10:31:38Z</time>
      </trkpt>
      <trkpt lat="45.93959" lon="4.71668">
        <ele>175</ele>
        <time>2018-07-15T10:31:39Z</time>
      </trkpt>
      <trkpt lat="45.93953" lon="4.71672">
        <ele>175</ele>
        <time>2018-07-15T10:31:40Z</time>
      </trkpt>
      <trkpt lat="45.93946" lon="4.71671">
        <ele>175</ele>
        <time>2018-07-15T10:31:41Z</time>
      </trkpt>
      <trkpt lat="45.9394" lon="4.71674">
        <ele>175</ele>
        <time>2018-07-15T10:31:42Z</time>
      </trkpt>
      <trkpt lat="45.93933" lon="4.71677">
        <ele>175</ele>
        <time>2018-07-15T10:31:43Z</time>
      </trkpt>
      <trkpt lat="45.93928" lon="4.7168">
        <ele>175</ele>
        <time>2018-07-15T10:31:44Z</time>
      </trkpt>
      <trkpt lat="45.93922" lon="4.71683">
        <ele>175</ele>
        <time>2018-07-15T10:31:45Z</time>
      </trkpt>
      <trkpt lat="45.93917" lon="4.71688">
        <ele>175</ele>
        <time>2018-07-15T10:31:46Z</time>
      </trkpt>
      <trkpt lat="45.93911" lon="4.71689">
        <ele>174</ele>
        <time>2018-07-15T10:31:47Z</time>
      </trkpt>
      <trkpt lat="45.93905" lon="4.71693">
        <ele>174</ele>
        <time>2018-07-15T10:31:48Z</time>
      </trkpt>
      <trkpt lat="45.93899" lon="4.71695">
        <ele>174</ele>
        <time>2018-07-15T10:31:49Z</time>
      </trkpt>
      <trkpt lat="45.93894" lon="4.71697">
        <ele>174</ele>
        <time>2018-07-15T10:31:50Z</time>
      </trkpt>
      <trkpt lat="45.93887" lon="4.71699">
        <ele>174</ele>
        <time>2018-07-15T10:31:51Z</time>
      </trkpt>
      <trkpt lat="45.93881" lon="4.71701">
        <ele>174</ele>
        <time>2018-07-15T10:31:52Z</time>
      </trkpt>
      <trkpt lat="45.93876" lon="4.71703">
        <ele>174</ele>
        <time>2018-07-15T10:31:53Z</time>
      </trkpt>
      <trkpt lat="45.93869" lon="4.71705">
        <ele>174</ele>
        <time>2018-07-15T10:31:54Z</time>
      </trkpt>
      <trkpt lat="45.93863" lon="4.71707">
        <ele>174</ele>
        <time>2018-07-15T10:31:55Z</time>
      </trkpt>
      <trkpt lat="45.93857" lon="4.71706">
        <ele>174</ele>
        <time>2018-07-15T10:31:56Z</time>
      </trkpt>
      <trkpt lat="45.93851" lon="4.71707">
        <ele>174</ele>
        <time>2018-07-15T10:31:57Z</time>
      </trkpt>
      <trkpt lat="45.93844" lon="4.7171">
        <ele>174</ele>
        <time>2018-07-15T10:31:58Z</time>
      </trkpt>
      <trkpt lat="45.93838" lon="4.71714">
        <ele>175</ele>
        <time>2018-07-15T10:31:59Z</time>
      </trkpt>
      <trkpt lat="45.93831" lon="4.71717">
        <ele>175</ele>
        <time>2018-07-15T10:32:00Z</time>
      </trkpt>
      <trkpt lat="45.93823" lon="4.7172">
        <ele>175</ele>
        <time>2018-07-15T10:32:01Z</time>
      </trkpt>
      <trkpt lat="45.93815" lon="4.71722">
        <ele>175</ele>
        <time>2018-07-15T10:32:02Z</time>
      </trkpt>
      <trkpt lat="45.93808" lon="4.71725">
        <ele>175</ele>
        <time>2018-07-15T10:32:03Z</time>
      </trkpt>
      <trkpt lat="45.93804" lon="4.71726">
        <ele>175</ele>
        <time>2018-07-15T10:32:04Z</time>
      </trkpt>
      <trkpt lat="45.93798" lon="4.7173">
        <ele>175</ele>
        <time>2018-07-15T10:32:05Z</time>
      </trkpt>
      <trkpt lat="45.93792" lon="4.71732">
        <ele>175</ele>
        <time>2018-07-15T10:32:06Z</time>
      </trkpt>
      <trkpt lat="45.93786" lon="4.71734">
        <ele>175</ele>
        <time>2018-07-15T10:32:07Z</time>
      </trkpt>
      <trkpt lat="45.9378" lon="4.71736">
        <ele>175</ele>
        <time>2018-07-15T10:32:08Z</time>
      </trkpt>
      <trkpt lat="45.93775" lon="4.71738">
        <ele>175</ele>
        <time>2018-07-15T10:32:09Z</time>
      </trkpt>
      <trkpt lat="45.9377" lon="4.7174">
        <ele>175</ele>
        <time>2018-07-15T10:32:10Z</time>
      </trkpt>
      <trkpt lat="45.93765" lon="4.71743">
        <ele>175</ele>
        <time>2018-07-15T10:32:11Z</time>
      </trkpt>
      <trkpt lat="45.93759" lon="4.71745">
        <ele>175</ele>
        <time>2018-07-15T10:32:12Z</time>
      </trkpt>
      <trkpt lat="45.93755" lon="4.71747">
        <ele>175</ele>
        <time>2018-07-15T10:32:13Z</time>
      </trkpt>
      <trkpt lat="45.93749" lon="4.71749">
        <ele>175</ele>
        <time>2018-07-15T10:32:14Z</time>
      </trkpt>
      <trkpt lat="45.93744" lon="4.71751">
        <ele>175</ele>
        <time>2018-07-15T10:32:15Z</time>
      </trkpt>
      <trkpt lat="45.93739" lon="4.71753">
        <ele>176</ele>
        <time>2018-07-15T10:32:16Z</time>
      </trkpt>
      <trkpt lat="45.93731" lon="4.71755">
        <ele>176</ele>
        <time>2018-07-15T10:32:19Z</time>
      </trkpt>
      <trkpt lat="45.93728" lon="4.71756">
        <ele>176</ele>
        <time>2018-07-15T10:32:20Z</time>
      </trkpt>
      <trkpt lat="45.93721" lon="4.71762">
        <ele>176</ele>
        <time>2018-07-15T10:32:24Z</time>
      </trkpt>
      <trkpt lat="45.9372" lon="4.71763">
        <ele>176</ele>
        <time>2018-07-15T10:32:25Z</time>
      </trkpt>
      <trkpt lat="45.93714" lon="4.7177">
        <ele>176</ele>
        <time>2018-07-15T10:32:32Z</time>
      </trkpt>
      <trkpt lat="45.93713" lon="4.71772">
        <ele>176</ele>
        <time>2018-07-15T10:32:33Z</time>
      </trkpt>
      <trkpt lat="45.93709" lon="4.71781">
        <ele>176</ele>
        <time>2018-07-15T10:32:36Z</time>
      </trkpt>
      <trkpt lat="45.93704" lon="4.71793">
        <ele>176</ele>
        <time>2018-07-15T10:32:37Z</time>
      </trkpt>
      <trkpt lat="45.93701" lon="4.718">
        <ele>176</ele>
        <time>2018-07-15T10:32:39Z</time>
      </trkpt>
      <trkpt lat="45.93698" lon="4.71811">
        <ele>176</ele>
        <time>2018-07-15T10:32:40Z</time>
      </trkpt>
      <trkpt lat="45.93695" lon="4.71819">
        <ele>176</ele>
        <time>2018-07-15T10:32:41Z</time>
      </trkpt>
      <trkpt lat="45.93692" lon="4.71824">
        <ele>176</ele>
        <time>2018-07-15T10:32:42Z</time>
      </trkpt>
      <trkpt lat="45.93691" lon="4.71832">
        <ele>176</ele>
        <time>2018-07-15T10:32:43Z</time>
      </trkpt>
      <trkpt lat="45.93689" lon="4.71839">
        <ele>176</ele>
        <time>2018-07-15T10:32:44Z</time>
      </trkpt>
      <trkpt lat="45.93688" lon="4.71846">
        <ele>175</ele>
        <time>2018-07-15T10:32:46Z</time>
      </trkpt>
      <trkpt lat="45.93682" lon="4.71857">
        <ele>175</ele>
        <time>2018-07-15T10:32:47Z</time>
      </trkpt>
      <trkpt lat="45.93679" lon="4.71863">
        <ele>175</ele>
        <time>2018-07-15T10:32:48Z</time>
      </trkpt>
      <trkpt lat="45.93678" lon="4.71868">
        <ele>175</ele>
        <time>2018-07-15T10:32:49Z</time>
      </trkpt>
      <trkpt lat="45.93676" lon="4.71875">
        <ele>175</ele>
        <time>2018-07-15T10:32:50Z</time>
      </trkpt>
      <trkpt lat="45.93672" lon="4.71885">
        <ele>175</ele>
        <time>2018-07-15T10:32:51Z</time>
      </trkpt>
      <trkpt lat="45.93672" lon="4.71891">
        <ele>175</ele>
        <time>2018-07-15T10:32:52Z</time>
      </trkpt>
      <trkpt lat="45.93668" lon="4.719">
        <ele>175</ele>
        <time>2018-07-15T10:32:53Z</time>
      </trkpt>
      <trkpt lat="45.93664" lon="4.71908">
        <ele>176</ele>
        <time>2018-07-15T10:32:54Z</time>
      </trkpt>
      <trkpt lat="45.9366" lon="4.71914">
        <ele>176</ele>
        <time>2018-07-15T10:32:55Z</time>
      </trkpt>
      <trkpt lat="45.93657" lon="4.71921">
        <ele>175</ele>
        <time>2018-07-15T10:32:56Z</time>
      </trkpt>
      <trkpt lat="45.93656" lon="4.71929">
        <ele>175</ele>
        <time>2018-07-15T10:32:57Z</time>
      </trkpt>
      <trkpt lat="45.93653" lon="4.71936">
        <ele>175</ele>
        <time>2018-07-15T10:32:58Z</time>
      </trkpt>
      <trkpt lat="45.9365" lon="4.71943">
        <ele>175</ele>
        <time>2018-07-15T10:32:59Z</time>
      </trkpt>
      <trkpt lat="45.93647" lon="4.71951">
        <ele>175</ele>
        <time>2018-07-15T10:33:00Z</time>
      </trkpt>
      <trkpt lat="45.93644" lon="4.71958">
        <ele>175</ele>
        <time>2018-07-15T10:33:01Z</time>
      </trkpt>
      <trkpt lat="45.93641" lon="4.71966">
        <ele>175</ele>
        <time>2018-07-15T10:33:02Z</time>
      </trkpt>
      <trkpt lat="45.93638" lon="4.71975">
        <ele>175</ele>
        <time>2018-07-15T10:33:03Z</time>
      </trkpt>
      <trkpt lat="45.93637" lon="4.71984">
        <ele>175</ele>
        <time>2018-07-15T10:33:04Z</time>
      </trkpt>
      <trkpt lat="45.93633" lon="4.71992">
        <ele>175</ele>
        <time>2018-07-15T10:33:05Z</time>
      </trkpt>
      <trkpt lat="45.93631" lon="4.72">
        <ele>174</ele>
        <time>2018-07-15T10:33:06Z</time>
      </trkpt>
      <trkpt lat="45.93629" lon="4.72008">
        <ele>175</ele>
        <time>2018-07-15T10:33:07Z</time>
      </trkpt>
      <trkpt lat="45.93625" lon="4.72016">
        <ele>175</ele>
        <time>2018-07-15T10:33:08Z</time>
      </trkpt>
      <trkpt lat="45.93623" lon="4.72024">
        <ele>175</ele>
        <time>2018-07-15T10:33:09Z</time>
      </trkpt>
      <trkpt lat="45.93619" lon="4.7203">
        <ele>175</ele>
        <time>2018-07-15T10:33:10Z</time>
      </trkpt>
      <trkpt lat="45.93615" lon="4.72037">
        <ele>175</ele>
        <time>2018-07-15T10:33:11Z</time>
      </trkpt>
      <trkpt lat="45.93611" lon="4.72043">
        <ele>175</ele>
        <time>2018-07-15T10:33:12Z</time>
      </trkpt>
      <trkpt lat="45.93609" lon="4.72049">
        <ele>175</ele>
        <time>2018-07-15T10:33:13Z</time>
      </trkpt>
      <trkpt lat="45.93606" lon="4.72056">
        <ele>175</ele>
        <time>2018-07-15T10:33:14Z</time>
      </trkpt>
      <trkpt lat="45.93603" lon="4.72063">
        <ele>175</ele>
        <time>2018-07-15T10:33:15Z</time>
      </trkpt>
      <trkpt lat="45.936" lon="4.7207">
        <ele>175</ele>
        <time>2018-07-15T10:33:16Z</time>
      </trkpt>
      <trkpt lat="45.93597" lon="4.72076">
        <ele>175</ele>
        <time>2018-07-15T10:33:17Z</time>
      </trkpt>
      <trkpt lat="45.93596" lon="4.72085">
        <ele>175</ele>
        <time>2018-07-15T10:33:18Z</time>
      </trkpt>
      <trkpt lat="45.93594" lon="4.72092">
        <ele>175</ele>
        <time>2018-07-15T10:33:19Z</time>
      </trkpt>
      <trkpt lat="45.93591" lon="4.72096">
        <ele>175</ele>
        <time>2018-07-15T10:33:20Z</time>
      </trkpt>
      <trkpt lat="45.93589" lon="4.72104">
        <ele>174</ele>
        <time>2018-07-15T10:33:21Z</time>
      </trkpt>
      <trkpt lat="45.93588" lon="4.7211">
        <ele>174</ele>
        <time>2018-07-15T10:33:22Z</time>
      </trkpt>
      <trkpt lat="45.93586" lon="4.72117">
        <ele>174</ele>
        <time>2018-07-15T10:33:23Z</time>
      </trkpt>
      <trkpt lat="45.93577" lon="4.7212">
        <ele>175</ele>
        <time>2018-07-15T10:33:24Z</time>
      </trkpt>
      <trkpt lat="45.93576" lon="4.72127">
        <ele>174</ele>
        <time>2018-07-15T10:33:25Z</time>
      </trkpt>
      <trkpt lat="45.93574" lon="4.72134">
        <ele>174</ele>
        <time>2018-07-15T10:33:26Z</time>
      </trkpt>
      <trkpt lat="45.93572" lon="4.72142">
        <ele>174</ele>
        <time>2018-07-15T10:33:27Z</time>
      </trkpt>
      <trkpt lat="45.9357" lon="4.72149">
        <ele>174</ele>
        <time>2018-07-15T10:33:28Z</time>
      </trkpt>
      <trkpt lat="45.93569" lon="4.72157">
        <ele>174</ele>
        <time>2018-07-15T10:33:29Z</time>
      </trkpt>
      <trkpt lat="45.93565" lon="4.72163">
        <ele>174</ele>
        <time>2018-07-15T10:33:30Z</time>
      </trkpt>
      <trkpt lat="45.93563" lon="4.72171">
        <ele>173</ele>
        <time>2018-07-15T10:33:31Z</time>
      </trkpt>
      <trkpt lat="45.93561" lon="4.7218">
        <ele>173</ele>
        <time>2018-07-15T10:33:32Z</time>
      </trkpt>
      <trkpt lat="45.93558" lon="4.72187">
        <ele>173</ele>
        <time>2018-07-15T10:33:33Z</time>
      </trkpt>
      <trkpt lat="45.93556" lon="4.72193">
        <ele>173</ele>
        <time>2018-07-15T10:33:34Z</time>
      </trkpt>
      <trkpt lat="45.93551" lon="4.722">
        <ele>173</ele>
        <time>2018-07-15T10:33:35Z</time>
      </trkpt>
      <trkpt lat="45.93548" lon="4.72207">
        <ele>173</ele>
        <time>2018-07-15T10:33:36Z</time>
      </trkpt>
      <trkpt lat="45.93545" lon="4.72215">
        <ele>172</ele>
        <time>2018-07-15T10:33:37Z</time>
      </trkpt>
      <trkpt lat="45.93543" lon="4.72222">
        <ele>172</ele>
        <time>2018-07-15T10:33:38Z</time>
      </trkpt>
      <trkpt lat="45.9354" lon="4.72229">
        <ele>172</ele>
        <time>2018-07-15T10:33:39Z</time>
      </trkpt>
      <trkpt lat="45.93537" lon="4.72235">
        <ele>172</ele>
        <time>2018-07-15T10:33:40Z</time>
      </trkpt>
      <trkpt lat="45.93532" lon="4.72237">
        <ele>172</ele>
        <time>2018-07-15T10:33:41Z</time>
      </trkpt>
      <trkpt lat="45.9353" lon="4.72244">
        <ele>172</ele>
        <time>2018-07-15T10:33:42Z</time>
      </trkpt>
      <trkpt lat="45.93527" lon="4.72252">
        <ele>172</ele>
        <time>2018-07-15T10:33:43Z</time>
      </trkpt>
      <trkpt lat="45.93524" lon="4.7226">
        <ele>172</ele>
        <time>2018-07-15T10:33:44Z</time>
      </trkpt>
      <trkpt lat="45.93522" lon="4.72266">
        <ele>172</ele>
        <time>2018-07-15T10:33:45Z</time>
      </trkpt>
      <trkpt lat="45.9352" lon="4.72275">
        <ele>172</ele>
        <time>2018-07-15T10:33:46Z</time>
      </trkpt>
      <trkpt lat="45.93516" lon="4.72282">
        <ele>172</ele>
        <time>2018-07-15T10:33:47Z</time>
      </trkpt>
      <trkpt lat="45.93513" lon="4.72289">
        <ele>172</ele>
        <time>2018-07-15T10:33:48Z</time>
      </trkpt>
      <trkpt lat="45.9351" lon="4.72295">
        <ele>172</ele>
        <time>2018-07-15T10:33:49Z</time>
      </trkpt>
      <trkpt lat="45.93505" lon="4.72302">
        <ele>172</ele>
        <time>2018-07-15T10:33:50Z</time>
      </trkpt>
      <trkpt lat="45.93501" lon="4.72308">
        <ele>173</ele>
        <time>2018-07-15T10:33:51Z</time>
      </trkpt>
      <trkpt lat="45.93497" lon="4.72314">
        <ele>173</ele>
        <time>2018-07-15T10:33:52Z</time>
      </trkpt>
      <trkpt lat="45.93492" lon="4.72321">
        <ele>173</ele>
        <time>2018-07-15T10:33:53Z</time>
      </trkpt>
      <trkpt lat="45.93488" lon="4.72327">
        <ele>173</ele>
        <time>2018-07-15T10:33:54Z</time>
      </trkpt>
      <trkpt lat="45.93483" lon="4.72333">
        <ele>173</ele>
        <time>2018-07-15T10:33:55Z</time>
      </trkpt>
      <trkpt lat="45.93477" lon="4.7234">
        <ele>173</ele>
        <time>2018-07-15T10:33:56Z</time>
      </trkpt>
      <trkpt lat="45.93474" lon="4.72345">
        <ele>173</ele>
        <time>2018-07-15T10:33:57Z</time>
      </trkpt>
      <trkpt lat="45.93469" lon="4.72351">
        <ele>173</ele>
        <time>2018-07-15T10:33:58Z</time>
      </trkpt>
      <trkpt lat="45.93465" lon="4.72357">
        <ele>173</ele>
        <time>2018-07-15T10:33:59Z</time>
      </trkpt>
      <trkpt lat="45.9346" lon="4.72362">
        <ele>173</ele>
        <time>2018-07-15T10:34:00Z</time>
      </trkpt>
      <trkpt lat="45.93456" lon="4.72371">
        <ele>173</ele>
        <time>2018-07-15T10:34:01Z</time>
      </trkpt>
      <trkpt lat="45.93453" lon="4.72377">
        <ele>173</ele>
        <time>2018-07-15T10:34:02Z</time>
      </trkpt>
      <trkpt lat="45.93448" lon="4.72383">
        <ele>173</ele>
        <time>2018-07-15T10:34:03Z</time>
      </trkpt>
      <trkpt lat="45.93443" lon="4.72386">
        <ele>173</ele>
        <time>2018-07-15T10:34:04Z</time>
      </trkpt>
      <trkpt lat="45.93436" lon="4.72393">
        <ele>173</ele>
        <time>2018-07-15T10:34:05Z</time>
      </trkpt>
      <trkpt lat="45.93431" lon="4.724">
        <ele>174</ele>
        <time>2018-07-15T10:34:06Z</time>
      </trkpt>
      <trkpt lat="45.93426" lon="4.72402">
        <ele>174</ele>
        <time>2018-07-15T10:34:07Z</time>
      </trkpt>
      <trkpt lat="45.93418" lon="4.72404">
        <ele>174</ele>
        <time>2018-07-15T10:34:08Z</time>
      </trkpt>
      <trkpt lat="45.93414" lon="4.72405">
        <ele>174</ele>
        <time>2018-07-15T10:34:09Z</time>
      </trkpt>
      <trkpt lat="45.93409" lon="4.72408">
        <ele>174</ele>
        <time>2018-07-15T10:34:10Z</time>
      </trkpt>
      <trkpt lat="45.93403" lon="4.72408">
        <ele>174</ele>
        <time>2018-07-15T10:34:11Z</time>
      </trkpt>
      <trkpt lat="45.93398" lon="4.72411">
        <ele>174</ele>
        <time>2018-07-15T10:34:12Z</time>
      </trkpt>
      <trkpt lat="45.93393" lon="4.7241">
        <ele>174</ele>
        <time>2018-07-15T10:34:13Z</time>
      </trkpt>
      <trkpt lat="45.93388" lon="4.72411">
        <ele>174</ele>
        <time>2018-07-15T10:34:14Z</time>
      </trkpt>
      <trkpt lat="45.93383" lon="4.72421">
        <ele>173</ele>
        <time>2018-07-15T10:34:16Z</time>
      </trkpt>
      <trkpt lat="45.9338" lon="4.72427">
        <ele>173</ele>
        <time>2018-07-15T10:34:17Z</time>
      </trkpt>
      <trkpt lat="45.93383" lon="4.72433">
        <ele>173</ele>
        <time>2018-07-15T10:34:18Z</time>
      </trkpt>
      <trkpt lat="45.93386" lon="4.7244">
        <ele>173</ele>
        <time>2018-07-15T10:34:19Z</time>
      </trkpt>
      <trkpt lat="45.9339" lon="4.7245">
        <ele>173</ele>
        <time>2018-07-15T10:34:21Z</time>
      </trkpt>
      <trkpt lat="45.93388" lon="4.72457">
        <ele>173</ele>
        <time>2018-07-15T10:34:22Z</time>
      </trkpt>
      <trkpt lat="45.93387" lon="4.72464">
        <ele>173</ele>
        <time>2018-07-15T10:34:23Z</time>
      </trkpt>
      <trkpt lat="45.93381" lon="4.72471">
        <ele>173</ele>
        <time>2018-07-15T10:34:24Z</time>
      </trkpt>
      <trkpt lat="45.93376" lon="4.72476">
        <ele>173</ele>
        <time>2018-07-15T10:34:25Z</time>
      </trkpt>
      <trkpt lat="45.93371" lon="4.72483">
        <ele>173</ele>
        <time>2018-07-15T10:34:26Z</time>
      </trkpt>
      <trkpt lat="45.93366" lon="4.72489">
        <ele>173</ele>
        <time>2018-07-15T10:34:27Z</time>
      </trkpt>
      <trkpt lat="45.93361" lon="4.72494">
        <ele>173</ele>
        <time>2018-07-15T10:34:28Z</time>
      </trkpt>
      <trkpt lat="45.93357" lon="4.72499">
        <ele>173</ele>
        <time>2018-07-15T10:34:29Z</time>
      </trkpt>
      <trkpt lat="45.93351" lon="4.72505">
        <ele>172</ele>
        <time>2018-07-15T10:34:30Z</time>
      </trkpt>
      <trkpt lat="45.93346" lon="4.72511">
        <ele>172</ele>
        <time>2018-07-15T10:34:31Z</time>
      </trkpt>
      <trkpt lat="45.93341" lon="4.72516">
        <ele>172</ele>
        <time>2018-07-15T10:34:32Z</time>
      </trkpt>
      <trkpt lat="45.93335" lon="4.72522">
        <ele>172</ele>
        <time>2018-07-15T10:34:33Z</time>
      </trkpt>
      <trkpt lat="45.93331" lon="4.72527">
        <ele>172</ele>
        <time>2018-07-15T10:34:34Z</time>
      </trkpt>
      <trkpt lat="45.93327" lon="4.72532">
        <ele>172</ele>
        <time>2018-07-15T10:34:35Z</time>
      </trkpt>
      <trkpt lat="45.93323" lon="4.72538">
        <ele>172</ele>
        <time>2018-07-15T10:34:36Z</time>
      </trkpt>
      <trkpt lat="45.93317" lon="4.72544">
        <ele>172</ele>
        <time>2018-07-15T10:34:37Z</time>
      </trkpt>
      <trkpt lat="45.93313" lon="4.72548">
        <ele>172</ele>
        <time>2018-07-15T10:34:38Z</time>
      </trkpt>
      <trkpt lat="45.93308" lon="4.72554">
        <ele>172</ele>
        <time>2018-07-15T10:34:39Z</time>
      </trkpt>
      <trkpt lat="45.93304" lon="4.72559">
        <ele>172</ele>
        <time>2018-07-15T10:34:40Z</time>
      </trkpt>
      <trkpt lat="45.93299" lon="4.72564">
        <ele>172</ele>
        <time>2018-07-15T10:34:41Z</time>
      </trkpt>
      <trkpt lat="45.93294" lon="4.7257">
        <ele>172</ele>
        <time>2018-07-15T10:34:42Z</time>
      </trkpt>
      <trkpt lat="45.93289" lon="4.72575">
        <ele>172</ele>
        <time>2018-07-15T10:34:43Z</time>
      </trkpt>
      <trkpt lat="45.93285" lon="4.72582">
        <ele>171</ele>
        <time>2018-07-15T10:34:44Z</time>
      </trkpt>
      <trkpt lat="45.9328" lon="4.72588">
        <ele>170</ele>
        <time>2018-07-15T10:34:45Z</time>
      </trkpt>
      <trkpt lat="45.93275" lon="4.72594">
        <ele>170</ele>
        <time>2018-07-15T10:34:46Z</time>
      </trkpt>
      <trkpt lat="45.9327" lon="4.726">
        <ele>170</ele>
        <time>2018-07-15T10:34:47Z</time>
      </trkpt>
      <trkpt lat="45.93265" lon="4.72606">
        <ele>170</ele>
        <time>2018-07-15T10:34:48Z</time>
      </trkpt>
      <trkpt lat="45.9326" lon="4.72612">
        <ele>170</ele>
        <time>2018-07-15T10:34:49Z</time>
      </trkpt>
      <trkpt lat="45.93254" lon="4.72618">
        <ele>170</ele>
        <time>2018-07-15T10:34:50Z</time>
      </trkpt>
      <trkpt lat="45.93248" lon="4.72625">
        <ele>170</ele>
        <time>2018-07-15T10:34:51Z</time>
      </trkpt>
      <trkpt lat="45.93243" lon="4.72631">
        <ele>170</ele>
        <time>2018-07-15T10:34:52Z</time>
      </trkpt>
      <trkpt lat="45.93238" lon="4.72636">
        <ele>170</ele>
        <time>2018-07-15T10:34:53Z</time>
      </trkpt>
      <trkpt lat="45.93234" lon="4.72641">
        <ele>170</ele>
        <time>2018-07-15T10:34:54Z</time>
      </trkpt>
      <trkpt lat="45.93229" lon="4.72648">
        <ele>170</ele>
        <time>2018-07-15T10:34:55Z</time>
      </trkpt>
      <trkpt lat="45.93223" lon="4.72653">
        <ele>170</ele>
        <time>2018-07-15T10:34:56Z</time>
      </trkpt>
      <trkpt lat="45.93218" lon="4.7266">
        <ele>170</ele>
        <time>2018-07-15T10:34:57Z</time>
      </trkpt>
      <trkpt lat="45.93214" lon="4.72666">
        <ele>170</ele>
        <time>2018-07-15T10:34:58Z</time>
      </trkpt>
      <trkpt lat="45.9321" lon="4.72672">
        <ele>169</ele>
        <time>2018-07-15T10:34:59Z</time>
      </trkpt>
      <trkpt lat="45.93205" lon="4.72677">
        <ele>169</ele>
        <time>2018-07-15T10:35:00Z</time>
      </trkpt>
      <trkpt lat="45.932" lon="4.72683">
        <ele>169</ele>
        <time>2018-07-15T10:35:01Z</time>
      </trkpt>
      <trkpt lat="45.93195" lon="4.7269">
        <ele>169</ele>
        <time>2018-07-15T10:35:02Z</time>
      </trkpt>
      <trkpt lat="45.93189" lon="4.72696">
        <ele>169</ele>
        <time>2018-07-15T10:35:03Z</time>
      </trkpt>
      <trkpt lat="45.93184" lon="4.72702">
        <ele>169</ele>
        <time>2018-07-15T10:35:04Z</time>
      </trkpt>
      <trkpt lat="45.9318" lon="4.72708">
        <ele>169</ele>
        <time>2018-07-15T10:35:05Z</time>
      </trkpt>
      <trkpt lat="45.93175" lon="4.72714">
        <ele>170</ele>
        <time>2018-07-15T10:35:06Z</time>
      </trkpt>
      <trkpt lat="45.9317" lon="4.72719">
        <ele>170</ele>
        <time>2018-07-15T10:35:07Z</time>
      </trkpt>
      <trkpt lat="45.93165" lon="4.72724">
        <ele>170</ele>
        <time>2018-07-15T10:35:08Z</time>
      </trkpt>
      <trkpt lat="45.93161" lon="4.7273">
        <ele>170</ele>
        <time>2018-07-15T10:35:09Z</time>
      </trkpt>
      <trkpt lat="45.93156" lon="4.72735">
        <ele>170</ele>
        <time>2018-07-15T10:35:10Z</time>
      </trkpt>
      <trkpt lat="45.93151" lon="4.72741">
        <ele>170</ele>
        <time>2018-07-15T10:35:11Z</time>
      </trkpt>
      <trkpt lat="45.93145" lon="4.72748">
        <ele>170</ele>
        <time>2018-07-15T10:35:12Z</time>
      </trkpt>
      <trkpt lat="45.9314" lon="4.72754">
        <ele>171</ele>
        <time>2018-07-15T10:35:13Z</time>
      </trkpt>
      <trkpt lat="45.93135" lon="4.72763">
        <ele>171</ele>
        <time>2018-07-15T10:35:14Z</time>
      </trkpt>
      <trkpt lat="45.93132" lon="4.72769">
        <ele>171</ele>
        <time>2018-07-15T10:35:15Z</time>
      </trkpt>
      <trkpt lat="45.93126" lon="4.72776">
        <ele>171</ele>
        <time>2018-07-15T10:35:16Z</time>
      </trkpt>
      <trkpt lat="45.93121" lon="4.72782">
        <ele>171</ele>
        <time>2018-07-15T10:35:17Z</time>
      </trkpt>
      <trkpt lat="45.93115" lon="4.7279">
        <ele>171</ele>
        <time>2018-07-15T10:35:18Z</time>
      </trkpt>
      <trkpt lat="45.9311" lon="4.72797">
        <ele>171</ele>
        <time>2018-07-15T10:35:19Z</time>
      </trkpt>
      <trkpt lat="45.93104" lon="4.72803">
        <ele>171</ele>
        <time>2018-07-15T10:35:20Z</time>
      </trkpt>
      <trkpt lat="45.93099" lon="4.72808">
        <ele>172</ele>
        <time>2018-07-15T10:35:21Z</time>
      </trkpt>
      <trkpt lat="45.93094" lon="4.72813">
        <ele>172</ele>
        <time>2018-07-15T10:35:22Z</time>
      </trkpt>
      <trkpt lat="45.93089" lon="4.72818">
        <ele>172</ele>
        <time>2018-07-15T10:35:23Z</time>
      </trkpt>
      <trkpt lat="45.93084" lon="4.72823">
        <ele>172</ele>
        <time>2018-07-15T10:35:24Z</time>
      </trkpt>
      <trkpt lat="45.9308" lon="4.72829">
        <ele>173</ele>
        <time>2018-07-15T10:35:25Z</time>
      </trkpt>
      <trkpt lat="45.93041" lon="4.72875">
        <ele>172</ele>
        <time>2018-07-15T10:35:33Z</time>
      </trkpt>
      <trkpt lat="45.93035" lon="4.72883">
        <ele>172</ele>
        <time>2018-07-15T10:35:34Z</time>
      </trkpt>
      <trkpt lat="45.93032" lon="4.72888">
        <ele>172</ele>
        <time>2018-07-15T10:35:35Z</time>
      </trkpt>
      <trkpt lat="45.93028" lon="4.72892">
        <ele>172</ele>
        <time>2018-07-15T10:35:36Z</time>
      </trkpt>
      <trkpt lat="45.93023" lon="4.72899">
        <ele>172</ele>
        <time>2018-07-15T10:35:37Z</time>
      </trkpt>
      <trkpt lat="45.93018" lon="4.72903">
        <ele>172</ele>
        <time>2018-07-15T10:35:38Z</time>
      </trkpt>
      <trkpt lat="45.93015" lon="4.72909">
        <ele>171</ele>
        <time>2018-07-15T10:35:39Z</time>
      </trkpt>
      <trkpt lat="45.93011" lon="4.72913">
        <ele>171</ele>
        <time>2018-07-15T10:35:40Z</time>
      </trkpt>
      <trkpt lat="45.93006" lon="4.72918">
        <ele>171</ele>
        <time>2018-07-15T10:35:41Z</time>
      </trkpt>
      <trkpt lat="45.93001" lon="4.72922">
        <ele>171</ele>
        <time>2018-07-15T10:35:42Z</time>
      </trkpt>
      <trkpt lat="45.92996" lon="4.72926">
        <ele>171</ele>
        <time>2018-07-15T10:35:43Z</time>
      </trkpt>
      <trkpt lat="45.92991" lon="4.72931">
        <ele>171</ele>
        <time>2018-07-15T10:35:44Z</time>
      </trkpt>
      <trkpt lat="45.92987" lon="4.72936">
        <ele>171</ele>
        <time>2018-07-15T10:35:45Z</time>
      </trkpt>
      <trkpt lat="45.92984" lon="4.72941">
        <ele>171</ele>
        <time>2018-07-15T10:35:46Z</time>
      </trkpt>
      <trkpt lat="45.92979" lon="4.72948">
        <ele>171</ele>
        <time>2018-07-15T10:35:47Z</time>
      </trkpt>
      <trkpt lat="45.92973" lon="4.72951">
        <ele>171</ele>
        <time>2018-07-15T10:35:48Z</time>
      </trkpt>
      <trkpt lat="45.92969" lon="4.72957">
        <ele>171</ele>
        <time>2018-07-15T10:35:49Z</time>
      </trkpt>
      <trkpt lat="45.92965" lon="4.72962">
        <ele>171</ele>
        <time>2018-07-15T10:35:50Z</time>
      </trkpt>
      <trkpt lat="45.9296" lon="4.72967">
        <ele>171</ele>
        <time>2018-07-15T10:35:51Z</time>
      </trkpt>
      <trkpt lat="45.92956" lon="4.72972">
        <ele>171</ele>
        <time>2018-07-15T10:35:52Z</time>
      </trkpt>
      <trkpt lat="45.92952" lon="4.72979">
        <ele>171</ele>
        <time>2018-07-15T10:35:53Z</time>
      </trkpt>
      <trkpt lat="45.92946" lon="4.72983">
        <ele>171</ele>
        <time>2018-07-15T10:35:54Z</time>
      </trkpt>
      <trkpt lat="45.92942" lon="4.72988">
        <ele>171</ele>
        <time>2018-07-15T10:35:55Z</time>
      </trkpt>
      <trkpt lat="45.92939" lon="4.72992">
        <ele>171</ele>
        <time>2018-07-15T10:35:56Z</time>
      </trkpt>
      <trkpt lat="45.92934" lon="4.72996">
        <ele>172</ele>
        <time>2018-07-15T10:35:57Z</time>
      </trkpt>
      <trkpt lat="45.9293" lon="4.73001">
        <ele>172</ele>
        <time>2018-07-15T10:35:58Z</time>
      </trkpt>
      <trkpt lat="45.92926" lon="4.73006">
        <ele>172</ele>
        <time>2018-07-15T10:35:59Z</time>
      </trkpt>
      <trkpt lat="45.92922" lon="4.73013">
        <ele>172</ele>
        <time>2018-07-15T10:36:00Z</time>
      </trkpt>
      <trkpt lat="45.92918" lon="4.73018">
        <ele>172</ele>
        <time>2018-07-15T10:36:01Z</time>
      </trkpt>
      <trkpt lat="45.92913" lon="4.73023">
        <ele>172</ele>
        <time>2018-07-15T10:36:02Z</time>
      </trkpt>
      <trkpt lat="45.92909" lon="4.73027">
        <ele>172</ele>
        <time>2018-07-15T10:36:03Z</time>
      </trkpt>
      <trkpt lat="45.92904" lon="4.73036">
        <ele>172</ele>
        <time>2018-07-15T10:36:05Z</time>
      </trkpt>
      <trkpt lat="45.929" lon="4.73041">
        <ele>172</ele>
        <time>2018-07-15T10:36:06Z</time>
      </trkpt>
      <trkpt lat="45.92897" lon="4.73047">
        <ele>172</ele>
        <time>2018-07-15T10:36:07Z</time>
      </trkpt>
      <trkpt lat="45.92894" lon="4.73053">
        <ele>172</ele>
        <time>2018-07-15T10:36:08Z</time>
      </trkpt>
      <trkpt lat="45.9289" lon="4.73056">
        <ele>172</ele>
        <time>2018-07-15T10:36:09Z</time>
      </trkpt>
      <trkpt lat="45.92886" lon="4.73063">
        <ele>172</ele>
        <time>2018-07-15T10:36:10Z</time>
      </trkpt>
      <trkpt lat="45.92882" lon="4.7307">
        <ele>172</ele>
        <time>2018-07-15T10:36:11Z</time>
      </trkpt>
      <trkpt lat="45.92879" lon="4.73079">
        <ele>172</ele>
        <time>2018-07-15T10:36:12Z</time>
      </trkpt>
      <trkpt lat="45.92877" lon="4.73087">
        <ele>172</ele>
        <time>2018-07-15T10:36:13Z</time>
      </trkpt>
      <trkpt lat="45.92875" lon="4.73094">
        <ele>172</ele>
        <time>2018-07-15T10:36:14Z</time>
      </trkpt>
      <trkpt lat="45.92874" lon="4.73104">
        <ele>172</ele>
        <time>2018-07-15T10:36:15Z</time>
      </trkpt>
      <trkpt lat="45.92871" lon="4.73113">
        <ele>172</ele>
        <time>2018-07-15T10:36:16Z</time>
      </trkpt>
      <trkpt lat="45.92869" lon="4.73124">
        <ele>171</ele>
        <time>2018-07-15T10:36:17Z</time>
      </trkpt>
      <trkpt lat="45.92867" lon="4.73134">
        <ele>171</ele>
        <time>2018-07-15T10:36:18Z</time>
      </trkpt>
      <trkpt lat="45.92865" lon="4.73143">
        <ele>171</ele>
        <time>2018-07-15T10:36:19Z</time>
      </trkpt>
      <trkpt lat="45.92863" lon="4.73151">
        <ele>171</ele>
        <time>2018-07-15T10:36:20Z</time>
      </trkpt>
      <trkpt lat="45.92862" lon="4.73159">
        <ele>171</ele>
        <time>2018-07-15T10:36:21Z</time>
      </trkpt>
      <trkpt lat="45.92861" lon="4.73169">
        <ele>171</ele>
        <time>2018-07-15T10:36:22Z</time>
      </trkpt>
      <trkpt lat="45.92859" lon="4.73177">
        <ele>171</ele>
        <time>2018-07-15T10:36:23Z</time>
      </trkpt>
      <trkpt lat="45.92859" lon="4.73186">
        <ele>171</ele>
        <time>2018-07-15T10:36:24Z</time>
      </trkpt>
      <trkpt lat="45.92859" lon="4.73194">
        <ele>171</ele>
        <time>2018-07-15T10:36:25Z</time>
      </trkpt>
      <trkpt lat="45.92858" lon="4.73203">
        <ele>171</ele>
        <time>2018-07-15T10:36:26Z</time>
      </trkpt>
      <trkpt lat="45.92857" lon="4.73212">
        <ele>171</ele>
        <time>2018-07-15T10:36:27Z</time>
      </trkpt>
      <trkpt lat="45.92857" lon="4.73222">
        <ele>171</ele>
        <time>2018-07-15T10:36:28Z</time>
      </trkpt>
      <trkpt lat="45.92856" lon="4.7323">
        <ele>171</ele>
        <time>2018-07-15T10:36:29Z</time>
      </trkpt>
      <trkpt lat="45.92855" lon="4.73239">
        <ele>171</ele>
        <time>2018-07-15T10:36:30Z</time>
      </trkpt>
      <trkpt lat="45.92854" lon="4.73248">
        <ele>171</ele>
        <time>2018-07-15T10:36:31Z</time>
      </trkpt>
      <trkpt lat="45.92853" lon="4.73257">
        <ele>171</ele>
        <time>2018-07-15T10:36:32Z</time>
      </trkpt>
      <trkpt lat="45.9285" lon="4.73266">
        <ele>171</ele>
        <time>2018-07-15T10:36:33Z</time>
      </trkpt>
      <trkpt lat="45.92849" lon="4.73276">
        <ele>171</ele>
        <time>2018-07-15T10:36:34Z</time>
      </trkpt>
      <trkpt lat="45.92848" lon="4.73284">
        <ele>171</ele>
        <time>2018-07-15T10:36:35Z</time>
      </trkpt>
      <trkpt lat="45.92846" lon="4.73292">
        <ele>171</ele>
        <time>2018-07-15T10:36:36Z</time>
      </trkpt>
      <trkpt lat="45.92845" lon="4.73301">
        <ele>171</ele>
        <time>2018-07-15T10:36:37Z</time>
      </trkpt>
      <trkpt lat="45.92844" lon="4.7331">
        <ele>171</ele>
        <time>2018-07-15T10:36:38Z</time>
      </trkpt>
      <trkpt lat="45.92842" lon="4.73316">
        <ele>171</ele>
        <time>2018-07-15T10:36:39Z</time>
      </trkpt>
      <trkpt lat="45.92841" lon="4.73323">
        <ele>171</ele>
        <time>2018-07-15T10:36:40Z</time>
      </trkpt>
      <trkpt lat="45.9284" lon="4.73332">
        <ele>171</ele>
        <time>2018-07-15T10:36:41Z</time>
      </trkpt>
      <trkpt lat="45.9284" lon="4.7334">
        <ele>171</ele>
        <time>2018-07-15T10:36:42Z</time>
      </trkpt>
      <trkpt lat="45.92839" lon="4.73348">
        <ele>171</ele>
        <time>2018-07-15T10:36:43Z</time>
      </trkpt>
      <trkpt lat="45.92838" lon="4.73357">
        <ele>171</ele>
        <time>2018-07-15T10:36:44Z</time>
      </trkpt>
      <trkpt lat="45.92837" lon="4.73366">
        <ele>171</ele>
        <time>2018-07-15T10:36:45Z</time>
      </trkpt>
      <trkpt lat="45.92835" lon="4.73375">
        <ele>171</ele>
        <time>2018-07-15T10:36:46Z</time>
      </trkpt>
      <trkpt lat="45.92835" lon="4.73383">
        <ele>172</ele>
        <time>2018-07-15T10:36:47Z</time>
      </trkpt>
      <trkpt lat="45.92833" lon="4.73391">
        <ele>171</ele>
        <time>2018-07-15T10:36:48Z</time>
      </trkpt>
      <trkpt lat="45.92833" lon="4.73399">
        <ele>172</ele>
        <time>2018-07-15T10:36:49Z</time>
      </trkpt>
      <trkpt lat="45.92832" lon="4.73406">
        <ele>172</ele>
        <time>2018-07-15T10:36:50Z</time>
      </trkpt>
      <trkpt lat="45.9283" lon="4.73414">
        <ele>172</ele>
        <time>2018-07-15T10:36:51Z</time>
      </trkpt>
      <trkpt lat="45.92828" lon="4.73421">
        <ele>172</ele>
        <time>2018-07-15T10:36:52Z</time>
      </trkpt>
      <trkpt lat="45.92827" lon="4.73428">
        <ele>172</ele>
        <time>2018-07-15T10:36:53Z</time>
      </trkpt>
      <trkpt lat="45.92826" lon="4.73438">
        <ele>172</ele>
        <time>2018-07-15T10:36:54Z</time>
      </trkpt>
      <trkpt lat="45.92825" lon="4.73448">
        <ele>172</ele>
        <time>2018-07-15T10:36:55Z</time>
      </trkpt>
      <trkpt lat="45.92825" lon="4.73457">
        <ele>172</ele>
        <time>2018-07-15T10:36:56Z</time>
      </trkpt>
      <trkpt lat="45.92824" lon="4.73464">
        <ele>171</ele>
        <time>2018-07-15T10:36:57Z</time>
      </trkpt>
      <trkpt lat="45.92823" lon="4.73472">
        <ele>172</ele>
        <time>2018-07-15T10:36:58Z</time>
      </trkpt>
      <trkpt lat="45.92822" lon="4.73481">
        <ele>172</ele>
        <time>2018-07-15T10:36:59Z</time>
      </trkpt>
      <trkpt lat="45.92821" lon="4.7349">
        <ele>172</ele>
        <time>2018-07-15T10:37:00Z</time>
      </trkpt>
      <trkpt lat="45.9282" lon="4.73496">
        <ele>172</ele>
        <time>2018-07-15T10:37:01Z</time>
      </trkpt>
      <trkpt lat="45.92819" lon="4.73504">
        <ele>172</ele>
        <time>2018-07-15T10:37:02Z</time>
      </trkpt>
      <trkpt lat="45.92819" lon="4.73511">
        <ele>172</ele>
        <time>2018-07-15T10:37:03Z</time>
      </trkpt>
      <trkpt lat="45.92818" lon="4.73519">
        <ele>172</ele>
        <time>2018-07-15T10:37:04Z</time>
      </trkpt>
      <trkpt lat="45.92817" lon="4.73527">
        <ele>172</ele>
        <time>2018-07-15T10:37:05Z</time>
      </trkpt>
      <trkpt lat="45.92815" lon="4.73535">
        <ele>172</ele>
        <time>2018-07-15T10:37:06Z</time>
      </trkpt>
      <trkpt lat="45.92814" lon="4.73542">
        <ele>171</ele>
        <time>2018-07-15T10:37:07Z</time>
      </trkpt>
      <trkpt lat="45.92814" lon="4.7355">
        <ele>171</ele>
        <time>2018-07-15T10:37:08Z</time>
      </trkpt>
      <trkpt lat="45.92814" lon="4.73557">
        <ele>171</ele>
        <time>2018-07-15T10:37:09Z</time>
      </trkpt>
      <trkpt lat="45.92813" lon="4.73564">
        <ele>171</ele>
        <time>2018-07-15T10:37:10Z</time>
      </trkpt>
      <trkpt lat="45.92812" lon="4.73572">
        <ele>171</ele>
        <time>2018-07-15T10:37:11Z</time>
      </trkpt>
      <trkpt lat="45.92812" lon="4.7358">
        <ele>171</ele>
        <time>2018-07-15T10:37:12Z</time>
      </trkpt>
      <trkpt lat="45.92811" lon="4.73586">
        <ele>172</ele>
        <time>2018-07-15T10:37:13Z</time>
      </trkpt>
      <trkpt lat="45.92811" lon="4.73594">
        <ele>172</ele>
        <time>2018-07-15T10:37:14Z</time>
      </trkpt>
      <trkpt lat="45.92812" lon="4.73602">
        <ele>172</ele>
        <time>2018-07-15T10:37:15Z</time>
      </trkpt>
      <trkpt lat="45.92812" lon="4.7361">
        <ele>172</ele>
        <time>2018-07-15T10:37:16Z</time>
      </trkpt>
      <trkpt lat="45.92811" lon="4.73618">
        <ele>172</ele>
        <time>2018-07-15T10:37:17Z</time>
      </trkpt>
      <trkpt lat="45.92809" lon="4.73626">
        <ele>172</ele>
        <time>2018-07-15T10:37:18Z</time>
      </trkpt>
      <trkpt lat="45.92805" lon="4.7363">
        <ele>172</ele>
        <time>2018-07-15T10:37:19Z</time>
      </trkpt>
      <trkpt lat="45.92801" lon="4.73633">
        <ele>172</ele>
        <time>2018-07-15T10:37:20Z</time>
      </trkpt>
      <trkpt lat="45.92798" lon="4.7364">
        <ele>172</ele>
        <time>2018-07-15T10:37:21Z</time>
      </trkpt>
      <trkpt lat="45.92796" lon="4.73645">
        <ele>172</ele>
        <time>2018-07-15T10:37:22Z</time>
      </trkpt>
      <trkpt lat="45.92795" lon="4.73652">
        <ele>172</ele>
        <time>2018-07-15T10:37:23Z</time>
      </trkpt>
      <trkpt lat="45.92794" lon="4.73658">
        <ele>172</ele>
        <time>2018-07-15T10:37:24Z</time>
      </trkpt>
      <trkpt lat="45.92794" lon="4.73668">
        <ele>172</ele>
        <time>2018-07-15T10:37:25Z</time>
      </trkpt>
      <trkpt lat="45.9279" lon="4.73673">
        <ele>172</ele>
        <time>2018-07-15T10:37:26Z</time>
      </trkpt>
      <trkpt lat="45.92787" lon="4.73684">
        <ele>172</ele>
        <time>2018-07-15T10:37:28Z</time>
      </trkpt>
      <trkpt lat="45.92786" lon="4.7369">
        <ele>172</ele>
        <time>2018-07-15T10:37:29Z</time>
      </trkpt>
      <trkpt lat="45.92784" lon="4.73695">
        <ele>172</ele>
        <time>2018-07-15T10:37:30Z</time>
      </trkpt>
      <trkpt lat="45.92784" lon="4.73704">
        <ele>172</ele>
        <time>2018-07-15T10:37:31Z</time>
      </trkpt>
      <trkpt lat="45.92782" lon="4.73715">
        <ele>172</ele>
        <time>2018-07-15T10:37:33Z</time>
      </trkpt>
      <trkpt lat="45.9278" lon="4.73721">
        <ele>172</ele>
        <time>2018-07-15T10:37:34Z</time>
      </trkpt>
      <trkpt lat="45.92773" lon="4.73727">
        <ele>172</ele>
        <time>2018-07-15T10:37:36Z</time>
      </trkpt>
      <trkpt lat="45.92767" lon="4.73726">
        <ele>172</ele>
        <time>2018-07-15T10:37:37Z</time>
      </trkpt>
      <trkpt lat="45.9276" lon="4.73728">
        <ele>172</ele>
        <time>2018-07-15T10:37:39Z</time>
      </trkpt>
      <trkpt lat="45.92756" lon="4.73726">
        <ele>172</ele>
        <time>2018-07-15T10:37:40Z</time>
      </trkpt>
      <trkpt lat="45.92751" lon="4.73724">
        <ele>172</ele>
        <time>2018-07-15T10:37:41Z</time>
      </trkpt>
      <trkpt lat="45.92746" lon="4.73718">
        <ele>173</ele>
        <time>2018-07-15T10:37:42Z</time>
      </trkpt>
      <trkpt lat="45.9274" lon="4.73715">
        <ele>173</ele>
        <time>2018-07-15T10:37:43Z</time>
      </trkpt>
      <trkpt lat="45.92735" lon="4.73711">
        <ele>173</ele>
        <time>2018-07-15T10:37:44Z</time>
      </trkpt>
      <trkpt lat="45.92729" lon="4.7371">
        <ele>173</ele>
        <time>2018-07-15T10:37:45Z</time>
      </trkpt>
      <trkpt lat="45.92723" lon="4.73709">
        <ele>173</ele>
        <time>2018-07-15T10:37:46Z</time>
      </trkpt>
      <trkpt lat="45.92717" lon="4.73709">
        <ele>173</ele>
        <time>2018-07-15T10:37:47Z</time>
      </trkpt>
      <trkpt lat="45.92711" lon="4.73709">
        <ele>173</ele>
        <time>2018-07-15T10:37:48Z</time>
      </trkpt>
      <trkpt lat="45.92706" lon="4.73709">
        <ele>173</ele>
        <time>2018-07-15T10:37:49Z</time>
      </trkpt>
      <trkpt lat="45.927" lon="4.73706">
        <ele>173</ele>
        <time>2018-07-15T10:37:50Z</time>
      </trkpt>
      <trkpt lat="45.92694" lon="4.73708">
        <ele>173</ele>
        <time>2018-07-15T10:37:51Z</time>
      </trkpt>
      <trkpt lat="45.9269" lon="4.7371">
        <ele>173</ele>
        <time>2018-07-15T10:37:52Z</time>
      </trkpt>
      <trkpt lat="45.92685" lon="4.73709">
        <ele>173</ele>
        <time>2018-07-15T10:37:53Z</time>
      </trkpt>
      <trkpt lat="45.92681" lon="4.73707">
        <ele>173</ele>
        <time>2018-07-15T10:37:54Z</time>
      </trkpt>
      <trkpt lat="45.92676" lon="4.73705">
        <ele>173</ele>
        <time>2018-07-15T10:37:55Z</time>
      </trkpt>
      <trkpt lat="45.92671" lon="4.73705">
        <ele>174</ele>
        <time>2018-07-15T10:37:56Z</time>
      </trkpt>
      <trkpt lat="45.92668" lon="4.73705">
        <ele>174</ele>
        <time>2018-07-15T10:37:57Z</time>
      </trkpt>
      <trkpt lat="45.92663" lon="4.73701">
        <ele>173</ele>
        <time>2018-07-15T10:37:58Z</time>
      </trkpt>
      <trkpt lat="45.92658" lon="4.73697">
        <ele>173</ele>
        <time>2018-07-15T10:37:59Z</time>
      </trkpt>
      <trkpt lat="45.92653" lon="4.73693">
        <ele>173</ele>
        <time>2018-07-15T10:38:00Z</time>
      </trkpt>
      <trkpt lat="45.92648" lon="4.73688">
        <ele>173</ele>
        <time>2018-07-15T10:38:01Z</time>
      </trkpt>
      <trkpt lat="45.92644" lon="4.73683">
        <ele>173</ele>
        <time>2018-07-15T10:38:02Z</time>
      </trkpt>
      <trkpt lat="45.9264" lon="4.73676">
        <ele>173</ele>
        <time>2018-07-15T10:38:03Z</time>
      </trkpt>
      <trkpt lat="45.92637" lon="4.7367">
        <ele>173</ele>
        <time>2018-07-15T10:38:04Z</time>
      </trkpt>
      <trkpt lat="45.92633" lon="4.73664">
        <ele>173</ele>
        <time>2018-07-15T10:38:05Z</time>
      </trkpt>
      <trkpt lat="45.9263" lon="4.73657">
        <ele>173</ele>
        <time>2018-07-15T10:38:06Z</time>
      </trkpt>
      <trkpt lat="45.92628" lon="4.73651">
        <ele>173</ele>
        <time>2018-07-15T10:38:07Z</time>
      </trkpt>
      <trkpt lat="45.92626" lon="4.73645">
        <ele>173</ele>
        <time>2018-07-15T10:38:08Z</time>
      </trkpt>
      <trkpt lat="45.92624" lon="4.73637">
        <ele>173</ele>
        <time>2018-07-15T10:38:09Z</time>
      </trkpt>
      <trkpt lat="45.92621" lon="4.73633">
        <ele>173</ele>
        <time>2018-07-15T10:38:10Z</time>
      </trkpt>
      <trkpt lat="45.92614" lon="4.7363">
        <ele>173</ele>
        <time>2018-07-15T10:38:11Z</time>
      </trkpt>
      <trkpt lat="45.92609" lon="4.73626">
        <ele>173</ele>
        <time>2018-07-15T10:38:12Z</time>
      </trkpt>
      <trkpt lat="45.92603" lon="4.73623">
        <ele>173</ele>
        <time>2018-07-15T10:38:13Z</time>
      </trkpt>
      <trkpt lat="45.92598" lon="4.73622">
        <ele>173</ele>
        <time>2018-07-15T10:38:14Z</time>
      </trkpt>
      <trkpt lat="45.92592" lon="4.73621">
        <ele>173</ele>
        <time>2018-07-15T10:38:15Z</time>
      </trkpt>
      <trkpt lat="45.92586" lon="4.7362">
        <ele>173</ele>
        <time>2018-07-15T10:38:16Z</time>
      </trkpt>
      <trkpt lat="45.92581" lon="4.7362">
        <ele>173</ele>
        <time>2018-07-15T10:38:17Z</time>
      </trkpt>
      <trkpt lat="45.92577" lon="4.7362">
        <ele>173</ele>
        <time>2018-07-15T10:38:18Z</time>
      </trkpt>
      <trkpt lat="45.92572" lon="4.73622">
        <ele>173</ele>
        <time>2018-07-15T10:38:19Z</time>
      </trkpt>
      <trkpt lat="45.92566" lon="4.73624">
        <ele>173</ele>
        <time>2018-07-15T10:38:20Z</time>
      </trkpt>
      <trkpt lat="45.92562" lon="4.73625">
        <ele>173</ele>
        <time>2018-07-15T10:38:21Z</time>
      </trkpt>
      <trkpt lat="45.92557" lon="4.73627">
        <ele>173</ele>
        <time>2018-07-15T10:38:22Z</time>
      </trkpt>
      <trkpt lat="45.92552" lon="4.73629">
        <ele>173</ele>
        <time>2018-07-15T10:38:23Z</time>
      </trkpt>
      <trkpt lat="45.92548" lon="4.73629">
        <ele>173</ele>
        <time>2018-07-15T10:38:24Z</time>
      </trkpt>
      <trkpt lat="45.92543" lon="4.73632">
        <ele>173</ele>
        <time>2018-07-15T10:38:25Z</time>
      </trkpt>
      <trkpt lat="45.92538" lon="4.73634">
        <ele>173</ele>
        <time>2018-07-15T10:38:26Z</time>
      </trkpt>
      <trkpt lat="45.92533" lon="4.73635">
        <ele>173</ele>
        <time>2018-07-15T10:38:27Z</time>
      </trkpt>
      <trkpt lat="45.92527" lon="4.73635">
        <ele>173</ele>
        <time>2018-07-15T10:38:28Z</time>
      </trkpt>
      <trkpt lat="45.92522" lon="4.73635">
        <ele>173</ele>
        <time>2018-07-15T10:38:29Z</time>
      </trkpt>
      <trkpt lat="45.92516" lon="4.73637">
        <ele>173</ele>
        <time>2018-07-15T10:38:30Z</time>
      </trkpt>
      <trkpt lat="45.92507" lon="4.73639">
        <ele>174</ele>
        <time>2018-07-15T10:38:32Z</time>
      </trkpt>
      <trkpt lat="45.92502" lon="4.73638">
        <ele>174</ele>
        <time>2018-07-15T10:38:33Z</time>
      </trkpt>
      <trkpt lat="45.92498" lon="4.73637">
        <ele>174</ele>
        <time>2018-07-15T10:38:34Z</time>
      </trkpt>
      <trkpt lat="45.92493" lon="4.73635">
        <ele>174</ele>
        <time>2018-07-15T10:38:35Z</time>
      </trkpt>
      <trkpt lat="45.92487" lon="4.73637">
        <ele>174</ele>
        <time>2018-07-15T10:38:36Z</time>
      </trkpt>
      <trkpt lat="45.92482" lon="4.73638">
        <ele>174</ele>
        <time>2018-07-15T10:38:37Z</time>
      </trkpt>
      <trkpt lat="45.92474" lon="4.7364">
        <ele>174</ele>
        <time>2018-07-15T10:38:40Z</time>
      </trkpt>
      <trkpt lat="45.92472" lon="4.73641">
        <ele>174</ele>
        <time>2018-07-15T10:38:41Z</time>
      </trkpt>
      <trkpt lat="45.92468" lon="4.7365">
        <ele>174</ele>
        <time>2018-07-15T10:38:44Z</time>
      </trkpt>
      <trkpt lat="45.92467" lon="4.73654">
        <ele>174</ele>
        <time>2018-07-15T10:38:45Z</time>
      </trkpt>
      <trkpt lat="45.92466" lon="4.73667">
        <ele>174</ele>
        <time>2018-07-15T10:38:46Z</time>
      </trkpt>
      <trkpt lat="45.92465" lon="4.73678">
        <ele>174</ele>
        <time>2018-07-15T10:38:48Z</time>
      </trkpt>
      <trkpt lat="45.92464" lon="4.73684">
        <ele>174</ele>
        <time>2018-07-15T10:38:49Z</time>
      </trkpt>
      <trkpt lat="45.92463" lon="4.73695">
        <ele>174</ele>
        <time>2018-07-15T10:38:52Z</time>
      </trkpt>
      <trkpt lat="45.92463" lon="4.73698">
        <ele>174</ele>
        <time>2018-07-15T10:38:53Z</time>
      </trkpt>
      <trkpt lat="45.92464" lon="4.73711">
        <ele>174</ele>
        <time>2018-07-15T10:39:08Z</time>
      </trkpt>
      <trkpt lat="45.92464" lon="4.73711">
        <ele>174</ele>
        <time>2018-07-15T10:39:09Z</time>
      </trkpt>
      <trkpt lat="45.9246" lon="4.73711">
        <ele>174</ele>
        <time>2018-07-15T10:39:49Z</time>
      </trkpt>
      <trkpt lat="45.9246" lon="4.73711">
        <ele>174</ele>
        <time>2018-07-15T10:39:50Z</time>
      </trkpt>
      <trkpt lat="45.9246" lon="4.73711">
        <ele>174</ele>
        <time>2018-07-15T10:39:51Z</time>
      </trkpt>
      <trkpt lat="45.92456" lon="4.73713">
        <ele>174</ele>
        <time>2018-07-15T10:40:11Z</time>
      </trkpt>
      <trkpt lat="45.92456" lon="4.73713">
        <ele>174</ele>
        <time>2018-07-15T10:40:12Z</time>
      </trkpt>
      <trkpt lat="45.92456" lon="4.73713">
        <ele>174</ele>
        <time>2018-07-15T10:40:13Z</time>
      </trkpt>
      <trkpt lat="45.92453" lon="4.7371">
        <ele>174</ele>
        <time>2018-07-15T10:42:33Z</time>
      </trkpt>
      <trkpt lat="45.9245" lon="4.73701">
        <ele>174</ele>
        <time>2018-07-15T10:42:52.86Z</time>
      </trkpt>
      <trkpt lat="45.92448" lon="4.73691">
        <ele>174</ele>
        <time>2018-07-15T10:49:35.019Z</time>
      </trkpt>
    </trkseg>
  </trk>
</gpx>